<?xml version='1.0' encoding='UTF-8'?><gpx version="1.1" creator="JPX - https://github.com/jenetics/jpx" xmlns="http://www.topografix.com/GPX/1/1"><trk><trkseg><trkpt lat="36.79973515397062" lon="-108.12569793825972"><ele>1746.1999999999998</ele><time>2026-04-15T23:25:33.001Z</time></trkpt><trkpt lat="36.79969213129348" lon="-108.12577558211551"><ele>1746.3999999999999</ele><time>2026-04-15T23:28:24Z</time></trkpt><trkpt lat="36.79973864849696" lon="-108.125903460721"><ele>1746.6</ele><time>2026-04-15T23:28:26Z</time></trkpt><trkpt lat="36.79975861699613" lon="-108.12598954593322"><ele>1746.8</ele><time>2026-04-15T23:28:27Z</time></trkpt><trkpt lat="36.799758063212785" lon="-108.12608616474242"><ele>1747.0</ele><time>2026-04-15T23:28:28Z</time></trkpt><trkpt lat="36.79974599145748" lon="-108.12622804827343"><ele>1747.0000000000002</ele><time>2026-04-15T23:28:30Z</time></trkpt><trkpt lat="36.79972825794054" lon="-108.12631539248505"><ele>1747.0</ele><time>2026-04-15T23:28:32Z</time></trkpt><trkpt lat="36.79966717165632" lon="-108.12643605414112"><ele>1747.0</ele><time>2026-04-15T23:28:35Z</time></trkpt><trkpt lat="36.799600809662934" lon="-108.1264824648625"><ele>1747.0</ele><time>2026-04-15T23:28:36Z</time></trkpt><trkpt lat="36.79952046110922" lon="-108.12648642172333"><ele>1747.0000000000002</ele><time>2026-04-15T23:28:37Z</time></trkpt><trkpt lat="36.79943240332631" lon="-108.12646152002145"><ele>1747.0</ele><time>2026-04-15T23:28:38Z</time></trkpt><trkpt lat="36.799346386831395" lon="-108.12645950951612"><ele>1746.1666666666667</ele><time>2026-04-15T23:28:39Z</time></trkpt><trkpt lat="36.79926882453731" lon="-108.1264592332727"><ele>1745.3333333333335</ele><time>2026-04-15T23:28:40Z</time></trkpt><trkpt lat="36.799192043021414" lon="-108.12647156594784"><ele>1744.5</ele><time>2026-04-15T23:28:41Z</time></trkpt><trkpt lat="36.799100532391435" lon="-108.12647561314938"><ele>1743.6666666666665</ele><time>2026-04-15T23:28:42Z</time></trkpt><trkpt lat="36.79900137804608" lon="-108.12647596233123"><ele>1742.8333333333333</ele><time>2026-04-15T23:28:43Z</time></trkpt><trkpt lat="36.79890196786307" lon="-108.12647876472283"><ele>1742.0</ele><time>2026-04-15T23:28:44Z</time></trkpt><trkpt lat="36.79881940015588" lon="-108.12648490970521"><ele>1742.0</ele><time>2026-04-15T23:28:45Z</time></trkpt><trkpt lat="36.798728681028024" lon="-108.1264889707254"><ele>1741.9999999999998</ele><time>2026-04-15T23:28:46Z</time></trkpt><trkpt lat="36.79862795014471" lon="-108.12648491979247"><ele>1741.9999999999998</ele><time>2026-04-15T23:28:47Z</time></trkpt><trkpt lat="36.79853855271543" lon="-108.12648263472401"><ele>1742.0</ele><time>2026-04-15T23:28:48Z</time></trkpt><trkpt lat="36.798466797663835" lon="-108.12648579399976"><ele>1742.0</ele><time>2026-04-15T23:28:49Z</time></trkpt><trkpt lat="36.79834602057141" lon="-108.12648703850437"><ele>1741.8333333333333</ele><time>2026-04-15T23:28:51Z</time></trkpt><trkpt lat="36.798279607489405" lon="-108.12648480158268"><ele>1741.6666666666665</ele><time>2026-04-15T23:28:54Z</time></trkpt><trkpt lat="36.79824573237137" lon="-108.12659736137795"><ele>1741.5</ele><time>2026-04-15T23:30:29Z</time></trkpt><trkpt lat="36.79824113427798" lon="-108.12670578102596"><ele>1741.3333333333335</ele><time>2026-04-15T23:31:02Z</time></trkpt><trkpt lat="36.798232792885436" lon="-108.12679005882035"><ele>1741.1666666666667</ele><time>2026-04-15T23:31:03Z</time></trkpt><trkpt lat="36.79822471248859" lon="-108.12688651102843"><ele>1741.0</ele><time>2026-04-15T23:31:04Z</time></trkpt><trkpt lat="36.79822360445174" lon="-108.12699191505467"><ele>1742.4</ele><time>2026-04-15T23:31:05Z</time></trkpt><trkpt lat="36.79822574075712" lon="-108.12710392478188"><ele>1743.8</ele><time>2026-04-15T23:31:06Z</time></trkpt><trkpt lat="36.798232034214834" lon="-108.12722869597165"><ele>1745.2000000000003</ele><time>2026-04-15T23:31:07Z</time></trkpt><trkpt lat="36.79823257265992" lon="-108.12735186891808"><ele>1746.6000000000001</ele><time>2026-04-15T23:31:08Z</time></trkpt><trkpt lat="36.798229975378085" lon="-108.12745017942535"><ele>1748.0</ele><time>2026-04-15T23:31:10Z</time></trkpt><trkpt lat="36.7982458809278" lon="-108.12755554414768"><ele>1749.4999999999998</ele><time>2026-04-15T23:31:13Z</time></trkpt><trkpt lat="36.798262951338394" lon="-108.12763480649292"><ele>1751.0</ele><time>2026-04-15T23:31:15Z</time></trkpt><trkpt lat="36.79827181812127" lon="-108.12773023444565"><ele>1752.5</ele><time>2026-04-15T23:31:17Z</time></trkpt><trkpt lat="36.79828572631762" lon="-108.12783916723444"><ele>1754.0</ele><time>2026-04-15T23:31:20Z</time></trkpt><trkpt lat="36.798304797633044" lon="-108.12793338175626"><ele>1755.4999999999998</ele><time>2026-04-15T23:31:23Z</time></trkpt><trkpt lat="36.79830998456766" lon="-108.12804141116595"><ele>1757.0</ele><time>2026-04-15T23:31:27Z</time></trkpt><trkpt lat="36.79833545869861" lon="-108.12811913369241"><ele>1756.9999999999998</ele><time>2026-04-15T23:31:30Z</time></trkpt><trkpt lat="36.79836571182852" lon="-108.12820310410481"><ele>1757.0</ele><time>2026-04-15T23:31:32Z</time></trkpt><trkpt lat="36.79839983329671" lon="-108.12831746411838"><ele>1757.0</ele><time>2026-04-15T23:31:34Z</time></trkpt><trkpt lat="36.798440802002226" lon="-108.1284121564931"><ele>1757.0</ele><time>2026-04-15T23:31:36Z</time></trkpt><trkpt lat="36.79849050497683" lon="-108.12848968154361"><ele>1756.9999999999998</ele><time>2026-04-15T23:31:37Z</time></trkpt><trkpt lat="36.798549796411876" lon="-108.12858782305484"><ele>1757.0</ele><time>2026-04-15T23:31:38Z</time></trkpt><trkpt lat="36.79862374672565" lon="-108.12871177229754"><ele>1757.0</ele><time>2026-04-15T23:31:39Z</time></trkpt><trkpt lat="36.79870722112351" lon="-108.12885187392402"><ele>1757.0</ele><time>2026-04-15T23:31:40Z</time></trkpt><trkpt lat="36.798794524975634" lon="-108.12899657143713"><ele>1757.0</ele><time>2026-04-15T23:31:41Z</time></trkpt><trkpt lat="36.79889724487034" lon="-108.12913804587242"><ele>1757.0</ele><time>2026-04-15T23:31:42.001Z</time></trkpt><trkpt lat="36.799037835930996" lon="-108.12923312412188"><ele>1756.5</ele><time>2026-04-15T23:31:43.001Z</time></trkpt><trkpt lat="36.79916253744887" lon="-108.129338284561"><ele>1756.0</ele><time>2026-04-15T23:31:44.001Z</time></trkpt><trkpt lat="36.7992849441628" lon="-108.12941114283758"><ele>1755.5</ele><time>2026-04-15T23:31:45.001Z</time></trkpt><trkpt lat="36.79942296339184" lon="-108.12948498170081"><ele>1755.0</ele><time>2026-04-15T23:31:46.001Z</time></trkpt><trkpt lat="36.79957524206736" lon="-108.1295154959052"><ele>1755.0</ele><time>2026-04-15T23:31:47.001Z</time></trkpt><trkpt lat="36.79972927460631" lon="-108.12954650637812"><ele>1755.0</ele><time>2026-04-15T23:31:48.001Z</time></trkpt><trkpt lat="36.79988672724873" lon="-108.12959662463179"><ele>1755.0</ele><time>2026-04-15T23:31:49.001Z</time></trkpt><trkpt lat="36.80004934936428" lon="-108.12962849272202"><ele>1756.0</ele><time>2026-04-15T23:31:50.001Z</time></trkpt><trkpt lat="36.800213144489355" lon="-108.12967264937457"><ele>1757.0</ele><time>2026-04-15T23:31:51.001Z</time></trkpt><trkpt lat="36.800370194931595" lon="-108.12972308440632"><ele>1758.0</ele><time>2026-04-15T23:31:52.001Z</time></trkpt><trkpt lat="36.80050565037447" lon="-108.12977711461927"><ele>1758.0</ele><time>2026-04-15T23:31:53.001Z</time></trkpt><trkpt lat="36.800628445531814" lon="-108.12985479428272"><ele>1758.0</ele><time>2026-04-15T23:31:54.001Z</time></trkpt><trkpt lat="36.80075193073778" lon="-108.1299606421102"><ele>1758.0</ele><time>2026-04-15T23:31:55.001Z</time></trkpt><trkpt lat="36.80087352188073" lon="-108.13008734222757"><ele>1758.0</ele><time>2026-04-15T23:31:56.001Z</time></trkpt><trkpt lat="36.80098551537709" lon="-108.13022980103572"><ele>1759.0</ele><time>2026-04-15T23:31:57.001Z</time></trkpt><trkpt lat="36.801082633418034" lon="-108.13038949423355"><ele>1760.0</ele><time>2026-04-15T23:31:58.001Z</time></trkpt><trkpt lat="36.80115261968285" lon="-108.13054343950354"><ele>1761.0</ele><time>2026-04-15T23:31:59.001Z</time></trkpt><trkpt lat="36.801204544590995" lon="-108.13069317657639"><ele>1762.0</ele><time>2026-04-15T23:32:00.001Z</time></trkpt><trkpt lat="36.80124544372193" lon="-108.13085197703222"><ele>1762.5</ele><time>2026-04-15T23:32:01.001Z</time></trkpt><trkpt lat="36.8012784071579" lon="-108.13103374890535"><ele>1763.0</ele><time>2026-04-15T23:32:02.001Z</time></trkpt><trkpt lat="36.801291905588826" lon="-108.13120477675575"><ele>1763.5</ele><time>2026-04-15T23:32:03.001Z</time></trkpt><trkpt lat="36.80129130381173" lon="-108.13138635084513"><ele>1764.0</ele><time>2026-04-15T23:32:04.001Z</time></trkpt><trkpt lat="36.80129487968147" lon="-108.13158185809465"><ele>1765.0</ele><time>2026-04-15T23:32:05.001Z</time></trkpt><trkpt lat="36.80131383248308" lon="-108.1317954732324"><ele>1766.0</ele><time>2026-04-15T23:32:06.001Z</time></trkpt><trkpt lat="36.80134006958143" lon="-108.13201285577068"><ele>1767.0</ele><time>2026-04-15T23:32:07.001Z</time></trkpt><trkpt lat="36.80137014307783" lon="-108.1322263663508"><ele>1768.0</ele><time>2026-04-15T23:32:08.001Z</time></trkpt><trkpt lat="36.80143156293632" lon="-108.13240184830514"><ele>1769.0</ele><time>2026-04-15T23:32:09.001Z</time></trkpt><trkpt lat="36.801481171422964" lon="-108.13258921620904"><ele>1770.0</ele><time>2026-04-15T23:32:10.001Z</time></trkpt><trkpt lat="36.80155869676059" lon="-108.1327510462134"><ele>1770.0</ele><time>2026-04-15T23:32:11.001Z</time></trkpt><trkpt lat="36.80163603744676" lon="-108.13289706792972"><ele>1770.0</ele><time>2026-04-15T23:32:12.001Z</time></trkpt><trkpt lat="36.801707423030194" lon="-108.1330156367283"><ele>1770.0</ele><time>2026-04-15T23:32:13Z</time></trkpt><trkpt lat="36.801769323856576" lon="-108.1331019135929"><ele>1770.0</ele><time>2026-04-15T23:32:14Z</time></trkpt><trkpt lat="36.80183852187342" lon="-108.13315798018273"><ele>1770.0</ele><time>2026-04-15T23:32:15Z</time></trkpt><trkpt lat="36.801993347528345" lon="-108.1330317018478"><ele>1771.0</ele><time>2026-04-15T23:32:17Z</time></trkpt><trkpt lat="36.80210730273551" lon="-108.13294520741204"><ele>1772.0</ele><time>2026-04-15T23:32:18Z</time></trkpt><trkpt lat="36.80223570021821" lon="-108.13285895131821"><ele>1773.0</ele><time>2026-04-15T23:32:19Z</time></trkpt><trkpt lat="36.80237355654011" lon="-108.13280757943265"><ele>1774.0</ele><time>2026-04-15T23:32:20Z</time></trkpt><trkpt lat="36.80252559659079" lon="-108.13277611282649"><ele>1774.6666666666667</ele><time>2026-04-15T23:32:21Z</time></trkpt><trkpt lat="36.80269547671552" lon="-108.13279041309121"><ele>1775.3333333333335</ele><time>2026-04-15T23:32:22Z</time></trkpt><trkpt lat="36.80286988699325" lon="-108.13277610952736"><ele>1776.0</ele><time>2026-04-15T23:32:23Z</time></trkpt><trkpt lat="36.80303714698195" lon="-108.13277188420028"><ele>1776.0</ele><time>2026-04-15T23:32:24Z</time></trkpt><trkpt lat="36.80318861216531" lon="-108.13276805788422"><ele>1776.0</ele><time>2026-04-15T23:32:25Z</time></trkpt><trkpt lat="36.80334455181558" lon="-108.13276411853349"><ele>1776.0</ele><time>2026-04-15T23:32:26Z</time></trkpt><trkpt lat="36.8034829732615" lon="-108.1327606217276"><ele>1776.0</ele><time>2026-04-15T23:32:27Z</time></trkpt><trkpt lat="36.8036144157271" lon="-108.1327573012258"><ele>1777.6666666666665</ele><time>2026-04-15T23:32:28Z</time></trkpt><trkpt lat="36.80375959874341" lon="-108.13275418845193"><ele>1779.3333333333333</ele><time>2026-04-15T23:32:29Z</time></trkpt><trkpt lat="36.80391847437779" lon="-108.13274960721061"><ele>1781.0</ele><time>2026-04-15T23:32:30Z</time></trkpt><trkpt lat="36.80407985443962" lon="-108.13274291633164"><ele>1781.0</ele><time>2026-04-15T23:32:31Z</time></trkpt><trkpt lat="36.80422595753277" lon="-108.13273685884086"><ele>1781.0</ele><time>2026-04-15T23:32:32Z</time></trkpt><trkpt lat="36.80435174334429" lon="-108.13273339759965"><ele>1781.0</ele><time>2026-04-15T23:32:33Z</time></trkpt><trkpt lat="36.804481064610776" lon="-108.13273010896035"><ele>1781.0</ele><time>2026-04-15T23:32:34Z</time></trkpt><trkpt lat="36.804604019707526" lon="-108.13272683681186"><ele>1781.1999999999998</ele><time>2026-04-15T23:32:35Z</time></trkpt><trkpt lat="36.80473120495543" lon="-108.1327449495822"><ele>1781.3999999999999</ele><time>2026-04-15T23:32:36Z</time></trkpt><trkpt lat="36.80483739701476" lon="-108.13273302357584"><ele>1781.6</ele><time>2026-04-15T23:32:37Z</time></trkpt><trkpt lat="36.80492151458056" lon="-108.13269620578055"><ele>1781.8</ele><time>2026-04-15T23:32:38Z</time></trkpt><trkpt lat="36.804977422429594" lon="-108.13260929492021"><ele>1782.0</ele><time>2026-04-15T23:32:39Z</time></trkpt><trkpt lat="36.804969613457054" lon="-108.13246388591793"><ele>1781.0</ele><time>2026-04-15T23:32:40Z</time></trkpt><trkpt lat="36.80496902884844" lon="-108.13229908734037"><ele>1780.0</ele><time>2026-04-15T23:32:41Z</time></trkpt><trkpt lat="36.80494947506625" lon="-108.13211256237493"><ele>1779.0</ele><time>2026-04-15T23:32:42Z</time></trkpt><trkpt lat="36.80494820829661" lon="-108.1319151346039"><ele>1778.0</ele><time>2026-04-15T23:32:43Z</time></trkpt><trkpt lat="36.8049552232958" lon="-108.13170340891706"><ele>1777.6666666666665</ele><time>2026-04-15T23:32:44Z</time></trkpt><trkpt lat="36.804961770937766" lon="-108.13148251219752"><ele>1777.3333333333335</ele><time>2026-04-15T23:32:45Z</time></trkpt><trkpt lat="36.80496744184883" lon="-108.13128842380553"><ele>1777.0</ele><time>2026-04-15T23:32:46Z</time></trkpt><trkpt lat="36.80496838690294" lon="-108.13109657913496"><ele>1777.0</ele><time>2026-04-15T23:32:47Z</time></trkpt><trkpt lat="36.80497044266818" lon="-108.13089164363689"><ele>1777.0</ele><time>2026-04-15T23:32:48Z</time></trkpt><trkpt lat="36.804972396797396" lon="-108.13068693593972"><ele>1777.0</ele><time>2026-04-15T23:32:49Z</time></trkpt><trkpt lat="36.804972967695406" lon="-108.13048817111289"><ele>1777.0</ele><time>2026-04-15T23:32:50Z</time></trkpt><trkpt lat="36.804972855869856" lon="-108.13028768705624"><ele>1777.0</ele><time>2026-04-15T23:32:51Z</time></trkpt><trkpt lat="36.80497220825145" lon="-108.13008441684745"><ele>1777.0</ele><time>2026-04-15T23:32:52Z</time></trkpt><trkpt lat="36.804968823889226" lon="-108.12989141021872"><ele>1777.0</ele><time>2026-04-15T23:32:53Z</time></trkpt><trkpt lat="36.804961532163574" lon="-108.12973752358407"><ele>1776.9999999999998</ele><time>2026-04-15T23:32:54Z</time></trkpt><trkpt lat="36.80496230247313" lon="-108.12962032534534"><ele>1776.9999999999998</ele><time>2026-04-15T23:32:55Z</time></trkpt><trkpt lat="36.80497293857418" lon="-108.1295155407366"><ele>1777.0</ele><time>2026-04-15T23:32:56Z</time></trkpt><trkpt lat="36.80497728108193" lon="-108.12940989147438"><ele>1777.0</ele><time>2026-04-15T23:32:57Z</time></trkpt><trkpt lat="36.80506526439333" lon="-108.1292960617171"><ele>1777.0</ele><time>2026-04-15T23:32:58Z</time></trkpt><trkpt lat="36.80510562790414" lon="-108.12919095333648"><ele>1776.9999999999998</ele><time>2026-04-15T23:32:59Z</time></trkpt><trkpt lat="36.80513768160679" lon="-108.12910516260006"><ele>1776.9999999999998</ele><time>2026-04-15T23:33:00Z</time></trkpt><trkpt lat="36.80521193898991" lon="-108.12905868345487"><ele>1777.0</ele><time>2026-04-15T23:33:01Z</time></trkpt><trkpt lat="36.80534476472072" lon="-108.12899384269349"><ele>1777.0</ele><time>2026-04-15T23:33:02Z</time></trkpt><trkpt lat="36.80546160248155" lon="-108.12889808717647"><ele>1778.3999999999999</ele><time>2026-04-15T23:33:03Z</time></trkpt><trkpt lat="36.80554335415859" lon="-108.12878466137009"><ele>1779.7999999999997</ele><time>2026-04-15T23:33:04Z</time></trkpt><trkpt lat="36.805629805086504" lon="-108.12872598027047"><ele>1781.2</ele><time>2026-04-15T23:33:06Z</time></trkpt><trkpt lat="36.80572589062427" lon="-108.12879243086867"><ele>1782.6</ele><time>2026-04-15T23:33:07Z</time></trkpt><trkpt lat="36.80583191095848" lon="-108.12880161801661"><ele>1784.0</ele><time>2026-04-15T23:33:08Z</time></trkpt><trkpt lat="36.80592745558534" lon="-108.12870287138892"><ele>1785.0</ele><time>2026-04-15T23:33:09Z</time></trkpt><trkpt lat="36.80606141803728" lon="-108.12858883857459"><ele>1786.0</ele><time>2026-04-15T23:33:10Z</time></trkpt><trkpt lat="36.80619759463766" lon="-108.12851313996534"><ele>1787.0</ele><time>2026-04-15T23:33:11Z</time></trkpt><trkpt lat="36.80632633558033" lon="-108.12846691440815"><ele>1788.0</ele><time>2026-04-15T23:33:12Z</time></trkpt><trkpt lat="36.80644192535913" lon="-108.12836690055053"><ele>1787.75</ele><time>2026-04-15T23:33:13Z</time></trkpt><trkpt lat="36.806533455798025" lon="-108.12822311246991"><ele>1787.5</ele><time>2026-04-15T23:33:14Z</time></trkpt><trkpt lat="36.806622581665096" lon="-108.12815750044116"><ele>1787.25</ele><time>2026-04-15T23:33:15Z</time></trkpt><trkpt lat="36.806726051196485" lon="-108.12817650955402"><ele>1787.0</ele><time>2026-04-15T23:33:16Z</time></trkpt><trkpt lat="36.806862368005454" lon="-108.12818399417169"><ele>1787.0</ele><time>2026-04-15T23:33:17Z</time></trkpt><trkpt lat="36.807012968325175" lon="-108.12818956407415"><ele>1787.0</ele><time>2026-04-15T23:33:18Z</time></trkpt><trkpt lat="36.80717326634639" lon="-108.12820797874123"><ele>1787.0</ele><time>2026-04-15T23:33:19Z</time></trkpt><trkpt lat="36.80733916141512" lon="-108.12820984204629"><ele>1787.0</ele><time>2026-04-15T23:33:20Z</time></trkpt><trkpt lat="36.807487982817385" lon="-108.12818525115769"><ele>1787.0</ele><time>2026-04-15T23:33:21Z</time></trkpt><trkpt lat="36.80761057027707" lon="-108.12816271277907"><ele>1787.0</ele><time>2026-04-15T23:33:22Z</time></trkpt><trkpt lat="36.807705602429635" lon="-108.12816955479448"><ele>1787.0</ele><time>2026-04-15T23:33:23Z</time></trkpt><trkpt lat="36.80779708459573" lon="-108.12820918155401"><ele>1788.0</ele><time>2026-04-15T23:33:24Z</time></trkpt><trkpt lat="36.80788073308485" lon="-108.12815503601881"><ele>1788.9999999999998</ele><time>2026-04-15T23:33:26Z</time></trkpt><trkpt lat="36.80786188128311" lon="-108.12805425441644"><ele>1789.9999999999998</ele><time>2026-04-15T23:33:27Z</time></trkpt><trkpt lat="36.80782641211251" lon="-108.12792769927735"><ele>1791.0</ele><time>2026-04-15T23:33:28Z</time></trkpt><trkpt lat="36.80784430973996" lon="-108.12782354031343"><ele>1792.0</ele><time>2026-04-15T23:33:29Z</time></trkpt><trkpt lat="36.807923038418515" lon="-108.12773349195953"><ele>1792.0</ele><time>2026-04-15T23:33:30Z</time></trkpt><trkpt lat="36.8080348391449" lon="-108.12767006345115"><ele>1792.0</ele><time>2026-04-15T23:33:31Z</time></trkpt><trkpt lat="36.80813156400753" lon="-108.12759487881407"><ele>1792.0</ele><time>2026-04-15T23:33:32Z</time></trkpt><trkpt lat="36.80820587402685" lon="-108.12748045651125"><ele>1792.0</ele><time>2026-04-15T23:33:33Z</time></trkpt><trkpt lat="36.808294012160566" lon="-108.12737401543951"><ele>1791.3999999999999</ele><time>2026-04-15T23:33:34Z</time></trkpt><trkpt lat="36.80839530860942" lon="-108.12724213435267"><ele>1790.7999999999997</ele><time>2026-04-15T23:33:35Z</time></trkpt><trkpt lat="36.80845848018889" lon="-108.12714731479717"><ele>1790.2</ele><time>2026-04-15T23:33:36Z</time></trkpt><trkpt lat="36.80851167184573" lon="-108.12707176176562"><ele>1789.6</ele><time>2026-04-15T23:33:37Z</time></trkpt><trkpt lat="36.80856547865635" lon="-108.12700898957206"><ele>1789.0</ele><time>2026-04-15T23:33:38Z</time></trkpt><trkpt lat="36.808615493371946" lon="-108.12692819907785"><ele>1789.0</ele><time>2026-04-15T23:33:40Z</time></trkpt><trkpt lat="36.80865234477247" lon="-108.12685074280151"><ele>1789.0</ele><time>2026-04-15T23:34:02.001Z</time></trkpt><trkpt lat="36.80871371454938" lon="-108.12679077508231"><ele>1789.0</ele><time>2026-04-15T23:34:03.001Z</time></trkpt><trkpt lat="36.808795871466096" lon="-108.12674772093301"><ele>1789.0</ele><time>2026-04-15T23:34:04.001Z</time></trkpt><trkpt lat="36.80889686860935" lon="-108.12669668448201"><ele>1789.0</ele><time>2026-04-15T23:34:05.001Z</time></trkpt><trkpt lat="36.80901076029551" lon="-108.12663231230536"><ele>1789.0</ele><time>2026-04-15T23:34:06.001Z</time></trkpt><trkpt lat="36.80912410995762" lon="-108.12656435970837"><ele>1789.0</ele><time>2026-04-15T23:34:07.001Z</time></trkpt><trkpt lat="36.80924209694682" lon="-108.12648972330143"><ele>1789.0</ele><time>2026-04-15T23:34:08.001Z</time></trkpt><trkpt lat="36.80936932751773" lon="-108.12640897746894"><ele>1789.0</ele><time>2026-04-15T23:34:09.001Z</time></trkpt><trkpt lat="36.809491663180886" lon="-108.12634218432042"><ele>1790.75</ele><time>2026-04-15T23:34:10.001Z</time></trkpt><trkpt lat="36.80961553188144" lon="-108.12629061298375"><ele>1792.5</ele><time>2026-04-15T23:34:11.001Z</time></trkpt><trkpt lat="36.80972546948407" lon="-108.12627732691416"><ele>1794.25</ele><time>2026-04-15T23:34:12.001Z</time></trkpt><trkpt lat="36.80984193317392" lon="-108.12631162308466"><ele>1796.0</ele><time>2026-04-15T23:34:13.001Z</time></trkpt><trkpt lat="36.80996357735347" lon="-108.12636420861305"><ele>1796.0</ele><time>2026-04-15T23:34:14.001Z</time></trkpt><trkpt lat="36.81007397508344" lon="-108.12640455015956"><ele>1796.0</ele><time>2026-04-15T23:34:15.001Z</time></trkpt><trkpt lat="36.81013561120531" lon="-108.12642499764702"><ele>1796.0</ele><time>2026-04-15T23:34:16.001Z</time></trkpt><trkpt lat="36.81019751921324" lon="-108.126452860749"><ele>1796.0</ele><time>2026-04-15T23:34:17.001Z</time></trkpt><trkpt lat="36.81029975336952" lon="-108.12653259730361"><ele>1796.0</ele><time>2026-04-15T23:34:18.001Z</time></trkpt><trkpt lat="36.81045101487675" lon="-108.12662612134643"><ele>1797.25</ele><time>2026-04-15T23:34:19Z</time></trkpt><trkpt lat="36.81056233006415" lon="-108.12669667186731"><ele>1798.5</ele><time>2026-04-15T23:34:20Z</time></trkpt><trkpt lat="36.81067954138683" lon="-108.12676183013514"><ele>1799.75</ele><time>2026-04-15T23:34:21Z</time></trkpt><trkpt lat="36.81077360597315" lon="-108.12683507724942"><ele>1801.0</ele><time>2026-04-15T23:34:22Z</time></trkpt><trkpt lat="36.81085665496013" lon="-108.12691446032595"><ele>1801.0</ele><time>2026-04-15T23:34:23Z</time></trkpt><trkpt lat="36.810948849130256" lon="-108.12694925250321"><ele>1801.0</ele><time>2026-04-15T23:34:25Z</time></trkpt><trkpt lat="36.81103485749856" lon="-108.12688137424824"><ele>1801.0</ele><time>2026-04-15T23:34:26Z</time></trkpt><trkpt lat="36.81112428547534" lon="-108.12674818479674"><ele>1801.0</ele><time>2026-04-15T23:34:27Z</time></trkpt><trkpt lat="36.8111846697185" lon="-108.12665214685263"><ele>1801.0</ele><time>2026-04-15T23:34:28Z</time></trkpt><trkpt lat="36.81124170713205" lon="-108.12658863744228"><ele>1800.25</ele><time>2026-04-15T23:34:29Z</time></trkpt><trkpt lat="36.81131075557198" lon="-108.1265261354546"><ele>1799.5</ele><time>2026-04-15T23:34:30Z</time></trkpt><trkpt lat="36.811442775714234" lon="-108.12651243882827"><ele>1798.75</ele><time>2026-04-15T23:34:31Z</time></trkpt><trkpt lat="36.81160665054142" lon="-108.12647885684052"><ele>1798.0</ele><time>2026-04-15T23:34:32Z</time></trkpt><trkpt lat="36.81179963175298" lon="-108.1264570135816"><ele>1797.5</ele><time>2026-04-15T23:34:33Z</time></trkpt><trkpt lat="36.81191800868582" lon="-108.126386553618"><ele>1797.0</ele><time>2026-04-15T23:34:34Z</time></trkpt><trkpt lat="36.812011474923786" lon="-108.12633896740941"><ele>1796.5</ele><time>2026-04-15T23:34:35Z</time></trkpt><trkpt lat="36.8121223420095" lon="-108.12629477278325"><ele>1796.0</ele><time>2026-04-15T23:34:36Z</time></trkpt><trkpt lat="36.81225335191682" lon="-108.12625534799076"><ele>1796.0</ele><time>2026-04-15T23:34:37Z</time></trkpt><trkpt lat="36.812376551033694" lon="-108.12623871756564"><ele>1796.0</ele><time>2026-04-15T23:34:38Z</time></trkpt><trkpt lat="36.81250648784533" lon="-108.1262603918585"><ele>1796.0</ele><time>2026-04-15T23:34:39Z</time></trkpt><trkpt lat="36.81264816680034" lon="-108.12628893070911"><ele>1796.0</ele><time>2026-04-15T23:34:40Z</time></trkpt><trkpt lat="36.81275676011278" lon="-108.1262971301831"><ele>1796.0</ele><time>2026-04-15T23:34:41Z</time></trkpt><trkpt lat="36.8128311898295" lon="-108.12635514657497"><ele>1796.0</ele><time>2026-04-15T23:34:42Z</time></trkpt><trkpt lat="36.81291156334274" lon="-108.12639383498914"><ele>1796.0</ele><time>2026-04-15T23:34:43Z</time></trkpt><trkpt lat="36.81300120052834" lon="-108.12643125322664"><ele>1796.0</ele><time>2026-04-15T23:34:44Z</time></trkpt><trkpt lat="36.81308627448224" lon="-108.12644414258325"><ele>1796.0</ele><time>2026-04-15T23:34:45Z</time></trkpt><trkpt lat="36.813247939295465" lon="-108.12593289557759"><ele>1796.0</ele><time>2026-04-15T23:34:46Z</time></trkpt><trkpt lat="36.81333188415177" lon="-108.12581704071881"><ele>1796.0</ele><time>2026-04-15T23:34:47Z</time></trkpt><trkpt lat="36.81340450707854" lon="-108.12570950329443"><ele>1796.0</ele><time>2026-04-15T23:34:48Z</time></trkpt><trkpt lat="36.81350036651858" lon="-108.12562099782808"><ele>1796.0</ele><time>2026-04-15T23:34:49Z</time></trkpt><trkpt lat="36.813611860156996" lon="-108.12557647248977"><ele>1795.25</ele><time>2026-04-15T23:34:50Z</time></trkpt><trkpt lat="36.813754159068125" lon="-108.12555463054488"><ele>1794.5</ele><time>2026-04-15T23:34:51Z</time></trkpt><trkpt lat="36.81388558798431" lon="-108.12550526105728"><ele>1793.75</ele><time>2026-04-15T23:34:52Z</time></trkpt><trkpt lat="36.81401124430118" lon="-108.12545105550362"><ele>1793.0</ele><time>2026-04-15T23:34:53Z</time></trkpt><trkpt lat="36.81413237443204" lon="-108.12539905954415"><ele>1792.9999999999998</ele><time>2026-04-15T23:34:54Z</time></trkpt><trkpt lat="36.81424876557721" lon="-108.12535715017678"><ele>1793.0</ele><time>2026-04-15T23:34:55Z</time></trkpt><trkpt lat="36.81432134387154" lon="-108.12535832242163"><ele>1793.0</ele><time>2026-04-15T23:34:56Z</time></trkpt><trkpt lat="36.814372119802016" lon="-108.1254178110278"><ele>1793.0</ele><time>2026-04-15T23:34:57Z</time></trkpt><trkpt lat="36.814421113129775" lon="-108.12552484716397"><ele>1792.9999999999998</ele><time>2026-04-15T23:34:58Z</time></trkpt><trkpt lat="36.81448331222059" lon="-108.12557414499823"><ele>1793.0</ele><time>2026-04-15T23:34:59Z</time></trkpt><trkpt lat="36.81455727360061" lon="-108.12554689596847"><ele>1792.25</ele><time>2026-04-15T23:35:00Z</time></trkpt><trkpt lat="36.81466999865753" lon="-108.12548324272093"><ele>1791.5</ele><time>2026-04-15T23:35:01Z</time></trkpt><trkpt lat="36.81480870201125" lon="-108.12543503783066"><ele>1790.75</ele><time>2026-04-15T23:35:02Z</time></trkpt><trkpt lat="36.814942951245726" lon="-108.12542575466863"><ele>1790.0</ele><time>2026-04-15T23:35:03Z</time></trkpt><trkpt lat="36.81505343645258" lon="-108.12540729994012"><ele>1789.25</ele><time>2026-04-15T23:35:04Z</time></trkpt><trkpt lat="36.81516722649855" lon="-108.12536217969246"><ele>1788.5</ele><time>2026-04-15T23:35:05Z</time></trkpt><trkpt lat="36.81527614064178" lon="-108.1253333282726"><ele>1787.75</ele><time>2026-04-15T23:35:06Z</time></trkpt><trkpt lat="36.815384576753175" lon="-108.12536518533541"><ele>1787.0</ele><time>2026-04-15T23:35:07Z</time></trkpt><trkpt lat="36.81551078171932" lon="-108.12541942569327"><ele>1787.0</ele><time>2026-04-15T23:35:08Z</time></trkpt><trkpt lat="36.81564479017355" lon="-108.12543393008185"><ele>1787.0</ele><time>2026-04-15T23:35:09Z</time></trkpt><trkpt lat="36.81576088615998" lon="-108.12541228924084"><ele>1787.0</ele><time>2026-04-15T23:35:10Z</time></trkpt><trkpt lat="36.81585192169698" lon="-108.12539887773738"><ele>1787.0</ele><time>2026-04-15T23:35:11Z</time></trkpt><trkpt lat="36.81595807969978" lon="-108.12541097883435"><ele>1787.6</ele><time>2026-04-15T23:35:12Z</time></trkpt><trkpt lat="36.81611095748044" lon="-108.12543597698398"><ele>1788.1999999999998</ele><time>2026-04-15T23:35:13Z</time></trkpt><trkpt lat="36.81624439525425" lon="-108.12545031581749"><ele>1788.8</ele><time>2026-04-15T23:35:14Z</time></trkpt><trkpt lat="36.81631749021476" lon="-108.12544726256154"><ele>1789.4</ele><time>2026-04-15T23:35:15Z</time></trkpt><trkpt lat="36.81638000107289" lon="-108.12540919874897"><ele>1790.0</ele><time>2026-04-15T23:35:16Z</time></trkpt><trkpt lat="36.816450035410504" lon="-108.12533808254437"><ele>1790.0</ele><time>2026-04-15T23:35:17Z</time></trkpt><trkpt lat="36.816566142810046" lon="-108.12526778818471"><ele>1790.0</ele><time>2026-04-15T23:35:18Z</time></trkpt><trkpt lat="36.81670125731725" lon="-108.12522125910189"><ele>1790.0</ele><time>2026-04-15T23:35:19Z</time></trkpt><trkpt lat="36.8168397610733" lon="-108.1251925721214"><ele>1790.0</ele><time>2026-04-15T23:35:20Z</time></trkpt><trkpt lat="36.816959788084816" lon="-108.12519223773532"><ele>1790.4999999999998</ele><time>2026-04-15T23:35:21Z</time></trkpt><trkpt lat="36.817073887847876" lon="-108.12522852404143"><ele>1791.0</ele><time>2026-04-15T23:35:22Z</time></trkpt><trkpt lat="36.817165341090046" lon="-108.12527001190121"><ele>1791.5</ele><time>2026-04-15T23:35:23Z</time></trkpt><trkpt lat="36.817237139903305" lon="-108.1253101185609"><ele>1792.0</ele><time>2026-04-15T23:35:24Z</time></trkpt><trkpt lat="36.81731563037213" lon="-108.12535944413891"><ele>1792.4999999999998</ele><time>2026-04-15T23:35:25Z</time></trkpt><trkpt lat="36.81735350085785" lon="-108.12542771797601"><ele>1793.0</ele><time>2026-04-15T23:35:26Z</time></trkpt><trkpt lat="36.81736619985403" lon="-108.12551045063333"><ele>1793.0</ele><time>2026-04-15T23:35:27Z</time></trkpt><trkpt lat="36.81739524994281" lon="-108.12564034438537"><ele>1793.0</ele><time>2026-04-15T23:35:28Z</time></trkpt><trkpt lat="36.81746907717471" lon="-108.12577924290025"><ele>1793.0</ele><time>2026-04-15T23:35:29Z</time></trkpt><trkpt lat="36.81756587131736" lon="-108.12588661741667"><ele>1793.0</ele><time>2026-04-15T23:35:30Z</time></trkpt><trkpt lat="36.817648728525" lon="-108.12595934135538"><ele>1793.2</ele><time>2026-04-15T23:35:31Z</time></trkpt><trkpt lat="36.81773040152326" lon="-108.12599001699925"><ele>1793.4</ele><time>2026-04-15T23:35:32Z</time></trkpt><trkpt lat="36.81782061338514" lon="-108.12597944647085"><ele>1793.6000000000001</ele><time>2026-04-15T23:35:33Z</time></trkpt><trkpt lat="36.817923103201565" lon="-108.12596869746307"><ele>1793.8000000000002</ele><time>2026-04-15T23:35:34Z</time></trkpt><trkpt lat="36.818042961678486" lon="-108.12599559930986"><ele>1794.0</ele><time>2026-04-15T23:35:35Z</time></trkpt><trkpt lat="36.81818091222106" lon="-108.12602722098507"><ele>1794.0</ele><time>2026-04-15T23:35:36Z</time></trkpt><trkpt lat="36.81833421730469" lon="-108.12600332557682"><ele>1794.0</ele><time>2026-04-15T23:35:37Z</time></trkpt><trkpt lat="36.81847483197481" lon="-108.12598259697043"><ele>1794.0</ele><time>2026-04-15T23:35:38Z</time></trkpt><trkpt lat="36.81860646555143" lon="-108.12598268311265"><ele>1794.0</ele><time>2026-04-15T23:35:39Z</time></trkpt><trkpt lat="36.818746667767265" lon="-108.12598909376534"><ele>1792.75</ele><time>2026-04-15T23:35:40Z</time></trkpt><trkpt lat="36.8188824792346" lon="-108.12598712661887"><ele>1791.5</ele><time>2026-04-15T23:35:41Z</time></trkpt><trkpt lat="36.81900048061649" lon="-108.12598475077918"><ele>1790.25</ele><time>2026-04-15T23:35:42Z</time></trkpt><trkpt lat="36.819113732007246" lon="-108.12598910307597"><ele>1789.0</ele><time>2026-04-15T23:35:43Z</time></trkpt><trkpt lat="36.819212166113715" lon="-108.12599260394663"><ele>1789.0</ele><time>2026-04-15T23:35:44Z</time></trkpt><trkpt lat="36.819307339966564" lon="-108.12596813650964"><ele>1789.0</ele><time>2026-04-15T23:35:45Z</time></trkpt><trkpt lat="36.81941508756622" lon="-108.12593575191629"><ele>1789.0</ele><time>2026-04-15T23:35:46Z</time></trkpt><trkpt lat="36.819515522223824" lon="-108.12591791757598"><ele>1789.0</ele><time>2026-04-15T23:35:47Z</time></trkpt><trkpt lat="36.81958227584417" lon="-108.1259274369796"><ele>1789.0</ele><time>2026-04-15T23:35:48Z</time></trkpt><trkpt lat="36.819652896593276" lon="-108.12596594027"><ele>1788.0</ele><time>2026-04-15T23:35:49Z</time></trkpt><trkpt lat="36.81976996899763" lon="-108.12604031037777"><ele>1787.0</ele><time>2026-04-15T23:35:50Z</time></trkpt><trkpt lat="36.81987608712413" lon="-108.12609327554392"><ele>1786.0</ele><time>2026-04-15T23:35:51Z</time></trkpt><trkpt lat="36.819940062400455" lon="-108.12612996446789"><ele>1785.0</ele><time>2026-04-15T23:35:52Z</time></trkpt><trkpt lat="36.82006590729432" lon="-108.12612808217324"><ele>1784.0</ele><time>2026-04-15T23:35:54Z</time></trkpt><trkpt lat="36.82018956015126" lon="-108.12605010253365"><ele>1783.75</ele><time>2026-04-15T23:35:55.001Z</time></trkpt><trkpt lat="36.82030486204787" lon="-108.12602767876871"><ele>1783.5</ele><time>2026-04-15T23:35:56.001Z</time></trkpt><trkpt lat="36.820386250930554" lon="-108.12612652362404"><ele>1783.25</ele><time>2026-04-15T23:35:58.001Z</time></trkpt><trkpt lat="36.8204942224023" lon="-108.12621615837361"><ele>1783.0</ele><time>2026-04-15T23:35:59.001Z</time></trkpt><trkpt lat="36.82059211432831" lon="-108.1262981420718"><ele>1783.0</ele><time>2026-04-15T23:36:00.001Z</time></trkpt><trkpt lat="36.82069234692686" lon="-108.12640821770637"><ele>1783.0</ele><time>2026-04-15T23:36:01.001Z</time></trkpt><trkpt lat="36.82079675029183" lon="-108.12650967088872"><ele>1783.0</ele><time>2026-04-15T23:36:02.001Z</time></trkpt><trkpt lat="36.82090191431426" lon="-108.12654145580287"><ele>1783.0</ele><time>2026-04-15T23:36:03.001Z</time></trkpt><trkpt lat="36.82100363940819" lon="-108.12655380584259"><ele>1784.5</ele><time>2026-04-15T23:36:04.001Z</time></trkpt><trkpt lat="36.8211173783221" lon="-108.12657041776258"><ele>1786.0</ele><time>2026-04-15T23:36:05.001Z</time></trkpt><trkpt lat="36.82124707869339" lon="-108.12659917107959"><ele>1787.5</ele><time>2026-04-15T23:36:06.001Z</time></trkpt><trkpt lat="36.82137326849117" lon="-108.12662721746614"><ele>1789.0</ele><time>2026-04-15T23:36:07.001Z</time></trkpt><trkpt lat="36.821476645450296" lon="-108.12668244855554"><ele>1789.0</ele><time>2026-04-15T23:36:08.001Z</time></trkpt><trkpt lat="36.8215502822782" lon="-108.126792843089"><ele>1789.0</ele><time>2026-04-15T23:36:09.001Z</time></trkpt><trkpt lat="36.82164944400523" lon="-108.12687535020787"><ele>1789.0</ele><time>2026-04-15T23:36:10.001Z</time></trkpt><trkpt lat="36.82173864264112" lon="-108.1269949595334"><ele>1789.0</ele><time>2026-04-15T23:36:11.001Z</time></trkpt><trkpt lat="36.8218152652028" lon="-108.12710076227239"><ele>1789.8000000000002</ele><time>2026-04-15T23:36:12.001Z</time></trkpt><trkpt lat="36.82190767138402" lon="-108.12712466257356"><ele>1790.6000000000001</ele><time>2026-04-15T23:36:13.001Z</time></trkpt><trkpt lat="36.82202183651892" lon="-108.12710711306772"><ele>1791.4</ele><time>2026-04-15T23:36:14.001Z</time></trkpt><trkpt lat="36.822089962927215" lon="-108.12707428190234"><ele>1792.2</ele><time>2026-04-15T23:36:15.001Z</time></trkpt><trkpt lat="36.82214050880749" lon="-108.12701408134451"><ele>1793.0</ele><time>2026-04-15T23:36:16.001Z</time></trkpt><trkpt lat="36.822193944775286" lon="-108.12688578845483"><ele>1793.0</ele><time>2026-04-15T23:36:17.001Z</time></trkpt><trkpt lat="36.82224779016" lon="-108.12674056703554"><ele>1793.0</ele><time>2026-04-15T23:36:18.001Z</time></trkpt><trkpt lat="36.82225871290989" lon="-108.12662696644392"><ele>1793.0</ele><time>2026-04-15T23:36:19.001Z</time></trkpt><trkpt lat="36.82222325663067" lon="-108.12650828219388"><ele>1793.0</ele><time>2026-04-15T23:36:20.001Z</time></trkpt><trkpt lat="36.82218311432477" lon="-108.12632982245012"><ele>1792.0</ele><time>2026-04-15T23:36:21.001Z</time></trkpt><trkpt lat="36.82214827997361" lon="-108.12613167810457"><ele>1791.0000000000002</ele><time>2026-04-15T23:36:22.001Z</time></trkpt><trkpt lat="36.82210520313784" lon="-108.12600831494139"><ele>1790.0000000000002</ele><time>2026-04-15T23:36:23.001Z</time></trkpt><trkpt lat="36.82209165038101" lon="-108.12592225537492"><ele>1789.0</ele><time>2026-04-15T23:36:24.001Z</time></trkpt><trkpt lat="36.82212907287662" lon="-108.12584450762378"><ele>1788.0</ele><time>2026-04-15T23:36:25Z</time></trkpt><trkpt lat="36.82217756973733" lon="-108.12575938230616"><ele>1788.2</ele><time>2026-04-15T23:36:26Z</time></trkpt><trkpt lat="36.82224774906868" lon="-108.12568559692471"><ele>1788.4</ele><time>2026-04-15T23:36:27Z</time></trkpt><trkpt lat="36.822327343191176" lon="-108.12562069582677"><ele>1788.6000000000001</ele><time>2026-04-15T23:36:28Z</time></trkpt><trkpt lat="36.8224031967529" lon="-108.12555743063314"><ele>1788.8000000000002</ele><time>2026-04-15T23:36:29Z</time></trkpt><trkpt lat="36.822491427050686" lon="-108.12546365342475"><ele>1789.0</ele><time>2026-04-15T23:36:30Z</time></trkpt><trkpt lat="36.822601769486795" lon="-108.12536255779686"><ele>1790.25</ele><time>2026-04-15T23:36:31Z</time></trkpt><trkpt lat="36.82271864672664" lon="-108.12526827607992"><ele>1791.5</ele><time>2026-04-15T23:36:32Z</time></trkpt><trkpt lat="36.822817415926544" lon="-108.12517094128683"><ele>1792.75</ele><time>2026-04-15T23:36:33Z</time></trkpt><trkpt lat="36.82290751081091" lon="-108.12507127499653"><ele>1794.0</ele><time>2026-04-15T23:36:34Z</time></trkpt><trkpt lat="36.822966111934576" lon="-108.12500967042267"><ele>1794.0</ele><time>2026-04-15T23:36:35Z</time></trkpt><trkpt lat="36.82301966319505" lon="-108.12496432205157"><ele>1794.0</ele><time>2026-04-15T23:36:36Z</time></trkpt><trkpt lat="36.823091353707454" lon="-108.12492843869843"><ele>1794.0</ele><time>2026-04-15T23:36:37Z</time></trkpt><trkpt lat="36.823180423820965" lon="-108.12488674645141"><ele>1794.0</ele><time>2026-04-15T23:36:38Z</time></trkpt><trkpt lat="36.8232559208145" lon="-108.1248512143579"><ele>1794.0</ele><time>2026-04-15T23:36:39Z</time></trkpt><trkpt lat="36.82331035573616" lon="-108.12478237017001"><ele>1794.0</ele><time>2026-04-15T23:36:40Z</time></trkpt><trkpt lat="36.82335440771012" lon="-108.12467600369445"><ele>1793.4</ele><time>2026-04-15T23:36:41Z</time></trkpt><trkpt lat="36.82336973587465" lon="-108.12458476144499"><ele>1792.8000000000002</ele><time>2026-04-15T23:36:42Z</time></trkpt><trkpt lat="36.82338937427801" lon="-108.12446912799386"><ele>1792.1999999999998</ele><time>2026-04-15T23:36:44Z</time></trkpt><trkpt lat="36.82343716243613" lon="-108.12435668975762"><ele>1791.6</ele><time>2026-04-15T23:36:46Z</time></trkpt><trkpt lat="36.823549183798" lon="-108.12426632766045"><ele>1791.0</ele><time>2026-04-15T23:36:48Z</time></trkpt><trkpt lat="36.823631420527306" lon="-108.1242294173283"><ele>1791.0</ele><time>2026-04-15T23:36:49Z</time></trkpt><trkpt lat="36.82372187869703" lon="-108.12420439398745"><ele>1791.0</ele><time>2026-04-15T23:36:50Z</time></trkpt><trkpt lat="36.82383330031533" lon="-108.12417130151371"><ele>1791.0</ele><time>2026-04-15T23:36:51Z</time></trkpt><trkpt lat="36.82393252450805" lon="-108.1241284278124"><ele>1791.0</ele><time>2026-04-15T23:36:52Z</time></trkpt><trkpt lat="36.82400419316322" lon="-108.12410970905447"><ele>1791.0</ele><time>2026-04-15T23:36:53Z</time></trkpt><trkpt lat="36.82412097155224" lon="-108.12419733208833"><ele>1791.0</ele><time>2026-04-15T23:36:55Z</time></trkpt><trkpt lat="36.82421834952515" lon="-108.12432984435436"><ele>1791.0</ele><time>2026-04-15T23:36:56Z</time></trkpt><trkpt lat="36.82433888579131" lon="-108.12442543889276"><ele>1791.0</ele><time>2026-04-15T23:36:57Z</time></trkpt><trkpt lat="36.82444724863567" lon="-108.12447848476863"><ele>1791.0</ele><time>2026-04-15T23:36:58Z</time></trkpt><trkpt lat="36.82452659758874" lon="-108.12454446844856"><ele>1790.8</ele><time>2026-04-15T23:36:59Z</time></trkpt><trkpt lat="36.82460238132927" lon="-108.12459460093741"><ele>1790.6</ele><time>2026-04-15T23:37:00Z</time></trkpt><trkpt lat="36.82469392198523" lon="-108.12461342063371"><ele>1790.4</ele><time>2026-04-15T23:37:01Z</time></trkpt><trkpt lat="36.82478529620279" lon="-108.1246392879031"><ele>1790.2</ele><time>2026-04-15T23:37:02Z</time></trkpt><trkpt lat="36.824856833582366" lon="-108.12472350840287"><ele>1790.0</ele><time>2026-04-15T23:37:03Z</time></trkpt><trkpt lat="36.82493750686" lon="-108.12482853747701"><ele>1790.75</ele><time>2026-04-15T23:37:04Z</time></trkpt><trkpt lat="36.825044688278425" lon="-108.12491301361338"><ele>1791.5</ele><time>2026-04-15T23:37:05Z</time></trkpt><trkpt lat="36.82516326727034" lon="-108.12495895258243"><ele>1792.25</ele><time>2026-04-15T23:37:06Z</time></trkpt><trkpt lat="36.82524840146791" lon="-108.12500689521855"><ele>1793.0</ele><time>2026-04-15T23:37:07Z</time></trkpt><trkpt lat="36.82538035235872" lon="-108.12487123593169"><ele>1793.5</ele><time>2026-04-15T23:37:09Z</time></trkpt><trkpt lat="36.82547974678425" lon="-108.1247608968492"><ele>1794.0</ele><time>2026-04-15T23:37:10Z</time></trkpt><trkpt lat="36.82558965852651" lon="-108.12469261710407"><ele>1794.5</ele><time>2026-04-15T23:37:11Z</time></trkpt><trkpt lat="36.82572982531232" lon="-108.1246431366404"><ele>1795.0</ele><time>2026-04-15T23:37:12Z</time></trkpt><trkpt lat="36.82584829807891" lon="-108.12455349073632"><ele>1795.0</ele><time>2026-04-15T23:37:13Z</time></trkpt><trkpt lat="36.82594284852244" lon="-108.12443893317871"><ele>1795.0</ele><time>2026-04-15T23:37:14Z</time></trkpt><trkpt lat="36.82603991075238" lon="-108.12435086699108"><ele>1795.0</ele><time>2026-04-15T23:37:15Z</time></trkpt><trkpt lat="36.82613860021359" lon="-108.12426213378791"><ele>1795.0</ele><time>2026-04-15T23:37:16Z</time></trkpt><trkpt lat="36.82623964521557" lon="-108.12416610649657"><ele>1795.5</ele><time>2026-04-15T23:37:17Z</time></trkpt><trkpt lat="36.826359827652006" lon="-108.12405756051757"><ele>1796.0</ele><time>2026-04-15T23:37:18Z</time></trkpt><trkpt lat="36.82645485552306" lon="-108.12397316136597"><ele>1796.5</ele><time>2026-04-15T23:37:19Z</time></trkpt><trkpt lat="36.826535750675035" lon="-108.12388800927093"><ele>1797.0</ele><time>2026-04-15T23:37:20Z</time></trkpt><trkpt lat="36.826620922302816" lon="-108.1238092368016"><ele>1797.0</ele><time>2026-04-15T23:37:21Z</time></trkpt><trkpt lat="36.82672165928467" lon="-108.1236869459602"><ele>1797.0</ele><time>2026-04-15T23:37:22Z</time></trkpt><trkpt lat="36.82684001084292" lon="-108.12355160183058"><ele>1797.0</ele><time>2026-04-15T23:37:23Z</time></trkpt><trkpt lat="36.82693408024515" lon="-108.12347216867798"><ele>1797.0</ele><time>2026-04-15T23:37:24Z</time></trkpt><trkpt lat="36.82704253518001" lon="-108.1233599567234"><ele>1797.0</ele><time>2026-04-15T23:37:25Z</time></trkpt><trkpt lat="36.82717129625496" lon="-108.12324547411733"><ele>1797.0</ele><time>2026-04-15T23:37:26Z</time></trkpt><trkpt lat="36.82730080535118" lon="-108.12312653123507"><ele>1797.0</ele><time>2026-04-15T23:37:27Z</time></trkpt><trkpt lat="36.82741452982927" lon="-108.12299824632899"><ele>1796.6666666666665</ele><time>2026-04-15T23:37:28Z</time></trkpt><trkpt lat="36.82753454756087" lon="-108.12289199811825"><ele>1796.3333333333333</ele><time>2026-04-15T23:37:29Z</time></trkpt><trkpt lat="36.8276730493617" lon="-108.12276469301098"><ele>1796.0</ele><time>2026-04-15T23:37:30Z</time></trkpt><trkpt lat="36.82777859363345" lon="-108.122647176199"><ele>1795.25</ele><time>2026-04-15T23:37:31Z</time></trkpt><trkpt lat="36.82788555773476" lon="-108.12255678317608"><ele>1794.5</ele><time>2026-04-15T23:37:32Z</time></trkpt><trkpt lat="36.827998746927555" lon="-108.12244717751246"><ele>1793.75</ele><time>2026-04-15T23:37:33Z</time></trkpt><trkpt lat="36.82810961752689" lon="-108.12233680509827"><ele>1793.0</ele><time>2026-04-15T23:37:34Z</time></trkpt><trkpt lat="36.82821390260178" lon="-108.12224719326807"><ele>1793.0</ele><time>2026-04-15T23:37:35Z</time></trkpt><trkpt lat="36.8283225259747" lon="-108.12218533110222"><ele>1793.0</ele><time>2026-04-15T23:37:36Z</time></trkpt><trkpt lat="36.828432261828425" lon="-108.12212784711745"><ele>1793.0</ele><time>2026-04-15T23:37:37Z</time></trkpt><trkpt lat="36.828554916317096" lon="-108.12205549017779"><ele>1793.0</ele><time>2026-04-15T23:37:38Z</time></trkpt><trkpt lat="36.82868702498972" lon="-108.12189695022457"><ele>1793.0</ele><time>2026-04-15T23:37:39Z</time></trkpt><trkpt lat="36.828836976470875" lon="-108.12176147196456"><ele>1793.0</ele><time>2026-04-15T23:37:40Z</time></trkpt><trkpt lat="36.82899572429156" lon="-108.12160796299159"><ele>1793.0</ele><time>2026-04-15T23:37:41Z</time></trkpt><trkpt lat="36.829113127352585" lon="-108.12147992470129"><ele>1792.9999999999998</ele><time>2026-04-15T23:37:42Z</time></trkpt><trkpt lat="36.82920615232675" lon="-108.12137466234957"><ele>1793.0</ele><time>2026-04-15T23:37:43Z</time></trkpt><trkpt lat="36.82928514501871" lon="-108.12129799104744"><ele>1793.0</ele><time>2026-04-15T23:37:44Z</time></trkpt><trkpt lat="36.82934007676425" lon="-108.12124281000315"><ele>1793.0</ele><time>2026-04-15T23:37:45Z</time></trkpt><trkpt lat="36.82940539026982" lon="-108.12120703263729"><ele>1792.9999999999998</ele><time>2026-04-15T23:37:47Z</time></trkpt><trkpt lat="36.82948138258014" lon="-108.12120648981652"><ele>1793.0</ele><time>2026-04-15T23:37:49Z</time></trkpt><trkpt lat="36.82960789921909" lon="-108.12121212110631"><ele>1792.2</ele><time>2026-04-15T23:37:51Z</time></trkpt><trkpt lat="36.82969066359802" lon="-108.12121277256773"><ele>1791.4</ele><time>2026-04-15T23:37:52Z</time></trkpt><trkpt lat="36.82977660448604" lon="-108.1212155314636"><ele>1790.6000000000001</ele><time>2026-04-15T23:37:53Z</time></trkpt><trkpt lat="36.82986249986832" lon="-108.12122287145303"><ele>1789.8000000000002</ele><time>2026-04-15T23:37:54Z</time></trkpt><trkpt lat="36.82995995339927" lon="-108.1212263067689"><ele>1789.0</ele><time>2026-04-15T23:37:55Z</time></trkpt><trkpt lat="36.83006824300827" lon="-108.12120868844062"><ele>1788.0</ele><time>2026-04-15T23:37:56Z</time></trkpt><trkpt lat="36.83017821901207" lon="-108.12119130565684"><ele>1787.0</ele><time>2026-04-15T23:37:57Z</time></trkpt><trkpt lat="36.83029261987958" lon="-108.12119502371803"><ele>1786.0</ele><time>2026-04-15T23:37:58Z</time></trkpt><trkpt lat="36.83040385646045" lon="-108.12120047123564"><ele>1785.0</ele><time>2026-04-15T23:37:59Z</time></trkpt><trkpt lat="36.83050054006976" lon="-108.12121471435668"><ele>1784.0</ele><time>2026-04-15T23:38:00.001Z</time></trkpt><trkpt lat="36.8305948930197" lon="-108.121241710994"><ele>1784.0</ele><time>2026-04-15T23:38:01.001Z</time></trkpt><trkpt lat="36.83069410550068" lon="-108.1212720276344"><ele>1784.0</ele><time>2026-04-15T23:38:02.001Z</time></trkpt><trkpt lat="36.83079028507734" lon="-108.12131014774845"><ele>1784.0</ele><time>2026-04-15T23:38:03.001Z</time></trkpt><trkpt lat="36.830869040329844" lon="-108.12133089292796"><ele>1784.0</ele><time>2026-04-15T23:38:04.001Z</time></trkpt><trkpt lat="36.83095621324495" lon="-108.12131788736595"><ele>1784.0</ele><time>2026-04-15T23:38:05.001Z</time></trkpt><trkpt lat="36.831091449664164" lon="-108.12130436214385"><ele>1784.0</ele><time>2026-04-15T23:38:06.001Z</time></trkpt><trkpt lat="36.831209905112544" lon="-108.12131091926318"><ele>1784.0</ele><time>2026-04-15T23:38:07.001Z</time></trkpt><trkpt lat="36.83131291549229" lon="-108.12133506537191"><ele>1784.0</ele><time>2026-04-15T23:38:08.001Z</time></trkpt><trkpt lat="36.831413679075105" lon="-108.12137648416521"><ele>1784.0</ele><time>2026-04-15T23:38:09.001Z</time></trkpt><trkpt lat="36.83153205827317" lon="-108.1214086690717"><ele>1784.0</ele><time>2026-04-15T23:38:10.001Z</time></trkpt><trkpt lat="36.83164038743745" lon="-108.12142816003245"><ele>1784.0</ele><time>2026-04-15T23:38:11.001Z</time></trkpt><trkpt lat="36.83174149152221" lon="-108.12143346885458"><ele>1784.0</ele><time>2026-04-15T23:38:12.001Z</time></trkpt><trkpt lat="36.83184503739591" lon="-108.12145583374802"><ele>1784.0</ele><time>2026-04-15T23:38:13.001Z</time></trkpt><trkpt lat="36.83197247302523" lon="-108.1214996190071"><ele>1784.0</ele><time>2026-04-15T23:38:14.001Z</time></trkpt><trkpt lat="36.83211920769214" lon="-108.12154898700051"><ele>1784.3333333333333</ele><time>2026-04-15T23:38:15.001Z</time></trkpt><trkpt lat="36.83227361096241" lon="-108.12159979708382"><ele>1784.6666666666665</ele><time>2026-04-15T23:38:16.001Z</time></trkpt><trkpt lat="36.832425719033" lon="-108.12166823715229"><ele>1785.0</ele><time>2026-04-15T23:38:17.001Z</time></trkpt><trkpt lat="36.83255082340165" lon="-108.12174661415972"><ele>1785.5</ele><time>2026-04-15T23:38:18.001Z</time></trkpt><trkpt lat="36.83267933468795" lon="-108.12184826639599"><ele>1786.0</ele><time>2026-04-15T23:38:19.001Z</time></trkpt><trkpt lat="36.83281107958296" lon="-108.12194767247634"><ele>1786.5</ele><time>2026-04-15T23:38:20.001Z</time></trkpt><trkpt lat="36.83291607569516" lon="-108.12201049139523"><ele>1787.0</ele><time>2026-04-15T23:38:21.001Z</time></trkpt><trkpt lat="36.833016529989614" lon="-108.12206495587147"><ele>1787.0</ele><time>2026-04-15T23:38:22.001Z</time></trkpt><trkpt lat="36.83311367197376" lon="-108.1221223050115"><ele>1786.9999999999998</ele><time>2026-04-15T23:38:23.001Z</time></trkpt><trkpt lat="36.83319116337308" lon="-108.12213723346368"><ele>1786.9999999999998</ele><time>2026-04-15T23:38:24.001Z</time></trkpt><trkpt lat="36.83327765209723" lon="-108.12212765412107"><ele>1787.0</ele><time>2026-04-15T23:38:25.001Z</time></trkpt><trkpt lat="36.833369234753214" lon="-108.12213610199488"><ele>1787.0</ele><time>2026-04-15T23:38:26.001Z</time></trkpt><trkpt lat="36.833472252009216" lon="-108.12217331452379"><ele>1788.6</ele><time>2026-04-15T23:38:27.001Z</time></trkpt><trkpt lat="36.8335798435675" lon="-108.12222783872095"><ele>1790.1999999999998</ele><time>2026-04-15T23:38:28.001Z</time></trkpt><trkpt lat="36.833694083782056" lon="-108.12227551275302"><ele>1791.8</ele><time>2026-04-15T23:38:29.001Z</time></trkpt><trkpt lat="36.83376448787487" lon="-108.12230821103623"><ele>1793.4</ele><time>2026-04-15T23:38:30.001Z</time></trkpt><trkpt lat="36.83384658718597" lon="-108.12242025134451"><ele>1795.0</ele><time>2026-04-15T23:38:32Z</time></trkpt><trkpt lat="36.83392707464352" lon="-108.12252873998796"><ele>1795.0</ele><time>2026-04-15T23:38:33Z</time></trkpt><trkpt lat="36.83400038485264" lon="-108.12264881312478"><ele>1795.0</ele><time>2026-04-15T23:38:34Z</time></trkpt><trkpt lat="36.834036249700276" lon="-108.12273868189384"><ele>1795.0</ele><time>2026-04-15T23:38:35Z</time></trkpt><trkpt lat="36.834099110464905" lon="-108.12277694273236"><ele>1795.0</ele><time>2026-04-15T23:38:37Z</time></trkpt><trkpt lat="36.83432256619124" lon="-108.12264021958423"><ele>1796.0</ele><time>2026-04-15T23:38:39Z</time></trkpt><trkpt lat="36.83444581528801" lon="-108.1225946653165"><ele>1797.0</ele><time>2026-04-15T23:38:40Z</time></trkpt><trkpt lat="36.834566703917815" lon="-108.12254361902639"><ele>1798.0</ele><time>2026-04-15T23:38:41Z</time></trkpt><trkpt lat="36.83467709725841" lon="-108.12251650980714"><ele>1799.0</ele><time>2026-04-15T23:38:42Z</time></trkpt><trkpt lat="36.83480058161788" lon="-108.12249575953366"><ele>1799.0</ele><time>2026-04-15T23:38:43Z</time></trkpt><trkpt lat="36.83492763384251" lon="-108.12244924972701"><ele>1799.0</ele><time>2026-04-15T23:38:44Z</time></trkpt><trkpt lat="36.83502836666097" lon="-108.12240752877005"><ele>1799.0</ele><time>2026-04-15T23:38:45Z</time></trkpt><trkpt lat="36.83511259586527" lon="-108.12240542846996"><ele>1799.0</ele><time>2026-04-15T23:38:46Z</time></trkpt><trkpt lat="36.83523197754822" lon="-108.12242087661095"><ele>1799.0</ele><time>2026-04-15T23:38:47Z</time></trkpt><trkpt lat="36.83538869200755" lon="-108.12244473839235"><ele>1799.5</ele><time>2026-04-15T23:38:48Z</time></trkpt><trkpt lat="36.83552707731729" lon="-108.12247420240757"><ele>1800.0</ele><time>2026-04-15T23:38:49Z</time></trkpt><trkpt lat="36.8356427849551" lon="-108.12246210418222"><ele>1800.5</ele><time>2026-04-15T23:38:50Z</time></trkpt><trkpt lat="36.83576659586797" lon="-108.12241642934508"><ele>1801.0</ele><time>2026-04-15T23:38:51Z</time></trkpt><trkpt lat="36.835898248049546" lon="-108.12235827528623"><ele>1800.8</ele><time>2026-04-15T23:38:52Z</time></trkpt><trkpt lat="36.83600990316323" lon="-108.12232762149861"><ele>1800.6</ele><time>2026-04-15T23:38:53Z</time></trkpt><trkpt lat="36.836095879385894" lon="-108.12233877270498"><ele>1800.4</ele><time>2026-04-15T23:38:54Z</time></trkpt><trkpt lat="36.83616156785276" lon="-108.12236327615085"><ele>1800.2</ele><time>2026-04-15T23:38:55Z</time></trkpt><trkpt lat="36.836227527592925" lon="-108.12232188501497"><ele>1800.0</ele><time>2026-04-15T23:38:56Z</time></trkpt><trkpt lat="36.83633360274264" lon="-108.12227071357378"><ele>1800.0</ele><time>2026-04-15T23:38:57Z</time></trkpt><trkpt lat="36.83646893552156" lon="-108.12227380679413"><ele>1800.0</ele><time>2026-04-15T23:38:58Z</time></trkpt><trkpt lat="36.83661902859463" lon="-108.12225532934355"><ele>1800.0</ele><time>2026-04-15T23:38:59Z</time></trkpt><trkpt lat="36.83674544069525" lon="-108.12223249874924"><ele>1800.0</ele><time>2026-04-15T23:39:00Z</time></trkpt><trkpt lat="36.836837176891734" lon="-108.1222181606345"><ele>1800.0</ele><time>2026-04-15T23:39:01Z</time></trkpt><trkpt lat="36.836908730777225" lon="-108.12221117553584"><ele>1800.0</ele><time>2026-04-15T23:39:02Z</time></trkpt><trkpt lat="36.83701493440907" lon="-108.1222537043364"><ele>1800.0</ele><time>2026-04-15T23:39:04Z</time></trkpt><trkpt lat="36.837082065408296" lon="-108.12220207132053"><ele>1800.0</ele><time>2026-04-15T23:39:05Z</time></trkpt><trkpt lat="36.83719851064087" lon="-108.12217866966867"><ele>1800.0</ele><time>2026-04-15T23:39:06Z</time></trkpt><trkpt lat="36.83732639052044" lon="-108.122223462728"><ele>1800.0</ele><time>2026-04-15T23:39:07Z</time></trkpt><trkpt lat="36.837453782596995" lon="-108.12219895778095"><ele>1800.0</ele><time>2026-04-15T23:39:08Z</time></trkpt><trkpt lat="36.83754080939564" lon="-108.12215657878673"><ele>1800.0</ele><time>2026-04-15T23:39:09Z</time></trkpt><trkpt lat="36.83763409110902" lon="-108.12211418771052"><ele>1800.0</ele><time>2026-04-15T23:39:10Z</time></trkpt><trkpt lat="36.837734021981554" lon="-108.12210570247461"><ele>1800.0</ele><time>2026-04-15T23:39:11Z</time></trkpt><trkpt lat="36.83782720263757" lon="-108.12212583662382"><ele>1801.0</ele><time>2026-04-15T23:39:12Z</time></trkpt><trkpt lat="36.837947379255965" lon="-108.12214755609743"><ele>1802.0</ele><time>2026-04-15T23:39:13Z</time></trkpt><trkpt lat="36.83809167818035" lon="-108.12216174736055"><ele>1803.0</ele><time>2026-04-15T23:39:14Z</time></trkpt><trkpt lat="36.83820242644895" lon="-108.12215859517048"><ele>1804.0</ele><time>2026-04-15T23:39:15Z</time></trkpt><trkpt lat="36.838286054158" lon="-108.12214238751214"><ele>1804.0</ele><time>2026-04-15T23:39:16Z</time></trkpt><trkpt lat="36.83839325227625" lon="-108.12210583203533"><ele>1804.0</ele><time>2026-04-15T23:39:17Z</time></trkpt><trkpt lat="36.838529844627374" lon="-108.1220737087714"><ele>1804.0</ele><time>2026-04-15T23:39:18Z</time></trkpt><trkpt lat="36.83868356545381" lon="-108.12206129959156"><ele>1804.0</ele><time>2026-04-15T23:39:19Z</time></trkpt><trkpt lat="36.838797259001836" lon="-108.1220309370731"><ele>1806.0</ele><time>2026-04-15T23:39:20Z</time></trkpt><trkpt lat="36.838916334886754" lon="-108.1219487090589"><ele>1808.0</ele><time>2026-04-15T23:39:21Z</time></trkpt><trkpt lat="36.83904247550891" lon="-108.12186290902248"><ele>1810.0</ele><time>2026-04-15T23:39:22Z</time></trkpt><trkpt lat="36.83917959000771" lon="-108.12181189376558"><ele>1812.0</ele><time>2026-04-15T23:39:23Z</time></trkpt><trkpt lat="36.83928849497226" lon="-108.12176203276591"><ele>1812.8</ele><time>2026-04-15T23:39:24Z</time></trkpt><trkpt lat="36.83935355340361" lon="-108.12170170070006"><ele>1813.6</ele><time>2026-04-15T23:39:25Z</time></trkpt><trkpt lat="36.839380625113044" lon="-108.12156372201646"><ele>1814.3999999999999</ele><time>2026-04-15T23:39:27Z</time></trkpt><trkpt lat="36.83945187123343" lon="-108.12146827808532"><ele>1815.1999999999998</ele><time>2026-04-15T23:39:29Z</time></trkpt><trkpt lat="36.839503554332396" lon="-108.12141507078833"><ele>1816.0</ele><time>2026-04-15T23:39:30Z</time></trkpt><trkpt lat="36.839573034518075" lon="-108.12134612398077"><ele>1816.0000000000002</ele><time>2026-04-15T23:39:31Z</time></trkpt><trkpt lat="36.8396765463195" lon="-108.12136888386873"><ele>1816.0</ele><time>2026-04-15T23:39:33Z</time></trkpt><trkpt lat="36.83975136164813" lon="-108.12141924857772"><ele>1816.0</ele><time>2026-04-15T23:39:34Z</time></trkpt><trkpt lat="36.839816564245666" lon="-108.12143262337278"><ele>1816.0</ele><time>2026-04-15T23:39:35Z</time></trkpt><trkpt lat="36.839884316244955" lon="-108.12138095043557"><ele>1816.0000000000002</ele><time>2026-04-15T23:39:36Z</time></trkpt><trkpt lat="36.83997353716805" lon="-108.121306624169"><ele>1816.0</ele><time>2026-04-15T23:39:37Z</time></trkpt><trkpt lat="36.84007850801572" lon="-108.12125553461476"><ele>1815.0</ele><time>2026-04-15T23:39:38Z</time></trkpt><trkpt lat="36.84017928294369" lon="-108.12120621525969"><ele>1814.0</ele><time>2026-04-15T23:39:39Z</time></trkpt><trkpt lat="36.8402756605963" lon="-108.12114733265366"><ele>1813.0</ele><time>2026-04-15T23:39:40Z</time></trkpt><trkpt lat="36.840335867401976" lon="-108.12109154508755"><ele>1812.0</ele><time>2026-04-15T23:39:41Z</time></trkpt><trkpt lat="36.84038867758756" lon="-108.12100940902414"><ele>1811.0</ele><time>2026-04-15T23:39:42Z</time></trkpt><trkpt lat="36.84044290174615" lon="-108.12087967649879"><ele>1811.0</ele><time>2026-04-15T23:39:43Z</time></trkpt><trkpt lat="36.8404798934629" lon="-108.12075282723514"><ele>1811.0</ele><time>2026-04-15T23:39:44Z</time></trkpt><trkpt lat="36.84050627560551" lon="-108.12064143494977"><ele>1811.0</ele><time>2026-04-15T23:39:45Z</time></trkpt><trkpt lat="36.840537288381306" lon="-108.12052762478686"><ele>1811.0</ele><time>2026-04-15T23:39:46Z</time></trkpt><trkpt lat="36.840589757238554" lon="-108.12040583786758"><ele>1811.0</ele><time>2026-04-15T23:39:47Z</time></trkpt><trkpt lat="36.840652376099634" lon="-108.1203036825995"><ele>1810.1999999999998</ele><time>2026-04-15T23:39:48Z</time></trkpt><trkpt lat="36.840708922291036" lon="-108.12021280049535"><ele>1809.3999999999999</ele><time>2026-04-15T23:39:49Z</time></trkpt><trkpt lat="36.840784904870254" lon="-108.12015367555038"><ele>1808.6</ele><time>2026-04-15T23:39:50Z</time></trkpt><trkpt lat="36.84087826935511" lon="-108.12009790658404"><ele>1807.8</ele><time>2026-04-15T23:39:51Z</time></trkpt><trkpt lat="36.84096893578453" lon="-108.12000780890844"><ele>1807.0</ele><time>2026-04-15T23:39:52Z</time></trkpt><trkpt lat="36.84102501973358" lon="-108.11995167338239"><ele>1806.3999999999999</ele><time>2026-04-15T23:39:53Z</time></trkpt><trkpt lat="36.841107452123374" lon="-108.11991070742577"><ele>1805.7999999999997</ele><time>2026-04-15T23:39:54Z</time></trkpt><trkpt lat="36.841227035117356" lon="-108.11986308288543"><ele>1805.2</ele><time>2026-04-15T23:39:55Z</time></trkpt><trkpt lat="36.84133568874336" lon="-108.11982836324661"><ele>1804.6</ele><time>2026-04-15T23:39:56Z</time></trkpt><trkpt lat="36.84144176197234" lon="-108.11982699194945"><ele>1804.0</ele><time>2026-04-15T23:39:57Z</time></trkpt><trkpt lat="36.84156226069864" lon="-108.11983852610486"><ele>1804.5</ele><time>2026-04-15T23:39:58Z</time></trkpt><trkpt lat="36.84169354929605" lon="-108.11983006104747"><ele>1805.0</ele><time>2026-04-15T23:39:59Z</time></trkpt><trkpt lat="36.8418336413717" lon="-108.11981689117684"><ele>1805.5</ele><time>2026-04-15T23:40:00Z</time></trkpt><trkpt lat="36.841966214767055" lon="-108.11979383309078"><ele>1806.0</ele><time>2026-04-15T23:40:01Z</time></trkpt><trkpt lat="36.84207328693753" lon="-108.11975643221977"><ele>1806.0</ele><time>2026-04-15T23:40:02Z</time></trkpt><trkpt lat="36.8421883786379" lon="-108.11969683748423"><ele>1806.0</ele><time>2026-04-15T23:40:03Z</time></trkpt><trkpt lat="36.84229088681806" lon="-108.11963376013374"><ele>1806.0</ele><time>2026-04-15T23:40:04Z</time></trkpt><trkpt lat="36.84237937507651" lon="-108.11963062462715"><ele>1806.0</ele><time>2026-04-15T23:40:05Z</time></trkpt><trkpt lat="36.842458887818054" lon="-108.11965133712444"><ele>1806.0</ele><time>2026-04-15T23:40:06Z</time></trkpt><trkpt lat="36.8425186221366" lon="-108.11961173714673"><ele>1806.0</ele><time>2026-04-15T23:40:07.001Z</time></trkpt><trkpt lat="36.842573529014054" lon="-108.11954220265059"><ele>1806.0</ele><time>2026-04-15T23:40:08.001Z</time></trkpt><trkpt lat="36.84263017787194" lon="-108.1194817856654"><ele>1806.0</ele><time>2026-04-15T23:40:09.001Z</time></trkpt><trkpt lat="36.8426883403532" lon="-108.11942390222346"><ele>1806.0</ele><time>2026-04-15T23:40:10.001Z</time></trkpt><trkpt lat="36.84273919079511" lon="-108.11934607589676"><ele>1806.0</ele><time>2026-04-15T23:40:11.001Z</time></trkpt><trkpt lat="36.84278631138338" lon="-108.11923138368448"><ele>1806.0</ele><time>2026-04-15T23:40:12.001Z</time></trkpt><trkpt lat="36.84284214847417" lon="-108.11913411649688"><ele>1806.1999999999998</ele><time>2026-04-15T23:40:13.001Z</time></trkpt><trkpt lat="36.842943665949015" lon="-108.11902788425483"><ele>1806.3999999999999</ele><time>2026-04-15T23:40:14.001Z</time></trkpt><trkpt lat="36.84301688142002" lon="-108.11893151774825"><ele>1806.6</ele><time>2026-04-15T23:40:15.001Z</time></trkpt><trkpt lat="36.8430653242451" lon="-108.1188209914214"><ele>1806.8</ele><time>2026-04-15T23:40:16.001Z</time></trkpt><trkpt lat="36.843104920292085" lon="-108.11871671105013"><ele>1807.0</ele><time>2026-04-15T23:40:17.001Z</time></trkpt><trkpt lat="36.843132708677736" lon="-108.11860932235514"><ele>1807.0</ele><time>2026-04-15T23:40:18.001Z</time></trkpt><trkpt lat="36.84326277454811" lon="-108.11856035832206"><ele>1807.0</ele><time>2026-04-15T23:40:20.001Z</time></trkpt><trkpt lat="36.843394436292954" lon="-108.11854192842802"><ele>1807.0</ele><time>2026-04-15T23:40:21.001Z</time></trkpt><trkpt lat="36.84350111509877" lon="-108.11847781053122"><ele>1807.0</ele><time>2026-04-15T23:40:22.001Z</time></trkpt><trkpt lat="36.84357359286178" lon="-108.11843401644721"><ele>1807.3999999999999</ele><time>2026-04-15T23:40:23.001Z</time></trkpt><trkpt lat="36.84364135700967" lon="-108.1183824730309"><ele>1807.7999999999997</ele><time>2026-04-15T23:40:24.001Z</time></trkpt><trkpt lat="36.8436992401836" lon="-108.1183008078879"><ele>1808.2</ele><time>2026-04-15T23:40:25.001Z</time></trkpt><trkpt lat="36.84375753409258" lon="-108.11817704253724"><ele>1808.6</ele><time>2026-04-15T23:40:26.001Z</time></trkpt><trkpt lat="36.843806247709175" lon="-108.11804569366416"><ele>1809.0</ele><time>2026-04-15T23:40:27.001Z</time></trkpt><trkpt lat="36.843856884348924" lon="-108.11794264481412"><ele>1808.0</ele><time>2026-04-15T23:40:28.001Z</time></trkpt><trkpt lat="36.843917620978246" lon="-108.11786299147519"><ele>1807.0</ele><time>2026-04-15T23:40:29.001Z</time></trkpt><trkpt lat="36.843990618402735" lon="-108.11781324569615"><ele>1806.0</ele><time>2026-04-15T23:40:30.001Z</time></trkpt><trkpt lat="36.84405489453285" lon="-108.11776344644497"><ele>1805.0</ele><time>2026-04-15T23:40:31.001Z</time></trkpt><trkpt lat="36.844133352879524" lon="-108.11768366631443"><ele>1804.0</ele><time>2026-04-15T23:40:32.001Z</time></trkpt><trkpt lat="36.8441793476612" lon="-108.11757978544948"><ele>1803.0</ele><time>2026-04-15T23:40:33.001Z</time></trkpt><trkpt lat="36.84425751718501" lon="-108.1174665703288"><ele>1802.6000000000001</ele><time>2026-04-15T23:40:35.001Z</time></trkpt><trkpt lat="36.84434951513805" lon="-108.1174057497493"><ele>1802.2000000000003</ele><time>2026-04-15T23:40:36.001Z</time></trkpt><trkpt lat="36.84443456036601" lon="-108.11734129751144"><ele>1801.8</ele><time>2026-04-15T23:40:37Z</time></trkpt><trkpt lat="36.84448194598501" lon="-108.11727678619886"><ele>1801.4</ele><time>2026-04-15T23:40:38Z</time></trkpt><trkpt lat="36.84452472058379" lon="-108.1171670905198"><ele>1801.0</ele><time>2026-04-15T23:40:39Z</time></trkpt><trkpt lat="36.84457123058827" lon="-108.11702986238167"><ele>1801.1999999999998</ele><time>2026-04-15T23:40:40Z</time></trkpt><trkpt lat="36.84460982321891" lon="-108.1169290344289"><ele>1801.3999999999999</ele><time>2026-04-15T23:40:41Z</time></trkpt><trkpt lat="36.844651832107104" lon="-108.11683193853328"><ele>1801.6</ele><time>2026-04-15T23:40:42Z</time></trkpt><trkpt lat="36.84470827679957" lon="-108.1167145518308"><ele>1801.8</ele><time>2026-04-15T23:40:43Z</time></trkpt><trkpt lat="36.84478933099778" lon="-108.1165996483509"><ele>1802.0</ele><time>2026-04-15T23:40:44Z</time></trkpt><trkpt lat="36.84487694305158" lon="-108.1165190990906"><ele>1802.0</ele><time>2026-04-15T23:40:45Z</time></trkpt><trkpt lat="36.84497280395515" lon="-108.11646196934679"><ele>1802.0</ele><time>2026-04-15T23:40:46Z</time></trkpt><trkpt lat="36.84507920944901" lon="-108.11640033915971"><ele>1802.0</ele><time>2026-04-15T23:40:47Z</time></trkpt><trkpt lat="36.8451800865683" lon="-108.11628678655474"><ele>1802.0</ele><time>2026-04-15T23:40:48Z</time></trkpt><trkpt lat="36.84523728580077" lon="-108.11616145620839"><ele>1801.9999999999998</ele><time>2026-04-15T23:40:49Z</time></trkpt><trkpt lat="36.84526790489802" lon="-108.11608724267509"><ele>1802.0</ele><time>2026-04-15T23:40:50Z</time></trkpt><trkpt lat="36.84529598011006" lon="-108.11596668643305"><ele>1802.0</ele><time>2026-04-15T23:40:52Z</time></trkpt><trkpt lat="36.845291877231446" lon="-108.11588417766193"><ele>1802.0</ele><time>2026-04-15T23:40:53Z</time></trkpt><trkpt lat="36.84527876310966" lon="-108.11580608075413"><ele>1801.9999999999998</ele><time>2026-04-15T23:40:55Z</time></trkpt><trkpt lat="36.84519293715697" lon="-108.11578771464924"><ele>1802.0</ele><time>2026-04-15T23:43:10Z</time></trkpt><trkpt lat="36.8451196881675" lon="-108.11574160335758"><ele>1802.8</ele><time>2026-04-15T23:43:11Z</time></trkpt><trkpt lat="36.84504849444133" lon="-108.11568781746467"><ele>1803.6</ele><time>2026-04-15T23:43:12Z</time></trkpt><trkpt lat="36.844976761362126" lon="-108.11559941722714"><ele>1804.3999999999999</ele><time>2026-04-15T23:43:13Z</time></trkpt><trkpt lat="36.84491408335612" lon="-108.11546971420053"><ele>1805.1999999999998</ele><time>2026-04-15T23:43:14Z</time></trkpt><trkpt lat="36.84487067490685" lon="-108.11530630947672"><ele>1806.0</ele><time>2026-04-15T23:43:15Z</time></trkpt><trkpt lat="36.84484686688108" lon="-108.11514833153811"><ele>1806.0</ele><time>2026-04-15T23:43:16Z</time></trkpt><trkpt lat="36.84483428304979" lon="-108.1150170110847"><ele>1806.0</ele><time>2026-04-15T23:43:17Z</time></trkpt><trkpt lat="36.84491675553045" lon="-108.1148848822649"><ele>1806.0</ele><time>2026-04-15T23:43:20Z</time></trkpt><trkpt lat="36.844979318748614" lon="-108.11479826884941"><ele>1806.0</ele><time>2026-04-15T23:43:21Z</time></trkpt><trkpt lat="36.8449945149849" lon="-108.1147142432301"><ele>1806.0</ele><time>2026-04-15T23:43:22Z</time></trkpt><trkpt lat="36.844957852828166" lon="-108.11460122273364"><ele>1807.0</ele><time>2026-04-15T23:43:23Z</time></trkpt><trkpt lat="36.844920060803304" lon="-108.11450583354562"><ele>1808.0</ele><time>2026-04-15T23:43:24Z</time></trkpt><trkpt lat="36.844959867221625" lon="-108.11443806695529"><ele>1809.0</ele><time>2026-04-15T23:43:25Z</time></trkpt><trkpt lat="36.84499956620713" lon="-108.11431616778232"><ele>1810.0</ele><time>2026-04-15T23:43:26Z</time></trkpt><trkpt lat="36.844996021165095" lon="-108.1141835414349"><ele>1811.0</ele><time>2026-04-15T23:43:27Z</time></trkpt><trkpt lat="36.844970167443" lon="-108.11405746409424"><ele>1811.8333333333333</ele><time>2026-04-15T23:43:28Z</time></trkpt><trkpt lat="36.844922366776565" lon="-108.11396705683818"><ele>1812.6666666666665</ele><time>2026-04-15T23:43:29Z</time></trkpt><trkpt lat="36.84486854279933" lon="-108.11387995136273"><ele>1813.5</ele><time>2026-04-15T23:43:34Z</time></trkpt><trkpt lat="36.84480525101322" lon="-108.11381754031993"><ele>1814.3333333333335</ele><time>2026-04-15T23:43:36Z</time></trkpt><trkpt lat="36.844799185091446" lon="-108.1137361170098"><ele>1815.1666666666667</ele><time>2026-04-15T23:43:38Z</time></trkpt><trkpt lat="36.84481431003069" lon="-108.11364489238356"><ele>1816.0</ele><time>2026-04-15T23:43:39Z</time></trkpt><trkpt lat="36.844818839133325" lon="-108.11356080185863"><ele>1816.0</ele><time>2026-04-15T23:43:40Z</time></trkpt><trkpt lat="36.844802905194406" lon="-108.11347587197176"><ele>1816.0</ele><time>2026-04-15T23:43:41Z</time></trkpt><trkpt lat="36.84476907673272" lon="-108.11338410000357"><ele>1816.0</ele><time>2026-04-15T23:43:42Z</time></trkpt><trkpt lat="36.844675483418044" lon="-108.11328027134871"><ele>1816.0</ele><time>2026-04-15T23:43:44Z</time></trkpt><trkpt lat="36.84459584067698" lon="-108.11318490525007"><ele>1816.0</ele><time>2026-04-15T23:43:45Z</time></trkpt><trkpt lat="36.844538907147" lon="-108.11305607922054"><ele>1816.0</ele><time>2026-04-15T23:43:46Z</time></trkpt><trkpt lat="36.84448720852505" lon="-108.11291071681748"><ele>1816.0</ele><time>2026-04-15T23:43:47Z</time></trkpt><trkpt lat="36.84442318389392" lon="-108.11280727439342"><ele>1816.0</ele><time>2026-04-15T23:43:48Z</time></trkpt><trkpt lat="36.84437506318224" lon="-108.11270834900336"><ele>1816.0</ele><time>2026-04-15T23:43:49Z</time></trkpt><trkpt lat="36.844349675969745" lon="-108.11259143982512"><ele>1816.0</ele><time>2026-04-15T23:43:50Z</time></trkpt><trkpt lat="36.84434661673145" lon="-108.11241282824217"><ele>1816.6666666666667</ele><time>2026-04-15T23:43:51Z</time></trkpt><trkpt lat="36.84435582805981" lon="-108.11221025891021"><ele>1817.3333333333335</ele><time>2026-04-15T23:43:52Z</time></trkpt><trkpt lat="36.84436444427327" lon="-108.11199765644005"><ele>1818.0</ele><time>2026-04-15T23:43:53Z</time></trkpt><trkpt lat="36.84433480861293" lon="-108.11181530653411"><ele>1818.0</ele><time>2026-04-15T23:43:54Z</time></trkpt><trkpt lat="36.84431261143299" lon="-108.1116748105428"><ele>1818.0000000000002</ele><time>2026-04-15T23:43:55Z</time></trkpt><trkpt lat="36.844294622054235" lon="-108.11157041401121"><ele>1818.0000000000002</ele><time>2026-04-15T23:43:56Z</time></trkpt><trkpt lat="36.844209154475344" lon="-108.11145873612968"><ele>1818.0</ele><time>2026-04-15T23:43:58Z</time></trkpt><trkpt lat="36.844136483493024" lon="-108.11144388211659"><ele>1818.0</ele><time>2026-04-15T23:43:59Z</time></trkpt><trkpt lat="36.844070404807184" lon="-108.11144661425556"><ele>1817.8333333333333</ele><time>2026-04-15T23:44:00Z</time></trkpt><trkpt lat="36.84399922960613" lon="-108.1114669774361"><ele>1817.6666666666665</ele><time>2026-04-15T23:44:01Z</time></trkpt><trkpt lat="36.84390610002064" lon="-108.11148908886649"><ele>1817.5</ele><time>2026-04-15T23:44:02Z</time></trkpt><trkpt lat="36.84382219848957" lon="-108.11153398116947"><ele>1817.3333333333333</ele><time>2026-04-15T23:44:03Z</time></trkpt><trkpt lat="36.84373316545852" lon="-108.11157526023611"><ele>1817.1666666666665</ele><time>2026-04-15T23:44:04Z</time></trkpt><trkpt lat="36.84364476460581" lon="-108.11160038661166"><ele>1817.0</ele><time>2026-04-15T23:44:05Z</time></trkpt><trkpt lat="36.84356742556707" lon="-108.11161093729329"><ele>1817.0</ele><time>2026-04-15T23:44:06Z</time></trkpt><trkpt lat="36.843474602709655" lon="-108.11159884700635"><ele>1816.9999999999998</ele><time>2026-04-15T23:44:07Z</time></trkpt><trkpt lat="36.843403613233406" lon="-108.11160739626129"><ele>1816.9999999999998</ele><time>2026-04-15T23:44:08Z</time></trkpt><trkpt lat="36.84329345033724" lon="-108.11156529768957"><ele>1817.0</ele><time>2026-04-15T23:44:10Z</time></trkpt><trkpt lat="36.843207103577704" lon="-108.11150601748747"><ele>1817.0</ele><time>2026-04-15T23:44:11Z</time></trkpt><trkpt lat="36.84312769436437" lon="-108.11146695057037"><ele>1815.3999999999999</ele><time>2026-04-15T23:44:12Z</time></trkpt><trkpt lat="36.8430482814581" lon="-108.11142686774696"><ele>1813.7999999999997</ele><time>2026-04-15T23:44:13Z</time></trkpt><trkpt lat="36.84296827606042" lon="-108.1113816207817"><ele>1812.2</ele><time>2026-04-15T23:44:14Z</time></trkpt><trkpt lat="36.842909254869" lon="-108.11131065142332"><ele>1810.6</ele><time>2026-04-15T23:44:15Z</time></trkpt><trkpt lat="36.8428705937542" lon="-108.11116685730197"><ele>1809.0</ele><time>2026-04-15T23:44:18Z</time></trkpt><trkpt lat="36.842786281277654" lon="-108.1110864547875"><ele>1809.0</ele><time>2026-04-15T23:44:19Z</time></trkpt><trkpt lat="36.84267531620445" lon="-108.11099429724749"><ele>1809.0</ele><time>2026-04-15T23:44:20Z</time></trkpt><trkpt lat="36.84255617642312" lon="-108.1108933252599"><ele>1809.0</ele><time>2026-04-15T23:44:21.001Z</time></trkpt><trkpt lat="36.84244568494682" lon="-108.11079453033115"><ele>1809.0</ele><time>2026-04-15T23:44:22.001Z</time></trkpt><trkpt lat="36.84236436583698" lon="-108.11071841370433"><ele>1808.1666666666667</ele><time>2026-04-15T23:44:23.001Z</time></trkpt><trkpt lat="36.84228348263191" lon="-108.1106396139539"><ele>1807.3333333333335</ele><time>2026-04-15T23:44:24.001Z</time></trkpt><trkpt lat="36.84219468648571" lon="-108.11056745447067"><ele>1806.5</ele><time>2026-04-15T23:44:25.001Z</time></trkpt><trkpt lat="36.84213544193478" lon="-108.1105195398133"><ele>1805.6666666666667</ele><time>2026-04-15T23:44:26.001Z</time></trkpt><trkpt lat="36.84208900714115" lon="-108.11045401832918"><ele>1804.8333333333335</ele><time>2026-04-15T23:44:28.001Z</time></trkpt><trkpt lat="36.842070837194086" lon="-108.11033657228948"><ele>1804.0</ele><time>2026-04-15T23:44:30.001Z</time></trkpt><trkpt lat="36.84211366323663" lon="-108.11022798509967"><ele>1804.0</ele><time>2026-04-15T23:44:32.001Z</time></trkpt><trkpt lat="36.84214820450334" lon="-108.11013552929484"><ele>1804.0</ele><time>2026-04-15T23:44:33.001Z</time></trkpt><trkpt lat="36.84218995868986" lon="-108.11002256767665"><ele>1804.0</ele><time>2026-04-15T23:44:34.001Z</time></trkpt><trkpt lat="36.84222813039453" lon="-108.10991611018908"><ele>1804.0</ele><time>2026-04-15T23:44:35.001Z</time></trkpt><trkpt lat="36.84227057559821" lon="-108.10982325271924"><ele>1804.0</ele><time>2026-04-15T23:44:36.001Z</time></trkpt><trkpt lat="36.84228915410647" lon="-108.10969684622735"><ele>1804.6</ele><time>2026-04-15T23:44:37.001Z</time></trkpt><trkpt lat="36.842253384620335" lon="-108.10958975650016"><ele>1805.2</ele><time>2026-04-15T23:44:38.001Z</time></trkpt><trkpt lat="36.84220899276942" lon="-108.10949350246503"><ele>1805.7999999999997</ele><time>2026-04-15T23:44:39.001Z</time></trkpt><trkpt lat="36.842197433885964" lon="-108.10941397380459"><ele>1806.3999999999999</ele><time>2026-04-15T23:44:40.001Z</time></trkpt><trkpt lat="36.842278692261274" lon="-108.10930656996229"><ele>1807.0</ele><time>2026-04-15T23:44:42.001Z</time></trkpt><trkpt lat="36.84233401187475" lon="-108.10919130298255"><ele>1805.3999999999999</ele><time>2026-04-15T23:44:43.001Z</time></trkpt><trkpt lat="36.84235611913248" lon="-108.10905380533337"><ele>1803.7999999999997</ele><time>2026-04-15T23:44:44.001Z</time></trkpt><trkpt lat="36.84236492817538" lon="-108.10894370057686"><ele>1802.2</ele><time>2026-04-15T23:44:45.001Z</time></trkpt><trkpt lat="36.84239257241547" lon="-108.10882949605693"><ele>1800.6</ele><time>2026-04-15T23:44:46.001Z</time></trkpt><trkpt lat="36.84242804437204" lon="-108.10872882235937"><ele>1799.0</ele><time>2026-04-15T23:44:47.001Z</time></trkpt><trkpt lat="36.84247887426398" lon="-108.1086336442452"><ele>1798.9999999999998</ele><time>2026-04-15T23:44:48.001Z</time></trkpt><trkpt lat="36.842503256279706" lon="-108.10854107682094"><ele>1799.0</ele><time>2026-04-15T23:44:49Z</time></trkpt><trkpt lat="36.842510861945854" lon="-108.10844104529147"><ele>1799.0</ele><time>2026-04-15T23:44:49.999Z</time></trkpt><trkpt lat="36.84250125413248" lon="-108.10835266680398"><ele>1799.0</ele><time>2026-04-15T23:44:51Z</time></trkpt><trkpt lat="36.842453823917175" lon="-108.1082618800068"><ele>1798.9999999999998</ele><time>2026-04-15T23:44:52Z</time></trkpt><trkpt lat="36.84236993422186" lon="-108.10819370987055"><ele>1799.0</ele><time>2026-04-15T23:44:52.999Z</time></trkpt><trkpt lat="36.84225660639226" lon="-108.10813042283057"><ele>1797.4</ele><time>2026-04-15T23:44:54Z</time></trkpt><trkpt lat="36.84213468034249" lon="-108.1080506769477"><ele>1795.8000000000002</ele><time>2026-04-15T23:44:55Z</time></trkpt><trkpt lat="36.842042373805825" lon="-108.10798206410563"><ele>1794.1999999999998</ele><time>2026-04-15T23:44:56Z</time></trkpt><trkpt lat="36.84197269357516" lon="-108.10792106750505"><ele>1792.6</ele><time>2026-04-15T23:44:57Z</time></trkpt><trkpt lat="36.841885873710154" lon="-108.1078385043381"><ele>1791.0</ele><time>2026-04-15T23:44:58Z</time></trkpt><trkpt lat="36.84182450861573" lon="-108.10778957878519"><ele>1791.0</ele><time>2026-04-15T23:44:59Z</time></trkpt><trkpt lat="36.84183262296702" lon="-108.10765854527652"><ele>1791.0</ele><time>2026-04-15T23:45:01Z</time></trkpt><trkpt lat="36.841813150601816" lon="-108.10750618789159"><ele>1791.0</ele><time>2026-04-15T23:45:02Z</time></trkpt><trkpt lat="36.84178016444706" lon="-108.10737363799873"><ele>1791.0</ele><time>2026-04-15T23:45:03Z</time></trkpt><trkpt lat="36.841753054362734" lon="-108.10727228097912"><ele>1791.0</ele><time>2026-04-15T23:45:04Z</time></trkpt><trkpt lat="36.84173861306744" lon="-108.10718446502959"><ele>1790.25</ele><time>2026-04-15T23:45:06Z</time></trkpt><trkpt lat="36.84183995108479" lon="-108.10702948819842"><ele>1789.5</ele><time>2026-04-15T23:45:08Z</time></trkpt><trkpt lat="36.841910847221136" lon="-108.10688104034685"><ele>1788.75</ele><time>2026-04-15T23:45:09Z</time></trkpt><trkpt lat="36.84198618564656" lon="-108.1067657792052"><ele>1788.0</ele><time>2026-04-15T23:45:10Z</time></trkpt><trkpt lat="36.842097669463975" lon="-108.1066821249157"><ele>1787.5</ele><time>2026-04-15T23:45:11Z</time></trkpt><trkpt lat="36.84222457702991" lon="-108.10656243735144"><ele>1787.0</ele><time>2026-04-15T23:45:12Z</time></trkpt><trkpt lat="36.84231256562955" lon="-108.10643176896677"><ele>1786.5</ele><time>2026-04-15T23:45:13Z</time></trkpt><trkpt lat="36.84235773696014" lon="-108.10629650026037"><ele>1786.0</ele><time>2026-04-15T23:45:14Z</time></trkpt><trkpt lat="36.84238666516726" lon="-108.10614356627056"><ele>1786.0</ele><time>2026-04-15T23:45:15Z</time></trkpt><trkpt lat="36.842409631459816" lon="-108.10603572493335"><ele>1786.0</ele><time>2026-04-15T23:45:16Z</time></trkpt><trkpt lat="36.8423839848469" lon="-108.10589800757"><ele>1786.0</ele><time>2026-04-15T23:45:18Z</time></trkpt><trkpt lat="36.84231748557972" lon="-108.10579870743226"><ele>1786.0</ele><time>2026-04-15T23:45:19Z</time></trkpt><trkpt lat="36.842219890494064" lon="-108.10566068947294"><ele>1785.8</ele><time>2026-04-15T23:45:20Z</time></trkpt><trkpt lat="36.84211453749623" lon="-108.10552374193767"><ele>1785.6</ele><time>2026-04-15T23:45:21Z</time></trkpt><trkpt lat="36.84202955167104" lon="-108.10541282464203"><ele>1785.4</ele><time>2026-04-15T23:45:22Z</time></trkpt><trkpt lat="36.841965696339656" lon="-108.10532451578355"><ele>1785.2</ele><time>2026-04-15T23:45:23Z</time></trkpt><trkpt lat="36.84192251481546" lon="-108.1052657493658"><ele>1785.0</ele><time>2026-04-15T23:45:24Z</time></trkpt><trkpt lat="36.84193469806006" lon="-108.10517601068024"><ele>1785.0</ele><time>2026-04-15T23:45:26Z</time></trkpt><trkpt lat="36.84199928817545" lon="-108.10511801211666"><ele>1785.0</ele><time>2026-04-15T23:45:27Z</time></trkpt><trkpt lat="36.842094636225006" lon="-108.1050689873142"><ele>1785.0</ele><time>2026-04-15T23:45:28Z</time></trkpt><trkpt lat="36.84220596982341" lon="-108.10501146252065"><ele>1785.0</ele><time>2026-04-15T23:45:29Z</time></trkpt><trkpt lat="36.842315536158445" lon="-108.10495454974865"><ele>1785.0</ele><time>2026-04-15T23:45:30Z</time></trkpt><trkpt lat="36.84241424338736" lon="-108.1049233828316"><ele>1785.0</ele><time>2026-04-15T23:45:31Z</time></trkpt><trkpt lat="36.84248406681144" lon="-108.10489530943131"><ele>1785.0</ele><time>2026-04-15T23:45:32Z</time></trkpt><trkpt lat="36.842544971791334" lon="-108.10482117499583"><ele>1785.0</ele><time>2026-04-15T23:45:33Z</time></trkpt><trkpt lat="36.84259421844861" lon="-108.10476365593313"><ele>1785.0</ele><time>2026-04-15T23:45:34Z</time></trkpt><trkpt lat="36.84267912218471" lon="-108.10479611337793"><ele>1785.0</ele><time>2026-04-15T23:45:36Z</time></trkpt><trkpt lat="36.84274640495196" lon="-108.10467721759466"><ele>1785.0</ele><time>2026-04-15T23:45:38Z</time></trkpt><trkpt lat="36.84274516160174" lon="-108.10457475575427"><ele>1785.5</ele><time>2026-04-15T23:45:39Z</time></trkpt><trkpt lat="36.842743178043705" lon="-108.1044528205028"><ele>1786.0</ele><time>2026-04-15T23:45:40Z</time></trkpt><trkpt lat="36.842776716970036" lon="-108.10431221205228"><ele>1786.5</ele><time>2026-04-15T23:45:41Z</time></trkpt><trkpt lat="36.842830531096595" lon="-108.10417245470256"><ele>1787.0</ele><time>2026-04-15T23:45:42Z</time></trkpt><trkpt lat="36.84288122464023" lon="-108.10400857172246"><ele>1787.0</ele><time>2026-04-15T23:45:43Z</time></trkpt><trkpt lat="36.84293643574666" lon="-108.10383246499327"><ele>1787.0</ele><time>2026-04-15T23:45:44Z</time></trkpt><trkpt lat="36.842995766097744" lon="-108.10365007821291"><ele>1787.0</ele><time>2026-04-15T23:45:45Z</time></trkpt><trkpt lat="36.8430642627246" lon="-108.10343857116635"><ele>1788.3333333333333</ele><time>2026-04-15T23:45:46Z</time></trkpt><trkpt lat="36.84312819496607" lon="-108.10321571934604"><ele>1789.6666666666665</ele><time>2026-04-15T23:45:47Z</time></trkpt><trkpt lat="36.84318664608405" lon="-108.10300495252267"><ele>1791.0</ele><time>2026-04-15T23:45:48Z</time></trkpt><trkpt lat="36.843242056151226" lon="-108.10281673012335"><ele>1791.0</ele><time>2026-04-15T23:45:49Z</time></trkpt><trkpt lat="36.84329056325988" lon="-108.10263643661163"><ele>1791.0</ele><time>2026-04-15T23:45:50Z</time></trkpt><trkpt lat="36.84333182686079" lon="-108.10249283889436"><ele>1791.0</ele><time>2026-04-15T23:45:51Z</time></trkpt><trkpt lat="36.84336322569906" lon="-108.10240472795502"><ele>1791.0</ele><time>2026-04-15T23:45:52Z</time></trkpt><trkpt lat="36.84339379078259" lon="-108.10228878679538"><ele>1791.0</ele><time>2026-04-15T23:45:53Z</time></trkpt><trkpt lat="36.84344577778024" lon="-108.10215035139744"><ele>1792.0</ele><time>2026-04-15T23:45:54Z</time></trkpt><trkpt lat="36.84349167354599" lon="-108.10201849600168"><ele>1793.0</ele><time>2026-04-15T23:45:55Z</time></trkpt><trkpt lat="36.843497097728445" lon="-108.10191842898048"><ele>1794.0</ele><time>2026-04-15T23:45:56Z</time></trkpt><trkpt lat="36.84347494270221" lon="-108.10180514879356"><ele>1795.0</ele><time>2026-04-15T23:45:57Z</time></trkpt><trkpt lat="36.843456244901944" lon="-108.10165132556867"><ele>1796.0</ele><time>2026-04-15T23:45:58Z</time></trkpt><trkpt lat="36.843460833088336" lon="-108.10157124017316"><ele>1797.4</ele><time>2026-04-15T23:45:59Z</time></trkpt><trkpt lat="36.843511222358075" lon="-108.1014806800635"><ele>1798.8</ele><time>2026-04-15T23:46:00Z</time></trkpt><trkpt lat="36.843528651225206" lon="-108.10136078121421"><ele>1800.2000000000003</ele><time>2026-04-15T23:46:01Z</time></trkpt><trkpt lat="36.843487687214584" lon="-108.10124591928793"><ele>1801.6000000000001</ele><time>2026-04-15T23:46:02Z</time></trkpt><trkpt lat="36.843464385952736" lon="-108.10114789204634"><ele>1803.0</ele><time>2026-04-15T23:46:03Z</time></trkpt><trkpt lat="36.84347675253342" lon="-108.10104145263115"><ele>1803.0</ele><time>2026-04-15T23:46:04Z</time></trkpt><trkpt lat="36.84350353997543" lon="-108.10093299373773"><ele>1803.0</ele><time>2026-04-15T23:46:05Z</time></trkpt><trkpt lat="36.843562950097066" lon="-108.1008678382214"><ele>1803.0</ele><time>2026-04-15T23:46:06Z</time></trkpt><trkpt lat="36.843592796594656" lon="-108.10077316668027"><ele>1803.0</ele><time>2026-04-15T23:46:07Z</time></trkpt><trkpt lat="36.843593178044" lon="-108.10067759875746"><ele>1803.0</ele><time>2026-04-15T23:46:08Z</time></trkpt><trkpt lat="36.843602252002164" lon="-108.10059764229506"><ele>1803.0</ele><time>2026-04-15T23:46:09Z</time></trkpt><trkpt lat="36.84365670922341" lon="-108.10055074945703"><ele>1803.8000000000002</ele><time>2026-04-15T23:46:10Z</time></trkpt><trkpt lat="36.84375760150927" lon="-108.10047367701878"><ele>1804.6000000000001</ele><time>2026-04-15T23:46:11Z</time></trkpt><trkpt lat="36.84386009522017" lon="-108.10040233383711"><ele>1805.3999999999999</ele><time>2026-04-15T23:46:12Z</time></trkpt><trkpt lat="36.843943282274644" lon="-108.10033506522906"><ele>1806.1999999999998</ele><time>2026-04-15T23:46:13Z</time></trkpt><trkpt lat="36.84398602909785" lon="-108.10026440937654"><ele>1807.0</ele><time>2026-04-15T23:46:14Z</time></trkpt><trkpt lat="36.84402242263569" lon="-108.10019871210581"><ele>1807.0000000000002</ele><time>2026-04-15T23:46:15Z</time></trkpt><trkpt lat="36.84409527768958" lon="-108.10013644386325"><ele>1807.0</ele><time>2026-04-15T23:46:16Z</time></trkpt><trkpt lat="36.844173714786415" lon="-108.10010167186665"><ele>1807.0</ele><time>2026-04-15T23:46:17Z</time></trkpt><trkpt lat="36.84424409787043" lon="-108.1000802597772"><ele>1807.0</ele><time>2026-04-15T23:46:18Z</time></trkpt><trkpt lat="36.84430369900132" lon="-108.10004452272365"><ele>1807.0000000000002</ele><time>2026-04-15T23:46:19Z</time></trkpt><trkpt lat="36.84438846651764" lon="-108.09995355449311"><ele>1807.0</ele><time>2026-04-15T23:46:21Z</time></trkpt><trkpt lat="36.844461438834635" lon="-108.09992256359291"><ele>1807.0</ele><time>2026-04-15T23:46:22Z</time></trkpt><trkpt lat="36.84454132897895" lon="-108.09991339797084"><ele>1806.9999999999998</ele><time>2026-04-15T23:46:23Z</time></trkpt><trkpt lat="36.844623404351246" lon="-108.10000362202788"><ele>1806.9999999999998</ele><time>2026-04-15T23:46:25.001Z</time></trkpt><trkpt lat="36.84468481456853" lon="-108.1001057154804"><ele>1807.0</ele><time>2026-04-15T23:46:26.001Z</time></trkpt><trkpt lat="36.84478310898122" lon="-108.10020538848445"><ele>1807.0</ele><time>2026-04-15T23:46:27.001Z</time></trkpt><trkpt lat="36.84487696103329" lon="-108.1002783580103"><ele>1806.8</ele><time>2026-04-15T23:46:28.001Z</time></trkpt><trkpt lat="36.8449448598865" lon="-108.10030823781756"><ele>1806.6</ele><time>2026-04-15T23:46:29.001Z</time></trkpt><trkpt lat="36.84507665406867" lon="-108.10024591673955"><ele>1806.3999999999999</ele><time>2026-04-15T23:46:31.001Z</time></trkpt><trkpt lat="36.84517368725407" lon="-108.10019871859038"><ele>1806.1999999999998</ele><time>2026-04-15T23:46:32.001Z</time></trkpt><trkpt lat="36.84525247531713" lon="-108.10019316684055"><ele>1806.0</ele><time>2026-04-15T23:46:33.001Z</time></trkpt><trkpt lat="36.84538069801146" lon="-108.1001721956917"><ele>1805.8</ele><time>2026-04-15T23:46:35.001Z</time></trkpt><trkpt lat="36.84547052645103" lon="-108.10010772827994"><ele>1805.6</ele><time>2026-04-15T23:46:36.001Z</time></trkpt><trkpt lat="36.845566487482785" lon="-108.1000243684263"><ele>1805.4</ele><time>2026-04-15T23:46:37.001Z</time></trkpt><trkpt lat="36.84565286732767" lon="-108.0999581429029"><ele>1805.2</ele><time>2026-04-15T23:46:38.001Z</time></trkpt><trkpt lat="36.845742929351836" lon="-108.09986940458415"><ele>1805.0</ele><time>2026-04-15T23:46:39.001Z</time></trkpt><trkpt lat="36.84581269818423" lon="-108.09984096494627"><ele>1804.25</ele><time>2026-04-15T23:46:40.001Z</time></trkpt><trkpt lat="36.84590536383436" lon="-108.09995692470646"><ele>1803.5</ele><time>2026-04-15T23:46:42.001Z</time></trkpt><trkpt lat="36.84599885450464" lon="-108.10005722941884"><ele>1802.75</ele><time>2026-04-15T23:46:43.001Z</time></trkpt><trkpt lat="36.84611104705455" lon="-108.10009852312362"><ele>1802.0</ele><time>2026-04-15T23:46:44.001Z</time></trkpt><trkpt lat="36.84626420384098" lon="-108.10011760791686"><ele>1802.0</ele><time>2026-04-15T23:46:45.001Z</time></trkpt><trkpt lat="36.84638663713612" lon="-108.10014780345023"><ele>1802.0</ele><time>2026-04-15T23:46:46.001Z</time></trkpt><trkpt lat="36.846495827226896" lon="-108.10017830486508"><ele>1802.0</ele><time>2026-04-15T23:46:47.001Z</time></trkpt><trkpt lat="36.84661090816622" lon="-108.10019243975904"><ele>1802.0</ele><time>2026-04-15T23:46:48.001Z</time></trkpt><trkpt lat="36.84671645523865" lon="-108.1001893661141"><ele>1802.0</ele><time>2026-04-15T23:46:49.001Z</time></trkpt><trkpt lat="36.84678748104491" lon="-108.10014540901115"><ele>1802.0</ele><time>2026-04-15T23:46:50.001Z</time></trkpt><trkpt lat="36.84684642014001" lon="-108.10003144375005"><ele>1802.0</ele><time>2026-04-15T23:46:51.001Z</time></trkpt><trkpt lat="36.846905579862124" lon="-108.09986655947955"><ele>1802.0</ele><time>2026-04-15T23:46:52.001Z</time></trkpt><trkpt lat="36.846977697442114" lon="-108.09969810614515"><ele>1802.3333333333333</ele><time>2026-04-15T23:46:53.001Z</time></trkpt><trkpt lat="36.847083463851206" lon="-108.09956406965337"><ele>1802.6666666666665</ele><time>2026-04-15T23:46:54.001Z</time></trkpt><trkpt lat="36.84723453684167" lon="-108.0994497262171"><ele>1803.0</ele><time>2026-04-15T23:46:55Z</time></trkpt><trkpt lat="36.847388829999765" lon="-108.09934075755024"><ele>1803.0</ele><time>2026-04-15T23:46:56Z</time></trkpt><trkpt lat="36.84749730710297" lon="-108.09922426549132"><ele>1803.0</ele><time>2026-04-15T23:46:57Z</time></trkpt><trkpt lat="36.84753633742216" lon="-108.09908188739959"><ele>1803.0</ele><time>2026-04-15T23:46:58Z</time></trkpt><trkpt lat="36.8475860055884" lon="-108.09892168599777"><ele>1803.0</ele><time>2026-04-15T23:46:59Z</time></trkpt><trkpt lat="36.84767802315397" lon="-108.0987457605583"><ele>1804.0</ele><time>2026-04-15T23:47:00Z</time></trkpt><trkpt lat="36.847784147878336" lon="-108.09860189570213"><ele>1805.0</ele><time>2026-04-15T23:47:01Z</time></trkpt><trkpt lat="36.84789768921513" lon="-108.09849667034445"><ele>1806.0</ele><time>2026-04-15T23:47:02Z</time></trkpt><trkpt lat="36.84798549949951" lon="-108.09840814377883"><ele>1807.0</ele><time>2026-04-15T23:47:03Z</time></trkpt><trkpt lat="36.84805729786434" lon="-108.0983554202738"><ele>1807.0</ele><time>2026-04-15T23:47:04Z</time></trkpt><trkpt lat="36.8481398628114" lon="-108.09832513721416"><ele>1806.9999999999998</ele><time>2026-04-15T23:47:05Z</time></trkpt><trkpt lat="36.84824052882049" lon="-108.09829298390103"><ele>1806.9999999999998</ele><time>2026-04-15T23:47:06Z</time></trkpt><trkpt lat="36.848329594798685" lon="-108.09820351390113"><ele>1807.0</ele><time>2026-04-15T23:47:07Z</time></trkpt><trkpt lat="36.848427482247324" lon="-108.09816494286339"><ele>1807.0</ele><time>2026-04-15T23:47:08Z</time></trkpt><trkpt lat="36.84854016337979" lon="-108.09812931259655"><ele>1808.1999999999998</ele><time>2026-04-15T23:47:09Z</time></trkpt><trkpt lat="36.848641489335755" lon="-108.0980753538673"><ele>1809.3999999999999</ele><time>2026-04-15T23:47:10Z</time></trkpt><trkpt lat="36.84870761257845" lon="-108.09807778054902"><ele>1810.6000000000001</ele><time>2026-04-15T23:47:11Z</time></trkpt><trkpt lat="36.8488096755314" lon="-108.09810088073468"><ele>1811.8000000000002</ele><time>2026-04-15T23:47:12Z</time></trkpt><trkpt lat="36.84892439503641" lon="-108.09806596852032"><ele>1813.0</ele><time>2026-04-15T23:47:13Z</time></trkpt><trkpt lat="36.84902834292478" lon="-108.09801804144077"><ele>1813.0</ele><time>2026-04-15T23:47:14Z</time></trkpt><trkpt lat="36.84907276345613" lon="-108.09792565888789"><ele>1813.0000000000002</ele><time>2026-04-15T23:47:16Z</time></trkpt><trkpt lat="36.8490758761341" lon="-108.09781252937496"><ele>1813.0000000000002</ele><time>2026-04-15T23:47:17Z</time></trkpt><trkpt lat="36.84908547269259" lon="-108.097667647213"><ele>1813.0</ele><time>2026-04-15T23:47:18Z</time></trkpt><trkpt lat="36.84915105084715" lon="-108.09759554175778"><ele>1813.0</ele><time>2026-04-15T23:47:20Z</time></trkpt><trkpt lat="36.849285986791166" lon="-108.0976182146908"><ele>1813.0</ele><time>2026-04-15T23:47:22Z</time></trkpt><trkpt lat="36.84940811428261" lon="-108.09760438269262"><ele>1813.0</ele><time>2026-04-15T23:47:23Z</time></trkpt><trkpt lat="36.849542818203986" lon="-108.09758097484399"><ele>1813.0</ele><time>2026-04-15T23:47:24Z</time></trkpt><trkpt lat="36.849678524728155" lon="-108.09751809331463"><ele>1813.0</ele><time>2026-04-15T23:47:25Z</time></trkpt><trkpt lat="36.84982300210043" lon="-108.09744410154896"><ele>1814.4</ele><time>2026-04-15T23:47:26Z</time></trkpt><trkpt lat="36.84993056671145" lon="-108.09739464605248"><ele>1815.8000000000002</ele><time>2026-04-15T23:47:27Z</time></trkpt><trkpt lat="36.85001021591382" lon="-108.09734250802546"><ele>1817.2</ele><time>2026-04-15T23:47:28Z</time></trkpt><trkpt lat="36.85007842742112" lon="-108.09724113606612"><ele>1818.6</ele><time>2026-04-15T23:47:29Z</time></trkpt><trkpt lat="36.850088983801804" lon="-108.09709609705496"><ele>1820.0</ele><time>2026-04-15T23:47:30Z</time></trkpt><trkpt lat="36.8500850330658" lon="-108.09694530510292"><ele>1820.5</ele><time>2026-04-15T23:47:31Z</time></trkpt><trkpt lat="36.85012729269272" lon="-108.09681398465011"><ele>1821.0</ele><time>2026-04-15T23:47:32Z</time></trkpt><trkpt lat="36.85018885747969" lon="-108.09667781121887"><ele>1821.5</ele><time>2026-04-15T23:47:33Z</time></trkpt><trkpt lat="36.85021730795354" lon="-108.09652137622741"><ele>1822.0</ele><time>2026-04-15T23:47:34Z</time></trkpt><trkpt lat="36.85023959855659" lon="-108.09640016514606"><ele>1822.3333333333335</ele><time>2026-04-15T23:47:35Z</time></trkpt><trkpt lat="36.850293803279044" lon="-108.09632450971782"><ele>1822.6666666666667</ele><time>2026-04-15T23:47:36Z</time></trkpt><trkpt lat="36.85037072647466" lon="-108.0962634541641"><ele>1823.0</ele><time>2026-04-15T23:47:37Z</time></trkpt><trkpt lat="36.850445359282666" lon="-108.09621567985721"><ele>1823.3333333333335</ele><time>2026-04-15T23:47:38Z</time></trkpt><trkpt lat="36.850490642885184" lon="-108.09615525244202"><ele>1823.6666666666667</ele><time>2026-04-15T23:47:39Z</time></trkpt><trkpt lat="36.850495009183895" lon="-108.09603860188399"><ele>1824.0</ele><time>2026-04-15T23:47:40Z</time></trkpt><trkpt lat="36.850522297573484" lon="-108.09589937389804"><ele>1824.0</ele><time>2026-04-15T23:47:41Z</time></trkpt><trkpt lat="36.85059091011056" lon="-108.09580449921064"><ele>1824.0</ele><time>2026-04-15T23:47:43Z</time></trkpt><trkpt lat="36.8507260310817" lon="-108.09582208242414"><ele>1824.0</ele><time>2026-04-15T23:47:44Z</time></trkpt><trkpt lat="36.85077099017033" lon="-108.0957189768873"><ele>1824.0</ele><time>2026-04-15T23:47:45Z</time></trkpt><trkpt lat="36.85080201050579" lon="-108.09561390802057"><ele>1824.0</ele><time>2026-04-15T23:47:46Z</time></trkpt><trkpt lat="36.85083959795576" lon="-108.0954810237214"><ele>1825.5</ele><time>2026-04-15T23:47:47Z</time></trkpt><trkpt lat="36.85086859917205" lon="-108.09533888010813"><ele>1827.0</ele><time>2026-04-15T23:47:48Z</time></trkpt><trkpt lat="36.85090295108253" lon="-108.09522424893385"><ele>1828.5</ele><time>2026-04-15T23:47:49Z</time></trkpt><trkpt lat="36.85094243519842" lon="-108.0950930787024"><ele>1830.0</ele><time>2026-04-15T23:47:50Z</time></trkpt><trkpt lat="36.850983678782164" lon="-108.09492767672526"><ele>1831.4</ele><time>2026-04-15T23:47:51Z</time></trkpt><trkpt lat="36.851027309713224" lon="-108.09480359882264"><ele>1832.8</ele><time>2026-04-15T23:47:52Z</time></trkpt><trkpt lat="36.85111787191127" lon="-108.09479270647864"><ele>1834.1999999999998</ele><time>2026-04-15T23:47:54Z</time></trkpt><trkpt lat="36.851181902898645" lon="-108.09483931808532"><ele>1835.6</ele><time>2026-04-15T23:47:55Z</time></trkpt><trkpt lat="36.851271195624925" lon="-108.09482247996067"><ele>1837.0</ele><time>2026-04-15T23:47:56Z</time></trkpt><trkpt lat="36.85138800016072" lon="-108.09478545285111"><ele>1837.0</ele><time>2026-04-15T23:47:57Z</time></trkpt><trkpt lat="36.851516702892276" lon="-108.0947538021261"><ele>1837.0</ele><time>2026-04-15T23:47:58Z</time></trkpt><trkpt lat="36.85160258114464" lon="-108.094726422463"><ele>1837.0</ele><time>2026-04-15T23:47:59Z</time></trkpt><trkpt lat="36.851730790408304" lon="-108.09463890868587"><ele>1837.0</ele><time>2026-04-15T23:48:01Z</time></trkpt><trkpt lat="36.85183558491095" lon="-108.09454402979723"><ele>1837.6</ele><time>2026-04-15T23:48:02Z</time></trkpt><trkpt lat="36.851968686576264" lon="-108.09445482009033"><ele>1838.1999999999998</ele><time>2026-04-15T23:48:03Z</time></trkpt><trkpt lat="36.85207861640309" lon="-108.09443024464254"><ele>1838.8</ele><time>2026-04-15T23:48:04Z</time></trkpt><trkpt lat="36.85216388485257" lon="-108.09441301785938"><ele>1839.4</ele><time>2026-04-15T23:48:05Z</time></trkpt><trkpt lat="36.85224746218555" lon="-108.09443007819887"><ele>1840.0</ele><time>2026-04-15T23:48:07Z</time></trkpt><trkpt lat="36.852236656682116" lon="-108.09453153526765"><ele>1840.0000000000002</ele><time>2026-04-15T23:48:08Z</time></trkpt><trkpt lat="36.85223495809461" lon="-108.09466745834534"><ele>1840.0</ele><time>2026-04-15T23:48:09Z</time></trkpt><trkpt lat="36.85224462868745" lon="-108.09478453728028"><ele>1840.0</ele><time>2026-04-15T23:48:10Z</time></trkpt><trkpt lat="36.85227845529215" lon="-108.0948746585343"><ele>1840.0</ele><time>2026-04-15T23:48:11Z</time></trkpt><trkpt lat="36.85232156764377" lon="-108.09493509599537"><ele>1840.0000000000002</ele><time>2026-04-15T23:48:12Z</time></trkpt><trkpt lat="36.85241308961169" lon="-108.09497675799548"><ele>1840.0</ele><time>2026-04-15T23:48:13Z</time></trkpt><trkpt lat="36.85253038769421" lon="-108.09499381372666"><ele>1839.6</ele><time>2026-04-15T23:48:14Z</time></trkpt><trkpt lat="36.8526105832067" lon="-108.09509432872395"><ele>1839.2</ele><time>2026-04-15T23:48:15Z</time></trkpt><trkpt lat="36.85266710478008" lon="-108.09520340919356"><ele>1838.8000000000002</ele><time>2026-04-15T23:48:16Z</time></trkpt><trkpt lat="36.852768685082864" lon="-108.0952542787444"><ele>1838.4</ele><time>2026-04-15T23:48:17Z</time></trkpt><trkpt lat="36.85286528030488" lon="-108.09529724962107"><ele>1838.0</ele><time>2026-04-15T23:48:18Z</time></trkpt><trkpt lat="36.852921790326064" lon="-108.09536209164494"><ele>1839.6000000000001</ele><time>2026-04-15T23:48:19Z</time></trkpt><trkpt lat="36.85295947429238" lon="-108.09555063895132"><ele>1841.2000000000003</ele><time>2026-04-15T23:48:21Z</time></trkpt><trkpt lat="36.85301626393791" lon="-108.09564873831839"><ele>1842.8</ele><time>2026-04-15T23:48:22Z</time></trkpt><trkpt lat="36.85307896775458" lon="-108.09561991270492"><ele>1844.4</ele><time>2026-04-15T23:48:23Z</time></trkpt><trkpt lat="36.85314137721414" lon="-108.09555765351452"><ele>1846.0</ele><time>2026-04-15T23:48:24Z</time></trkpt><trkpt lat="36.85323847453748" lon="-108.09549152326639"><ele>1846.0000000000002</ele><time>2026-04-15T23:48:25Z</time></trkpt><trkpt lat="36.853298363893295" lon="-108.095402083487"><ele>1846.0</ele><time>2026-04-15T23:48:26Z</time></trkpt><trkpt lat="36.853349659453215" lon="-108.09534080715427"><ele>1846.0</ele><time>2026-04-15T23:48:27Z</time></trkpt><trkpt lat="36.85343602737465" lon="-108.09532821151868"><ele>1846.0</ele><time>2026-04-15T23:48:28Z</time></trkpt><trkpt lat="36.85350075883925" lon="-108.09528930263328"><ele>1846.0000000000002</ele><time>2026-04-15T23:48:29.001Z</time></trkpt><trkpt lat="36.853535921346584" lon="-108.09521306762815"><ele>1846.0</ele><time>2026-04-15T23:48:30.001Z</time></trkpt><trkpt lat="36.85360615126963" lon="-108.09512069129832"><ele>1847.4</ele><time>2026-04-15T23:48:31.001Z</time></trkpt><trkpt lat="36.853717584223396" lon="-108.09506492005559"><ele>1848.8</ele><time>2026-04-15T23:48:32.001Z</time></trkpt><trkpt lat="36.85382996138717" lon="-108.09501429137136"><ele>1850.2000000000003</ele><time>2026-04-15T23:48:33.001Z</time></trkpt><trkpt lat="36.85392672410007" lon="-108.09499151437946"><ele>1851.6000000000001</ele><time>2026-04-15T23:48:34.001Z</time></trkpt><trkpt lat="36.85398978825349" lon="-108.09498593598965"><ele>1853.0</ele><time>2026-04-15T23:48:35.001Z</time></trkpt><trkpt lat="36.854097991099756" lon="-108.09492832884095"><ele>1853.3333333333333</ele><time>2026-04-15T23:48:36.001Z</time></trkpt><trkpt lat="36.85417706158782" lon="-108.09485021672081"><ele>1853.6666666666665</ele><time>2026-04-15T23:48:37.001Z</time></trkpt><trkpt lat="36.8542525033428" lon="-108.09480288334139"><ele>1854.0</ele><time>2026-04-15T23:48:38.001Z</time></trkpt><trkpt lat="36.85432921216409" lon="-108.09479128552051"><ele>1854.3333333333335</ele><time>2026-04-15T23:48:39.001Z</time></trkpt><trkpt lat="36.85441090706171" lon="-108.09480880399195"><ele>1854.6666666666667</ele><time>2026-04-15T23:48:40.001Z</time></trkpt><trkpt lat="36.85448673825271" lon="-108.09482263960068"><ele>1855.0</ele><time>2026-04-15T23:48:41.001Z</time></trkpt><trkpt lat="36.85455465422634" lon="-108.09484360540849"><ele>1855.6</ele><time>2026-04-15T23:48:42.001Z</time></trkpt><trkpt lat="36.85459896438022" lon="-108.09491581868174"><ele>1856.2</ele><time>2026-04-15T23:48:43.001Z</time></trkpt><trkpt lat="36.85462304986609" lon="-108.09502110136935"><ele>1856.8000000000002</ele><time>2026-04-15T23:48:44.001Z</time></trkpt><trkpt lat="36.85474597201119" lon="-108.0950137335922"><ele>1857.4</ele><time>2026-04-15T23:48:46.001Z</time></trkpt><trkpt lat="36.85484127764637" lon="-108.09499317602081"><ele>1858.0</ele><time>2026-04-15T23:48:47.001Z</time></trkpt><trkpt lat="36.85491863611397" lon="-108.09497765749016"><ele>1858.0000000000002</ele><time>2026-04-15T23:48:48.001Z</time></trkpt><trkpt lat="36.85501677443335" lon="-108.09496972671452"><ele>1858.0</ele><time>2026-04-15T23:48:50.001Z</time></trkpt><trkpt lat="36.85508446500201" lon="-108.09492872266128"><ele>1858.0</ele><time>2026-04-15T23:48:51.001Z</time></trkpt><trkpt lat="36.85518180124401" lon="-108.09485463040262"><ele>1858.0</ele><time>2026-04-15T23:48:52.001Z</time></trkpt><trkpt lat="36.85527375193186" lon="-108.09486737296555"><ele>1858.0000000000002</ele><time>2026-04-15T23:48:53.001Z</time></trkpt><trkpt lat="36.85531159575647" lon="-108.0949315215427"><ele>1858.0</ele><time>2026-04-15T23:48:54.001Z</time></trkpt><trkpt lat="36.85537183752418" lon="-108.09501623261899"><ele>1859.8000000000002</ele><time>2026-04-15T23:48:56.001Z</time></trkpt><trkpt lat="36.85542404319225" lon="-108.09507570885616"><ele>1861.6000000000001</ele><time>2026-04-15T23:48:57.001Z</time></trkpt><trkpt lat="36.85549798744835" lon="-108.0950927614628"><ele>1863.3999999999999</ele><time>2026-04-15T23:48:58.001Z</time></trkpt><trkpt lat="36.85559364443222" lon="-108.0951277334939"><ele>1865.1999999999998</ele><time>2026-04-15T23:48:59.001Z</time></trkpt><trkpt lat="36.85568987528013" lon="-108.09520142183513"><ele>1867.0</ele><time>2026-04-15T23:49:00.001Z</time></trkpt><trkpt lat="36.85577318862937" lon="-108.09525282251046"><ele>1867.0</ele><time>2026-04-15T23:49:01Z</time></trkpt><trkpt lat="36.85583457330252" lon="-108.09531044024477"><ele>1866.9999999999998</ele><time>2026-04-15T23:49:02Z</time></trkpt><trkpt lat="36.85592118732321" lon="-108.09543022618918"><ele>1866.9999999999998</ele><time>2026-04-15T23:49:04Z</time></trkpt><trkpt lat="36.855993005582434" lon="-108.09550808992095"><ele>1867.0</ele><time>2026-04-15T23:49:05Z</time></trkpt><trkpt lat="36.85605936527217" lon="-108.09557277601255"><ele>1867.0</ele><time>2026-04-15T23:49:06Z</time></trkpt><trkpt lat="36.85612968266488" lon="-108.09562530365636"><ele>1868.3999999999999</ele><time>2026-04-15T23:49:07Z</time></trkpt><trkpt lat="36.85620139382548" lon="-108.0956848776377"><ele>1869.7999999999997</ele><time>2026-04-15T23:49:08Z</time></trkpt><trkpt lat="36.85624664429891" lon="-108.09577617236032"><ele>1871.2</ele><time>2026-04-15T23:49:09Z</time></trkpt><trkpt lat="36.85625094123045" lon="-108.09589075068882"><ele>1872.6</ele><time>2026-04-15T23:49:10Z</time></trkpt><trkpt lat="36.85626183244476" lon="-108.09598802758241"><ele>1874.0</ele><time>2026-04-15T23:49:11Z</time></trkpt><trkpt lat="36.85625411524427" lon="-108.09613836600758"><ele>1874.3333333333333</ele><time>2026-04-15T23:49:13Z</time></trkpt><trkpt lat="36.85627838087466" lon="-108.09621147378377"><ele>1874.6666666666665</ele><time>2026-04-15T23:49:14Z</time></trkpt><trkpt lat="36.85635421352547" lon="-108.09621714190344"><ele>1875.0</ele><time>2026-04-15T23:49:15Z</time></trkpt><trkpt lat="36.856430975001544" lon="-108.09618837657393"><ele>1875.3333333333335</ele><time>2026-04-15T23:49:16Z</time></trkpt><trkpt lat="36.85653527495099" lon="-108.09614237642953"><ele>1875.6666666666667</ele><time>2026-04-15T23:49:17Z</time></trkpt><trkpt lat="36.85664226650036" lon="-108.0961302000624"><ele>1876.0</ele><time>2026-04-15T23:49:18Z</time></trkpt><trkpt lat="36.85673058589985" lon="-108.09615190965503"><ele>1876.0000000000002</ele><time>2026-04-15T23:49:20Z</time></trkpt><trkpt lat="36.856779299424375" lon="-108.09609717662991"><ele>1876.0</ele><time>2026-04-15T23:49:22Z</time></trkpt><trkpt lat="36.856854716503726" lon="-108.0960499087362"><ele>1876.0</ele><time>2026-04-15T23:49:23Z</time></trkpt><trkpt lat="36.85693611475217" lon="-108.09604941309398"><ele>1876.0</ele><time>2026-04-15T23:49:24Z</time></trkpt><trkpt lat="36.857025246724824" lon="-108.09607152356375"><ele>1876.0000000000002</ele><time>2026-04-15T23:49:25Z</time></trkpt><trkpt lat="36.85714331940306" lon="-108.09601456874995"><ele>1876.0</ele><time>2026-04-15T23:49:27Z</time></trkpt><trkpt lat="36.857233833127324" lon="-108.09599830752964"><ele>1876.6</ele><time>2026-04-15T23:49:28Z</time></trkpt><trkpt lat="36.85730581347876" lon="-108.09598833521432"><ele>1877.1999999999998</ele><time>2026-04-15T23:49:29Z</time></trkpt><trkpt lat="36.85743958534316" lon="-108.09595918226348"><ele>1877.8000000000002</ele><time>2026-04-15T23:49:31Z</time></trkpt><trkpt lat="36.8575337679981" lon="-108.09596006639228"><ele>1878.4</ele><time>2026-04-15T23:49:32Z</time></trkpt><trkpt lat="36.857645362721435" lon="-108.09599683252786"><ele>1879.0</ele><time>2026-04-15T23:49:34Z</time></trkpt><trkpt lat="36.85773815543566" lon="-108.09596117967094"><ele>1879.0000000000002</ele><time>2026-04-15T23:49:35Z</time></trkpt><trkpt lat="36.8578244321487" lon="-108.09590438481352"><ele>1879.0</ele><time>2026-04-15T23:49:36Z</time></trkpt><trkpt lat="36.85789610089242" lon="-108.09582355119592"><ele>1879.0</ele><time>2026-04-15T23:49:37Z</time></trkpt><trkpt lat="36.85794807586247" lon="-108.09576100348968"><ele>1879.0</ele><time>2026-04-15T23:49:38Z</time></trkpt><trkpt lat="36.85800054839455" lon="-108.09570734306651"><ele>1879.0000000000002</ele><time>2026-04-15T23:49:39Z</time></trkpt><trkpt lat="36.858078576427104" lon="-108.09569501386484"><ele>1879.0</ele><time>2026-04-15T23:49:40Z</time></trkpt><trkpt lat="36.8582013024878" lon="-108.0956677721967"><ele>1878.0000000000002</ele><time>2026-04-15T23:49:41Z</time></trkpt><trkpt lat="36.85828827005629" lon="-108.09563563932475"><ele>1877.0</ele><time>2026-04-15T23:49:42Z</time></trkpt><trkpt lat="36.858372573529714" lon="-108.09552423643474"><ele>1876.0</ele><time>2026-04-15T23:49:44Z</time></trkpt><trkpt lat="36.858431328304206" lon="-108.09546679540479"><ele>1875.0</ele><time>2026-04-15T23:49:45Z</time></trkpt><trkpt lat="36.85848706679905" lon="-108.0954013728572"><ele>1874.0000000000002</ele><time>2026-04-15T23:49:46Z</time></trkpt><trkpt lat="36.85854202976598" lon="-108.09533525218532"><ele>1873.0</ele><time>2026-04-15T23:49:47Z</time></trkpt><trkpt lat="36.85860732853089" lon="-108.09529121067214"><ele>1872.6666666666667</ele><time>2026-04-15T23:49:48Z</time></trkpt><trkpt lat="36.85867611418443" lon="-108.09524696454115"><ele>1872.3333333333335</ele><time>2026-04-15T23:49:49Z</time></trkpt><trkpt lat="36.85875121433109" lon="-108.09519511421735"><ele>1872.0</ele><time>2026-04-15T23:49:50Z</time></trkpt><trkpt lat="36.858833385435865" lon="-108.09512321645217"><ele>1871.6666666666665</ele><time>2026-04-15T23:49:51Z</time></trkpt><trkpt lat="36.8588984742304" lon="-108.09506705005799"><ele>1871.3333333333333</ele><time>2026-04-15T23:49:52Z</time></trkpt><trkpt lat="36.85896580662949" lon="-108.09500902628832"><ele>1871.0</ele><time>2026-04-15T23:49:53Z</time></trkpt><trkpt lat="36.85903089922388" lon="-108.09496840640516"><ele>1870.9999999999998</ele><time>2026-04-15T23:49:54Z</time></trkpt><trkpt lat="36.85912498944603" lon="-108.09492561309537"><ele>1871.0</ele><time>2026-04-15T23:49:55Z</time></trkpt><trkpt lat="36.85920496228062" lon="-108.0949007071477"><ele>1871.0</ele><time>2026-04-15T23:49:56Z</time></trkpt><trkpt lat="36.859272902908465" lon="-108.09488400721466"><ele>1871.0</ele><time>2026-04-15T23:49:57Z</time></trkpt><trkpt lat="36.859358233963874" lon="-108.09485641176794"><ele>1870.9999999999998</ele><time>2026-04-15T23:49:58Z</time></trkpt><trkpt lat="36.859428975175184" lon="-108.09484797002962"><ele>1871.0</ele><time>2026-04-15T23:49:59Z</time></trkpt><trkpt lat="36.85950094642522" lon="-108.09483375327832"><ele>1869.8</ele><time>2026-04-15T23:50:00Z</time></trkpt><trkpt lat="36.85958190101759" lon="-108.09481430000152"><ele>1868.6</ele><time>2026-04-15T23:50:01Z</time></trkpt><trkpt lat="36.85967662453347" lon="-108.09480489857295"><ele>1867.4</ele><time>2026-04-15T23:50:02Z</time></trkpt><trkpt lat="36.85975936602781" lon="-108.09480566565347"><ele>1866.2</ele><time>2026-04-15T23:50:03Z</time></trkpt><trkpt lat="36.859831840569534" lon="-108.0947948466556"><ele>1865.0</ele><time>2026-04-15T23:50:05Z</time></trkpt><trkpt lat="36.859934229724715" lon="-108.09469928685323"><ele>1865.0</ele><time>2026-04-15T23:50:07Z</time></trkpt><trkpt lat="36.860005177188945" lon="-108.094649143099"><ele>1865.0</ele><time>2026-04-15T23:50:08Z</time></trkpt><trkpt lat="36.86008450748473" lon="-108.09465302249824"><ele>1865.0</ele><time>2026-04-15T23:50:09Z</time></trkpt><trkpt lat="36.86017804444385" lon="-108.09468082593338"><ele>1865.0</ele><time>2026-04-15T23:50:10Z</time></trkpt><trkpt lat="36.860270311482005" lon="-108.09468185978132"><ele>1865.0</ele><time>2026-04-15T23:50:11Z</time></trkpt><trkpt lat="36.860371580560425" lon="-108.09466329634407"><ele>1865.8333333333333</ele><time>2026-04-15T23:50:13Z</time></trkpt><trkpt lat="36.860451696705496" lon="-108.09472379007858"><ele>1866.6666666666665</ele><time>2026-04-15T23:50:15Z</time></trkpt><trkpt lat="36.86047802443042" lon="-108.09480403694018"><ele>1867.5</ele><time>2026-04-15T23:50:16Z</time></trkpt><trkpt lat="36.86051409572404" lon="-108.09487574982167"><ele>1868.3333333333335</ele><time>2026-04-15T23:50:17Z</time></trkpt><trkpt lat="36.860595551777806" lon="-108.0949090449386"><ele>1869.1666666666667</ele><time>2026-04-15T23:50:18Z</time></trkpt><trkpt lat="36.860689990717745" lon="-108.09490980443582"><ele>1870.0</ele><time>2026-04-15T23:50:19Z</time></trkpt><trkpt lat="36.86078092883982" lon="-108.09494162573317"><ele>1870.2</ele><time>2026-04-15T23:50:20Z</time></trkpt><trkpt lat="36.860855296750806" lon="-108.09500358103006"><ele>1870.4</ele><time>2026-04-15T23:50:21Z</time></trkpt><trkpt lat="36.860933518074994" lon="-108.09503014836092"><ele>1870.6</ele><time>2026-04-15T23:50:22Z</time></trkpt><trkpt lat="36.86103831389759" lon="-108.09504932298069"><ele>1870.8</ele><time>2026-04-15T23:50:23Z</time></trkpt><trkpt lat="36.86114677921436" lon="-108.0950616195592"><ele>1871.0</ele><time>2026-04-15T23:50:24Z</time></trkpt><trkpt lat="36.8612453824443" lon="-108.09505514489133"><ele>1872.1666666666665</ele><time>2026-04-15T23:50:25Z</time></trkpt><trkpt lat="36.861338224357574" lon="-108.0950622968323"><ele>1873.3333333333333</ele><time>2026-04-15T23:50:26Z</time></trkpt><trkpt lat="36.86140346953106" lon="-108.09508902481075"><ele>1874.5</ele><time>2026-04-15T23:50:27Z</time></trkpt><trkpt lat="36.86153313926982" lon="-108.0951236223255"><ele>1875.6666666666665</ele><time>2026-04-15T23:50:29Z</time></trkpt><trkpt lat="36.86159788193071" lon="-108.09515806624935"><ele>1876.8333333333333</ele><time>2026-04-15T23:50:30Z</time></trkpt><trkpt lat="36.861679790540855" lon="-108.09516494302598"><ele>1878.0</ele><time>2026-04-15T23:50:31Z</time></trkpt><trkpt lat="36.861771846463284" lon="-108.09520115633515"><ele>1878.0</ele><time>2026-04-15T23:50:32Z</time></trkpt><trkpt lat="36.861856868826" lon="-108.0952143968525"><ele>1878.0000000000002</ele><time>2026-04-15T23:50:33Z</time></trkpt><trkpt lat="36.861923355017844" lon="-108.09526977900308"><ele>1878.0000000000002</ele><time>2026-04-15T23:50:34.001Z</time></trkpt><trkpt lat="36.86200184640955" lon="-108.09532572572563"><ele>1878.0</ele><time>2026-04-15T23:50:35.001Z</time></trkpt><trkpt lat="36.862124489130764" lon="-108.09537345472371"><ele>1878.0</ele><time>2026-04-15T23:50:36.001Z</time></trkpt><trkpt lat="36.862233252484394" lon="-108.09540857304071"><ele>1878.0</ele><time>2026-04-15T23:50:37.001Z</time></trkpt><trkpt lat="36.862301759836434" lon="-108.09541794719175"><ele>1878.0000000000002</ele><time>2026-04-15T23:50:38.001Z</time></trkpt><trkpt lat="36.86239097223806" lon="-108.09538388058563"><ele>1878.0000000000002</ele><time>2026-04-15T23:50:39.001Z</time></trkpt><trkpt lat="36.86249735047749" lon="-108.09531680104108"><ele>1878.0</ele><time>2026-04-15T23:50:40.001Z</time></trkpt><trkpt lat="36.86258830021075" lon="-108.09518899287777"><ele>1878.0</ele><time>2026-04-15T23:50:42.001Z</time></trkpt><trkpt lat="36.86265585397083" lon="-108.09505354208045"><ele>1878.1666666666667</ele><time>2026-04-15T23:50:44.001Z</time></trkpt><trkpt lat="36.86273191291902" lon="-108.0950225850774"><ele>1878.3333333333335</ele><time>2026-04-15T23:50:45.001Z</time></trkpt><trkpt lat="36.86278391728254" lon="-108.09495926838161"><ele>1878.5</ele><time>2026-04-15T23:50:46.001Z</time></trkpt><trkpt lat="36.86285603286075" lon="-108.09488058510836"><ele>1878.6666666666667</ele><time>2026-04-15T23:50:48.001Z</time></trkpt><trkpt lat="36.862937387235135" lon="-108.09485085911183"><ele>1878.8333333333335</ele><time>2026-04-15T23:50:49.001Z</time></trkpt><trkpt lat="36.86301926718417" lon="-108.0948322289662"><ele>1879.0</ele><time>2026-04-15T23:50:51.001Z</time></trkpt><trkpt lat="36.86308524428739" lon="-108.09487953805007"><ele>1878.6666666666667</ele><time>2026-04-15T23:50:53.001Z</time></trkpt><trkpt lat="36.863184954012645" lon="-108.09483468332125"><ele>1878.3333333333335</ele><time>2026-04-15T23:50:55.001Z</time></trkpt><trkpt lat="36.863250451978104" lon="-108.09480515882578"><ele>1878.0</ele><time>2026-04-15T23:50:56.001Z</time></trkpt><trkpt lat="36.863317713607586" lon="-108.09476672002769"><ele>1877.6666666666665</ele><time>2026-04-15T23:50:57.001Z</time></trkpt><trkpt lat="36.86338317309163" lon="-108.09476258658768"><ele>1877.3333333333333</ele><time>2026-04-15T23:50:58.001Z</time></trkpt><trkpt lat="36.86350238074073" lon="-108.09479523010117"><ele>1877.0</ele><time>2026-04-15T23:51:00.001Z</time></trkpt><trkpt lat="36.86357774819067" lon="-108.09481925684939"><ele>1877.0</ele><time>2026-04-15T23:51:01.001Z</time></trkpt><trkpt lat="36.863667377109614" lon="-108.09484807035007"><ele>1876.9999999999998</ele><time>2026-04-15T23:51:02.001Z</time></trkpt><trkpt lat="36.86373110429283" lon="-108.09482032906733"><ele>1876.9999999999998</ele><time>2026-04-15T23:51:03.001Z</time></trkpt><trkpt lat="36.863789027965325" lon="-108.09477772472898"><ele>1877.0</ele><time>2026-04-15T23:51:04.001Z</time></trkpt><trkpt lat="36.863893627059106" lon="-108.0947166248203"><ele>1877.0</ele><time>2026-04-15T23:51:06.001Z</time></trkpt><trkpt lat="36.86398811966776" lon="-108.09460093772323"><ele>1877.0000000000002</ele><time>2026-04-15T23:51:08Z</time></trkpt><trkpt lat="36.86403739463624" lon="-108.09451907881815"><ele>1877.0</ele><time>2026-04-15T23:51:09Z</time></trkpt><trkpt lat="36.864076702635494" lon="-108.09443326602874"><ele>1877.0000000000002</ele><time>2026-04-15T23:51:10Z</time></trkpt><trkpt lat="36.86412421728244" lon="-108.09436736093812"><ele>1877.0000000000002</ele><time>2026-04-15T23:51:11Z</time></trkpt><trkpt lat="36.86418590410743" lon="-108.09432250295453"><ele>1877.0</ele><time>2026-04-15T23:51:12Z</time></trkpt><trkpt lat="36.86425162665522" lon="-108.09429057917326"><ele>1877.0000000000002</ele><time>2026-04-15T23:51:13Z</time></trkpt><trkpt lat="36.86432498639525" lon="-108.09427588054285"><ele>1877.0000000000002</ele><time>2026-04-15T23:51:14Z</time></trkpt><trkpt lat="36.86439757640101" lon="-108.09425616207591"><ele>1877.5</ele><time>2026-04-15T23:51:15Z</time></trkpt><trkpt lat="36.864519531624005" lon="-108.09437359269386"><ele>1878.0</ele><time>2026-04-15T23:51:16Z</time></trkpt><trkpt lat="36.86458815731781" lon="-108.09449487492377"><ele>1878.5</ele><time>2026-04-15T23:51:17Z</time></trkpt><trkpt lat="36.864663023264" lon="-108.09462680722719"><ele>1879.0</ele><time>2026-04-15T23:51:18Z</time></trkpt><trkpt lat="36.864742423401125" lon="-108.09473406500874"><ele>1879.0</ele><time>2026-04-15T23:51:19Z</time></trkpt><trkpt lat="36.864795536575166" lon="-108.0947788107374"><ele>1879.0</ele><time>2026-04-15T23:51:20Z</time></trkpt><trkpt lat="36.86492101465642" lon="-108.09477321928614"><ele>1879.0</ele><time>2026-04-15T23:51:22Z</time></trkpt><trkpt lat="36.86497740316754" lon="-108.09471995803446"><ele>1879.0</ele><time>2026-04-15T23:51:23Z</time></trkpt><trkpt lat="36.8650596605922" lon="-108.09467599124392"><ele>1879.0</ele><time>2026-04-15T23:51:24Z</time></trkpt><trkpt lat="36.86516702947431" lon="-108.09467613333028"><ele>1880.2</ele><time>2026-04-15T23:51:25Z</time></trkpt><trkpt lat="36.86524585652765" lon="-108.09462909290814"><ele>1881.4</ele><time>2026-04-15T23:51:27Z</time></trkpt><trkpt lat="36.865340638053105" lon="-108.0945574293954"><ele>1882.6</ele><time>2026-04-15T23:51:29Z</time></trkpt><trkpt lat="36.86541721102619" lon="-108.09452388769819"><ele>1883.8</ele><time>2026-04-15T23:51:30Z</time></trkpt><trkpt lat="36.86553240559349" lon="-108.09452290092922"><ele>1885.0</ele><time>2026-04-15T23:51:31Z</time></trkpt><trkpt lat="36.86564907530363" lon="-108.09452199811814"><ele>1885.0</ele><time>2026-04-15T23:51:32Z</time></trkpt><trkpt lat="36.86576233626677" lon="-108.09452161867556"><ele>1885.0</ele><time>2026-04-15T23:51:33Z</time></trkpt><trkpt lat="36.86588634582969" lon="-108.09450981681358"><ele>1885.0</ele><time>2026-04-15T23:51:34Z</time></trkpt><trkpt lat="36.8659783097651" lon="-108.09448536789601"><ele>1885.0</ele><time>2026-04-15T23:51:35Z</time></trkpt><trkpt lat="36.86604769678511" lon="-108.09450168063567"><ele>1885.0</ele><time>2026-04-15T23:51:36Z</time></trkpt><trkpt lat="36.86613599764419" lon="-108.09455938820837"><ele>1885.8</ele><time>2026-04-15T23:51:37Z</time></trkpt><trkpt lat="36.86625610935767" lon="-108.09462059888"><ele>1886.6</ele><time>2026-04-15T23:51:38Z</time></trkpt><trkpt lat="36.86635686894934" lon="-108.09463762842118"><ele>1887.4</ele><time>2026-04-15T23:51:39Z</time></trkpt><trkpt lat="36.866441538135646" lon="-108.09461535370556"><ele>1888.2</ele><time>2026-04-15T23:51:40Z</time></trkpt><trkpt lat="36.86653882162181" lon="-108.09460559371678"><ele>1889.0</ele><time>2026-04-15T23:51:41Z</time></trkpt><trkpt lat="36.86665294778394" lon="-108.09462497666802"><ele>1889.0</ele><time>2026-04-15T23:51:42Z</time></trkpt><trkpt lat="36.86673037710614" lon="-108.09460495112027"><ele>1889.0</ele><time>2026-04-15T23:51:43Z</time></trkpt><trkpt lat="36.8667824527708" lon="-108.09468569824541"><ele>1889.0</ele><time>2026-04-15T23:51:45Z</time></trkpt><trkpt lat="36.86679534030476" lon="-108.09478106997342"><ele>1889.0</ele><time>2026-04-15T23:51:46Z</time></trkpt><trkpt lat="36.86683498424771" lon="-108.09488925796477"><ele>1889.0</ele><time>2026-04-15T23:51:47Z</time></trkpt><trkpt lat="36.86688449944343" lon="-108.09501958873041"><ele>1890.0</ele><time>2026-04-15T23:51:48Z</time></trkpt><trkpt lat="36.86694295516327" lon="-108.0951227718943"><ele>1891.0</ele><time>2026-04-15T23:51:49Z</time></trkpt><trkpt lat="36.86699807977088" lon="-108.09518437361776"><ele>1892.0</ele><time>2026-04-15T23:51:50Z</time></trkpt><trkpt lat="36.8670691817117" lon="-108.09523696249417"><ele>1893.0</ele><time>2026-04-15T23:51:51Z</time></trkpt><trkpt lat="36.86715248153331" lon="-108.09526469417466"><ele>1894.0</ele><time>2026-04-15T23:51:52Z</time></trkpt><trkpt lat="36.86726285538206" lon="-108.09527807273922"><ele>1894.0</ele><time>2026-04-15T23:51:53Z</time></trkpt><trkpt lat="36.8673729592971" lon="-108.0952953261653"><ele>1894.0</ele><time>2026-04-15T23:51:54Z</time></trkpt><trkpt lat="36.867463010727256" lon="-108.09534120554427"><ele>1894.0</ele><time>2026-04-15T23:51:55Z</time></trkpt><trkpt lat="36.867558197803596" lon="-108.09544453662559"><ele>1894.0</ele><time>2026-04-15T23:51:56Z</time></trkpt><trkpt lat="36.867624333454735" lon="-108.09557833848999"><ele>1894.8000000000002</ele><time>2026-04-15T23:51:57Z</time></trkpt><trkpt lat="36.867700032258746" lon="-108.09568280025412"><ele>1895.6000000000001</ele><time>2026-04-15T23:51:58Z</time></trkpt><trkpt lat="36.867760954089626" lon="-108.09576576932884"><ele>1896.4</ele><time>2026-04-15T23:51:59Z</time></trkpt><trkpt lat="36.86783547156554" lon="-108.09587310668802"><ele>1897.2</ele><time>2026-04-15T23:52:00Z</time></trkpt><trkpt lat="36.86789836831269" lon="-108.0959781171378"><ele>1898.0</ele><time>2026-04-15T23:52:01Z</time></trkpt><trkpt lat="36.867966624227" lon="-108.09607681069022"><ele>1898.75</ele><time>2026-04-15T23:52:02Z</time></trkpt><trkpt lat="36.86802606002918" lon="-108.09616945638075"><ele>1899.5</ele><time>2026-04-15T23:52:03Z</time></trkpt><trkpt lat="36.86810076553197" lon="-108.09628332492508"><ele>1900.25</ele><time>2026-04-15T23:52:04Z</time></trkpt><trkpt lat="36.86819409692288" lon="-108.09637348606674"><ele>1901.0</ele><time>2026-04-15T23:52:05Z</time></trkpt><trkpt lat="36.86829949168001" lon="-108.09644603023219"><ele>1901.0</ele><time>2026-04-15T23:52:06Z</time></trkpt><trkpt lat="36.8683843964072" lon="-108.09653490723483"><ele>1901.0</ele><time>2026-04-15T23:52:07Z</time></trkpt><trkpt lat="36.86848837473335" lon="-108.09664308705187"><ele>1901.0</ele><time>2026-04-15T23:52:08Z</time></trkpt><trkpt lat="36.86857566442834" lon="-108.09676530007283"><ele>1901.0</ele><time>2026-04-15T23:52:09Z</time></trkpt><trkpt lat="36.868648524360474" lon="-108.09686760872732"><ele>1902.3333333333333</ele><time>2026-04-15T23:52:10Z</time></trkpt><trkpt lat="36.868719140649205" lon="-108.096931265409"><ele>1903.6666666666665</ele><time>2026-04-15T23:52:11Z</time></trkpt><trkpt lat="36.868782436688605" lon="-108.0969219410838"><ele>1905.0</ele><time>2026-04-15T23:52:12Z</time></trkpt><trkpt lat="36.86884963475098" lon="-108.09689037605536"><ele>1906.3333333333335</ele><time>2026-04-15T23:52:13Z</time></trkpt><trkpt lat="36.86893378871331" lon="-108.09685131602166"><ele>1907.6666666666667</ele><time>2026-04-15T23:52:14Z</time></trkpt><trkpt lat="36.869022274300455" lon="-108.0967747429147"><ele>1909.0</ele><time>2026-04-15T23:52:15Z</time></trkpt><trkpt lat="36.869116169463474" lon="-108.09669402992026"><ele>1909.0</ele><time>2026-04-15T23:52:16Z</time></trkpt><trkpt lat="36.86921310362222" lon="-108.09669880683562"><ele>1909.0</ele><time>2026-04-15T23:52:17Z</time></trkpt><trkpt lat="36.869327465633106" lon="-108.0967423495327"><ele>1909.0</ele><time>2026-04-15T23:52:18Z</time></trkpt><trkpt lat="36.86946202520838" lon="-108.09681407887201"><ele>1909.0</ele><time>2026-04-15T23:52:19Z</time></trkpt><trkpt lat="36.869594519700776" lon="-108.09691071081987"><ele>1908.4</ele><time>2026-04-15T23:52:20Z</time></trkpt><trkpt lat="36.869700711826226" lon="-108.09700471508779"><ele>1907.8000000000002</ele><time>2026-04-15T23:52:21Z</time></trkpt><trkpt lat="36.869780774214" lon="-108.09706199159048"><ele>1907.1999999999998</ele><time>2026-04-15T23:52:22Z</time></trkpt><trkpt lat="36.869851764800075" lon="-108.0970821529628"><ele>1906.6</ele><time>2026-04-15T23:52:24Z</time></trkpt><trkpt lat="36.86994258767326" lon="-108.09705420045286"><ele>1906.0</ele><time>2026-04-15T23:52:26Z</time></trkpt><trkpt lat="36.870021924220794" lon="-108.09705851090501"><ele>1906.0</ele><time>2026-04-15T23:52:27Z</time></trkpt><trkpt lat="36.87008883594616" lon="-108.0971250269752"><ele>1906.0</ele><time>2026-04-15T23:52:28Z</time></trkpt><trkpt lat="36.87014674168755" lon="-108.09716755518969"><ele>1906.0</ele><time>2026-04-15T23:52:29Z</time></trkpt><trkpt lat="36.87027219284116" lon="-108.09717794101734"><ele>1906.0</ele><time>2026-04-15T23:52:31Z</time></trkpt><trkpt lat="36.870311615930824" lon="-108.09734002566194"><ele>1906.0</ele><time>2026-04-15T23:52:33Z</time></trkpt><trkpt lat="36.87036188992855" lon="-108.09743673426617"><ele>1905.0</ele><time>2026-04-15T23:52:34Z</time></trkpt><trkpt lat="36.87047496804581" lon="-108.09753480580049"><ele>1904.0</ele><time>2026-04-15T23:52:35Z</time></trkpt><trkpt lat="36.8706099848707" lon="-108.09765321074308"><ele>1903.0</ele><time>2026-04-15T23:52:36Z</time></trkpt><trkpt lat="36.870750354834435" lon="-108.09777274272562"><ele>1903.0</ele><time>2026-04-15T23:52:37Z</time></trkpt><trkpt lat="36.87085365193846" lon="-108.09785048583747"><ele>1903.0000000000002</ele><time>2026-04-15T23:52:38Z</time></trkpt><trkpt lat="36.87094722118855" lon="-108.09795048912584"><ele>1903.0000000000002</ele><time>2026-04-15T23:52:39Z</time></trkpt><trkpt lat="36.87101961265078" lon="-108.09804648244506"><ele>1903.0</ele><time>2026-04-15T23:52:40Z</time></trkpt><trkpt lat="36.871082627549995" lon="-108.09813798907317"><ele>1903.0</ele><time>2026-04-15T23:52:41Z</time></trkpt><trkpt lat="36.87115369920774" lon="-108.09823019227757"><ele>1902.0</ele><time>2026-04-15T23:52:42Z</time></trkpt><trkpt lat="36.87124754873164" lon="-108.09833328937005"><ele>1901.0000000000002</ele><time>2026-04-15T23:52:43Z</time></trkpt><trkpt lat="36.87133137900972" lon="-108.09842061960856"><ele>1900.0000000000002</ele><time>2026-04-15T23:52:44.001Z</time></trkpt><trkpt lat="36.87138869209366" lon="-108.0984886644711"><ele>1899.0</ele><time>2026-04-15T23:52:45.001Z</time></trkpt><trkpt lat="36.87142997073049" lon="-108.09855769279307"><ele>1898.0</ele><time>2026-04-15T23:52:46.001Z</time></trkpt><trkpt lat="36.871399232969694" lon="-108.09869056514752"><ele>1898.0</ele><time>2026-04-15T23:52:48.001Z</time></trkpt><trkpt lat="36.87135505464458" lon="-108.09877568127985"><ele>1898.0000000000002</ele><time>2026-04-15T23:52:49.001Z</time></trkpt><trkpt lat="36.871374956027545" lon="-108.09893724241776"><ele>1898.0000000000002</ele><time>2026-04-15T23:52:51.001Z</time></trkpt><trkpt lat="36.87144312579858" lon="-108.09905675415023"><ele>1898.0</ele><time>2026-04-15T23:52:52.001Z</time></trkpt><trkpt lat="36.871525010482856" lon="-108.09915474407553"><ele>1898.0</ele><time>2026-04-15T23:52:53.001Z</time></trkpt><trkpt lat="36.871617065839104" lon="-108.09925290827222"><ele>1897.75</ele><time>2026-04-15T23:52:54.001Z</time></trkpt><trkpt lat="36.87172621824329" lon="-108.09933129952515"><ele>1897.5</ele><time>2026-04-15T23:52:55.001Z</time></trkpt><trkpt lat="36.87181328378712" lon="-108.09941706229749"><ele>1897.25</ele><time>2026-04-15T23:52:56.001Z</time></trkpt><trkpt lat="36.87185076047324" lon="-108.09954440754427"><ele>1897.0</ele><time>2026-04-15T23:52:57.001Z</time></trkpt><trkpt lat="36.87187563240934" lon="-108.09967585413435"><ele>1896.1666666666667</ele><time>2026-04-15T23:52:58.001Z</time></trkpt><trkpt lat="36.87190152176457" lon="-108.09975937468336"><ele>1895.3333333333335</ele><time>2026-04-15T23:52:59.001Z</time></trkpt><trkpt lat="36.87195392833421" lon="-108.09981900268134"><ele>1894.5</ele><time>2026-04-15T23:53:00.001Z</time></trkpt><trkpt lat="36.87204327397906" lon="-108.09990534370898"><ele>1893.6666666666665</ele><time>2026-04-15T23:53:01.001Z</time></trkpt><trkpt lat="36.87212191051377" lon="-108.09999412450223"><ele>1892.8333333333333</ele><time>2026-04-15T23:53:02.001Z</time></trkpt><trkpt lat="36.87218063862543" lon="-108.10003442640082"><ele>1892.0</ele><time>2026-04-15T23:53:03.001Z</time></trkpt><trkpt lat="36.87230206896883" lon="-108.10006512945274"><ele>1892.0</ele><time>2026-04-15T23:53:04.001Z</time></trkpt><trkpt lat="36.872414451496866" lon="-108.10010674378697"><ele>1891.9999999999998</ele><time>2026-04-15T23:53:05.001Z</time></trkpt><trkpt lat="36.87246552908688" lon="-108.10019503407264"><ele>1891.9999999999998</ele><time>2026-04-15T23:53:06.001Z</time></trkpt><trkpt lat="36.872480736526725" lon="-108.10033273094581"><ele>1892.0</ele><time>2026-04-15T23:53:07.001Z</time></trkpt><trkpt lat="36.87250926628536" lon="-108.10048465075108"><ele>1892.0</ele><time>2026-04-15T23:53:08.001Z</time></trkpt><trkpt lat="36.87254377873931" lon="-108.10061208698988"><ele>1891.9999999999998</ele><time>2026-04-15T23:53:09.001Z</time></trkpt><trkpt lat="36.87258014427367" lon="-108.10070045160954"><ele>1892.0</ele><time>2026-04-15T23:53:10.001Z</time></trkpt><trkpt lat="36.87264231046093" lon="-108.100807495066"><ele>1892.0</ele><time>2026-04-15T23:53:11.001Z</time></trkpt><trkpt lat="36.87271017715353" lon="-108.10089333952126"><ele>1892.0</ele><time>2026-04-15T23:53:12.001Z</time></trkpt><trkpt lat="36.87275256447569" lon="-108.1009720172352"><ele>1891.9999999999998</ele><time>2026-04-15T23:53:13Z</time></trkpt><trkpt lat="36.87275278498678" lon="-108.10107726936864"><ele>1892.0</ele><time>2026-04-15T23:53:14Z</time></trkpt><trkpt lat="36.87276227749894" lon="-108.10119360698837"><ele>1891.0</ele><time>2026-04-15T23:53:15Z</time></trkpt><trkpt lat="36.872801062467296" lon="-108.10133222823738"><ele>1890.0</ele><time>2026-04-15T23:53:16Z</time></trkpt><trkpt lat="36.87285061777133" lon="-108.1014846632507"><ele>1889.0</ele><time>2026-04-15T23:53:17Z</time></trkpt><trkpt lat="36.87288531467571" lon="-108.10162391620474"><ele>1888.0</ele><time>2026-04-15T23:53:18Z</time></trkpt><trkpt lat="36.8728986787062" lon="-108.10173812270054"><ele>1888.0000000000002</ele><time>2026-04-15T23:53:19Z</time></trkpt><trkpt lat="36.87289362645978" lon="-108.10182291515332"><ele>1888.0</ele><time>2026-04-15T23:53:20Z</time></trkpt><trkpt lat="36.87291984651976" lon="-108.10190403959658"><ele>1888.0</ele><time>2026-04-15T23:53:21Z</time></trkpt><trkpt lat="36.87298003680554" lon="-108.10198165956349"><ele>1888.0</ele><time>2026-04-15T23:53:22Z</time></trkpt><trkpt lat="36.87304782043413" lon="-108.10201424690693"><ele>1888.0000000000002</ele><time>2026-04-15T23:53:23Z</time></trkpt><trkpt lat="36.873122306227415" lon="-108.1020534983827"><ele>1888.0</ele><time>2026-04-15T23:53:24Z</time></trkpt><trkpt lat="36.87323357574668" lon="-108.10213512137081"><ele>1888.0</ele><time>2026-04-15T23:53:25Z</time></trkpt><trkpt lat="36.87334785132314" lon="-108.10220303712609"><ele>1888.0000000000002</ele><time>2026-04-15T23:53:26Z</time></trkpt><trkpt lat="36.8734326049459" lon="-108.10225965156249"><ele>1888.0000000000002</ele><time>2026-04-15T23:53:27Z</time></trkpt><trkpt lat="36.87349003891997" lon="-108.10232630355704"><ele>1888.0</ele><time>2026-04-15T23:53:28Z</time></trkpt><trkpt lat="36.873552732970836" lon="-108.1024162928976"><ele>1888.0</ele><time>2026-04-15T23:53:29Z</time></trkpt><trkpt lat="36.873624207145475" lon="-108.10250069103036"><ele>1886.8333333333335</ele><time>2026-04-15T23:53:30Z</time></trkpt><trkpt lat="36.873693603632994" lon="-108.10254815185132"><ele>1885.6666666666667</ele><time>2026-04-15T23:53:32Z</time></trkpt><trkpt lat="36.87369053948893" lon="-108.10263176310761"><ele>1884.5</ele><time>2026-04-15T23:53:33Z</time></trkpt><trkpt lat="36.87370603236642" lon="-108.10274443678773"><ele>1883.3333333333335</ele><time>2026-04-15T23:53:34Z</time></trkpt><trkpt lat="36.87377449556891" lon="-108.10279300861038"><ele>1882.1666666666667</ele><time>2026-04-15T23:53:35Z</time></trkpt><trkpt lat="36.873798288078106" lon="-108.10287612171193"><ele>1881.0</ele><time>2026-04-15T23:53:36Z</time></trkpt><trkpt lat="36.87377748458054" lon="-108.10298165744102"><ele>1881.0</ele><time>2026-04-15T23:53:37Z</time></trkpt><trkpt lat="36.873755351344" lon="-108.10308661849042"><ele>1881.0</ele><time>2026-04-15T23:53:38Z</time></trkpt><trkpt lat="36.87371558391434" lon="-108.1031995155053"><ele>1881.0</ele><time>2026-04-15T23:53:39Z</time></trkpt><trkpt lat="36.873662379899116" lon="-108.1033200523667"><ele>1881.0</ele><time>2026-04-15T23:53:40Z</time></trkpt><trkpt lat="36.87359782778503" lon="-108.1034133532673"><ele>1881.0</ele><time>2026-04-15T23:53:41Z</time></trkpt><trkpt lat="36.87352814835427" lon="-108.10347930873911"><ele>1881.0</ele><time>2026-04-15T23:53:42Z</time></trkpt><trkpt lat="36.87349213774269" lon="-108.10359794890498"><ele>1881.0</ele><time>2026-04-15T23:53:44Z</time></trkpt><trkpt lat="36.873508311581105" lon="-108.10370171376731"><ele>1881.0</ele><time>2026-04-15T23:53:45Z</time></trkpt><trkpt lat="36.87348910123505" lon="-108.10381211412059"><ele>1881.0</ele><time>2026-04-15T23:53:46Z</time></trkpt><trkpt lat="36.87341917538043" lon="-108.10387590438832"><ele>1881.0</ele><time>2026-04-15T23:53:47Z</time></trkpt><trkpt lat="36.87348454725347" lon="-108.10397778783528"><ele>1880.75</ele><time>2026-04-15T23:53:49Z</time></trkpt><trkpt lat="36.87347267879975" lon="-108.10409464549852"><ele>1880.5</ele><time>2026-04-15T23:53:51Z</time></trkpt><trkpt lat="36.87356594081821" lon="-108.10422517313324"><ele>1880.25</ele><time>2026-04-15T23:53:55.001Z</time></trkpt><trkpt lat="36.87368236926195" lon="-108.10404829641125"><ele>1880.0</ele><time>2026-04-15T23:53:57.001Z</time></trkpt><trkpt lat="36.87380843440439" lon="-108.10392261958489"><ele>1880.0</ele><time>2026-04-15T23:53:58.001Z</time></trkpt><trkpt lat="36.87390100022223" lon="-108.10382392901077"><ele>1880.0</ele><time>2026-04-15T23:53:59.001Z</time></trkpt><trkpt lat="36.87399722504034" lon="-108.10373485431604"><ele>1880.0</ele><time>2026-04-15T23:54:00.001Z</time></trkpt><trkpt lat="36.87411326775739" lon="-108.10363385093419"><ele>1880.0</ele><time>2026-04-15T23:54:01.001Z</time></trkpt><trkpt lat="36.874200427850376" lon="-108.10355385605104"><ele>1878.8</ele><time>2026-04-15T23:54:02.001Z</time></trkpt><trkpt lat="36.8742962631505" lon="-108.10347819998701"><ele>1877.6</ele><time>2026-04-15T23:54:03.001Z</time></trkpt><trkpt lat="36.87441092566248" lon="-108.10339246779374"><ele>1876.4</ele><time>2026-04-15T23:54:04.001Z</time></trkpt><trkpt lat="36.87448497296529" lon="-108.10331431771147"><ele>1875.2</ele><time>2026-04-15T23:54:05.001Z</time></trkpt><trkpt lat="36.874541067962134" lon="-108.10321965583381"><ele>1874.0</ele><time>2026-04-15T23:54:06.001Z</time></trkpt><trkpt lat="36.87459372326418" lon="-108.1031405748202"><ele>1873.9999999999998</ele><time>2026-04-15T23:54:07.001Z</time></trkpt><trkpt lat="36.874649255242495" lon="-108.10309015120076"><ele>1874.0</ele><time>2026-04-15T23:54:08.001Z</time></trkpt><trkpt lat="36.87473188498207" lon="-108.1030344308269"><ele>1874.0</ele><time>2026-04-15T23:54:10.001Z</time></trkpt><trkpt lat="36.87466677101993" lon="-108.10298837132802"><ele>1874.0</ele><time>2026-04-15T23:54:11.001Z</time></trkpt><trkpt lat="36.87470213729493" lon="-108.10284652898397"><ele>1873.9999999999998</ele><time>2026-04-15T23:54:12.001Z</time></trkpt><trkpt lat="36.87475597972988" lon="-108.1027844081589"><ele>1874.0</ele><time>2026-04-15T23:54:13.001Z</time></trkpt><trkpt lat="36.874834826306135" lon="-108.10276679572038"><ele>1874.0</ele><time>2026-04-15T23:54:14.001Z</time></trkpt><trkpt lat="36.87491071699828" lon="-108.10273110444628"><ele>1874.0</ele><time>2026-04-15T23:54:15.001Z</time></trkpt><trkpt lat="36.87503817658155" lon="-108.10271877910833"><ele>1874.0</ele><time>2026-04-15T23:54:17.001Z</time></trkpt><trkpt lat="36.875161037985386" lon="-108.10279986797502"><ele>1874.0</ele><time>2026-04-15T23:54:18.001Z</time></trkpt><trkpt lat="36.875289852486375" lon="-108.10280490841599"><ele>1873.1666666666665</ele><time>2026-04-15T23:54:19.001Z</time></trkpt><trkpt lat="36.87538605237604" lon="-108.10276123308678"><ele>1872.3333333333333</ele><time>2026-04-15T23:54:20.001Z</time></trkpt><trkpt lat="36.87545495136605" lon="-108.10273537207888"><ele>1871.5</ele><time>2026-04-15T23:54:21.001Z</time></trkpt><trkpt lat="36.875517704934474" lon="-108.10271744856422"><ele>1870.6666666666665</ele><time>2026-04-15T23:54:22.001Z</time></trkpt><trkpt lat="36.87558138132009" lon="-108.10268205170607"><ele>1869.8333333333333</ele><time>2026-04-15T23:54:23.001Z</time></trkpt><trkpt lat="36.875665744229075" lon="-108.10265114552796"><ele>1869.0</ele><time>2026-04-15T23:54:24.001Z</time></trkpt><trkpt lat="36.875764005092876" lon="-108.10263333668267"><ele>1869.0</ele><time>2026-04-15T23:54:26.001Z</time></trkpt><trkpt lat="36.875858814708494" lon="-108.10262900508532"><ele>1869.0</ele><time>2026-04-15T23:54:28.001Z</time></trkpt><trkpt lat="36.87593061731955" lon="-108.10272689926721"><ele>1869.0</ele><time>2026-04-15T23:54:35.001Z</time></trkpt><trkpt lat="36.87599247030522" lon="-108.10287880875465"><ele>1869.0</ele><time>2026-04-15T23:54:38.001Z</time></trkpt><trkpt lat="36.87603901393194" lon="-108.10298434675258"><ele>1869.0</ele><time>2026-04-15T23:54:39.001Z</time></trkpt><trkpt lat="36.87610443649481" lon="-108.10309259633495"><ele>1868.5</ele><time>2026-04-15T23:54:40.001Z</time></trkpt><trkpt lat="36.87619342224227" lon="-108.10324747808507"><ele>1868.0</ele><time>2026-04-15T23:54:41.001Z</time></trkpt><trkpt lat="36.87624906525448" lon="-108.10337041200529"><ele>1867.5</ele><time>2026-04-15T23:54:42.001Z</time></trkpt><trkpt lat="36.876293360200435" lon="-108.10349383480755"><ele>1867.0</ele><time>2026-04-15T23:54:43.001Z</time></trkpt><trkpt lat="36.87633406192723" lon="-108.10362394557711"><ele>1867.0</ele><time>2026-04-15T23:54:44.001Z</time></trkpt><trkpt lat="36.87639311046412" lon="-108.10374365771533"><ele>1866.9999999999998</ele><time>2026-04-15T23:54:45.001Z</time></trkpt><trkpt lat="36.876454936015314" lon="-108.10386409413397"><ele>1866.9999999999998</ele><time>2026-04-15T23:54:46.001Z</time></trkpt><trkpt lat="36.876521760253134" lon="-108.10396113290142"><ele>1867.0</ele><time>2026-04-15T23:54:47.001Z</time></trkpt><trkpt lat="36.87659401849874" lon="-108.10403533462757"><ele>1867.0</ele><time>2026-04-15T23:54:48.001Z</time></trkpt><trkpt lat="36.87668020905431" lon="-108.10408613874617"><ele>1866.3999999999999</ele><time>2026-04-15T23:54:49.001Z</time></trkpt><trkpt lat="36.87675641026478" lon="-108.10412635758965"><ele>1865.7999999999997</ele><time>2026-04-15T23:54:50.001Z</time></trkpt><trkpt lat="36.87683015636885" lon="-108.10415735021293"><ele>1865.2</ele><time>2026-04-15T23:54:51.001Z</time></trkpt><trkpt lat="36.87694804843139" lon="-108.10419837946652"><ele>1864.6</ele><time>2026-04-15T23:54:53.002Z</time></trkpt><trkpt lat="36.87701740491039" lon="-108.10421628013219"><ele>1864.0</ele><time>2026-04-15T23:54:54.002Z</time></trkpt><trkpt lat="36.87695397623336" lon="-108.1038764446396"><ele>1865.1666666666667</ele><time>2026-04-15T23:54:55.002Z</time></trkpt><trkpt lat="36.87699294476847" lon="-108.1037664198845"><ele>1866.3333333333335</ele><time>2026-04-15T23:54:57.002Z</time></trkpt><trkpt lat="36.877051652635224" lon="-108.1037038367359"><ele>1867.5</ele><time>2026-04-15T23:54:59.002Z</time></trkpt><trkpt lat="36.8771262771884" lon="-108.10365217185995"><ele>1868.6666666666665</ele><time>2026-04-15T23:55:00.002Z</time></trkpt><trkpt lat="36.87719779891814" lon="-108.10359440627245"><ele>1869.8333333333333</ele><time>2026-04-15T23:55:01.002Z</time></trkpt><trkpt lat="36.87728282945717" lon="-108.10352304021986"><ele>1871.0</ele><time>2026-04-15T23:55:02.002Z</time></trkpt><trkpt lat="36.877362780980725" lon="-108.10343808476121"><ele>1870.9999999999998</ele><time>2026-04-15T23:55:03.002Z</time></trkpt><trkpt lat="36.87743271230691" lon="-108.10336458298913"><ele>1871.0</ele><time>2026-04-15T23:55:04.002Z</time></trkpt><trkpt lat="36.877488486894755" lon="-108.10332149015842"><ele>1871.0</ele><time>2026-04-15T23:55:05.002Z</time></trkpt><trkpt lat="36.877572906892325" lon="-108.10326748218934"><ele>1871.0</ele><time>2026-04-15T23:55:06.002Z</time></trkpt><trkpt lat="36.87765243337968" lon="-108.1032075270312"><ele>1870.9999999999998</ele><time>2026-04-15T23:55:07.002Z</time></trkpt><trkpt lat="36.87773331631178" lon="-108.1031289439023"><ele>1871.0</ele><time>2026-04-15T23:55:08.002Z</time></trkpt><trkpt lat="36.87783595916494" lon="-108.103049654751"><ele>1872.8</ele><time>2026-04-15T23:55:09.002Z</time></trkpt><trkpt lat="36.87793787078313" lon="-108.10296734930841"><ele>1874.6</ele><time>2026-04-15T23:55:10.002Z</time></trkpt><trkpt lat="36.87801892615329" lon="-108.10288736711752"><ele>1876.4</ele><time>2026-04-15T23:55:11.002Z</time></trkpt><trkpt lat="36.878069864993456" lon="-108.10283798078936"><ele>1878.2</ele><time>2026-04-15T23:55:12.002Z</time></trkpt><trkpt lat="36.877996652028116" lon="-108.10271593685303"><ele>1880.0</ele><time>2026-04-15T23:55:15.002Z</time></trkpt><trkpt lat="36.87789167446502" lon="-108.10266504736019"><ele>1880.0</ele><time>2026-04-15T23:55:16.002Z</time></trkpt><trkpt lat="36.87780370750603" lon="-108.10261041403488"><ele>1880.0</ele><time>2026-04-15T23:55:17.002Z</time></trkpt><trkpt lat="36.877737970304565" lon="-108.10250334716187"><ele>1880.0</ele><time>2026-04-15T23:55:19Z</time></trkpt><trkpt lat="36.877655544982694" lon="-108.1023812229602"><ele>1880.0</ele><time>2026-04-15T23:55:20Z</time></trkpt><trkpt lat="36.87759283924484" lon="-108.10226823569622"><ele>1880.0</ele><time>2026-04-15T23:55:21Z</time></trkpt><trkpt lat="36.87754247777048" lon="-108.10219081659956"><ele>1880.3333333333333</ele><time>2026-04-15T23:55:22Z</time></trkpt><trkpt lat="36.877449509082865" lon="-108.10212568737509"><ele>1880.6666666666665</ele><time>2026-04-15T23:55:23Z</time></trkpt><trkpt lat="36.87740628393025" lon="-108.10202893105512"><ele>1881.0</ele><time>2026-04-15T23:55:25Z</time></trkpt><trkpt lat="36.87743879922305" lon="-108.10194786314301"><ele>1881.3333333333335</ele><time>2026-04-15T23:55:26Z</time></trkpt><trkpt lat="36.87745323885177" lon="-108.10185261837788"><ele>1881.6666666666667</ele><time>2026-04-15T23:55:27Z</time></trkpt><trkpt lat="36.877391100839716" lon="-108.10179429233303"><ele>1882.0</ele><time>2026-04-15T23:55:28Z</time></trkpt><trkpt lat="36.877306868645775" lon="-108.10169763129944"><ele>1882.0</ele><time>2026-04-15T23:55:29Z</time></trkpt><trkpt lat="36.877231312008526" lon="-108.10158697466647"><ele>1881.9999999999998</ele><time>2026-04-15T23:55:30Z</time></trkpt><trkpt lat="36.87715756580971" lon="-108.10149624720866"><ele>1881.9999999999998</ele><time>2026-04-15T23:55:31Z</time></trkpt><trkpt lat="36.877087205949486" lon="-108.1014445993524"><ele>1882.0</ele><time>2026-04-15T23:55:32Z</time></trkpt><trkpt lat="36.87702368725504" lon="-108.1014170389981"><ele>1882.0</ele><time>2026-04-15T23:55:33Z</time></trkpt><trkpt lat="36.876940752000806" lon="-108.10134148772377"><ele>1881.6</ele><time>2026-04-15T23:55:34.001Z</time></trkpt><trkpt lat="36.876880555373766" lon="-108.10125708988623"><ele>1881.1999999999998</ele><time>2026-04-15T23:55:35.001Z</time></trkpt><trkpt lat="36.8768226151028" lon="-108.10121050831894"><ele>1880.8</ele><time>2026-04-15T23:55:36.001Z</time></trkpt><trkpt lat="36.876747293163426" lon="-108.10116162265044"><ele>1880.4</ele><time>2026-04-15T23:55:37.001Z</time></trkpt><trkpt lat="36.87665774716054" lon="-108.10113626977295"><ele>1880.0</ele><time>2026-04-15T23:55:39.001Z</time></trkpt><trkpt lat="36.87654137888308" lon="-108.10116032134465"><ele>1879.9999999999998</ele><time>2026-04-15T23:55:40.001Z</time></trkpt><trkpt lat="36.87646634417127" lon="-108.10113080702361"><ele>1880.0</ele><time>2026-04-15T23:55:41.001Z</time></trkpt><trkpt lat="36.876470257386885" lon="-108.10105222688442"><ele>1880.0</ele><time>2026-04-15T23:55:42.001Z</time></trkpt><trkpt lat="36.87650748360622" lon="-108.10091954766052"><ele>1880.0</ele><time>2026-04-15T23:55:44.001Z</time></trkpt><trkpt lat="36.876608648331704" lon="-108.10087621095646"><ele>1879.9999999999998</ele><time>2026-04-15T23:55:46.001Z</time></trkpt><trkpt lat="36.87665541659224" lon="-108.10081980162491"><ele>1880.0</ele><time>2026-04-15T23:55:49.001Z</time></trkpt><trkpt lat="36.87676810568213" lon="-108.10072032545098"><ele>1881.4</ele><time>2026-04-15T23:55:51.001Z</time></trkpt><trkpt lat="36.87686822738298" lon="-108.10073869693623"><ele>1882.8</ele><time>2026-04-15T23:55:52.001Z</time></trkpt><trkpt lat="36.87699277700602" lon="-108.10075267730953"><ele>1884.1999999999998</ele><time>2026-04-15T23:55:53.001Z</time></trkpt><trkpt lat="36.87709838840041" lon="-108.10075964550904"><ele>1885.6</ele><time>2026-04-15T23:55:54.001Z</time></trkpt><trkpt lat="36.87719934025004" lon="-108.10076210263261"><ele>1887.0</ele><time>2026-04-15T23:55:55.001Z</time></trkpt><trkpt lat="36.87730858323837" lon="-108.10074208451205"><ele>1887.0</ele><time>2026-04-15T23:55:56.001Z</time></trkpt><trkpt lat="36.877410779726496" lon="-108.10071205102395"><ele>1886.9999999999998</ele><time>2026-04-15T23:55:57.001Z</time></trkpt><trkpt lat="36.87749732279806" lon="-108.10063484028983"><ele>1886.9999999999998</ele><time>2026-04-15T23:55:58.001Z</time></trkpt><trkpt lat="36.87757076270804" lon="-108.10054993853493"><ele>1887.0</ele><time>2026-04-15T23:55:59.001Z</time></trkpt><trkpt lat="36.87762884465367" lon="-108.10044148854311"><ele>1887.0</ele><time>2026-04-15T23:56:00.001Z</time></trkpt><trkpt lat="36.877691353689656" lon="-108.10034036837966"><ele>1887.8</ele><time>2026-04-15T23:56:01.001Z</time></trkpt><trkpt lat="36.87773527278539" lon="-108.10023337424292"><ele>1888.6</ele><time>2026-04-15T23:56:02.001Z</time></trkpt><trkpt lat="36.877783250913225" lon="-108.10017008820611"><ele>1889.3999999999999</ele><time>2026-04-15T23:56:03.001Z</time></trkpt><trkpt lat="36.87791260982457" lon="-108.10012556791914"><ele>1890.1999999999998</ele><time>2026-04-15T23:56:05.001Z</time></trkpt><trkpt lat="36.878036837851305" lon="-108.10011076277357"><ele>1891.0</ele><time>2026-04-15T23:56:07.001Z</time></trkpt><trkpt lat="36.878109588525675" lon="-108.10010199268922"><ele>1891.0</ele><time>2026-04-15T23:56:08.001Z</time></trkpt><trkpt lat="36.87822455585821" lon="-108.1000968113324"><ele>1891.0</ele><time>2026-04-15T23:56:09.001Z</time></trkpt><trkpt lat="36.878283492576095" lon="-108.10000828157521"><ele>1891.0</ele><time>2026-04-15T23:56:10.001Z</time></trkpt><trkpt lat="36.87834828555107" lon="-108.09990759985504"><ele>1891.0</ele><time>2026-04-15T23:56:11.001Z</time></trkpt><trkpt lat="36.87842582223151" lon="-108.09986029516931"><ele>1891.0</ele><time>2026-04-15T23:56:12.001Z</time></trkpt><trkpt lat="36.87847628761499" lon="-108.09980389123417"><ele>1890.75</ele><time>2026-04-15T23:56:13.001Z</time></trkpt><trkpt lat="36.87849657189864" lon="-108.09970310026829"><ele>1890.5</ele><time>2026-04-15T23:56:14.001Z</time></trkpt><trkpt lat="36.878519727039006" lon="-108.09954881318293"><ele>1890.25</ele><time>2026-04-15T23:56:15.001Z</time></trkpt><trkpt lat="36.878570308020755" lon="-108.09938671365424"><ele>1890.0</ele><time>2026-04-15T23:56:16.001Z</time></trkpt><trkpt lat="36.8786398696892" lon="-108.09921698725687"><ele>1890.0</ele><time>2026-04-15T23:56:17.001Z</time></trkpt><trkpt lat="36.878681800085545" lon="-108.09911845476846"><ele>1890.0</ele><time>2026-04-15T23:56:18.001Z</time></trkpt><trkpt lat="36.87878202529427" lon="-108.09905516630752"><ele>1890.0</ele><time>2026-04-15T23:56:20.001Z</time></trkpt><trkpt lat="36.87887830901394" lon="-108.09907960703255"><ele>1890.0</ele><time>2026-04-15T23:56:21.001Z</time></trkpt><trkpt lat="36.878971906200114" lon="-108.0991057594291"><ele>1890.0</ele><time>2026-04-15T23:56:22.001Z</time></trkpt><trkpt lat="36.87904207938096" lon="-108.09913347421578"><ele>1890.0</ele><time>2026-04-15T23:56:23.001Z</time></trkpt><trkpt lat="36.879158280306925" lon="-108.09914565063683"><ele>1890.0</ele><time>2026-04-15T23:56:24.001Z</time></trkpt><trkpt lat="36.87926367993575" lon="-108.09917269658193"><ele>1890.0</ele><time>2026-04-15T23:56:25.001Z</time></trkpt><trkpt lat="36.87933378365723" lon="-108.09919968268352"><ele>1890.0</ele><time>2026-04-15T23:56:26.001Z</time></trkpt><trkpt lat="36.87941709281238" lon="-108.09919659777543"><ele>1890.0</ele><time>2026-04-15T23:56:27.001Z</time></trkpt><trkpt lat="36.879490144276936" lon="-108.09922782302603"><ele>1889.0</ele><time>2026-04-15T23:56:28.001Z</time></trkpt><trkpt lat="36.879532867005935" lon="-108.09929875890518"><ele>1888.0</ele><time>2026-04-15T23:56:29.001Z</time></trkpt><trkpt lat="36.87955400990335" lon="-108.09940276842421"><ele>1887.0</ele><time>2026-04-15T23:56:30.001Z</time></trkpt><trkpt lat="36.87956395013557" lon="-108.09951998419446"><ele>1886.0</ele><time>2026-04-15T23:56:31.001Z</time></trkpt><trkpt lat="36.87956859240711" lon="-108.0996220995912"><ele>1885.0</ele><time>2026-04-15T23:56:33.001Z</time></trkpt><trkpt lat="36.879664441939155" lon="-108.09959377724665"><ele>1884.0</ele><time>2026-04-15T23:56:35.001Z</time></trkpt><trkpt lat="36.879746163916614" lon="-108.09955818300502"><ele>1884.0</ele><time>2026-04-15T23:56:36.001Z</time></trkpt><trkpt lat="36.87982486346802" lon="-108.09957396693002"><ele>1884.0</ele><time>2026-04-15T23:56:37.001Z</time></trkpt><trkpt lat="36.87990582516884" lon="-108.09962860002776"><ele>1884.0</ele><time>2026-04-15T23:56:38.001Z</time></trkpt><trkpt lat="36.87999469152229" lon="-108.09967298233644"><ele>1884.0</ele><time>2026-04-15T23:56:39.001Z</time></trkpt><trkpt lat="36.88009023031611" lon="-108.09962802670171"><ele>1884.0</ele><time>2026-04-15T23:56:40.001Z</time></trkpt><trkpt lat="36.880189867154485" lon="-108.09963697551744"><ele>1883.6</ele><time>2026-04-15T23:56:41.001Z</time></trkpt><trkpt lat="36.880282845923986" lon="-108.09963456480337"><ele>1883.2</ele><time>2026-04-15T23:56:42.001Z</time></trkpt><trkpt lat="36.880355363540374" lon="-108.09963780336646"><ele>1882.7999999999997</ele><time>2026-04-15T23:56:43.001Z</time></trkpt><trkpt lat="36.88049168536469" lon="-108.09960915619504"><ele>1882.3999999999999</ele><time>2026-04-15T23:56:45.001Z</time></trkpt><trkpt lat="36.880567174980115" lon="-108.09958450857111"><ele>1882.0</ele><time>2026-04-15T23:56:46.001Z</time></trkpt><trkpt lat="36.880674701408104" lon="-108.09956308206846"><ele>1882.0000000000002</ele><time>2026-04-15T23:56:48.001Z</time></trkpt><trkpt lat="36.880725998507096" lon="-108.09949993764855"><ele>1882.0</ele><time>2026-04-15T23:56:49.001Z</time></trkpt><trkpt lat="36.8807870023761" lon="-108.09945464188691"><ele>1882.0</ele><time>2026-04-15T23:56:50.001Z</time></trkpt><trkpt lat="36.88085620644997" lon="-108.09936763306649"><ele>1882.0</ele><time>2026-04-15T23:56:51.001Z</time></trkpt><trkpt lat="36.88091670398439" lon="-108.09927322670868"><ele>1882.0000000000002</ele><time>2026-04-15T23:56:52.001Z</time></trkpt><trkpt lat="36.88096913502115" lon="-108.09922663690554"><ele>1882.0</ele><time>2026-04-15T23:56:53.001Z</time></trkpt><trkpt lat="36.88112061814494" lon="-108.09917833353462"><ele>1882.0</ele><time>2026-04-15T23:56:55.001Z</time></trkpt><trkpt lat="36.88122793382899" lon="-108.09917596528386"><ele>1881.9999999999998</ele><time>2026-04-15T23:56:56.001Z</time></trkpt><trkpt lat="36.88132800978392" lon="-108.0991016579943"><ele>1881.9999999999998</ele><time>2026-04-15T23:56:58.001Z</time></trkpt><trkpt lat="36.881398815994054" lon="-108.09902257758839"><ele>1882.0</ele><time>2026-04-15T23:56:59.002Z</time></trkpt><trkpt lat="36.88146060657324" lon="-108.09893456864054"><ele>1882.0</ele><time>2026-04-15T23:57:00.002Z</time></trkpt><trkpt lat="36.881499181353185" lon="-108.09886783440302"><ele>1881.25</ele><time>2026-04-15T23:57:01.002Z</time></trkpt><trkpt lat="36.88165146655938" lon="-108.09891604782813"><ele>1880.5</ele><time>2026-04-15T23:57:03.002Z</time></trkpt><trkpt lat="36.88172783519728" lon="-108.09889380868684"><ele>1879.75</ele><time>2026-04-15T23:57:04.002Z</time></trkpt><trkpt lat="36.88178959269218" lon="-108.0990236404747"><ele>1879.0</ele><time>2026-04-15T23:57:06.002Z</time></trkpt><trkpt lat="36.881885628080575" lon="-108.09912689602876"><ele>1878.0000000000002</ele><time>2026-04-15T23:57:07.002Z</time></trkpt><trkpt lat="36.881956313745185" lon="-108.09918481935227"><ele>1877.0</ele><time>2026-04-15T23:57:08.002Z</time></trkpt><trkpt lat="36.88203611317698" lon="-108.09920095927076"><ele>1876.0</ele><time>2026-04-15T23:57:09.002Z</time></trkpt><trkpt lat="36.882122871365944" lon="-108.09918238114794"><ele>1875.0</ele><time>2026-04-15T23:57:10.002Z</time></trkpt><trkpt lat="36.8821949844495" lon="-108.09915912403117"><ele>1874.0000000000002</ele><time>2026-04-15T23:57:11.002Z</time></trkpt><trkpt lat="36.88226400759113" lon="-108.09916141797639"><ele>1873.0</ele><time>2026-04-15T23:57:12.002Z</time></trkpt><trkpt lat="36.88234753184385" lon="-108.09918669083825"><ele>1873.0000000000002</ele><time>2026-04-15T23:57:14.002Z</time></trkpt><trkpt lat="36.882424740435276" lon="-108.09921181710692"><ele>1873.0</ele><time>2026-04-15T23:57:16.002Z</time></trkpt><trkpt lat="36.88249338168534" lon="-108.09917567934288"><ele>1873.0</ele><time>2026-04-15T23:57:18.002Z</time></trkpt><trkpt lat="36.88260678769904" lon="-108.09912367090926"><ele>1873.0</ele><time>2026-04-15T23:57:20.002Z</time></trkpt><trkpt lat="36.882681521850536" lon="-108.09915926085272"><ele>1873.0000000000002</ele><time>2026-04-15T23:57:22.002Z</time></trkpt><trkpt lat="36.88273878143886" lon="-108.09923788734444"><ele>1873.0</ele><time>2026-04-15T23:57:23.002Z</time></trkpt><trkpt lat="36.88280116536606" lon="-108.09933994084807"><ele>1871.8000000000002</ele><time>2026-04-15T23:57:24Z</time></trkpt><trkpt lat="36.88287838738822" lon="-108.09944028954686"><ele>1870.6000000000001</ele><time>2026-04-15T23:57:25Z</time></trkpt><trkpt lat="36.88292534785152" lon="-108.0995348735003"><ele>1869.3999999999999</ele><time>2026-04-15T23:57:26Z</time></trkpt><trkpt lat="36.88296346851586" lon="-108.09964446351925"><ele>1868.1999999999998</ele><time>2026-04-15T23:57:27Z</time></trkpt><trkpt lat="36.883016323992656" lon="-108.09974929840732"><ele>1867.0</ele><time>2026-04-15T23:57:28Z</time></trkpt><trkpt lat="36.88310636532611" lon="-108.09979294445827"><ele>1867.0</ele><time>2026-04-15T23:57:29Z</time></trkpt><trkpt lat="36.88321335361439" lon="-108.09983049860402"><ele>1867.0</ele><time>2026-04-15T23:57:30Z</time></trkpt><trkpt lat="36.883339464363175" lon="-108.09987148345964"><ele>1867.0</ele><time>2026-04-15T23:57:31Z</time></trkpt><trkpt lat="36.88345047782029" lon="-108.0999251222902"><ele>1867.0</ele><time>2026-04-15T23:57:32Z</time></trkpt><trkpt lat="36.88355305843253" lon="-108.09996618734563"><ele>1866.0</ele><time>2026-04-15T23:57:33Z</time></trkpt><trkpt lat="36.883615223594795" lon="-108.09997886897922"><ele>1864.9999999999998</ele><time>2026-04-15T23:57:35Z</time></trkpt><trkpt lat="36.8836175886978" lon="-108.10007627656006"><ele>1863.9999999999998</ele><time>2026-04-15T23:57:36Z</time></trkpt><trkpt lat="36.88361673571985" lon="-108.10022478979164"><ele>1863.0</ele><time>2026-04-15T23:57:37Z</time></trkpt><trkpt lat="36.883662605312786" lon="-108.10037504949555"><ele>1862.0</ele><time>2026-04-15T23:57:38Z</time></trkpt><trkpt lat="36.88372673495756" lon="-108.10050145593999"><ele>1861.9999999999998</ele><time>2026-04-15T23:57:39Z</time></trkpt><trkpt lat="36.883777812527484" lon="-108.100634311016"><ele>1862.0</ele><time>2026-04-15T23:57:40Z</time></trkpt><trkpt lat="36.88382738596907" lon="-108.10072776983021"><ele>1862.0</ele><time>2026-04-15T23:57:41.001Z</time></trkpt><trkpt lat="36.8838900042041" lon="-108.10078348115736"><ele>1862.0</ele><time>2026-04-15T23:57:42.001Z</time></trkpt><trkpt lat="36.88395422823901" lon="-108.10082674451013"><ele>1861.9999999999998</ele><time>2026-04-15T23:57:43.001Z</time></trkpt><trkpt lat="36.88398995047275" lon="-108.1009073230902"><ele>1862.0</ele><time>2026-04-15T23:57:44.001Z</time></trkpt><trkpt lat="36.88402110510762" lon="-108.10103239175974"><ele>1861.6666666666665</ele><time>2026-04-15T23:57:45.001Z</time></trkpt><trkpt lat="36.884093735226344" lon="-108.10114881657832"><ele>1861.3333333333333</ele><time>2026-04-15T23:57:46.001Z</time></trkpt><trkpt lat="36.884171865985714" lon="-108.10124513500526"><ele>1861.0</ele><time>2026-04-15T23:57:47.001Z</time></trkpt><trkpt lat="36.88423373174321" lon="-108.10130993213794"><ele>1860.6666666666665</ele><time>2026-04-15T23:57:48.001Z</time></trkpt><trkpt lat="36.88430107010592" lon="-108.10134383026669"><ele>1860.3333333333333</ele><time>2026-04-15T23:57:49.001Z</time></trkpt><trkpt lat="36.88435094551991" lon="-108.10139250383303"><ele>1860.0</ele><time>2026-04-15T23:57:50.001Z</time></trkpt><trkpt lat="36.884430105566274" lon="-108.10155168887074"><ele>1859.2</ele><time>2026-04-15T23:57:52.001Z</time></trkpt><trkpt lat="36.884497993998" lon="-108.10157900587612"><ele>1858.4</ele><time>2026-04-15T23:57:53.001Z</time></trkpt><trkpt lat="36.88457427808812" lon="-108.10158195413037"><ele>1857.6</ele><time>2026-04-15T23:57:54.001Z</time></trkpt><trkpt lat="36.88467755892933" lon="-108.1016092887242"><ele>1856.8</ele><time>2026-04-15T23:57:55.001Z</time></trkpt><trkpt lat="36.88481977514415" lon="-108.10165400854694"><ele>1856.0</ele><time>2026-04-15T23:57:56.001Z</time></trkpt><trkpt lat="36.88492004801949" lon="-108.1016784419774"><ele>1855.6666666666665</ele><time>2026-04-15T23:57:57.001Z</time></trkpt><trkpt lat="36.88499178671983" lon="-108.10169613699831"><ele>1855.3333333333333</ele><time>2026-04-15T23:57:58.001Z</time></trkpt><trkpt lat="36.88506239655782" lon="-108.10169533125838"><ele>1855.0</ele><time>2026-04-15T23:57:59.001Z</time></trkpt><trkpt lat="36.885142524067106" lon="-108.10170284209374"><ele>1854.6666666666665</ele><time>2026-04-15T23:58:00.001Z</time></trkpt><trkpt lat="36.8851935096159" lon="-108.10175525668318"><ele>1854.3333333333333</ele><time>2026-04-15T23:58:01.001Z</time></trkpt><trkpt lat="36.88530352020869" lon="-108.10183471185243"><ele>1854.0</ele><time>2026-04-15T23:58:03.001Z</time></trkpt><trkpt lat="36.885411757411504" lon="-108.10188577736116"><ele>1854.0</ele><time>2026-04-15T23:58:04.001Z</time></trkpt><trkpt lat="36.885528292511644" lon="-108.10195475452996"><ele>1854.0</ele><time>2026-04-15T23:58:05.001Z</time></trkpt><trkpt lat="36.88559336154875" lon="-108.10199445357293"><ele>1854.0</ele><time>2026-04-15T23:58:06.001Z</time></trkpt><trkpt lat="36.88565337475942" lon="-108.10204661033065"><ele>1854.0</ele><time>2026-04-15T23:58:07.001Z</time></trkpt><trkpt lat="36.88570523462165" lon="-108.10214664470132"><ele>1854.0</ele><time>2026-04-15T23:58:08.001Z</time></trkpt><trkpt lat="36.88575625615469" lon="-108.10228329579755"><ele>1853.0</ele><time>2026-04-15T23:58:09.001Z</time></trkpt><trkpt lat="36.88579832478463" lon="-108.10246474273396"><ele>1852.0</ele><time>2026-04-15T23:58:10.001Z</time></trkpt><trkpt lat="36.88585510966557" lon="-108.10268734372916"><ele>1851.0</ele><time>2026-04-15T23:58:11.001Z</time></trkpt><trkpt lat="36.88591439547714" lon="-108.1028766565314"><ele>1850.6666666666665</ele><time>2026-04-15T23:58:12.001Z</time></trkpt><trkpt lat="36.88597088006877" lon="-108.10304001955696"><ele>1850.3333333333333</ele><time>2026-04-15T23:58:13.001Z</time></trkpt><trkpt lat="36.886023781294256" lon="-108.10323069731969"><ele>1850.0</ele><time>2026-04-15T23:58:14.001Z</time></trkpt><trkpt lat="36.88607346150541" lon="-108.1034037892872"><ele>1849.2</ele><time>2026-04-15T23:58:15.001Z</time></trkpt><trkpt lat="36.88613592293533" lon="-108.1035560662012"><ele>1848.4</ele><time>2026-04-15T23:58:16.001Z</time></trkpt><trkpt lat="36.88619553478706" lon="-108.10368981836966"><ele>1847.6</ele><time>2026-04-15T23:58:17.001Z</time></trkpt><trkpt lat="36.886243204913434" lon="-108.10379918832862"><ele>1846.8</ele><time>2026-04-15T23:58:18.001Z</time></trkpt><trkpt lat="36.88626928029748" lon="-108.10389291599631"><ele>1846.0</ele><time>2026-04-15T23:58:19.001Z</time></trkpt><trkpt lat="36.88626969692296" lon="-108.10399663141786"><ele>1845.5000000000002</ele><time>2026-04-15T23:58:20.001Z</time></trkpt><trkpt lat="36.88625122242618" lon="-108.10408525537767"><ele>1845.0</ele><time>2026-04-15T23:58:21.001Z</time></trkpt><trkpt lat="36.886172124165505" lon="-108.10416269642042"><ele>1844.5</ele><time>2026-04-15T23:58:23.001Z</time></trkpt><trkpt lat="36.88609591156552" lon="-108.10423109509398"><ele>1844.0</ele><time>2026-04-15T23:58:25.001Z</time></trkpt><trkpt lat="36.88613386147209" lon="-108.10433438693927"><ele>1843.5000000000002</ele><time>2026-04-15T23:58:27.001Z</time></trkpt><trkpt lat="36.88616040605615" lon="-108.10440593463584"><ele>1843.0</ele><time>2026-04-15T23:58:28.001Z</time></trkpt><trkpt lat="36.88615968705527" lon="-108.104494689274"><ele>1843.0</ele><time>2026-04-15T23:58:29.001Z</time></trkpt><trkpt lat="36.886181632542154" lon="-108.10456910877998"><ele>1843.0000000000002</ele><time>2026-04-15T23:58:30.001Z</time></trkpt><trkpt lat="36.886262937376635" lon="-108.10462661432632"><ele>1843.0000000000002</ele><time>2026-04-15T23:58:32.001Z</time></trkpt><trkpt lat="36.886368237153064" lon="-108.10462387442209"><ele>1843.0</ele><time>2026-04-15T23:58:34.001Z</time></trkpt><trkpt lat="36.88646556914522" lon="-108.10465176019284"><ele>1843.0</ele><time>2026-04-15T23:58:35.001Z</time></trkpt><trkpt lat="36.886554141213146" lon="-108.10467437551432"><ele>1843.0</ele><time>2026-04-15T23:58:36.001Z</time></trkpt><trkpt lat="36.886642797912735" lon="-108.10468062494616"><ele>1843.0000000000002</ele><time>2026-04-15T23:58:37.001Z</time></trkpt><trkpt lat="36.88675413490208" lon="-108.10468296403634"><ele>1843.0000000000002</ele><time>2026-04-15T23:58:38.001Z</time></trkpt><trkpt lat="36.886837433834536" lon="-108.10473436744725"><ele>1843.0</ele><time>2026-04-15T23:58:39.001Z</time></trkpt><trkpt lat="36.88690167421446" lon="-108.10483162857646"><ele>1843.0</ele><time>2026-04-15T23:58:40.001Z</time></trkpt><trkpt lat="36.88696709302854" lon="-108.10495399955343"><ele>1844.75</ele><time>2026-04-15T23:58:41.001Z</time></trkpt><trkpt lat="36.88705376311989" lon="-108.10507112951163"><ele>1846.5</ele><time>2026-04-15T23:58:42.001Z</time></trkpt><trkpt lat="36.887170284213376" lon="-108.105165732572"><ele>1848.25</ele><time>2026-04-15T23:58:43.001Z</time></trkpt><trkpt lat="36.88727717490596" lon="-108.10522106668446"><ele>1850.0</ele><time>2026-04-15T23:58:44.001Z</time></trkpt><trkpt lat="36.8873843398693" lon="-108.10527862702423"><ele>1850.0</ele><time>2026-04-15T23:58:45.001Z</time></trkpt><trkpt lat="36.887491903701495" lon="-108.10536147496157"><ele>1850.0</ele><time>2026-04-15T23:58:46.001Z</time></trkpt><trkpt lat="36.88756913521946" lon="-108.10550390415045"><ele>1850.0</ele><time>2026-04-15T23:58:47.001Z</time></trkpt><trkpt lat="36.88765296296438" lon="-108.10561395875538"><ele>1850.0</ele><time>2026-04-15T23:58:48.001Z</time></trkpt><trkpt lat="36.887743947362246" lon="-108.10569676974698"><ele>1851.8</ele><time>2026-04-15T23:58:49.001Z</time></trkpt><trkpt lat="36.88784349063402" lon="-108.10575186282036"><ele>1853.6</ele><time>2026-04-15T23:58:50.001Z</time></trkpt><trkpt lat="36.88794365810936" lon="-108.10575287140288"><ele>1855.4</ele><time>2026-04-15T23:58:52.001Z</time></trkpt><trkpt lat="36.88806461821153" lon="-108.10581348009029"><ele>1857.2</ele><time>2026-04-15T23:58:55.001Z</time></trkpt><trkpt lat="36.88814815902035" lon="-108.10586994130061"><ele>1859.0</ele><time>2026-04-15T23:58:56.001Z</time></trkpt><trkpt lat="36.88825701633666" lon="-108.10581877098274"><ele>1859.0</ele><time>2026-04-15T23:58:58.001Z</time></trkpt><trkpt lat="36.88837520881979" lon="-108.10574626857952"><ele>1859.0</ele><time>2026-04-15T23:58:59.001Z</time></trkpt><trkpt lat="36.88847381761548" lon="-108.10565860597794"><ele>1859.0</ele><time>2026-04-15T23:59:00.001Z</time></trkpt><trkpt lat="36.88852905745306" lon="-108.10559553274007"><ele>1859.0</ele><time>2026-04-15T23:59:01.001Z</time></trkpt><trkpt lat="36.8886256049775" lon="-108.10555381177063"><ele>1859.0</ele><time>2026-04-15T23:59:02.001Z</time></trkpt><trkpt lat="36.888734088999946" lon="-108.1055441638844"><ele>1859.0</ele><time>2026-04-15T23:59:03.001Z</time></trkpt><trkpt lat="36.88883322197065" lon="-108.10554764613026"><ele>1859.0</ele><time>2026-04-15T23:59:04.001Z</time></trkpt><trkpt lat="36.88892408867863" lon="-108.10566114728512"><ele>1859.0</ele><time>2026-04-15T23:59:06.002Z</time></trkpt><trkpt lat="36.88898035006196" lon="-108.10570093007048"><ele>1859.0</ele><time>2026-04-15T23:59:07.002Z</time></trkpt><trkpt lat="36.889109574656715" lon="-108.10569722713159"><ele>1859.0</ele><time>2026-04-15T23:59:09.002Z</time></trkpt><trkpt lat="36.889201671667585" lon="-108.10575925898735"><ele>1860.0</ele><time>2026-04-15T23:59:11.002Z</time></trkpt><trkpt lat="36.889266879214915" lon="-108.1057900806094"><ele>1861.0</ele><time>2026-04-15T23:59:13.002Z</time></trkpt><trkpt lat="36.88934543217941" lon="-108.10584789359727"><ele>1862.0</ele><time>2026-04-15T23:59:15.002Z</time></trkpt><trkpt lat="36.889500911344776" lon="-108.10598235766982"><ele>1863.0</ele><time>2026-04-15T23:59:18.002Z</time></trkpt><trkpt lat="36.88958153636489" lon="-108.1060376530866"><ele>1864.0</ele><time>2026-04-15T23:59:20.002Z</time></trkpt><trkpt lat="36.889662325584055" lon="-108.1060892039218"><ele>1864.0</ele><time>2026-04-15T23:59:22.002Z</time></trkpt><trkpt lat="36.88974416286659" lon="-108.10618164875736"><ele>1864.0</ele><time>2026-04-15T23:59:24.002Z</time></trkpt><trkpt lat="36.88981150136463" lon="-108.10632888153353"><ele>1864.0</ele><time>2026-04-15T23:59:26.002Z</time></trkpt><trkpt lat="36.88985522348463" lon="-108.1064007306912"><ele>1864.0</ele><time>2026-04-15T23:59:27.002Z</time></trkpt><trkpt lat="36.889913221696126" lon="-108.1064727848178"><ele>1864.0</ele><time>2026-04-15T23:59:28.002Z</time></trkpt><trkpt lat="36.88997340382779" lon="-108.10653863598895"><ele>1864.3333333333335</ele><time>2026-04-15T23:59:29.002Z</time></trkpt><trkpt lat="36.89003860432498" lon="-108.10659586721"><ele>1864.6666666666667</ele><time>2026-04-15T23:59:30Z</time></trkpt><trkpt lat="36.890101682259115" lon="-108.10664329034209"><ele>1865.0</ele><time>2026-04-15T23:59:31Z</time></trkpt><trkpt lat="36.89017095163548" lon="-108.1066804645731"><ele>1865.3333333333335</ele><time>2026-04-15T23:59:32Z</time></trkpt><trkpt lat="36.89023722049456" lon="-108.10669656684777"><ele>1865.6666666666667</ele><time>2026-04-15T23:59:33Z</time></trkpt><trkpt lat="36.89029446882044" lon="-108.10675255648803"><ele>1866.0</ele><time>2026-04-15T23:59:34Z</time></trkpt><trkpt lat="36.890358938127505" lon="-108.10682546160551"><ele>1866.75</ele><time>2026-04-15T23:59:35Z</time></trkpt><trkpt lat="36.89053097086079" lon="-108.1068990238417"><ele>1867.5</ele><time>2026-04-15T23:59:36Z</time></trkpt><trkpt lat="36.890602165284584" lon="-108.10697840559851"><ele>1868.25</ele><time>2026-04-15T23:59:37Z</time></trkpt><trkpt lat="36.890650646328815" lon="-108.1070856316371"><ele>1869.0</ele><time>2026-04-15T23:59:38Z</time></trkpt><trkpt lat="36.890712027102914" lon="-108.107228510912"><ele>1869.0</ele><time>2026-04-15T23:59:39Z</time></trkpt><trkpt lat="36.89073388595777" lon="-108.10733976736182"><ele>1869.0</ele><time>2026-04-15T23:59:40Z</time></trkpt><trkpt lat="36.89071941666209" lon="-108.10747188434415"><ele>1869.0</ele><time>2026-04-15T23:59:41Z</time></trkpt><trkpt lat="36.89073904521071" lon="-108.10759792060827"><ele>1869.0</ele><time>2026-04-15T23:59:42Z</time></trkpt><trkpt lat="36.89078570883268" lon="-108.10768849274376"><ele>1869.0</ele><time>2026-04-15T23:59:43Z</time></trkpt><trkpt lat="36.89081209842714" lon="-108.10778015725761"><ele>1869.8333333333333</ele><time>2026-04-15T23:59:44Z</time></trkpt><trkpt lat="36.89085613130877" lon="-108.10784354372798"><ele>1870.6666666666665</ele><time>2026-04-15T23:59:45Z</time></trkpt><trkpt lat="36.89092626825667" lon="-108.10783955823075"><ele>1871.5</ele><time>2026-04-15T23:59:46Z</time></trkpt><trkpt lat="36.891013415775184" lon="-108.10782772052008"><ele>1872.3333333333333</ele><time>2026-04-15T23:59:47.001Z</time></trkpt><trkpt lat="36.891102263847124" lon="-108.10781966243445"><ele>1873.1666666666665</ele><time>2026-04-15T23:59:48.001Z</time></trkpt><trkpt lat="36.89118250879424" lon="-108.10780905319972"><ele>1874.0</ele><time>2026-04-15T23:59:49.001Z</time></trkpt><trkpt lat="36.891262545135575" lon="-108.10782656050807"><ele>1873.9999999999998</ele><time>2026-04-15T23:59:50.001Z</time></trkpt><trkpt lat="36.89131575285868" lon="-108.1079032995367"><ele>1874.0</ele><time>2026-04-15T23:59:51.001Z</time></trkpt><trkpt lat="36.89136073128159" lon="-108.1080048839322"><ele>1874.0</ele><time>2026-04-15T23:59:52.001Z</time></trkpt><trkpt lat="36.89140841397998" lon="-108.10809924657319"><ele>1874.0</ele><time>2026-04-15T23:59:53.001Z</time></trkpt><trkpt lat="36.89146040222571" lon="-108.10816275638709"><ele>1873.9999999999998</ele><time>2026-04-15T23:59:54.001Z</time></trkpt><trkpt lat="36.891551309322956" lon="-108.10821928193202"><ele>1874.0</ele><time>2026-04-15T23:59:55.001Z</time></trkpt><trkpt lat="36.891629090348836" lon="-108.10830091972318"><ele>1874.2</ele><time>2026-04-15T23:59:56.001Z</time></trkpt><trkpt lat="36.89166104324516" lon="-108.10840567810268"><ele>1874.4</ele><time>2026-04-15T23:59:57.001Z</time></trkpt><trkpt lat="36.89167954490973" lon="-108.10853792729303"><ele>1874.6</ele><time>2026-04-15T23:59:58.001Z</time></trkpt><trkpt lat="36.891722414940006" lon="-108.10866936829385"><ele>1874.8</ele><time>2026-04-15T23:59:59.001Z</time></trkpt><trkpt lat="36.8917547386858" lon="-108.10876640068247"><ele>1875.0</ele><time>2026-04-16T00:00:00.001Z</time></trkpt><trkpt lat="36.89178436840875" lon="-108.10884158285373"><ele>1875.2</ele><time>2026-04-16T00:00:01.001Z</time></trkpt><trkpt lat="36.89184517889854" lon="-108.1089318108886"><ele>1875.4</ele><time>2026-04-16T00:00:02.001Z</time></trkpt><trkpt lat="36.89191170957989" lon="-108.10902102820779"><ele>1875.6</ele><time>2026-04-16T00:00:03.001Z</time></trkpt><trkpt lat="36.89193267738907" lon="-108.10913280865508"><ele>1875.8</ele><time>2026-04-16T00:00:04.001Z</time></trkpt><trkpt lat="36.89192112524588" lon="-108.1092752072211"><ele>1876.0</ele><time>2026-04-16T00:00:05.001Z</time></trkpt><trkpt lat="36.89194779595524" lon="-108.10936174723562"><ele>1877.0</ele><time>2026-04-16T00:00:06.001Z</time></trkpt><trkpt lat="36.892018786319106" lon="-108.10945719022976"><ele>1878.0</ele><time>2026-04-16T00:00:07.001Z</time></trkpt><trkpt lat="36.89207770540367" lon="-108.10953440903474"><ele>1879.0</ele><time>2026-04-16T00:00:08.001Z</time></trkpt><trkpt lat="36.892153616949564" lon="-108.10961081000504"><ele>1880.0</ele><time>2026-04-16T00:00:09.001Z</time></trkpt><trkpt lat="36.89225701689801" lon="-108.10969754651767"><ele>1881.0</ele><time>2026-04-16T00:00:10.001Z</time></trkpt><trkpt lat="36.89229780521554" lon="-108.10976307360967"><ele>1881.0</ele><time>2026-04-16T00:00:11.001Z</time></trkpt><trkpt lat="36.892245582999955" lon="-108.10984607207565"><ele>1881.0</ele><time>2026-04-16T00:00:13.001Z</time></trkpt><trkpt lat="36.89219209217736" lon="-108.10994742937953"><ele>1881.0</ele><time>2026-04-16T00:00:14.001Z</time></trkpt><trkpt lat="36.89215883309335" lon="-108.11008449691748"><ele>1881.0</ele><time>2026-04-16T00:00:16.001Z</time></trkpt><trkpt lat="36.892188116195776" lon="-108.1102093287313"><ele>1881.0</ele><time>2026-04-16T00:00:17.001Z</time></trkpt><trkpt lat="36.8922131560129" lon="-108.11033222830281"><ele>1882.8</ele><time>2026-04-16T00:00:18.001Z</time></trkpt><trkpt lat="36.89221835918269" lon="-108.11045255094038"><ele>1884.6</ele><time>2026-04-16T00:00:19.001Z</time></trkpt><trkpt lat="36.89223687235751" lon="-108.11055092610778"><ele>1886.4</ele><time>2026-04-16T00:00:20.001Z</time></trkpt><trkpt lat="36.892319658512136" lon="-108.11061564967783"><ele>1888.2</ele><time>2026-04-16T00:00:22.001Z</time></trkpt><trkpt lat="36.89243335229264" lon="-108.1105792776701"><ele>1890.0</ele><time>2026-04-16T00:00:24.001Z</time></trkpt><trkpt lat="36.8925025316283" lon="-108.1105441382712"><ele>1890.0</ele><time>2026-04-16T00:00:25.001Z</time></trkpt><trkpt lat="36.89258821548134" lon="-108.11054255193692"><ele>1890.0</ele><time>2026-04-16T00:00:26.001Z</time></trkpt><trkpt lat="36.892683756484" lon="-108.11057703635593"><ele>1890.0</ele><time>2026-04-16T00:00:27.001Z</time></trkpt><trkpt lat="36.89275648956185" lon="-108.11061617462579"><ele>1890.0</ele><time>2026-04-16T00:00:28.001Z</time></trkpt><trkpt lat="36.89283661951665" lon="-108.11076195326756"><ele>1890.0</ele><time>2026-04-16T00:00:30.001Z</time></trkpt><trkpt lat="36.89292039621451" lon="-108.11080991367768"><ele>1890.0</ele><time>2026-04-16T00:00:31.001Z</time></trkpt><trkpt lat="36.89303665200805" lon="-108.11071483850428"><ele>1890.0</ele><time>2026-04-16T00:00:33.001Z</time></trkpt><trkpt lat="36.89314379399003" lon="-108.11067333232612"><ele>1890.0</ele><time>2026-04-16T00:00:34.001Z</time></trkpt><trkpt lat="36.89322364878102" lon="-108.1106994890572"><ele>1890.0</ele><time>2026-04-16T00:00:35.001Z</time></trkpt><trkpt lat="36.89330310846076" lon="-108.1107438832495"><ele>1890.0</ele><time>2026-04-16T00:00:36.001Z</time></trkpt><trkpt lat="36.89343700239322" lon="-108.11074639321532"><ele>1890.2</ele><time>2026-04-16T00:00:38.001Z</time></trkpt><trkpt lat="36.89355606135083" lon="-108.1106953113354"><ele>1890.4</ele><time>2026-04-16T00:00:39.001Z</time></trkpt><trkpt lat="36.893649556517225" lon="-108.11066789149808"><ele>1890.6</ele><time>2026-04-16T00:00:40.001Z</time></trkpt><trkpt lat="36.893727968805834" lon="-108.11062891474802"><ele>1890.8</ele><time>2026-04-16T00:00:41.001Z</time></trkpt><trkpt lat="36.89380583729451" lon="-108.11055176513084"><ele>1891.0</ele><time>2026-04-16T00:00:42.001Z</time></trkpt><trkpt lat="36.89386692114119" lon="-108.11053055947424"><ele>1891.0</ele><time>2026-04-16T00:00:43.001Z</time></trkpt><trkpt lat="36.894000862818864" lon="-108.11047223945674"><ele>1891.0</ele><time>2026-04-16T00:00:45.001Z</time></trkpt><trkpt lat="36.894104749890744" lon="-108.1103816155458"><ele>1891.0</ele><time>2026-04-16T00:00:46.001Z</time></trkpt><trkpt lat="36.89419289500703" lon="-108.11033211334393"><ele>1891.0</ele><time>2026-04-16T00:00:47.001Z</time></trkpt><trkpt lat="36.89426044264211" lon="-108.11027056427048"><ele>1891.0</ele><time>2026-04-16T00:00:48.001Z</time></trkpt><trkpt lat="36.89428558659385" lon="-108.11016809574384"><ele>1891.0</ele><time>2026-04-16T00:00:49.001Z</time></trkpt><trkpt lat="36.89431916398648" lon="-108.11007049773357"><ele>1891.0</ele><time>2026-04-16T00:00:50.001Z</time></trkpt><trkpt lat="36.89439351635171" lon="-108.10999826545013"><ele>1891.0</ele><time>2026-04-16T00:00:51.001Z</time></trkpt><trkpt lat="36.89447812542909" lon="-108.10993027258085"><ele>1891.0</ele><time>2026-04-16T00:00:52.001Z</time></trkpt><trkpt lat="36.89454052686688" lon="-108.10984895921133"><ele>1891.0</ele><time>2026-04-16T00:00:53.001Z</time></trkpt><trkpt lat="36.894590055086574" lon="-108.10976793764976"><ele>1892.1999999999998</ele><time>2026-04-16T00:00:54.001Z</time></trkpt><trkpt lat="36.89465020198048" lon="-108.1096584504569"><ele>1893.3999999999999</ele><time>2026-04-16T00:00:55.001Z</time></trkpt><trkpt lat="36.894702075159216" lon="-108.10958936347599"><ele>1894.6</ele><time>2026-04-16T00:00:56.001Z</time></trkpt><trkpt lat="36.894781338922556" lon="-108.10958417622086"><ele>1895.8</ele><time>2026-04-16T00:00:57.001Z</time></trkpt><trkpt lat="36.894879742775025" lon="-108.10960029401473"><ele>1897.0</ele><time>2026-04-16T00:00:58.001Z</time></trkpt><trkpt lat="36.894975311449585" lon="-108.10959051553661"><ele>1897.0</ele><time>2026-04-16T00:00:59.001Z</time></trkpt><trkpt lat="36.89505103756253" lon="-108.10961870247121"><ele>1896.9999999999998</ele><time>2026-04-16T00:01:00.001Z</time></trkpt><trkpt lat="36.89510591499418" lon="-108.10969769752873"><ele>1896.9999999999998</ele><time>2026-04-16T00:01:01.001Z</time></trkpt><trkpt lat="36.89516031347181" lon="-108.10974971875214"><ele>1897.0</ele><time>2026-04-16T00:01:02.001Z</time></trkpt><trkpt lat="36.89526219342893" lon="-108.10971452934767"><ele>1897.0</ele><time>2026-04-16T00:01:03.001Z</time></trkpt><trkpt lat="36.89537868646615" lon="-108.109649064402"><ele>1896.1999999999998</ele><time>2026-04-16T00:01:04.001Z</time></trkpt><trkpt lat="36.89544613449901" lon="-108.10958833399393"><ele>1895.3999999999999</ele><time>2026-04-16T00:01:05.001Z</time></trkpt><trkpt lat="36.8955168668488" lon="-108.10945356654338"><ele>1894.6000000000001</ele><time>2026-04-16T00:01:07.001Z</time></trkpt><trkpt lat="36.89560481709658" lon="-108.10937640565507"><ele>1893.8000000000002</ele><time>2026-04-16T00:01:08.001Z</time></trkpt><trkpt lat="36.895686128856504" lon="-108.10931673926585"><ele>1893.0</ele><time>2026-04-16T00:01:09.001Z</time></trkpt><trkpt lat="36.89575614718921" lon="-108.1093044089078"><ele>1893.0</ele><time>2026-04-16T00:01:10.002Z</time></trkpt><trkpt lat="36.8957703107988" lon="-108.10918525324234"><ele>1893.0000000000002</ele><time>2026-04-16T00:01:11.002Z</time></trkpt><trkpt lat="36.89578205599717" lon="-108.10904642889312"><ele>1893.0000000000002</ele><time>2026-04-16T00:01:12.002Z</time></trkpt><trkpt lat="36.89582863236751" lon="-108.10894456388606"><ele>1893.0</ele><time>2026-04-16T00:01:13.002Z</time></trkpt><trkpt lat="36.89590374579641" lon="-108.10888790646266"><ele>1893.0</ele><time>2026-04-16T00:01:14.002Z</time></trkpt><trkpt lat="36.89598747523344" lon="-108.10883080037335"><ele>1893.5</ele><time>2026-04-16T00:01:15.002Z</time></trkpt><trkpt lat="36.896061192894784" lon="-108.10873670313937"><ele>1894.0</ele><time>2026-04-16T00:01:16.002Z</time></trkpt><trkpt lat="36.8961222690863" lon="-108.10866796803707"><ele>1894.5</ele><time>2026-04-16T00:01:17.002Z</time></trkpt><trkpt lat="36.896177850933476" lon="-108.10858183025219"><ele>1895.0</ele><time>2026-04-16T00:01:18.002Z</time></trkpt><trkpt lat="36.89622446012317" lon="-108.10852109970963"><ele>1895.5</ele><time>2026-04-16T00:01:19.002Z</time></trkpt><trkpt lat="36.89628554428786" lon="-108.10855291786613"><ele>1896.0</ele><time>2026-04-16T00:01:20.002Z</time></trkpt><trkpt lat="36.89638108665874" lon="-108.10855207204409"><ele>1896.0</ele><time>2026-04-16T00:01:21.002Z</time></trkpt><trkpt lat="36.89646865543372" lon="-108.10854348553492"><ele>1896.0</ele><time>2026-04-16T00:01:22.002Z</time></trkpt><trkpt lat="36.89656349771241" lon="-108.10856173483084"><ele>1896.0</ele><time>2026-04-16T00:01:23.002Z</time></trkpt><trkpt lat="36.89664079900939" lon="-108.10856099309086"><ele>1896.0</ele><time>2026-04-16T00:01:24.002Z</time></trkpt><trkpt lat="36.89671202952399" lon="-108.10849532486898"><ele>1896.0</ele><time>2026-04-16T00:01:25.002Z</time></trkpt><trkpt lat="36.89679507204124" lon="-108.10841608749007"><ele>1895.0</ele><time>2026-04-16T00:01:26.002Z</time></trkpt><trkpt lat="36.896875556990466" lon="-108.10836035933437"><ele>1894.0</ele><time>2026-04-16T00:01:27.002Z</time></trkpt><trkpt lat="36.89694098539353" lon="-108.1083154954236"><ele>1893.0</ele><time>2026-04-16T00:01:28.002Z</time></trkpt><trkpt lat="36.896998293054516" lon="-108.10825907003778"><ele>1892.0</ele><time>2026-04-16T00:01:29.002Z</time></trkpt><trkpt lat="36.89700813899116" lon="-108.10816995328459"><ele>1891.0</ele><time>2026-04-16T00:01:30.002Z</time></trkpt><trkpt lat="36.897014688829685" lon="-108.10805307505395"><ele>1890.0</ele><time>2026-04-16T00:01:31.002Z</time></trkpt><trkpt lat="36.89702155791498" lon="-108.1079641179074"><ele>1890.0</ele><time>2026-04-16T00:01:32.002Z</time></trkpt><trkpt lat="36.89701455385572" lon="-108.1078512926998"><ele>1890.0</ele><time>2026-04-16T00:01:33.002Z</time></trkpt><trkpt lat="36.89701250363459" lon="-108.10776283285578"><ele>1890.0</ele><time>2026-04-16T00:01:34.002Z</time></trkpt><trkpt lat="36.897054845929546" lon="-108.10767693513922"><ele>1890.0</ele><time>2026-04-16T00:01:35.002Z</time></trkpt><trkpt lat="36.897116787498845" lon="-108.1075784590116"><ele>1890.0</ele><time>2026-04-16T00:01:36Z</time></trkpt><trkpt lat="36.8971427977506" lon="-108.10748550366795"><ele>1890.0</ele><time>2026-04-16T00:01:37Z</time></trkpt><trkpt lat="36.89717323213618" lon="-108.10735652342338"><ele>1890.8</ele><time>2026-04-16T00:01:38Z</time></trkpt><trkpt lat="36.89722058522024" lon="-108.10725938708423"><ele>1891.6</ele><time>2026-04-16T00:01:39Z</time></trkpt><trkpt lat="36.897289300925195" lon="-108.10716687093476"><ele>1892.4</ele><time>2026-04-16T00:01:40Z</time></trkpt><trkpt lat="36.89736120502908" lon="-108.10709921596215"><ele>1893.2</ele><time>2026-04-16T00:01:41Z</time></trkpt><trkpt lat="36.89744768940582" lon="-108.1070289407359"><ele>1894.0</ele><time>2026-04-16T00:01:42Z</time></trkpt><trkpt lat="36.89751731359991" lon="-108.10699829821243"><ele>1894.0000000000002</ele><time>2026-04-16T00:01:43Z</time></trkpt><trkpt lat="36.89758111473067" lon="-108.10703813312544"><ele>1894.0</ele><time>2026-04-16T00:01:44Z</time></trkpt><trkpt lat="36.89765522179715" lon="-108.10705733196681"><ele>1894.0</ele><time>2026-04-16T00:01:45Z</time></trkpt><trkpt lat="36.897733060893316" lon="-108.10699726749125"><ele>1894.0</ele><time>2026-04-16T00:01:46Z</time></trkpt><trkpt lat="36.897826919853756" lon="-108.10692735173402"><ele>1894.0000000000002</ele><time>2026-04-16T00:01:47Z</time></trkpt><trkpt lat="36.89788926887374" lon="-108.10686466125095"><ele>1894.0</ele><time>2026-04-16T00:01:48Z</time></trkpt><trkpt lat="36.897965696348344" lon="-108.10681153390001"><ele>1894.25</ele><time>2026-04-16T00:01:49Z</time></trkpt><trkpt lat="36.89808871470309" lon="-108.10678181183867"><ele>1894.5</ele><time>2026-04-16T00:01:50Z</time></trkpt><trkpt lat="36.8982532817047" lon="-108.10677037460626"><ele>1894.75</ele><time>2026-04-16T00:01:51Z</time></trkpt><trkpt lat="36.898390843026526" lon="-108.10674791393934"><ele>1895.0</ele><time>2026-04-16T00:01:52Z</time></trkpt><trkpt lat="36.89848361894684" lon="-108.10672446089308"><ele>1895.0</ele><time>2026-04-16T00:01:53.001Z</time></trkpt><trkpt lat="36.898558605855435" lon="-108.10672229538487"><ele>1895.0</ele><time>2026-04-16T00:01:54.001Z</time></trkpt><trkpt lat="36.89867124376706" lon="-108.1067930970879"><ele>1895.0</ele><time>2026-04-16T00:01:56.001Z</time></trkpt><trkpt lat="36.898754525725074" lon="-108.1068394932353"><ele>1895.0</ele><time>2026-04-16T00:01:57.001Z</time></trkpt><trkpt lat="36.898861205940285" lon="-108.1068590649858"><ele>1895.0</ele><time>2026-04-16T00:01:59.001Z</time></trkpt><trkpt lat="36.8989822857406" lon="-108.10675931680954"><ele>1895.0</ele><time>2026-04-16T00:02:01.001Z</time></trkpt><trkpt lat="36.89905293093498" lon="-108.10661872168268"><ele>1895.0</ele><time>2026-04-16T00:02:02.001Z</time></trkpt><trkpt lat="36.89911030027715" lon="-108.1064987283798"><ele>1895.0</ele><time>2026-04-16T00:02:03.001Z</time></trkpt><trkpt lat="36.89916896281293" lon="-108.10643999030655"><ele>1895.0</ele><time>2026-04-16T00:02:04.001Z</time></trkpt><trkpt lat="36.899250559228854" lon="-108.10637714837526"><ele>1895.0</ele><time>2026-04-16T00:02:05.001Z</time></trkpt><trkpt lat="36.89931544511963" lon="-108.10628949586675"><ele>1893.6</ele><time>2026-04-16T00:02:06.001Z</time></trkpt><trkpt lat="36.89934084900751" lon="-108.10618941022155"><ele>1892.2</ele><time>2026-04-16T00:02:07.001Z</time></trkpt><trkpt lat="36.899378184375955" lon="-108.10607195689661"><ele>1890.8000000000002</ele><time>2026-04-16T00:02:08.001Z</time></trkpt><trkpt lat="36.89944700253334" lon="-108.10597749324138"><ele>1889.4</ele><time>2026-04-16T00:02:09.001Z</time></trkpt><trkpt lat="36.89952349269249" lon="-108.10586336632647"><ele>1888.0</ele><time>2026-04-16T00:02:10.001Z</time></trkpt><trkpt lat="36.89955054147899" lon="-108.10578997053118"><ele>1888.0</ele><time>2026-04-16T00:02:11.001Z</time></trkpt><trkpt lat="36.899661955261024" lon="-108.10565939864946"><ele>1888.0</ele><time>2026-04-16T00:02:13.001Z</time></trkpt><trkpt lat="36.89974183407722" lon="-108.10558428285765"><ele>1888.0</ele><time>2026-04-16T00:02:14.001Z</time></trkpt><trkpt lat="36.89989088373318" lon="-108.10538031813847"><ele>1888.0</ele><time>2026-04-16T00:02:15.001Z</time></trkpt><trkpt lat="36.899984490646375" lon="-108.10526008757745"><ele>1888.0000000000002</ele><time>2026-04-16T00:02:16.001Z</time></trkpt><trkpt lat="36.900032238623595" lon="-108.10514654117134"><ele>1888.0000000000002</ele><time>2026-04-16T00:02:17.001Z</time></trkpt><trkpt lat="36.90006056261255" lon="-108.10506275518252"><ele>1888.0</ele><time>2026-04-16T00:02:18.001Z</time></trkpt><trkpt lat="36.900134740630264" lon="-108.10499089273428"><ele>1888.0</ele><time>2026-04-16T00:02:19.001Z</time></trkpt><trkpt lat="36.90020522399184" lon="-108.1049090585515"><ele>1888.4</ele><time>2026-04-16T00:02:20.001Z</time></trkpt><trkpt lat="36.90027632610006" lon="-108.10483685321377"><ele>1888.8000000000002</ele><time>2026-04-16T00:02:21.001Z</time></trkpt><trkpt lat="36.90035281745418" lon="-108.1047680113093"><ele>1889.2</ele><time>2026-04-16T00:02:22.001Z</time></trkpt><trkpt lat="36.900448318399704" lon="-108.10471774943265"><ele>1889.6</ele><time>2026-04-16T00:02:23.001Z</time></trkpt><trkpt lat="36.900476199295596" lon="-108.10459052214803"><ele>1890.0</ele><time>2026-04-16T00:02:25.001Z</time></trkpt><trkpt lat="36.90055022078066" lon="-108.10441139990168"><ele>1890.0</ele><time>2026-04-16T00:02:27.001Z</time></trkpt><trkpt lat="36.90068762890861" lon="-108.10432924270307"><ele>1890.0</ele><time>2026-04-16T00:02:28.001Z</time></trkpt><trkpt lat="36.900801418124374" lon="-108.10429444161424"><ele>1890.0</ele><time>2026-04-16T00:02:29.001Z</time></trkpt><trkpt lat="36.90093163081757" lon="-108.10420755566896"><ele>1890.0</ele><time>2026-04-16T00:02:30.001Z</time></trkpt><trkpt lat="36.90101225217014" lon="-108.10412473574121"><ele>1890.0</ele><time>2026-04-16T00:02:31.001Z</time></trkpt><trkpt lat="36.901081049554804" lon="-108.10411924373477"><ele>1890.0</ele><time>2026-04-16T00:02:33.001Z</time></trkpt><trkpt lat="36.901135835337655" lon="-108.10416393994518"><ele>1890.0</ele><time>2026-04-16T00:02:34.001Z</time></trkpt><trkpt lat="36.901204824871066" lon="-108.10414828446142"><ele>1890.0</ele><time>2026-04-16T00:02:35.001Z</time></trkpt><trkpt lat="36.901358053280156" lon="-108.1040789963498"><ele>1890.0</ele><time>2026-04-16T00:02:37.001Z</time></trkpt><trkpt lat="36.90147401485505" lon="-108.10399926719538"><ele>1890.0</ele><time>2026-04-16T00:02:38.001Z</time></trkpt><trkpt lat="36.901554965261" lon="-108.1039241727946"><ele>1890.0</ele><time>2026-04-16T00:02:39.001Z</time></trkpt><trkpt lat="36.90162323032909" lon="-108.10388693746057"><ele>1890.0</ele><time>2026-04-16T00:02:40.001Z</time></trkpt><trkpt lat="36.90169891654836" lon="-108.10382817515838"><ele>1890.0</ele><time>2026-04-16T00:02:41.001Z</time></trkpt><trkpt lat="36.90174462855181" lon="-108.10373953019383"><ele>1890.0</ele><time>2026-04-16T00:02:42.001Z</time></trkpt><trkpt lat="36.90176440912251" lon="-108.1036409345756"><ele>1890.0</ele><time>2026-04-16T00:02:43.001Z</time></trkpt><trkpt lat="36.90175176487734" lon="-108.1035498698191"><ele>1890.0</ele><time>2026-04-16T00:02:44.001Z</time></trkpt><trkpt lat="36.90173319225111" lon="-108.10345888687343"><ele>1890.0</ele><time>2026-04-16T00:02:45.001Z</time></trkpt><trkpt lat="36.9017250714341" lon="-108.10336827494834"><ele>1890.0</ele><time>2026-04-16T00:02:46.001Z</time></trkpt><trkpt lat="36.90171763337983" lon="-108.10324999304743"><ele>1890.0</ele><time>2026-04-16T00:02:47.001Z</time></trkpt><trkpt lat="36.901801267094214" lon="-108.10311016224655"><ele>1890.0</ele><time>2026-04-16T00:02:49.001Z</time></trkpt><trkpt lat="36.90183765164095" lon="-108.10302467058132"><ele>1889.3333333333333</ele><time>2026-04-16T00:02:50.001Z</time></trkpt><trkpt lat="36.901860682167154" lon="-108.10294348749606"><ele>1888.6666666666665</ele><time>2026-04-16T00:02:51.001Z</time></trkpt><trkpt lat="36.90189401106734" lon="-108.10286479181431"><ele>1888.0</ele><time>2026-04-16T00:02:52.001Z</time></trkpt><trkpt lat="36.9019289180225" lon="-108.1027750706174"><ele>1887.3333333333333</ele><time>2026-04-16T00:02:53.001Z</time></trkpt><trkpt lat="36.9019704060295" lon="-108.10268444319499"><ele>1886.6666666666665</ele><time>2026-04-16T00:02:54.001Z</time></trkpt><trkpt lat="36.90199328619042" lon="-108.10257568854925"><ele>1886.0</ele><time>2026-04-16T00:02:55.001Z</time></trkpt><trkpt lat="36.90205106812757" lon="-108.10242830467693"><ele>1885.6666666666665</ele><time>2026-04-16T00:02:58.001Z</time></trkpt><trkpt lat="36.902080112310855" lon="-108.10232810941343"><ele>1885.3333333333333</ele><time>2026-04-16T00:02:59.001Z</time></trkpt><trkpt lat="36.902089326519985" lon="-108.10223785395449"><ele>1885.0</ele><time>2026-04-16T00:03:00.001Z</time></trkpt><trkpt lat="36.902089944960366" lon="-108.1021362901587"><ele>1884.6666666666665</ele><time>2026-04-16T00:03:01.001Z</time></trkpt><trkpt lat="36.902089599963396" lon="-108.10202602989837"><ele>1884.3333333333333</ele><time>2026-04-16T00:03:02.001Z</time></trkpt><trkpt lat="36.90211000607344" lon="-108.10191649938504"><ele>1884.0</ele><time>2026-04-16T00:03:03.001Z</time></trkpt><trkpt lat="36.90214914446786" lon="-108.10182368222834"><ele>1884.0</ele><time>2026-04-16T00:03:04.001Z</time></trkpt><trkpt lat="36.90220910718599" lon="-108.10172747550561"><ele>1884.0</ele><time>2026-04-16T00:03:05.001Z</time></trkpt><trkpt lat="36.902291859671095" lon="-108.10164261681851"><ele>1884.0</ele><time>2026-04-16T00:03:06.001Z</time></trkpt><trkpt lat="36.90237292542585" lon="-108.10158466075531"><ele>1884.0</ele><time>2026-04-16T00:03:07.001Z</time></trkpt><trkpt lat="36.90247232475708" lon="-108.10152531514034"><ele>1884.0</ele><time>2026-04-16T00:03:08.001Z</time></trkpt><trkpt lat="36.90257613934872" lon="-108.10145154252778"><ele>1885.0</ele><time>2026-04-16T00:03:09.001Z</time></trkpt><trkpt lat="36.902681807095334" lon="-108.10136946034041"><ele>1886.0</ele><time>2026-04-16T00:03:10.001Z</time></trkpt><trkpt lat="36.902789691630836" lon="-108.10129032656327"><ele>1887.0</ele><time>2026-04-16T00:03:11.001Z</time></trkpt><trkpt lat="36.902896772364485" lon="-108.10123260569901"><ele>1888.0</ele><time>2026-04-16T00:03:12.001Z</time></trkpt><trkpt lat="36.90301169135806" lon="-108.10116158828201"><ele>1888.0</ele><time>2026-04-16T00:03:13.001Z</time></trkpt><trkpt lat="36.903115243162546" lon="-108.10107456707136"><ele>1888.0</ele><time>2026-04-16T00:03:14.001Z</time></trkpt><trkpt lat="36.90328232516769" lon="-108.10093990470742"><ele>1888.0</ele><time>2026-04-16T00:03:15.001Z</time></trkpt><trkpt lat="36.903332296154" lon="-108.10086091950608"><ele>1888.0</ele><time>2026-04-16T00:03:16.001Z</time></trkpt><trkpt lat="36.90339008159242" lon="-108.10077209852915"><ele>1890.2</ele><time>2026-04-16T00:03:17.002Z</time></trkpt><trkpt lat="36.903438435103844" lon="-108.10066274047347"><ele>1892.4</ele><time>2026-04-16T00:03:18.002Z</time></trkpt><trkpt lat="36.90347906918749" lon="-108.10053382870389"><ele>1894.6000000000001</ele><time>2026-04-16T00:03:19.002Z</time></trkpt><trkpt lat="36.90350292697782" lon="-108.10044626762708"><ele>1896.8000000000002</ele><time>2026-04-16T00:03:20.002Z</time></trkpt><trkpt lat="36.903556293575534" lon="-108.10038652789318"><ele>1899.0</ele><time>2026-04-16T00:03:21.002Z</time></trkpt><trkpt lat="36.9036284180717" lon="-108.10029868182795"><ele>1899.0</ele><time>2026-04-16T00:03:22.002Z</time></trkpt><trkpt lat="36.90368465224219" lon="-108.10017498375565"><ele>1899.0</ele><time>2026-04-16T00:03:23.002Z</time></trkpt><trkpt lat="36.90375922087489" lon="-108.10007312430326"><ele>1899.0</ele><time>2026-04-16T00:03:24.002Z</time></trkpt><trkpt lat="36.90381413473557" lon="-108.09997449918126"><ele>1899.0</ele><time>2026-04-16T00:03:25.002Z</time></trkpt><trkpt lat="36.903855495891946" lon="-108.09989051920172"><ele>1899.0</ele><time>2026-04-16T00:03:26.002Z</time></trkpt><trkpt lat="36.903911947934894" lon="-108.09979160622748"><ele>1899.0</ele><time>2026-04-16T00:03:27.002Z</time></trkpt><trkpt lat="36.903985121171374" lon="-108.09967045935521"><ele>1899.0</ele><time>2026-04-16T00:03:28.002Z</time></trkpt><trkpt lat="36.90404556076781" lon="-108.0995672610027"><ele>1899.0</ele><time>2026-04-16T00:03:29.002Z</time></trkpt><trkpt lat="36.904084518337726" lon="-108.0994742204033"><ele>1899.0</ele><time>2026-04-16T00:03:30.002Z</time></trkpt><trkpt lat="36.90413367175556" lon="-108.09940189407564"><ele>1899.0</ele><time>2026-04-16T00:03:32.002Z</time></trkpt><trkpt lat="36.904188727191695" lon="-108.09930179127846"><ele>1898.2</ele><time>2026-04-16T00:03:33.002Z</time></trkpt><trkpt lat="36.90425725019309" lon="-108.09917838785002"><ele>1897.4</ele><time>2026-04-16T00:03:34.002Z</time></trkpt><trkpt lat="36.904378992744945" lon="-108.09913844454691"><ele>1896.6</ele><time>2026-04-16T00:03:36.002Z</time></trkpt><trkpt lat="36.90447383949588" lon="-108.09911240007519"><ele>1895.8</ele><time>2026-04-16T00:03:37.002Z</time></trkpt><trkpt lat="36.90453547687698" lon="-108.09912854457873"><ele>1895.0</ele><time>2026-04-16T00:03:38.002Z</time></trkpt><trkpt lat="36.9046317999381" lon="-108.099135824215"><ele>1895.0</ele><time>2026-04-16T00:03:39.002Z</time></trkpt><trkpt lat="36.9047334951804" lon="-108.09909972633953"><ele>1895.0</ele><time>2026-04-16T00:03:40.002Z</time></trkpt><trkpt lat="36.90484195074363" lon="-108.099044812627"><ele>1895.0</ele><time>2026-04-16T00:03:41.002Z</time></trkpt><trkpt lat="36.90493298816824" lon="-108.098993828509"><ele>1895.0</ele><time>2026-04-16T00:03:42Z</time></trkpt><trkpt lat="36.905008326966744" lon="-108.0989344161116"><ele>1895.0</ele><time>2026-04-16T00:03:43Z</time></trkpt><trkpt lat="36.905081710565156" lon="-108.09887039994551"><ele>1894.4</ele><time>2026-04-16T00:03:44Z</time></trkpt><trkpt lat="36.905178897791075" lon="-108.09886913423496"><ele>1893.8</ele><time>2026-04-16T00:03:45Z</time></trkpt><trkpt lat="36.90528533315754" lon="-108.09888182546348"><ele>1893.1999999999998</ele><time>2026-04-16T00:03:46Z</time></trkpt><trkpt lat="36.90537314282264" lon="-108.0988731370051"><ele>1892.6</ele><time>2026-04-16T00:03:47Z</time></trkpt><trkpt lat="36.90541690103811" lon="-108.09879598714816"><ele>1892.0</ele><time>2026-04-16T00:03:48Z</time></trkpt><trkpt lat="36.905446291716025" lon="-108.09868455951285"><ele>1892.0</ele><time>2026-04-16T00:03:49Z</time></trkpt><trkpt lat="36.90546664489722" lon="-108.09858468220787"><ele>1891.9999999999998</ele><time>2026-04-16T00:03:50Z</time></trkpt><trkpt lat="36.905537900833444" lon="-108.0985108818896"><ele>1891.9999999999998</ele><time>2026-04-16T00:03:51Z</time></trkpt><trkpt lat="36.905628629057205" lon="-108.09846594164554"><ele>1892.0</ele><time>2026-04-16T00:03:52Z</time></trkpt><trkpt lat="36.90572724629527" lon="-108.09841892824043"><ele>1892.0</ele><time>2026-04-16T00:03:53Z</time></trkpt><trkpt lat="36.90581467940402" lon="-108.09837505825881"><ele>1892.0</ele><time>2026-04-16T00:03:54Z</time></trkpt><trkpt lat="36.90589248759902" lon="-108.09832616051229"><ele>1891.9999999999998</ele><time>2026-04-16T00:03:55Z</time></trkpt><trkpt lat="36.90592981277459" lon="-108.09825639488862"><ele>1891.9999999999998</ele><time>2026-04-16T00:03:56Z</time></trkpt><trkpt lat="36.90594957472715" lon="-108.09811006995068"><ele>1892.0</ele><time>2026-04-16T00:03:58Z</time></trkpt><trkpt lat="36.905968881665345" lon="-108.09799363392938"><ele>1892.0</ele><time>2026-04-16T00:03:59Z</time></trkpt><trkpt lat="36.9060438788785" lon="-108.09793999534743"><ele>1891.9999999999998</ele><time>2026-04-16T00:04:00.001Z</time></trkpt><trkpt lat="36.9061187355347" lon="-108.09787323926741"><ele>1892.0</ele><time>2026-04-16T00:04:01.001Z</time></trkpt><trkpt lat="36.90616995018863" lon="-108.09778932163101"><ele>1892.0</ele><time>2026-04-16T00:04:02.001Z</time></trkpt><trkpt lat="36.90623169323161" lon="-108.09774180330665"><ele>1892.0</ele><time>2026-04-16T00:04:03.001Z</time></trkpt><trkpt lat="36.90631322124562" lon="-108.09771508868819"><ele>1891.9999999999998</ele><time>2026-04-16T00:04:04.001Z</time></trkpt><trkpt lat="36.906382151576274" lon="-108.09769758236638"><ele>1892.0</ele><time>2026-04-16T00:04:05.001Z</time></trkpt><trkpt lat="36.90646031159478" lon="-108.09765402317021"><ele>1892.0</ele><time>2026-04-16T00:04:06.001Z</time></trkpt><trkpt lat="36.90656266766832" lon="-108.09759387451962"><ele>1891.9999999999998</ele><time>2026-04-16T00:04:07.001Z</time></trkpt><trkpt lat="36.906671373436275" lon="-108.09751964812925"><ele>1891.9999999999998</ele><time>2026-04-16T00:04:08.001Z</time></trkpt><trkpt lat="36.90676323054135" lon="-108.09748888215387"><ele>1892.0</ele><time>2026-04-16T00:04:09.001Z</time></trkpt><trkpt lat="36.90686321047388" lon="-108.097462852388"><ele>1892.0</ele><time>2026-04-16T00:04:10.001Z</time></trkpt><trkpt lat="36.906963096941425" lon="-108.09742221438616"><ele>1893.3999999999999</ele><time>2026-04-16T00:04:11.001Z</time></trkpt><trkpt lat="36.9070629063215" lon="-108.09736143796347"><ele>1894.7999999999997</ele><time>2026-04-16T00:04:12.001Z</time></trkpt><trkpt lat="36.90715029191495" lon="-108.09729770664866"><ele>1896.2</ele><time>2026-04-16T00:04:13.001Z</time></trkpt><trkpt lat="36.90721141280429" lon="-108.09725605398673"><ele>1897.6</ele><time>2026-04-16T00:04:14.001Z</time></trkpt><trkpt lat="36.907332015115124" lon="-108.09728181706558"><ele>1899.0</ele><time>2026-04-16T00:04:16.001Z</time></trkpt><trkpt lat="36.90744472653391" lon="-108.09732137603113"><ele>1899.0</ele><time>2026-04-16T00:04:17.001Z</time></trkpt><trkpt lat="36.907561490959054" lon="-108.09732352644882"><ele>1899.0</ele><time>2026-04-16T00:04:18.001Z</time></trkpt><trkpt lat="36.90762952934188" lon="-108.09731409495896"><ele>1899.0</ele><time>2026-04-16T00:04:19.001Z</time></trkpt><trkpt lat="36.90768424760551" lon="-108.09726592870439"><ele>1899.0</ele><time>2026-04-16T00:04:20.001Z</time></trkpt><trkpt lat="36.907763081953355" lon="-108.09717507144508"><ele>1899.0</ele><time>2026-04-16T00:04:21.001Z</time></trkpt><trkpt lat="36.90787657111422" lon="-108.09708788528631"><ele>1899.75</ele><time>2026-04-16T00:04:22.001Z</time></trkpt><trkpt lat="36.908015612692964" lon="-108.09700451630638"><ele>1900.5</ele><time>2026-04-16T00:04:23.001Z</time></trkpt><trkpt lat="36.90812434848718" lon="-108.09689819633975"><ele>1901.25</ele><time>2026-04-16T00:04:24.001Z</time></trkpt><trkpt lat="36.90821570828736" lon="-108.09679715103604"><ele>1902.0</ele><time>2026-04-16T00:04:25.001Z</time></trkpt><trkpt lat="36.908301639964016" lon="-108.09672676442125"><ele>1902.0</ele><time>2026-04-16T00:04:26.001Z</time></trkpt><trkpt lat="36.908395822029256" lon="-108.09668072237054"><ele>1901.9999999999998</ele><time>2026-04-16T00:04:27.001Z</time></trkpt><trkpt lat="36.9084749594288" lon="-108.09662000881465"><ele>1901.9999999999998</ele><time>2026-04-16T00:04:28.001Z</time></trkpt><trkpt lat="36.90851699958806" lon="-108.09653219097926"><ele>1902.0</ele><time>2026-04-16T00:04:29.001Z</time></trkpt><trkpt lat="36.908576950423104" lon="-108.0964562948057"><ele>1902.0</ele><time>2026-04-16T00:04:30.001Z</time></trkpt><trkpt lat="36.90867592091726" lon="-108.09640791846955"><ele>1904.8</ele><time>2026-04-16T00:04:31.001Z</time></trkpt><trkpt lat="36.90875655413987" lon="-108.09634630155254"><ele>1907.6</ele><time>2026-04-16T00:04:32.001Z</time></trkpt><trkpt lat="36.908822482396396" lon="-108.09629498972556"><ele>1910.3999999999999</ele><time>2026-04-16T00:04:33.001Z</time></trkpt><trkpt lat="36.90893271009413" lon="-108.09624540592445"><ele>1913.1999999999998</ele><time>2026-04-16T00:04:34.001Z</time></trkpt><trkpt lat="36.90903936409153" lon="-108.09619073890723"><ele>1916.0</ele><time>2026-04-16T00:04:35.001Z</time></trkpt><trkpt lat="36.90913959212534" lon="-108.09613923067064"><ele>1916.0</ele><time>2026-04-16T00:04:36.001Z</time></trkpt><trkpt lat="36.909232047157985" lon="-108.09608927773459"><ele>1916.0</ele><time>2026-04-16T00:04:37.001Z</time></trkpt><trkpt lat="36.909320456320636" lon="-108.0960654617819"><ele>1916.0</ele><time>2026-04-16T00:04:38.001Z</time></trkpt><trkpt lat="36.90938454901236" lon="-108.0960743793975"><ele>1916.0</ele><time>2026-04-16T00:04:39.001Z</time></trkpt><trkpt lat="36.90949275527725" lon="-108.09596176845452"><ele>1916.0</ele><time>2026-04-16T00:04:41.001Z</time></trkpt><trkpt lat="36.909570117090205" lon="-108.09587963223287"><ele>1916.3333333333333</ele><time>2026-04-16T00:04:42.001Z</time></trkpt><trkpt lat="36.909646678142245" lon="-108.09578911437828"><ele>1916.6666666666665</ele><time>2026-04-16T00:04:43.001Z</time></trkpt><trkpt lat="36.90971362016514" lon="-108.09570370355668"><ele>1917.0</ele><time>2026-04-16T00:04:44.001Z</time></trkpt><trkpt lat="36.90976535147576" lon="-108.09563865487463"><ele>1917.3333333333335</ele><time>2026-04-16T00:04:45.001Z</time></trkpt><trkpt lat="36.90983654836575" lon="-108.09557799597478"><ele>1917.6666666666667</ele><time>2026-04-16T00:04:46.001Z</time></trkpt><trkpt lat="36.909910421370434" lon="-108.09552133013287"><ele>1918.0</ele><time>2026-04-16T00:04:47.001Z</time></trkpt><trkpt lat="36.91001279842129" lon="-108.09551587288102"><ele>1918.4</ele><time>2026-04-16T00:04:49.001Z</time></trkpt><trkpt lat="36.910069186001" lon="-108.0955728906289"><ele>1918.8000000000002</ele><time>2026-04-16T00:04:50.001Z</time></trkpt><trkpt lat="36.91013293647686" lon="-108.0956451714057"><ele>1919.2</ele><time>2026-04-16T00:04:51.001Z</time></trkpt><trkpt lat="36.91020069510732" lon="-108.09571612599262"><ele>1919.6</ele><time>2026-04-16T00:04:52.001Z</time></trkpt><trkpt lat="36.910288449121715" lon="-108.09579728134044"><ele>1920.0</ele><time>2026-04-16T00:04:53.001Z</time></trkpt><trkpt lat="36.910376250048" lon="-108.09588383298632"><ele>1920.1666666666667</ele><time>2026-04-16T00:04:54.001Z</time></trkpt><trkpt lat="36.91045261051886" lon="-108.09591203337818"><ele>1920.3333333333335</ele><time>2026-04-16T00:04:55.001Z</time></trkpt><trkpt lat="36.910526892412186" lon="-108.09590045193632"><ele>1920.5</ele><time>2026-04-16T00:04:56.001Z</time></trkpt><trkpt lat="36.910641514220664" lon="-108.0959494714251"><ele>1920.6666666666667</ele><time>2026-04-16T00:04:58.001Z</time></trkpt><trkpt lat="36.91070272612811" lon="-108.09597399722014"><ele>1920.8333333333335</ele><time>2026-04-16T00:04:59.001Z</time></trkpt><trkpt lat="36.91079924856746" lon="-108.09594437874475"><ele>1921.0</ele><time>2026-04-16T00:05:01.001Z</time></trkpt><trkpt lat="36.910874069233245" lon="-108.09591499802364"><ele>1920.5000000000002</ele><time>2026-04-16T00:05:03.001Z</time></trkpt><trkpt lat="36.91095060913104" lon="-108.09579819973602"><ele>1920.0</ele><time>2026-04-16T00:05:26.002Z</time></trkpt><trkpt lat="36.910977459343435" lon="-108.09570361005754"><ele>1919.5</ele><time>2026-04-16T00:05:27.002Z</time></trkpt><trkpt lat="36.91101941475701" lon="-108.09561985456571"><ele>1919.0</ele><time>2026-04-16T00:05:28.002Z</time></trkpt><trkpt lat="36.91107454575348" lon="-108.09555483763123"><ele>1918.5000000000002</ele><time>2026-04-16T00:05:29.002Z</time></trkpt><trkpt lat="36.911123579488404" lon="-108.095490074744"><ele>1918.0</ele><time>2026-04-16T00:05:30.002Z</time></trkpt><trkpt lat="36.9111549227761" lon="-108.09540417573494"><ele>1918.0</ele><time>2026-04-16T00:05:31.002Z</time></trkpt><trkpt lat="36.911199125885844" lon="-108.09532015893949"><ele>1918.0000000000002</ele><time>2026-04-16T00:05:32.002Z</time></trkpt><trkpt lat="36.91125958221047" lon="-108.0952291673676"><ele>1918.0000000000002</ele><time>2026-04-16T00:05:33.002Z</time></trkpt><trkpt lat="36.91131926968926" lon="-108.09513000094714"><ele>1918.0</ele><time>2026-04-16T00:05:34.002Z</time></trkpt><trkpt lat="36.91136986648158" lon="-108.0950362734786"><ele>1918.0</ele><time>2026-04-16T00:05:35.002Z</time></trkpt><trkpt lat="36.91142243018731" lon="-108.09493748553311"><ele>1918.4</ele><time>2026-04-16T00:05:36.002Z</time></trkpt><trkpt lat="36.91147219445032" lon="-108.09482515798177"><ele>1918.8000000000002</ele><time>2026-04-16T00:05:37.002Z</time></trkpt><trkpt lat="36.911530798529334" lon="-108.09473045095729"><ele>1919.2</ele><time>2026-04-16T00:05:38.002Z</time></trkpt><trkpt lat="36.91161526836302" lon="-108.09464416467453"><ele>1919.6</ele><time>2026-04-16T00:05:39.002Z</time></trkpt><trkpt lat="36.91168912780891" lon="-108.094581092078"><ele>1920.0</ele><time>2026-04-16T00:05:40.002Z</time></trkpt><trkpt lat="36.911764486647186" lon="-108.09452764011344"><ele>1919.0</ele><time>2026-04-16T00:05:41.002Z</time></trkpt><trkpt lat="36.911850023356294" lon="-108.09446539551183"><ele>1918.0</ele><time>2026-04-16T00:05:42.002Z</time></trkpt><trkpt lat="36.911912573192176" lon="-108.0943859167458"><ele>1917.0</ele><time>2026-04-16T00:05:43.002Z</time></trkpt><trkpt lat="36.91196666436342" lon="-108.09431412528592"><ele>1916.0</ele><time>2026-04-16T00:05:44.002Z</time></trkpt><trkpt lat="36.91204881383617" lon="-108.09427918268761"><ele>1915.0</ele><time>2026-04-16T00:05:45.002Z</time></trkpt><trkpt lat="36.91214165925587" lon="-108.09425991997891"><ele>1914.0</ele><time>2026-04-16T00:05:46.002Z</time></trkpt><trkpt lat="36.91219913340644" lon="-108.09421854600069"><ele>1914.0</ele><time>2026-04-16T00:05:47.002Z</time></trkpt><trkpt lat="36.91222330838626" lon="-108.09412780295871"><ele>1914.0</ele><time>2026-04-16T00:05:48Z</time></trkpt><trkpt lat="36.912245996696775" lon="-108.09400807076453"><ele>1914.0</ele><time>2026-04-16T00:05:49Z</time></trkpt><trkpt lat="36.91227292406742" lon="-108.09391037464822"><ele>1914.0</ele><time>2026-04-16T00:05:50Z</time></trkpt><trkpt lat="36.91230607965214" lon="-108.09381142427664"><ele>1914.0</ele><time>2026-04-16T00:05:51Z</time></trkpt><trkpt lat="36.91232888512139" lon="-108.09368784282124"><ele>1914.0</ele><time>2026-04-16T00:05:52Z</time></trkpt><trkpt lat="36.912332217397406" lon="-108.09353900880623"><ele>1914.0</ele><time>2026-04-16T00:05:53Z</time></trkpt><trkpt lat="36.91234296768639" lon="-108.09341587580685"><ele>1914.0</ele><time>2026-04-16T00:05:54Z</time></trkpt><trkpt lat="36.91233775217703" lon="-108.09329946542118"><ele>1914.0</ele><time>2026-04-16T00:05:55Z</time></trkpt><trkpt lat="36.912320426041326" lon="-108.09318576791732"><ele>1914.0</ele><time>2026-04-16T00:05:56Z</time></trkpt><trkpt lat="36.91231639324564" lon="-108.09306921736005"><ele>1914.0</ele><time>2026-04-16T00:05:57Z</time></trkpt><trkpt lat="36.912319457507735" lon="-108.09295761809827"><ele>1914.0</ele><time>2026-04-16T00:05:58Z</time></trkpt><trkpt lat="36.91231389434605" lon="-108.09283569935202"><ele>1914.0</ele><time>2026-04-16T00:05:59Z</time></trkpt><trkpt lat="36.91230265848203" lon="-108.09274816074526"><ele>1914.0</ele><time>2026-04-16T00:06:00Z</time></trkpt><trkpt lat="36.91232616232435" lon="-108.09257094884303"><ele>1914.0</ele><time>2026-04-16T00:06:02Z</time></trkpt><trkpt lat="36.91231947660718" lon="-108.092457130285"><ele>1914.0</ele><time>2026-04-16T00:06:03Z</time></trkpt><trkpt lat="36.9123279015058" lon="-108.09234752607753"><ele>1914.6</ele><time>2026-04-16T00:06:04Z</time></trkpt><trkpt lat="36.91235953994863" lon="-108.09224826557883"><ele>1915.2</ele><time>2026-04-16T00:06:05Z</time></trkpt><trkpt lat="36.91241611147405" lon="-108.09216633695432"><ele>1915.7999999999997</ele><time>2026-04-16T00:06:06Z</time></trkpt><trkpt lat="36.91246507904674" lon="-108.0920671285377"><ele>1916.3999999999999</ele><time>2026-04-16T00:06:07Z</time></trkpt><trkpt lat="36.9124861882233" lon="-108.09194627100456"><ele>1917.0</ele><time>2026-04-16T00:06:08.001Z</time></trkpt><trkpt lat="36.91249886291344" lon="-108.09180311793943"><ele>1917.0</ele><time>2026-04-16T00:06:09.001Z</time></trkpt><trkpt lat="36.91251400384805" lon="-108.0916594182735"><ele>1916.9999999999998</ele><time>2026-04-16T00:06:10.001Z</time></trkpt><trkpt lat="36.91251535812986" lon="-108.09154478900828"><ele>1916.9999999999998</ele><time>2026-04-16T00:06:11.001Z</time></trkpt><trkpt lat="36.912529773439" lon="-108.0914546801415"><ele>1917.0</ele><time>2026-04-16T00:06:12.001Z</time></trkpt><trkpt lat="36.912554125399055" lon="-108.09134789973173"><ele>1917.0</ele><time>2026-04-16T00:06:13.001Z</time></trkpt><trkpt lat="36.912591247579996" lon="-108.09123026718619"><ele>1916.8</ele><time>2026-04-16T00:06:14.001Z</time></trkpt><trkpt lat="36.91262056949097" lon="-108.09111380398093"><ele>1916.6</ele><time>2026-04-16T00:06:15.001Z</time></trkpt><trkpt lat="36.91264470163753" lon="-108.09100218705233"><ele>1916.3999999999999</ele><time>2026-04-16T00:06:16.001Z</time></trkpt><trkpt lat="36.91268065834157" lon="-108.09089065059443"><ele>1916.1999999999998</ele><time>2026-04-16T00:06:17.001Z</time></trkpt><trkpt lat="36.91272751580124" lon="-108.09078631637453"><ele>1916.0</ele><time>2026-04-16T00:06:18.001Z</time></trkpt><trkpt lat="36.91272886138227" lon="-108.09065827849248"><ele>1915.9999999999998</ele><time>2026-04-16T00:06:19.001Z</time></trkpt><trkpt lat="36.912703291932694" lon="-108.09053620792615"><ele>1916.0</ele><time>2026-04-16T00:06:20.001Z</time></trkpt><trkpt lat="36.91269793678681" lon="-108.09044859177907"><ele>1916.0</ele><time>2026-04-16T00:06:21.001Z</time></trkpt><trkpt lat="36.91271775949289" lon="-108.09037150768461"><ele>1916.0</ele><time>2026-04-16T00:06:22.001Z</time></trkpt><trkpt lat="36.91271612476038" lon="-108.09028675705727"><ele>1915.9999999999998</ele><time>2026-04-16T00:06:23.001Z</time></trkpt><trkpt lat="36.912680479665994" lon="-108.09018392613415"><ele>1916.0</ele><time>2026-04-16T00:06:25.001Z</time></trkpt><trkpt lat="36.912630651059665" lon="-108.09013472501277"><ele>1916.0</ele><time>2026-04-16T00:06:29.001Z</time></trkpt><trkpt lat="36.91258380843074" lon="-108.09007865278407"><ele>1916.0</ele><time>2026-04-16T00:06:30.001Z</time></trkpt><trkpt lat="36.91251640546353" lon="-108.09001287462782"><ele>1916.0</ele><time>2026-04-16T00:06:31.001Z</time></trkpt><trkpt lat="36.91237589105953" lon="-108.08989571539608"><ele>1916.0</ele><time>2026-04-16T00:06:33.001Z</time></trkpt><trkpt lat="36.91229444271681" lon="-108.0898550147628"><ele>1916.0</ele><time>2026-04-16T00:06:34.001Z</time></trkpt><trkpt lat="36.91221889442267" lon="-108.08977781783662"><ele>1916.5</ele><time>2026-04-16T00:06:35.001Z</time></trkpt><trkpt lat="36.912139795451004" lon="-108.0896648887144"><ele>1917.0</ele><time>2026-04-16T00:06:36.001Z</time></trkpt><trkpt lat="36.91203814639124" lon="-108.08957605052404"><ele>1917.5</ele><time>2026-04-16T00:06:37.001Z</time></trkpt><trkpt lat="36.91193696245638" lon="-108.08951295600026"><ele>1918.0</ele><time>2026-04-16T00:06:38.001Z</time></trkpt><trkpt lat="36.91182543975719" lon="-108.08947427590616"><ele>1918.0</ele><time>2026-04-16T00:06:39.001Z</time></trkpt><trkpt lat="36.91174189263073" lon="-108.08943592105994"><ele>1918.0000000000002</ele><time>2026-04-16T00:06:40.001Z</time></trkpt><trkpt lat="36.91167600666005" lon="-108.0893790345033"><ele>1918.0000000000002</ele><time>2026-04-16T00:06:41.001Z</time></trkpt><trkpt lat="36.91161946412441" lon="-108.08929334995852"><ele>1918.0</ele><time>2026-04-16T00:06:42.001Z</time></trkpt><trkpt lat="36.911551293397935" lon="-108.08920545242135"><ele>1918.0</ele><time>2026-04-16T00:06:43.001Z</time></trkpt><trkpt lat="36.91146985368866" lon="-108.08912391941024"><ele>1916.6000000000001</ele><time>2026-04-16T00:06:44.001Z</time></trkpt><trkpt lat="36.911383284047915" lon="-108.08907121120532"><ele>1915.2000000000003</ele><time>2026-04-16T00:06:45.001Z</time></trkpt><trkpt lat="36.9112925568934" lon="-108.08903652101193"><ele>1913.8</ele><time>2026-04-16T00:06:46.001Z</time></trkpt><trkpt lat="36.91120855096347" lon="-108.08899608113923"><ele>1912.4</ele><time>2026-04-16T00:06:47.001Z</time></trkpt><trkpt lat="36.911140711089466" lon="-108.08892836544584"><ele>1911.0</ele><time>2026-04-16T00:06:48.001Z</time></trkpt><trkpt lat="36.91108363125896" lon="-108.08884803749834"><ele>1911.0</ele><time>2026-04-16T00:06:49.001Z</time></trkpt><trkpt lat="36.91110020112033" lon="-108.08870089323622"><ele>1911.0</ele><time>2026-04-16T00:06:51.001Z</time></trkpt><trkpt lat="36.91111180253244" lon="-108.08855955870217"><ele>1911.0</ele><time>2026-04-16T00:06:52.001Z</time></trkpt><trkpt lat="36.91109464072095" lon="-108.08842550411636"><ele>1911.0</ele><time>2026-04-16T00:06:53.001Z</time></trkpt><trkpt lat="36.911067179859415" lon="-108.0883019542282"><ele>1911.0</ele><time>2026-04-16T00:06:54.001Z</time></trkpt><trkpt lat="36.91103208507536" lon="-108.08818246732267"><ele>1910.1666666666667</ele><time>2026-04-16T00:06:55.001Z</time></trkpt><trkpt lat="36.91100201984567" lon="-108.08807878120857"><ele>1909.3333333333335</ele><time>2026-04-16T00:06:56.001Z</time></trkpt><trkpt lat="36.91095893128289" lon="-108.08799105166368"><ele>1908.5</ele><time>2026-04-16T00:06:57.001Z</time></trkpt><trkpt lat="36.91089940850587" lon="-108.08791327597298"><ele>1907.6666666666667</ele><time>2026-04-16T00:06:58.001Z</time></trkpt><trkpt lat="36.91082670019404" lon="-108.08785743130082"><ele>1906.8333333333335</ele><time>2026-04-16T00:06:59.001Z</time></trkpt><trkpt lat="36.91074082759166" lon="-108.08780318652808"><ele>1906.0</ele><time>2026-04-16T00:07:00.001Z</time></trkpt><trkpt lat="36.910672431700455" lon="-108.08774029874634"><ele>1905.6666666666667</ele><time>2026-04-16T00:07:01.001Z</time></trkpt><trkpt lat="36.910642620982934" lon="-108.08765343700534"><ele>1905.3333333333335</ele><time>2026-04-16T00:07:02.001Z</time></trkpt><trkpt lat="36.910609700253595" lon="-108.08757736207143"><ele>1905.0</ele><time>2026-04-16T00:07:03.001Z</time></trkpt><trkpt lat="36.91054952065932" lon="-108.08747789747126"><ele>1904.6666666666665</ele><time>2026-04-16T00:07:05.001Z</time></trkpt><trkpt lat="36.91053562923901" lon="-108.08739158525525"><ele>1904.3333333333333</ele><time>2026-04-16T00:07:06.001Z</time></trkpt><trkpt lat="36.910510954006064" lon="-108.08727829963081"><ele>1904.0</ele><time>2026-04-16T00:07:07.001Z</time></trkpt><trkpt lat="36.9104746705221" lon="-108.08717374998344"><ele>1902.9999999999998</ele><time>2026-04-16T00:07:08.001Z</time></trkpt><trkpt lat="36.91043090803671" lon="-108.08707714576616"><ele>1902.0</ele><time>2026-04-16T00:07:09.001Z</time></trkpt><trkpt lat="36.91038480533684" lon="-108.08699123783659"><ele>1901.0</ele><time>2026-04-16T00:07:10.001Z</time></trkpt><trkpt lat="36.91033445161434" lon="-108.08691244619537"><ele>1900.0</ele><time>2026-04-16T00:07:11.001Z</time></trkpt><trkpt lat="36.91027199854503" lon="-108.08686402424341"><ele>1898.9999999999998</ele><time>2026-04-16T00:07:12.001Z</time></trkpt><trkpt lat="36.910175192240374" lon="-108.08683983844793"><ele>1898.0</ele><time>2026-04-16T00:07:13.001Z</time></trkpt><trkpt lat="36.91004298297164" lon="-108.08685154987792"><ele>1897.0</ele><time>2026-04-16T00:07:14.001Z</time></trkpt><trkpt lat="36.9099001936624" lon="-108.08688724162639"><ele>1896.0</ele><time>2026-04-16T00:07:15.001Z</time></trkpt><trkpt lat="36.90978000444726" lon="-108.08689773123707"><ele>1895.0</ele><time>2026-04-16T00:07:16.001Z</time></trkpt><trkpt lat="36.90966967166212" lon="-108.08688724987668"><ele>1894.0</ele><time>2026-04-16T00:07:17.001Z</time></trkpt><trkpt lat="36.90957639852882" lon="-108.08688349396296"><ele>1894.0</ele><time>2026-04-16T00:07:18.001Z</time></trkpt><trkpt lat="36.90947110776693" lon="-108.08687429258667"><ele>1894.0</ele><time>2026-04-16T00:07:19.001Z</time></trkpt><trkpt lat="36.90936847676485" lon="-108.08683917024392"><ele>1894.0</ele><time>2026-04-16T00:07:20.001Z</time></trkpt><trkpt lat="36.90928028554774" lon="-108.08676355557489"><ele>1894.0</ele><time>2026-04-16T00:07:21.001Z</time></trkpt><trkpt lat="36.90919297157771" lon="-108.08671868977444"><ele>1894.0</ele><time>2026-04-16T00:07:22.001Z</time></trkpt><trkpt lat="36.90912119766037" lon="-108.0867147194942"><ele>1892.4</ele><time>2026-04-16T00:07:23.001Z</time></trkpt><trkpt lat="36.909000886065726" lon="-108.08663132096237"><ele>1890.8000000000002</ele><time>2026-04-16T00:07:25.001Z</time></trkpt><trkpt lat="36.90892018063502" lon="-108.08660211129623"><ele>1889.1999999999998</ele><time>2026-04-16T00:07:26.001Z</time></trkpt><trkpt lat="36.90880154264099" lon="-108.0865948563368"><ele>1887.6</ele><time>2026-04-16T00:07:27.001Z</time></trkpt><trkpt lat="36.90871702140522" lon="-108.0865997440944"><ele>1886.0</ele><time>2026-04-16T00:07:28.001Z</time></trkpt><trkpt lat="36.90862710382956" lon="-108.0865227012149"><ele>1885.4</ele><time>2026-04-16T00:07:30.002Z</time></trkpt><trkpt lat="36.90850188731915" lon="-108.08654029930233"><ele>1884.8</ele><time>2026-04-16T00:07:32.002Z</time></trkpt><trkpt lat="36.90842435281885" lon="-108.08657384448375"><ele>1884.2000000000003</ele><time>2026-04-16T00:07:33.002Z</time></trkpt><trkpt lat="36.90835398823302" lon="-108.08659054818223"><ele>1883.6000000000001</ele><time>2026-04-16T00:07:34.002Z</time></trkpt><trkpt lat="36.908258217514316" lon="-108.08659738389736"><ele>1883.0</ele><time>2026-04-16T00:07:35.002Z</time></trkpt><trkpt lat="36.90814944955806" lon="-108.08662352150367"><ele>1882.8333333333333</ele><time>2026-04-16T00:07:36.002Z</time></trkpt><trkpt lat="36.90804744953175" lon="-108.08665403718679"><ele>1882.6666666666665</ele><time>2026-04-16T00:07:37.002Z</time></trkpt><trkpt lat="36.907966028640296" lon="-108.08665646079781"><ele>1882.5</ele><time>2026-04-16T00:07:38.002Z</time></trkpt><trkpt lat="36.907890276382815" lon="-108.08662171071815"><ele>1882.3333333333335</ele><time>2026-04-16T00:07:39.002Z</time></trkpt><trkpt lat="36.9078091213638" lon="-108.08657034055895"><ele>1882.1666666666667</ele><time>2026-04-16T00:07:40.002Z</time></trkpt><trkpt lat="36.90772591207244" lon="-108.08652301840718"><ele>1882.0</ele><time>2026-04-16T00:07:41.002Z</time></trkpt><trkpt lat="36.907640471098006" lon="-108.08646116682017"><ele>1881.1666666666667</ele><time>2026-04-16T00:07:42.002Z</time></trkpt><trkpt lat="36.90756628417643" lon="-108.08640899064756"><ele>1880.3333333333335</ele><time>2026-04-16T00:07:43.002Z</time></trkpt><trkpt lat="36.90749285380557" lon="-108.08635521025468"><ele>1879.5</ele><time>2026-04-16T00:07:44.002Z</time></trkpt><trkpt lat="36.90741910084598" lon="-108.08629905977143"><ele>1878.6666666666665</ele><time>2026-04-16T00:07:45.002Z</time></trkpt><trkpt lat="36.90734427921163" lon="-108.08623888753473"><ele>1877.8333333333333</ele><time>2026-04-16T00:07:46.002Z</time></trkpt><trkpt lat="36.907279038733726" lon="-108.08617746716729"><ele>1877.0</ele><time>2026-04-16T00:07:47.002Z</time></trkpt><trkpt lat="36.90721779157425" lon="-108.08611704440244"><ele>1877.0</ele><time>2026-04-16T00:07:48.002Z</time></trkpt><trkpt lat="36.9071454629325" lon="-108.08605934794262"><ele>1876.9999999999998</ele><time>2026-04-16T00:07:49.002Z</time></trkpt><trkpt lat="36.90706000253932" lon="-108.08600118850792"><ele>1876.9999999999998</ele><time>2026-04-16T00:07:50.002Z</time></trkpt><trkpt lat="36.90698082657952" lon="-108.08594266078646"><ele>1877.0</ele><time>2026-04-16T00:07:51.002Z</time></trkpt><trkpt lat="36.906895356306336" lon="-108.08586558598807"><ele>1877.0</ele><time>2026-04-16T00:07:52.002Z</time></trkpt><trkpt lat="36.906806178574456" lon="-108.08578805791203"><ele>1876.8333333333333</ele><time>2026-04-16T00:07:53.002Z</time></trkpt><trkpt lat="36.90673649096788" lon="-108.08572042810044"><ele>1876.6666666666665</ele><time>2026-04-16T00:07:54Z</time></trkpt><trkpt lat="36.90667531770111" lon="-108.08566014214195"><ele>1876.5</ele><time>2026-04-16T00:07:55Z</time></trkpt><trkpt lat="36.90661641086069" lon="-108.08560510620548"><ele>1876.3333333333335</ele><time>2026-04-16T00:07:56Z</time></trkpt><trkpt lat="36.906538694921686" lon="-108.08554428920216"><ele>1876.1666666666667</ele><time>2026-04-16T00:07:58Z</time></trkpt><trkpt lat="36.906503029658985" lon="-108.08544027589203"><ele>1876.0</ele><time>2026-04-16T00:14:43.001Z</time></trkpt><trkpt lat="36.90644333078617" lon="-108.0853638432166"><ele>1876.0</ele><time>2026-04-16T00:14:45.001Z</time></trkpt><trkpt lat="36.90634800087559" lon="-108.08534289776095"><ele>1876.0</ele><time>2026-04-16T00:14:47.001Z</time></trkpt><trkpt lat="36.906281406064856" lon="-108.08540808688507"><ele>1876.0</ele><time>2026-04-16T00:14:48.001Z</time></trkpt><trkpt lat="36.90621039050836" lon="-108.08545003219614"><ele>1876.0</ele><time>2026-04-16T00:14:49.001Z</time></trkpt><trkpt lat="36.9061217368923" lon="-108.08548188226452"><ele>1876.0</ele><time>2026-04-16T00:14:50.001Z</time></trkpt><trkpt lat="36.90601904339972" lon="-108.08553792824846"><ele>1876.0</ele><time>2026-04-16T00:14:51.001Z</time></trkpt><trkpt lat="36.90591782915253" lon="-108.08561531301095"><ele>1876.0</ele><time>2026-04-16T00:14:52.001Z</time></trkpt><trkpt lat="36.90583323670632" lon="-108.08569544615541"><ele>1876.0</ele><time>2026-04-16T00:14:53.001Z</time></trkpt><trkpt lat="36.905764729532194" lon="-108.08580633800695"><ele>1876.0</ele><time>2026-04-16T00:14:54.001Z</time></trkpt><trkpt lat="36.90568530345099" lon="-108.08594617936659"><ele>1875.5</ele><time>2026-04-16T00:14:55.001Z</time></trkpt><trkpt lat="36.90561515823155" lon="-108.08605220851516"><ele>1875.0</ele><time>2026-04-16T00:14:56.001Z</time></trkpt><trkpt lat="36.90552572106685" lon="-108.08611990503455"><ele>1874.5</ele><time>2026-04-16T00:14:57.001Z</time></trkpt><trkpt lat="36.905407379799655" lon="-108.08616359123617"><ele>1874.0</ele><time>2026-04-16T00:14:58.001Z</time></trkpt><trkpt lat="36.90526553120611" lon="-108.0862080635611"><ele>1874.0</ele><time>2026-04-16T00:14:59.001Z</time></trkpt><trkpt lat="36.90515690980294" lon="-108.08625195254172"><ele>1874.0</ele><time>2026-04-16T00:15:00.001Z</time></trkpt><trkpt lat="36.90509015921073" lon="-108.086297389411"><ele>1874.0</ele><time>2026-04-16T00:15:01.001Z</time></trkpt><trkpt lat="36.905030401769785" lon="-108.08637208959648"><ele>1874.0</ele><time>2026-04-16T00:15:02.001Z</time></trkpt><trkpt lat="36.90499262601581" lon="-108.0864795815663"><ele>1874.0</ele><time>2026-04-16T00:15:03.001Z</time></trkpt><trkpt lat="36.90494682886272" lon="-108.08661018592292"><ele>1874.0</ele><time>2026-04-16T00:15:04.001Z</time></trkpt><trkpt lat="36.904872828497865" lon="-108.08673665489866"><ele>1874.0</ele><time>2026-04-16T00:15:05.001Z</time></trkpt><trkpt lat="36.90477491006155" lon="-108.08684721637233"><ele>1874.0</ele><time>2026-04-16T00:15:06.001Z</time></trkpt><trkpt lat="36.90466162119484" lon="-108.0869617697607"><ele>1874.0</ele><time>2026-04-16T00:15:07.001Z</time></trkpt><trkpt lat="36.90455543680601" lon="-108.08711188823848"><ele>1874.0</ele><time>2026-04-16T00:15:08.001Z</time></trkpt><trkpt lat="36.904464600919646" lon="-108.08726501488503"><ele>1874.0</ele><time>2026-04-16T00:15:09.001Z</time></trkpt><trkpt lat="36.90438065102039" lon="-108.0874234344261"><ele>1874.0</ele><time>2026-04-16T00:15:10.001Z</time></trkpt><trkpt lat="36.904296605245925" lon="-108.08758662282015"><ele>1874.0</ele><time>2026-04-16T00:15:11.001Z</time></trkpt><trkpt lat="36.904210113044925" lon="-108.08774098977779"><ele>1874.0</ele><time>2026-04-16T00:15:12.001Z</time></trkpt><trkpt lat="36.90412590253352" lon="-108.08785918027479"><ele>1874.0</ele><time>2026-04-16T00:15:13.001Z</time></trkpt><trkpt lat="36.90401029945523" lon="-108.08797820170007"><ele>1874.0</ele><time>2026-04-16T00:15:14.001Z</time></trkpt><trkpt lat="36.90388602267206" lon="-108.08810680500598"><ele>1874.0</ele><time>2026-04-16T00:15:15.001Z</time></trkpt><trkpt lat="36.903789786279866" lon="-108.0882319770958"><ele>1874.0</ele><time>2026-04-16T00:15:16.001Z</time></trkpt><trkpt lat="36.90371614254132" lon="-108.08835452261722"><ele>1874.0</ele><time>2026-04-16T00:15:17.001Z</time></trkpt><trkpt lat="36.903654466049275" lon="-108.08847757685281"><ele>1874.0</ele><time>2026-04-16T00:15:18.001Z</time></trkpt><trkpt lat="36.90360200300809" lon="-108.08858143840395"><ele>1873.4</ele><time>2026-04-16T00:15:19.001Z</time></trkpt><trkpt lat="36.903543864223984" lon="-108.08865332066088"><ele>1872.8000000000002</ele><time>2026-04-16T00:15:20.001Z</time></trkpt><trkpt lat="36.90348168623258" lon="-108.08867057607404"><ele>1872.1999999999998</ele><time>2026-04-16T00:15:21.001Z</time></trkpt><trkpt lat="36.903361939361325" lon="-108.08867018277293"><ele>1871.6</ele><time>2026-04-16T00:15:43.001Z</time></trkpt><trkpt lat="36.9032394538431" lon="-108.08872875710537"><ele>1871.0</ele><time>2026-04-16T00:15:45.001Z</time></trkpt><trkpt lat="36.90318505720336" lon="-108.08879536600773"><ele>1870.8</ele><time>2026-04-16T00:15:46.001Z</time></trkpt><trkpt lat="36.90312207788994" lon="-108.08890196866099"><ele>1870.6</ele><time>2026-04-16T00:15:47.001Z</time></trkpt><trkpt lat="36.90304684975181" lon="-108.08901142074943"><ele>1870.4</ele><time>2026-04-16T00:15:48.001Z</time></trkpt><trkpt lat="36.902969088954215" lon="-108.08912399004257"><ele>1870.2</ele><time>2026-04-16T00:15:49.001Z</time></trkpt><trkpt lat="36.90291816604541" lon="-108.08920978608757"><ele>1870.0</ele><time>2026-04-16T00:15:50.001Z</time></trkpt><trkpt lat="36.90289285501963" lon="-108.08932227567593"><ele>1869.6</ele><time>2026-04-16T00:15:52.002Z</time></trkpt><trkpt lat="36.90298739963256" lon="-108.0893817930834"><ele>1869.2</ele><time>2026-04-16T00:15:54.002Z</time></trkpt><trkpt lat="36.903109819102994" lon="-108.08930548375703"><ele>1868.8000000000002</ele><time>2026-04-16T00:15:56.002Z</time></trkpt><trkpt lat="36.90316127328185" lon="-108.08924726296806"><ele>1868.4</ele><time>2026-04-16T00:15:57.002Z</time></trkpt><trkpt lat="36.90322999526218" lon="-108.08927042773274"><ele>1868.0</ele><time>2026-04-16T00:15:59.002Z</time></trkpt><trkpt lat="36.903243302832884" lon="-108.08937954339878"><ele>1868.0</ele><time>2026-04-16T00:16:01.002Z</time></trkpt><trkpt lat="36.90319985272012" lon="-108.08945936024713"><ele>1868.0000000000002</ele><time>2026-04-16T00:16:02.002Z</time></trkpt><trkpt lat="36.90313837639998" lon="-108.0895498710777"><ele>1868.0000000000002</ele><time>2026-04-16T00:16:03.002Z</time></trkpt><trkpt lat="36.903090435950126" lon="-108.08965725967734"><ele>1868.0</ele><time>2026-04-16T00:16:04.002Z</time></trkpt><trkpt lat="36.90304988575747" lon="-108.08975826387406"><ele>1868.0</ele><time>2026-04-16T00:16:05.002Z</time></trkpt><trkpt lat="36.902993073780515" lon="-108.08985379984541"><ele>1868.2</ele><time>2026-04-16T00:16:06.002Z</time></trkpt><trkpt lat="36.90292007456557" lon="-108.08992568746264"><ele>1868.4</ele><time>2026-04-16T00:16:07.002Z</time></trkpt><trkpt lat="36.9028288294589" lon="-108.08997041532503"><ele>1868.6000000000001</ele><time>2026-04-16T00:16:08.002Z</time></trkpt><trkpt lat="36.902728227015075" lon="-108.08999468604053"><ele>1868.8000000000002</ele><time>2026-04-16T00:16:09.002Z</time></trkpt><trkpt lat="36.902644630082214" lon="-108.08999049037608"><ele>1869.0</ele><time>2026-04-16T00:16:10.002Z</time></trkpt><trkpt lat="36.90256819348356" lon="-108.0899751136308"><ele>1868.6</ele><time>2026-04-16T00:16:11.002Z</time></trkpt><trkpt lat="36.90248752464677" lon="-108.0899889396675"><ele>1868.2</ele><time>2026-04-16T00:16:12.002Z</time></trkpt><trkpt lat="36.902416736610725" lon="-108.0900365293877"><ele>1867.7999999999997</ele><time>2026-04-16T00:16:13.002Z</time></trkpt><trkpt lat="36.902370240460726" lon="-108.09011756450505"><ele>1867.3999999999999</ele><time>2026-04-16T00:16:14.002Z</time></trkpt><trkpt lat="36.902328760844675" lon="-108.09023271461749"><ele>1867.0</ele><time>2026-04-16T00:16:15.002Z</time></trkpt><trkpt lat="36.90226690680821" lon="-108.09035074969239"><ele>1867.0</ele><time>2026-04-16T00:16:16.002Z</time></trkpt><trkpt lat="36.90220725689788" lon="-108.0904909730287"><ele>1867.0</ele><time>2026-04-16T00:16:17.002Z</time></trkpt><trkpt lat="36.90216072870415" lon="-108.09065110062954"><ele>1867.0</ele><time>2026-04-16T00:16:18.001Z</time></trkpt><trkpt lat="36.90212344963391" lon="-108.09080253804017"><ele>1867.0</ele><time>2026-04-16T00:16:19.001Z</time></trkpt><trkpt lat="36.902088065756125" lon="-108.09096516400932"><ele>1867.0000000000002</ele><time>2026-04-16T00:16:20.001Z</time></trkpt><trkpt lat="36.90204544798389" lon="-108.09109386028298"><ele>1867.0</ele><time>2026-04-16T00:16:21.001Z</time></trkpt><trkpt lat="36.90199155000397" lon="-108.0912010629534"><ele>1867.0</ele><time>2026-04-16T00:16:22.001Z</time></trkpt><trkpt lat="36.901945776857985" lon="-108.09126850160368"><ele>1867.0</ele><time>2026-04-16T00:16:23.001Z</time></trkpt><trkpt lat="36.901889289474774" lon="-108.09131473736721"><ele>1867.0000000000002</ele><time>2026-04-16T00:16:24.001Z</time></trkpt><trkpt lat="36.90181416251311" lon="-108.0913420925313"><ele>1867.0</ele><time>2026-04-16T00:16:25.001Z</time></trkpt><trkpt lat="36.901715402881166" lon="-108.09133248186619"><ele>1867.0000000000002</ele><time>2026-04-16T00:16:26.001Z</time></trkpt><trkpt lat="36.90161018499998" lon="-108.09131441612861"><ele>1867.0</ele><time>2026-04-16T00:16:27.001Z</time></trkpt><trkpt lat="36.90153283644704" lon="-108.09135488321128"><ele>1867.0</ele><time>2026-04-16T00:16:28.001Z</time></trkpt><trkpt lat="36.90147956611762" lon="-108.09142249000111"><ele>1867.0</ele><time>2026-04-16T00:16:29.001Z</time></trkpt><trkpt lat="36.90146038745466" lon="-108.0915504774346"><ele>1867.0000000000002</ele><time>2026-04-16T00:16:31.001Z</time></trkpt><trkpt lat="36.90150816002862" lon="-108.09161142584948"><ele>1867.0</ele><time>2026-04-16T00:16:32.001Z</time></trkpt><trkpt lat="36.90158237203427" lon="-108.09165977437877"><ele>1867.0</ele><time>2026-04-16T00:16:33.001Z</time></trkpt><trkpt lat="36.90167254973614" lon="-108.09169228879666"><ele>1866.9999999999998</ele><time>2026-04-16T00:16:34.001Z</time></trkpt><trkpt lat="36.90176906541846" lon="-108.09170480865217"><ele>1866.9999999999998</ele><time>2026-04-16T00:16:35.001Z</time></trkpt><trkpt lat="36.90184726323411" lon="-108.09170895014239"><ele>1867.0</ele><time>2026-04-16T00:16:37.001Z</time></trkpt><trkpt lat="36.901830306523344" lon="-108.09178920257484"><ele>1867.0</ele><time>2026-04-16T00:16:39.001Z</time></trkpt><trkpt lat="36.901609124091074" lon="-108.0920108965312"><ele>1867.0</ele><time>2026-04-16T00:16:41.001Z</time></trkpt><trkpt lat="36.90152683913124" lon="-108.09212059365743"><ele>1867.0</ele><time>2026-04-16T00:16:43.001Z</time></trkpt><trkpt lat="36.90143096000991" lon="-108.09216763944505"><ele>1867.0</ele><time>2026-04-16T00:16:44.001Z</time></trkpt><trkpt lat="36.9013181752478" lon="-108.09219827999048"><ele>1867.0</ele><time>2026-04-16T00:16:45.001Z</time></trkpt><trkpt lat="36.90119495546713" lon="-108.09222064665296"><ele>1867.0</ele><time>2026-04-16T00:16:46.001Z</time></trkpt><trkpt lat="36.901069919297754" lon="-108.09224230403939"><ele>1866.9999999999998</ele><time>2026-04-16T00:16:47.001Z</time></trkpt><trkpt lat="36.900976010795304" lon="-108.09223920691375"><ele>1866.9999999999998</ele><time>2026-04-16T00:16:48.001Z</time></trkpt><trkpt lat="36.90089197746124" lon="-108.09223292267897"><ele>1867.0</ele><time>2026-04-16T00:16:49.001Z</time></trkpt><trkpt lat="36.90079221115661" lon="-108.09230172214072"><ele>1867.0</ele><time>2026-04-16T00:16:51.001Z</time></trkpt><trkpt lat="36.90076875568814" lon="-108.09242977989454"><ele>1866.5000000000002</ele><time>2026-04-16T00:16:53.001Z</time></trkpt><trkpt lat="36.90081005163303" lon="-108.09251701880729"><ele>1866.0</ele><time>2026-04-16T00:16:54.001Z</time></trkpt><trkpt lat="36.90084429637751" lon="-108.09259794230661"><ele>1865.5</ele><time>2026-04-16T00:16:55.001Z</time></trkpt><trkpt lat="36.900912548250695" lon="-108.09267714966417"><ele>1865.0</ele><time>2026-04-16T00:16:56.001Z</time></trkpt><trkpt lat="36.90094276078936" lon="-108.09276664143104"><ele>1864.5000000000002</ele><time>2026-04-16T00:16:57.001Z</time></trkpt><trkpt lat="36.90095409089061" lon="-108.09285899678552"><ele>1864.0</ele><time>2026-04-16T00:16:58.001Z</time></trkpt><trkpt lat="36.900816954361524" lon="-108.09296632049944"><ele>1863.75</ele><time>2026-04-16T00:17:01.001Z</time></trkpt><trkpt lat="36.900722639318225" lon="-108.09307085324718"><ele>1863.5</ele><time>2026-04-16T00:17:02.001Z</time></trkpt><trkpt lat="36.900624816438324" lon="-108.09318333033454"><ele>1863.25</ele><time>2026-04-16T00:17:03.001Z</time></trkpt><trkpt lat="36.9004876629665" lon="-108.093319097014"><ele>1863.0</ele><time>2026-04-16T00:17:04.001Z</time></trkpt><trkpt lat="36.90040156216346" lon="-108.09341417160064"><ele>1862.8333333333333</ele><time>2026-04-16T00:17:05.001Z</time></trkpt><trkpt lat="36.900332237638615" lon="-108.09349328958082"><ele>1862.6666666666665</ele><time>2026-04-16T00:17:06.001Z</time></trkpt><trkpt lat="36.90028648210007" lon="-108.09356279965658"><ele>1862.5</ele><time>2026-04-16T00:17:07.001Z</time></trkpt><trkpt lat="36.90024865601343" lon="-108.09369088321267"><ele>1862.3333333333333</ele><time>2026-04-16T00:17:09.001Z</time></trkpt><trkpt lat="36.900305239164425" lon="-108.09377222584939"><ele>1862.1666666666665</ele><time>2026-04-16T00:17:11.001Z</time></trkpt><trkpt lat="36.90037759162584" lon="-108.09383382616306"><ele>1862.0</ele><time>2026-04-16T00:17:12.001Z</time></trkpt><trkpt lat="36.90045943820711" lon="-108.09392115878703"><ele>1862.0</ele><time>2026-04-16T00:17:13.001Z</time></trkpt><trkpt lat="36.90050695183774" lon="-108.09399433421542"><ele>1861.9999999999998</ele><time>2026-04-16T00:17:14.001Z</time></trkpt><trkpt lat="36.90051634998439" lon="-108.09411831603381"><ele>1861.9999999999998</ele><time>2026-04-16T00:17:16.001Z</time></trkpt><trkpt lat="36.900461004162985" lon="-108.0941771458995"><ele>1862.0</ele><time>2026-04-16T00:17:17.001Z</time></trkpt><trkpt lat="36.900366367834515" lon="-108.09423102017382"><ele>1862.0</ele><time>2026-04-16T00:17:18.001Z</time></trkpt><trkpt lat="36.90025942433045" lon="-108.09427324054127"><ele>1862.0</ele><time>2026-04-16T00:17:19.001Z</time></trkpt><trkpt lat="36.90014787299588" lon="-108.0943132774199"><ele>1862.0</ele><time>2026-04-16T00:17:20.001Z</time></trkpt><trkpt lat="36.900024658342375" lon="-108.09433664984462"><ele>1862.0</ele><time>2026-04-16T00:17:21.001Z</time></trkpt><trkpt lat="36.899925368343744" lon="-108.09435163039002"><ele>1862.0</ele><time>2026-04-16T00:17:22.001Z</time></trkpt><trkpt lat="36.899822447492255" lon="-108.09439996514007"><ele>1862.0</ele><time>2026-04-16T00:17:24.001Z</time></trkpt><trkpt lat="36.89979214477434" lon="-108.09451836992514"><ele>1862.0</ele><time>2026-04-16T00:17:26.001Z</time></trkpt><trkpt lat="36.899779244052546" lon="-108.09464752897763"><ele>1862.0</ele><time>2026-04-16T00:17:28.001Z</time></trkpt><trkpt lat="36.89962473122637" lon="-108.09475375473671"><ele>1862.0</ele><time>2026-04-16T00:17:30.001Z</time></trkpt><trkpt lat="36.899557511168275" lon="-108.09481713609551"><ele>1861.9999999999998</ele><time>2026-04-16T00:17:31.001Z</time></trkpt><trkpt lat="36.899484157748105" lon="-108.0948940511775"><ele>1862.0</ele><time>2026-04-16T00:17:32.001Z</time></trkpt><trkpt lat="36.89943486733047" lon="-108.09497004151879"><ele>1862.0</ele><time>2026-04-16T00:17:33.001Z</time></trkpt><trkpt lat="36.89941335116269" lon="-108.09505729176529"><ele>1862.0</ele><time>2026-04-16T00:17:34.001Z</time></trkpt><trkpt lat="36.89941102184588" lon="-108.09515763331095"><ele>1861.9999999999998</ele><time>2026-04-16T00:17:35.001Z</time></trkpt><trkpt lat="36.8994224761829" lon="-108.09524665924013"><ele>1862.0</ele><time>2026-04-16T00:17:36.001Z</time></trkpt><trkpt lat="36.89944173282206" lon="-108.09534966440276"><ele>1861.9999999999998</ele><time>2026-04-16T00:17:37.001Z</time></trkpt><trkpt lat="36.89943649974595" lon="-108.09543988916424"><ele>1862.0</ele><time>2026-04-16T00:17:38.001Z</time></trkpt><trkpt lat="36.899411296494414" lon="-108.09552898084232"><ele>1862.0</ele><time>2026-04-16T00:17:39.001Z</time></trkpt><trkpt lat="36.89936350326582" lon="-108.09563529546675"><ele>1862.0</ele><time>2026-04-16T00:17:40.001Z</time></trkpt><trkpt lat="36.899301510964904" lon="-108.09572141331638"><ele>1861.9999999999998</ele><time>2026-04-16T00:17:41.001Z</time></trkpt><trkpt lat="36.899242078400746" lon="-108.09578049583962"><ele>1862.0</ele><time>2026-04-16T00:17:42.001Z</time></trkpt><trkpt lat="36.899139861490546" lon="-108.09580139056477"><ele>1861.75</ele><time>2026-04-16T00:17:44.001Z</time></trkpt><trkpt lat="36.89905351334944" lon="-108.0957004093021"><ele>1861.5</ele><time>2026-04-16T00:17:46.001Z</time></trkpt><trkpt lat="36.89903089137692" lon="-108.09559547703218"><ele>1861.25</ele><time>2026-04-16T00:17:47.001Z</time></trkpt><trkpt lat="36.89895621687481" lon="-108.09545563453477"><ele>1861.0</ele><time>2026-04-16T00:17:48.001Z</time></trkpt><trkpt lat="36.89893534287934" lon="-108.09529764696121"><ele>1861.0</ele><time>2026-04-16T00:17:49.001Z</time></trkpt><trkpt lat="36.89888588471414" lon="-108.09536045038618"><ele>1861.0</ele><time>2026-04-16T00:17:52.001Z</time></trkpt><trkpt lat="36.89886692455365" lon="-108.09544669833508"><ele>1861.0</ele><time>2026-04-16T00:17:54.001Z</time></trkpt><trkpt lat="36.898904957335965" lon="-108.09553490870543"><ele>1861.0</ele><time>2026-04-16T00:17:57.001Z</time></trkpt><trkpt lat="36.89888117556587" lon="-108.09573201062166"><ele>1861.0</ele><time>2026-04-16T00:17:59.001Z</time></trkpt><trkpt lat="36.898887223992226" lon="-108.09585440761384"><ele>1861.1999999999998</ele><time>2026-04-16T00:18:01.001Z</time></trkpt><trkpt lat="36.89884768293754" lon="-108.09593459083462"><ele>1861.3999999999999</ele><time>2026-04-16T00:18:02.001Z</time></trkpt><trkpt lat="36.898814509578884" lon="-108.09601059541157"><ele>1861.6</ele><time>2026-04-16T00:18:03.002Z</time></trkpt><trkpt lat="36.89873059715203" lon="-108.09604453663245"><ele>1861.8</ele><time>2026-04-16T00:18:05.002Z</time></trkpt><trkpt lat="36.89859283398332" lon="-108.0960299156142"><ele>1862.0</ele><time>2026-04-16T00:18:07.002Z</time></trkpt><trkpt lat="36.898490440071505" lon="-108.09602018480001"><ele>1861.6</ele><time>2026-04-16T00:18:08.002Z</time></trkpt><trkpt lat="36.89839409167008" lon="-108.0960319089929"><ele>1861.1999999999998</ele><time>2026-04-16T00:18:09.002Z</time></trkpt><trkpt lat="36.89831433666424" lon="-108.09607348846207"><ele>1860.8</ele><time>2026-04-16T00:18:10.002Z</time></trkpt><trkpt lat="36.89823161037867" lon="-108.096141055279"><ele>1860.4</ele><time>2026-04-16T00:18:11.002Z</time></trkpt><trkpt lat="36.898140625237744" lon="-108.0962235512928"><ele>1860.0</ele><time>2026-04-16T00:18:12.002Z</time></trkpt><trkpt lat="36.89808153462357" lon="-108.09635385509658"><ele>1860.0</ele><time>2026-04-16T00:18:13.002Z</time></trkpt><trkpt lat="36.89801375313595" lon="-108.09650408608086"><ele>1860.0</ele><time>2026-04-16T00:18:14.002Z</time></trkpt><trkpt lat="36.89791754598672" lon="-108.09663764773467"><ele>1860.0</ele><time>2026-04-16T00:18:15.002Z</time></trkpt><trkpt lat="36.89781161847559" lon="-108.09676140351222"><ele>1860.0</ele><time>2026-04-16T00:18:16.002Z</time></trkpt><trkpt lat="36.8976784654394" lon="-108.09686731293976"><ele>1859.75</ele><time>2026-04-16T00:18:17.002Z</time></trkpt><trkpt lat="36.89755152223673" lon="-108.09695268751348"><ele>1859.5</ele><time>2026-04-16T00:18:18.002Z</time></trkpt><trkpt lat="36.89739503857778" lon="-108.09700828983821"><ele>1859.25</ele><time>2026-04-16T00:18:19.002Z</time></trkpt><trkpt lat="36.89727807905747" lon="-108.09703382551778"><ele>1859.0</ele><time>2026-04-16T00:18:20.002Z</time></trkpt><trkpt lat="36.897149974165636" lon="-108.09702786169142"><ele>1859.0</ele><time>2026-04-16T00:18:21.002Z</time></trkpt><trkpt lat="36.897001902477285" lon="-108.09703807562643"><ele>1859.0</ele><time>2026-04-16T00:18:22.002Z</time></trkpt><trkpt lat="36.896858555499286" lon="-108.09706851848624"><ele>1859.0</ele><time>2026-04-16T00:18:23.002Z</time></trkpt><trkpt lat="36.89674405110562" lon="-108.0971110183966"><ele>1859.0</ele><time>2026-04-16T00:18:24.001Z</time></trkpt><trkpt lat="36.89663062353264" lon="-108.09717242694416"><ele>1859.0</ele><time>2026-04-16T00:18:25Z</time></trkpt><trkpt lat="36.89651893275143" lon="-108.09725683885384"><ele>1859.0</ele><time>2026-04-16T00:18:26.001Z</time></trkpt><trkpt lat="36.89639123313849" lon="-108.09735624145004"><ele>1859.0</ele><time>2026-04-16T00:18:27.001Z</time></trkpt><trkpt lat="36.89628483165249" lon="-108.09745055664733"><ele>1859.0</ele><time>2026-04-16T00:18:28Z</time></trkpt><trkpt lat="36.896211718541636" lon="-108.0975340789194"><ele>1858.3333333333333</ele><time>2026-04-16T00:18:29.001Z</time></trkpt><trkpt lat="36.896153212775616" lon="-108.097599980609"><ele>1857.6666666666665</ele><time>2026-04-16T00:18:30.001Z</time></trkpt><trkpt lat="36.89611947776574" lon="-108.09767236336864"><ele>1857.0</ele><time>2026-04-16T00:18:31Z</time></trkpt><trkpt lat="36.896106262168466" lon="-108.0977566363953"><ele>1856.3333333333335</ele><time>2026-04-16T00:18:32.001Z</time></trkpt><trkpt lat="36.89608584340564" lon="-108.09786336555636"><ele>1855.6666666666667</ele><time>2026-04-16T00:18:33Z</time></trkpt><trkpt lat="36.89605191722611" lon="-108.09799207753927"><ele>1855.0</ele><time>2026-04-16T00:18:34Z</time></trkpt><trkpt lat="36.89605024503881" lon="-108.09816725522114"><ele>1855.3333333333335</ele><time>2026-04-16T00:18:35Z</time></trkpt><trkpt lat="36.89606499669785" lon="-108.09836332627087"><ele>1855.6666666666665</ele><time>2026-04-16T00:18:36Z</time></trkpt><trkpt lat="36.89608660709067" lon="-108.09857857206644"><ele>1856.0</ele><time>2026-04-16T00:18:37Z</time></trkpt><trkpt lat="36.89609403236937" lon="-108.09873159408032"><ele>1856.0</ele><time>2026-04-16T00:18:38Z</time></trkpt><trkpt lat="36.89609289729946" lon="-108.09886318530495"><ele>1856.0</ele><time>2026-04-16T00:18:39Z</time></trkpt><trkpt lat="36.896072183809665" lon="-108.09901094139634"><ele>1856.0</ele><time>2026-04-16T00:18:40.001Z</time></trkpt><trkpt lat="36.896033954738364" lon="-108.09916910472353"><ele>1856.0</ele><time>2026-04-16T00:18:41.001Z</time></trkpt><trkpt lat="36.89598782595548" lon="-108.09929410640297"><ele>1855.75</ele><time>2026-04-16T00:18:42.001Z</time></trkpt><trkpt lat="36.89591698195098" lon="-108.09939800302114"><ele>1855.5</ele><time>2026-04-16T00:18:43.001Z</time></trkpt><trkpt lat="36.89581298223516" lon="-108.09950090931385"><ele>1855.25</ele><time>2026-04-16T00:18:44.001Z</time></trkpt><trkpt lat="36.89571476996838" lon="-108.09958524722074"><ele>1855.0</ele><time>2026-04-16T00:18:45.001Z</time></trkpt><trkpt lat="36.89561133067975" lon="-108.09962500492657"><ele>1855.0</ele><time>2026-04-16T00:18:46.001Z</time></trkpt><trkpt lat="36.89549851391123" lon="-108.09964932263624"><ele>1855.0</ele><time>2026-04-16T00:18:47.001Z</time></trkpt><trkpt lat="36.89538030591171" lon="-108.09965990527756"><ele>1855.0</ele><time>2026-04-16T00:18:48.001Z</time></trkpt><trkpt lat="36.89526699251448" lon="-108.09967148209557"><ele>1855.0</ele><time>2026-04-16T00:18:49.001Z</time></trkpt><trkpt lat="36.89517603061624" lon="-108.09970948245099"><ele>1855.0</ele><time>2026-04-16T00:18:50.001Z</time></trkpt><trkpt lat="36.89509682871012" lon="-108.0998001224874"><ele>1854.5</ele><time>2026-04-16T00:18:51.001Z</time></trkpt><trkpt lat="36.89502530962729" lon="-108.09992453817966"><ele>1854.0</ele><time>2026-04-16T00:18:52.001Z</time></trkpt><trkpt lat="36.894937847889906" lon="-108.1000572802746"><ele>1853.5</ele><time>2026-04-16T00:18:53.001Z</time></trkpt><trkpt lat="36.89484918808594" lon="-108.10015364598763"><ele>1853.0</ele><time>2026-04-16T00:18:54.001Z</time></trkpt><trkpt lat="36.89476045768712" lon="-108.10022928169144"><ele>1852.9999999999998</ele><time>2026-04-16T00:18:55.001Z</time></trkpt><trkpt lat="36.89467665662396" lon="-108.10026065508615"><ele>1853.0</ele><time>2026-04-16T00:18:56.001Z</time></trkpt><trkpt lat="36.89458442540726" lon="-108.10024798181627"><ele>1853.0</ele><time>2026-04-16T00:18:57.001Z</time></trkpt><trkpt lat="36.894494759880374" lon="-108.10021331243713"><ele>1853.0</ele><time>2026-04-16T00:18:58.001Z</time></trkpt><trkpt lat="36.894431080095714" lon="-108.10021799272798"><ele>1852.9999999999998</ele><time>2026-04-16T00:18:59.001Z</time></trkpt><trkpt lat="36.894361704655395" lon="-108.10024315325256"><ele>1853.0</ele><time>2026-04-16T00:19:00.001Z</time></trkpt><trkpt lat="36.89430414552126" lon="-108.10031549945438"><ele>1853.0</ele><time>2026-04-16T00:19:01.001Z</time></trkpt><trkpt lat="36.89430020940714" lon="-108.10050656739192"><ele>1853.0000000000002</ele><time>2026-04-16T00:19:03.001Z</time></trkpt><trkpt lat="36.89428884545192" lon="-108.10060240689253"><ele>1853.0000000000002</ele><time>2026-04-16T00:19:04.001Z</time></trkpt><trkpt lat="36.89420805179429" lon="-108.1006634932136"><ele>1853.0</ele><time>2026-04-16T00:19:06.001Z</time></trkpt><trkpt lat="36.89410946249975" lon="-108.1006068368965"><ele>1853.0</ele><time>2026-04-16T00:19:08.001Z</time></trkpt><trkpt lat="36.89404679359439" lon="-108.10051637534825"><ele>1853.0</ele><time>2026-04-16T00:19:09.001Z</time></trkpt><trkpt lat="36.89396688528457" lon="-108.10043531619608"><ele>1853.0000000000002</ele><time>2026-04-16T00:19:10.001Z</time></trkpt><trkpt lat="36.893878046568666" lon="-108.10036660541392"><ele>1853.0000000000002</ele><time>2026-04-16T00:19:11.001Z</time></trkpt><trkpt lat="36.893780739131756" lon="-108.10030522599156"><ele>1853.0</ele><time>2026-04-16T00:19:12.001Z</time></trkpt><trkpt lat="36.89369325870422" lon="-108.10028685433734"><ele>1853.0</ele><time>2026-04-16T00:19:13.001Z</time></trkpt><trkpt lat="36.893620028552384" lon="-108.10029899565303"><ele>1853.0</ele><time>2026-04-16T00:19:14.001Z</time></trkpt><trkpt lat="36.89362352415981" lon="-108.10039920563908"><ele>1853.0000000000002</ele><time>2026-04-16T00:19:17.001Z</time></trkpt><trkpt lat="36.893631706323944" lon="-108.10049862103719"><ele>1853.0000000000002</ele><time>2026-04-16T00:19:19.001Z</time></trkpt><trkpt lat="36.893544269355964" lon="-108.10064326606614"><ele>1853.0</ele><time>2026-04-16T00:19:20.001Z</time></trkpt><trkpt lat="36.89352693934805" lon="-108.10072729490133"><ele>1853.0</ele><time>2026-04-16T00:19:21.001Z</time></trkpt><trkpt lat="36.89352406697576" lon="-108.10082788570693"><ele>1853.0</ele><time>2026-04-16T00:19:22.001Z</time></trkpt><trkpt lat="36.8934320881507" lon="-108.10091407215401"><ele>1853.0</ele><time>2026-04-16T00:19:23.001Z</time></trkpt><trkpt lat="36.89335056212911" lon="-108.10101135603892"><ele>1853.0</ele><time>2026-04-16T00:19:24.001Z</time></trkpt><trkpt lat="36.89324632928171" lon="-108.1011159872413"><ele>1853.0</ele><time>2026-04-16T00:19:25.001Z</time></trkpt><trkpt lat="36.89312646984132" lon="-108.10120659919882"><ele>1853.0</ele><time>2026-04-16T00:19:26.001Z</time></trkpt><trkpt lat="36.89298812864974" lon="-108.10129938252325"><ele>1853.0</ele><time>2026-04-16T00:19:27.001Z</time></trkpt><trkpt lat="36.8928397294083" lon="-108.10139185668244"><ele>1853.0</ele><time>2026-04-16T00:19:28.001Z</time></trkpt><trkpt lat="36.892696713275186" lon="-108.10146137778034"><ele>1852.3333333333333</ele><time>2026-04-16T00:19:29.001Z</time></trkpt><trkpt lat="36.89254833136946" lon="-108.10153886281937"><ele>1851.6666666666665</ele><time>2026-04-16T00:19:30.001Z</time></trkpt><trkpt lat="36.892394727003065" lon="-108.10160954830559"><ele>1851.0</ele><time>2026-04-16T00:19:31.001Z</time></trkpt><trkpt lat="36.892249347120035" lon="-108.10166958773624"><ele>1851.0</ele><time>2026-04-16T00:19:32.001Z</time></trkpt><trkpt lat="36.89211613329449" lon="-108.10171542521323"><ele>1851.0</ele><time>2026-04-16T00:19:33.001Z</time></trkpt><trkpt lat="36.8919832965764" lon="-108.10172620671906"><ele>1851.0</ele><time>2026-04-16T00:19:34.001Z</time></trkpt><trkpt lat="36.891858240391045" lon="-108.10174156292175"><ele>1851.0</ele><time>2026-04-16T00:19:35.001Z</time></trkpt><trkpt lat="36.8917238753295" lon="-108.10172117491067"><ele>1850.5</ele><time>2026-04-16T00:19:36.001Z</time></trkpt><trkpt lat="36.89158416678278" lon="-108.10171038235194"><ele>1850.0</ele><time>2026-04-16T00:19:37.001Z</time></trkpt><trkpt lat="36.89144326794494" lon="-108.10170052259392"><ele>1849.5</ele><time>2026-04-16T00:19:38.001Z</time></trkpt><trkpt lat="36.89132047317163" lon="-108.10170091230098"><ele>1849.0</ele><time>2026-04-16T00:19:39.001Z</time></trkpt><trkpt lat="36.8912428034169" lon="-108.10173620041819"><ele>1849.0</ele><time>2026-04-16T00:19:40.001Z</time></trkpt><trkpt lat="36.89116205861053" lon="-108.10179605972294"><ele>1849.0</ele><time>2026-04-16T00:19:41.001Z</time></trkpt><trkpt lat="36.89107695162528" lon="-108.10186374438702"><ele>1849.0</ele><time>2026-04-16T00:19:42.001Z</time></trkpt><trkpt lat="36.89101164598614" lon="-108.1019307037485"><ele>1849.0</ele><time>2026-04-16T00:19:43.001Z</time></trkpt><trkpt lat="36.89089108704418" lon="-108.10195625781155"><ele>1849.0</ele><time>2026-04-16T00:19:45.001Z</time></trkpt><trkpt lat="36.890790824551225" lon="-108.10189779826455"><ele>1849.0</ele><time>2026-04-16T00:19:46.001Z</time></trkpt><trkpt lat="36.89066710603989" lon="-108.10183245908435"><ele>1849.0</ele><time>2026-04-16T00:19:47.001Z</time></trkpt><trkpt lat="36.890534433140814" lon="-108.10181436002532"><ele>1849.0</ele><time>2026-04-16T00:19:48.001Z</time></trkpt><trkpt lat="36.890399412504095" lon="-108.10181729027633"><ele>1849.0</ele><time>2026-04-16T00:19:49.001Z</time></trkpt><trkpt lat="36.89027581141172" lon="-108.10180290638313"><ele>1849.0000000000002</ele><time>2026-04-16T00:19:50.001Z</time></trkpt><trkpt lat="36.89019080744312" lon="-108.10180654174084"><ele>1849.0</ele><time>2026-04-16T00:19:51.001Z</time></trkpt><trkpt lat="36.89012282295231" lon="-108.10183147949829"><ele>1849.0</ele><time>2026-04-16T00:19:52.001Z</time></trkpt><trkpt lat="36.890041665738394" lon="-108.10193275986585"><ele>1849.0</ele><time>2026-04-16T00:19:54.001Z</time></trkpt><trkpt lat="36.89004118545675" lon="-108.10202221011718"><ele>1849.0000000000002</ele><time>2026-04-16T00:19:55.001Z</time></trkpt><trkpt lat="36.890034769287986" lon="-108.10214123465894"><ele>1849.0</ele><time>2026-04-16T00:19:56.001Z</time></trkpt><trkpt lat="36.890001506666295" lon="-108.10224290738638"><ele>1849.0</ele><time>2026-04-16T00:19:57.001Z</time></trkpt><trkpt lat="36.88989275504686" lon="-108.10227725781057"><ele>1849.0</ele><time>2026-04-16T00:19:59.001Z</time></trkpt><trkpt lat="36.88980126690569" lon="-108.10228104172445"><ele>1849.0</ele><time>2026-04-16T00:20:00.001Z</time></trkpt><trkpt lat="36.889688299652214" lon="-108.10229454412155"><ele>1849.0</ele><time>2026-04-16T00:20:01.001Z</time></trkpt><trkpt lat="36.88957989680405" lon="-108.10232076296637"><ele>1849.0</ele><time>2026-04-16T00:20:02.001Z</time></trkpt><trkpt lat="36.88945561116348" lon="-108.10238830003115"><ele>1848.75</ele><time>2026-04-16T00:20:03.001Z</time></trkpt><trkpt lat="36.88933021930564" lon="-108.10249129988559"><ele>1848.5</ele><time>2026-04-16T00:20:04.001Z</time></trkpt><trkpt lat="36.88920189812184" lon="-108.10260658648058"><ele>1848.25</ele><time>2026-04-16T00:20:05.001Z</time></trkpt><trkpt lat="36.88909963345491" lon="-108.10268484931504"><ele>1848.0</ele><time>2026-04-16T00:20:06.001Z</time></trkpt><trkpt lat="36.889010627576845" lon="-108.10273741186222"><ele>1848.0</ele><time>2026-04-16T00:20:07.001Z</time></trkpt><trkpt lat="36.88891242706446" lon="-108.10278177506294"><ele>1848.0</ele><time>2026-04-16T00:20:08.001Z</time></trkpt><trkpt lat="36.888793028106726" lon="-108.10281013494854"><ele>1848.0</ele><time>2026-04-16T00:20:09.001Z</time></trkpt><trkpt lat="36.88865060033611" lon="-108.10282163165478"><ele>1848.0</ele><time>2026-04-16T00:20:10.001Z</time></trkpt><trkpt lat="36.88851044763018" lon="-108.1028046660814"><ele>1847.8000000000002</ele><time>2026-04-16T00:20:11.001Z</time></trkpt><trkpt lat="36.8883954467831" lon="-108.10279491618084"><ele>1847.6000000000001</ele><time>2026-04-16T00:20:12.001Z</time></trkpt><trkpt lat="36.88830790601054" lon="-108.10281161682009"><ele>1847.3999999999999</ele><time>2026-04-16T00:20:13.001Z</time></trkpt><trkpt lat="36.88822341355407" lon="-108.10283747830618"><ele>1847.1999999999998</ele><time>2026-04-16T00:20:14.002Z</time></trkpt><trkpt lat="36.88813692453936" lon="-108.10288383137008"><ele>1847.0</ele><time>2026-04-16T00:20:15.002Z</time></trkpt><trkpt lat="36.888057614851625" lon="-108.1029614985027"><ele>1847.0</ele><time>2026-04-16T00:20:16.002Z</time></trkpt><trkpt lat="36.88797437562653" lon="-108.10304508156327"><ele>1846.9999999999998</ele><time>2026-04-16T00:20:17.002Z</time></trkpt><trkpt lat="36.88789449500318" lon="-108.10311699448201"><ele>1846.9999999999998</ele><time>2026-04-16T00:20:18.002Z</time></trkpt><trkpt lat="36.88783274957183" lon="-108.10314931297007"><ele>1847.0</ele><time>2026-04-16T00:20:19.002Z</time></trkpt><trkpt lat="36.88770931962205" lon="-108.10313707051121"><ele>1847.0</ele><time>2026-04-16T00:20:21.002Z</time></trkpt><trkpt lat="36.8876464904586" lon="-108.10308785406102"><ele>1847.5</ele><time>2026-04-16T00:20:22.002Z</time></trkpt><trkpt lat="36.88758211471096" lon="-108.10303388333747"><ele>1848.0</ele><time>2026-04-16T00:20:23.002Z</time></trkpt><trkpt lat="36.88746822004142" lon="-108.10312372592831"><ele>1848.5</ele><time>2026-04-16T00:20:25.002Z</time></trkpt><trkpt lat="36.88738237431377" lon="-108.1032063055783"><ele>1849.0</ele><time>2026-04-16T00:20:26.002Z</time></trkpt><trkpt lat="36.88728851254701" lon="-108.1033202823721"><ele>1848.2</ele><time>2026-04-16T00:20:27.002Z</time></trkpt><trkpt lat="36.88720658716476" lon="-108.1034122853489"><ele>1847.4</ele><time>2026-04-16T00:20:28.002Z</time></trkpt><trkpt lat="36.887139137806614" lon="-108.10344312176078"><ele>1846.6</ele><time>2026-04-16T00:20:29.002Z</time></trkpt><trkpt lat="36.887029996986726" lon="-108.10346647068332"><ele>1845.8</ele><time>2026-04-16T00:20:30Z</time></trkpt><trkpt lat="36.88690227248846" lon="-108.10350646731793"><ele>1845.0</ele><time>2026-04-16T00:20:31Z</time></trkpt><trkpt lat="36.88677295778023" lon="-108.1035599999308"><ele>1845.2</ele><time>2026-04-16T00:20:32Z</time></trkpt><trkpt lat="36.88663927641658" lon="-108.10363636592871"><ele>1845.4</ele><time>2026-04-16T00:20:33Z</time></trkpt><trkpt lat="36.88655009011321" lon="-108.10370017854878"><ele>1845.6</ele><time>2026-04-16T00:20:34Z</time></trkpt><trkpt lat="36.886492126012655" lon="-108.10375817226779"><ele>1845.8</ele><time>2026-04-16T00:20:35Z</time></trkpt><trkpt lat="36.88641999460182" lon="-108.10385026829206"><ele>1846.0</ele><time>2026-04-16T00:20:37Z</time></trkpt><trkpt lat="36.88648959540312" lon="-108.10396594258661"><ele>1846.0</ele><time>2026-04-16T00:20:39Z</time></trkpt><trkpt lat="36.88656785615631" lon="-108.10402040601817"><ele>1846.0</ele><time>2026-04-16T00:20:40Z</time></trkpt><trkpt lat="36.886633583778504" lon="-108.10409506237318"><ele>1846.0</ele><time>2026-04-16T00:20:41Z</time></trkpt><trkpt lat="36.88665746104512" lon="-108.10420542862246"><ele>1846.0</ele><time>2026-04-16T00:20:43Z</time></trkpt><trkpt lat="36.886542405070344" lon="-108.10429177003877"><ele>1846.0</ele><time>2026-04-16T00:20:45Z</time></trkpt><trkpt lat="36.88644642476436" lon="-108.10431993920511"><ele>1845.5000000000002</ele><time>2026-04-16T00:20:46Z</time></trkpt><trkpt lat="36.88635115447229" lon="-108.10435307932052"><ele>1845.0</ele><time>2026-04-16T00:20:47Z</time></trkpt><trkpt lat="36.88627857861591" lon="-108.10437182406999"><ele>1844.5</ele><time>2026-04-16T00:20:48Z</time></trkpt><trkpt lat="36.88620150804771" lon="-108.10439128499046"><ele>1844.0</ele><time>2026-04-16T00:20:50Z</time></trkpt><trkpt lat="36.88614096700558" lon="-108.1043580916164"><ele>1843.5000000000002</ele><time>2026-04-16T00:25:17.001Z</time></trkpt><trkpt lat="36.88612611880102" lon="-108.10423964276114"><ele>1843.0</ele><time>2026-04-16T00:25:19.001Z</time></trkpt><trkpt lat="36.88615225261527" lon="-108.10414744535079"><ele>1843.6000000000001</ele><time>2026-04-16T00:25:22.001Z</time></trkpt><trkpt lat="36.886261317205836" lon="-108.1040629293981"><ele>1844.2000000000003</ele><time>2026-04-16T00:25:26.001Z</time></trkpt><trkpt lat="36.88627674618247" lon="-108.10396580944143"><ele>1844.8</ele><time>2026-04-16T00:25:27.001Z</time></trkpt><trkpt lat="36.88626823993594" lon="-108.10384503254875"><ele>1845.4</ele><time>2026-04-16T00:25:28.001Z</time></trkpt><trkpt lat="36.88622697153221" lon="-108.10370177314759"><ele>1846.0</ele><time>2026-04-16T00:25:29.001Z</time></trkpt><trkpt lat="36.88615477782332" lon="-108.10354473490241"><ele>1846.0</ele><time>2026-04-16T00:25:30.001Z</time></trkpt><trkpt lat="36.88607819255257" lon="-108.10338400409009"><ele>1846.0</ele><time>2026-04-16T00:25:31.001Z</time></trkpt><trkpt lat="36.88601925859645" lon="-108.1032245760641"><ele>1846.0</ele><time>2026-04-16T00:25:32.001Z</time></trkpt><trkpt lat="36.88597018318817" lon="-108.10305242155219"><ele>1846.0</ele><time>2026-04-16T00:25:33.001Z</time></trkpt><trkpt lat="36.885925223427634" lon="-108.10286174746734"><ele>1847.6666666666667</ele><time>2026-04-16T00:25:34.001Z</time></trkpt><trkpt lat="36.88586473224777" lon="-108.1026668676579"><ele>1849.3333333333335</ele><time>2026-04-16T00:25:35.001Z</time></trkpt><trkpt lat="36.88580142957928" lon="-108.10249014023832"><ele>1851.0</ele><time>2026-04-16T00:25:36.001Z</time></trkpt><trkpt lat="36.885761939438915" lon="-108.10233629958431"><ele>1851.6</ele><time>2026-04-16T00:25:37.001Z</time></trkpt><trkpt lat="36.88572241680467" lon="-108.10219098417448"><ele>1852.1999999999998</ele><time>2026-04-16T00:25:38.001Z</time></trkpt><trkpt lat="36.88567167125426" lon="-108.10207647238822"><ele>1852.8000000000002</ele><time>2026-04-16T00:25:39.001Z</time></trkpt><trkpt lat="36.88561058232763" lon="-108.10200057408497"><ele>1853.4</ele><time>2026-04-16T00:25:40.001Z</time></trkpt><trkpt lat="36.88552690049723" lon="-108.10194303462373"><ele>1854.0</ele><time>2026-04-16T00:25:41.001Z</time></trkpt><trkpt lat="36.88544495708882" lon="-108.10190721008712"><ele>1854.0</ele><time>2026-04-16T00:25:42.001Z</time></trkpt><trkpt lat="36.88536374319149" lon="-108.10189604191875"><ele>1854.0</ele><time>2026-04-16T00:25:43.001Z</time></trkpt><trkpt lat="36.885295730039935" lon="-108.1018744719317"><ele>1854.0</ele><time>2026-04-16T00:25:44.001Z</time></trkpt><trkpt lat="36.88520925133815" lon="-108.10184532169568"><ele>1854.0</ele><time>2026-04-16T00:25:45.001Z</time></trkpt><trkpt lat="36.88513287061883" lon="-108.10178775283329"><ele>1854.0</ele><time>2026-04-16T00:25:46.001Z</time></trkpt><trkpt lat="36.885093954198105" lon="-108.10170348557563"><ele>1854.0</ele><time>2026-04-16T00:25:47.001Z</time></trkpt><trkpt lat="36.88500891326256" lon="-108.1015517129318"><ele>1854.4</ele><time>2026-04-16T00:25:49.001Z</time></trkpt><trkpt lat="36.88488637127962" lon="-108.1015525309048"><ele>1854.8000000000002</ele><time>2026-04-16T00:25:51.001Z</time></trkpt><trkpt lat="36.88481036172186" lon="-108.10154314888848"><ele>1855.1999999999998</ele><time>2026-04-16T00:25:52.001Z</time></trkpt><trkpt lat="36.88472496716522" lon="-108.1015244063633"><ele>1855.6</ele><time>2026-04-16T00:25:53.001Z</time></trkpt><trkpt lat="36.88461039564054" lon="-108.10150511347828"><ele>1856.0</ele><time>2026-04-16T00:25:54.001Z</time></trkpt><trkpt lat="36.884499506092446" lon="-108.10148309265341"><ele>1856.0</ele><time>2026-04-16T00:25:55.001Z</time></trkpt><trkpt lat="36.88441031337257" lon="-108.10146425976053"><ele>1856.0</ele><time>2026-04-16T00:25:56.001Z</time></trkpt><trkpt lat="36.88433329884981" lon="-108.10143559631278"><ele>1856.0</ele><time>2026-04-16T00:25:57.001Z</time></trkpt><trkpt lat="36.88426718853477" lon="-108.10139324044115"><ele>1856.0</ele><time>2026-04-16T00:25:58.001Z</time></trkpt><trkpt lat="36.88422547688139" lon="-108.10130193046865"><ele>1856.0</ele><time>2026-04-16T00:25:59.001Z</time></trkpt><trkpt lat="36.88413038721185" lon="-108.10117866899081"><ele>1856.8</ele><time>2026-04-16T00:26:01.001Z</time></trkpt><trkpt lat="36.8840840069775" lon="-108.10111243511452"><ele>1857.6</ele><time>2026-04-16T00:26:02.001Z</time></trkpt><trkpt lat="36.88402305159998" lon="-108.10102085256155"><ele>1858.4</ele><time>2026-04-16T00:26:03.001Z</time></trkpt><trkpt lat="36.883958946810736" lon="-108.10090574103945"><ele>1859.2</ele><time>2026-04-16T00:26:04.001Z</time></trkpt><trkpt lat="36.8838989513888" lon="-108.10080368373417"><ele>1860.0</ele><time>2026-04-16T00:26:05.001Z</time></trkpt><trkpt lat="36.883851921832886" lon="-108.10070162056844"><ele>1860.3333333333333</ele><time>2026-04-16T00:26:06.001Z</time></trkpt><trkpt lat="36.88379845592165" lon="-108.10062318879277"><ele>1860.6666666666665</ele><time>2026-04-16T00:26:07.001Z</time></trkpt><trkpt lat="36.88374824631052" lon="-108.10054944581746"><ele>1861.0</ele><time>2026-04-16T00:26:08.001Z</time></trkpt><trkpt lat="36.88371243311108" lon="-108.10046413101725"><ele>1861.3333333333333</ele><time>2026-04-16T00:26:09.001Z</time></trkpt><trkpt lat="36.88367372250926" lon="-108.1003634071864"><ele>1861.6666666666665</ele><time>2026-04-16T00:26:10.001Z</time></trkpt><trkpt lat="36.88363260834051" lon="-108.1002371924356"><ele>1862.0</ele><time>2026-04-16T00:26:11.001Z</time></trkpt><trkpt lat="36.88359661205394" lon="-108.10011064739592"><ele>1862.0</ele><time>2026-04-16T00:26:12.001Z</time></trkpt><trkpt lat="36.88356163825469" lon="-108.09998765719942"><ele>1861.9999999999998</ele><time>2026-04-16T00:26:13.001Z</time></trkpt><trkpt lat="36.88353780283571" lon="-108.09988005494945"><ele>1861.9999999999998</ele><time>2026-04-16T00:26:14.001Z</time></trkpt><trkpt lat="36.88350138324081" lon="-108.09973289520464"><ele>1862.0</ele><time>2026-04-16T00:26:16.001Z</time></trkpt><trkpt lat="36.88342026744053" lon="-108.09974582792965"><ele>1862.0</ele><time>2026-04-16T00:26:17.001Z</time></trkpt><trkpt lat="36.88335613924285" lon="-108.09975381412849"><ele>1863.25</ele><time>2026-04-16T00:26:18.001Z</time></trkpt><trkpt lat="36.88325471214319" lon="-108.09982647062353"><ele>1864.5</ele><time>2026-04-16T00:26:19.001Z</time></trkpt><trkpt lat="36.88313261838942" lon="-108.09975951248325"><ele>1865.75</ele><time>2026-04-16T00:26:20.001Z</time></trkpt><trkpt lat="36.883018468188666" lon="-108.0997173307978"><ele>1867.0</ele><time>2026-04-16T00:26:21.001Z</time></trkpt><trkpt lat="36.88293529516887" lon="-108.0995996515983"><ele>1867.0</ele><time>2026-04-16T00:26:23.001Z</time></trkpt><trkpt lat="36.88288944973899" lon="-108.099470950362"><ele>1867.0</ele><time>2026-04-16T00:26:24.001Z</time></trkpt><trkpt lat="36.88277361328234" lon="-108.09932312603634"><ele>1867.0</ele><time>2026-04-16T00:26:25.001Z</time></trkpt><trkpt lat="36.882705724146206" lon="-108.09922108780685"><ele>1867.0</ele><time>2026-04-16T00:26:26.001Z</time></trkpt><trkpt lat="36.882634480926164" lon="-108.09912445220483"><ele>1867.6666666666667</ele><time>2026-04-16T00:26:27.001Z</time></trkpt><trkpt lat="36.88255792036727" lon="-108.09903165637552"><ele>1868.3333333333335</ele><time>2026-04-16T00:26:28.001Z</time></trkpt><trkpt lat="36.882499554582516" lon="-108.09897812645083"><ele>1869.0</ele><time>2026-04-16T00:26:29.001Z</time></trkpt><trkpt lat="36.88242911749179" lon="-108.0989387800856"><ele>1869.6666666666665</ele><time>2026-04-16T00:26:31.001Z</time></trkpt><trkpt lat="36.882344691049575" lon="-108.09900896077305"><ele>1870.3333333333333</ele><time>2026-04-16T00:26:33.001Z</time></trkpt><trkpt lat="36.882309763681114" lon="-108.09908497944775"><ele>1871.0</ele><time>2026-04-16T00:26:34.001Z</time></trkpt><trkpt lat="36.8822101539271" lon="-108.09912924400216"><ele>1871.0</ele><time>2026-04-16T00:26:36.001Z</time></trkpt><trkpt lat="36.882069493836624" lon="-108.09914383282172"><ele>1871.0</ele><time>2026-04-16T00:26:38.001Z</time></trkpt><trkpt lat="36.88197227832017" lon="-108.09913327271315"><ele>1871.0</ele><time>2026-04-16T00:26:39.001Z</time></trkpt><trkpt lat="36.88188806313735" lon="-108.09907928295006"><ele>1871.0</ele><time>2026-04-16T00:26:40.001Z</time></trkpt><trkpt lat="36.881831017902456" lon="-108.09899287671823"><ele>1871.0</ele><time>2026-04-16T00:26:41.001Z</time></trkpt><trkpt lat="36.88173703554881" lon="-108.09889858061867"><ele>1872.6</ele><time>2026-04-16T00:26:42.001Z</time></trkpt><trkpt lat="36.88166432283295" lon="-108.0988267541438"><ele>1874.1999999999998</ele><time>2026-04-16T00:26:43.002Z</time></trkpt><trkpt lat="36.881588551410886" lon="-108.09884215391433"><ele>1875.8000000000002</ele><time>2026-04-16T00:26:44.002Z</time></trkpt><trkpt lat="36.88146605172904" lon="-108.0988821566476"><ele>1877.4</ele><time>2026-04-16T00:26:46.002Z</time></trkpt><trkpt lat="36.88141700003874" lon="-108.09893768060572"><ele>1879.0</ele><time>2026-04-16T00:26:47.002Z</time></trkpt><trkpt lat="36.881368085569136" lon="-108.0990289700932"><ele>1879.5000000000002</ele><time>2026-04-16T00:26:48Z</time></trkpt><trkpt lat="36.88129907037474" lon="-108.09910192880417"><ele>1880.0</ele><time>2026-04-16T00:26:49Z</time></trkpt><trkpt lat="36.88122557363202" lon="-108.09914826946851"><ele>1880.5</ele><time>2026-04-16T00:26:50Z</time></trkpt><trkpt lat="36.88113905195634" lon="-108.09918945515432"><ele>1881.0</ele><time>2026-04-16T00:26:51Z</time></trkpt><trkpt lat="36.88107041845161" lon="-108.09919899660177"><ele>1881.5000000000002</ele><time>2026-04-16T00:26:52Z</time></trkpt><trkpt lat="36.880990998358456" lon="-108.0992153952665"><ele>1882.0</ele><time>2026-04-16T00:26:53Z</time></trkpt><trkpt lat="36.880906233700784" lon="-108.09924826258641"><ele>1882.0000000000002</ele><time>2026-04-16T00:26:54Z</time></trkpt><trkpt lat="36.88083977481332" lon="-108.09930185597219"><ele>1882.0</ele><time>2026-04-16T00:26:55Z</time></trkpt><trkpt lat="36.88078410899662" lon="-108.09936159569048"><ele>1882.0</ele><time>2026-04-16T00:26:56Z</time></trkpt><trkpt lat="36.88073618926039" lon="-108.09943635694626"><ele>1882.0</ele><time>2026-04-16T00:26:57Z</time></trkpt><trkpt lat="36.88068875349527" lon="-108.09951012554367"><ele>1882.0000000000002</ele><time>2026-04-16T00:26:58Z</time></trkpt><trkpt lat="36.880627051745" lon="-108.0995743916291"><ele>1882.0</ele><time>2026-04-16T00:26:59Z</time></trkpt><trkpt lat="36.8805683773107" lon="-108.09962222118277"><ele>1882.0000000000002</ele><time>2026-04-16T00:27:00Z</time></trkpt><trkpt lat="36.880461892177884" lon="-108.09965593569189"><ele>1882.0</ele><time>2026-04-16T00:27:02Z</time></trkpt><trkpt lat="36.8803889021088" lon="-108.09965260432345"><ele>1882.0</ele><time>2026-04-16T00:27:03Z</time></trkpt><trkpt lat="36.88031372172445" lon="-108.09966511110294"><ele>1882.0</ele><time>2026-04-16T00:27:04Z</time></trkpt><trkpt lat="36.88024899991915" lon="-108.0996751742062"><ele>1882.0000000000002</ele><time>2026-04-16T00:27:05Z</time></trkpt><trkpt lat="36.88017845887769" lon="-108.09966180588161"><ele>1882.0</ele><time>2026-04-16T00:27:06Z</time></trkpt><trkpt lat="36.88008428373728" lon="-108.0996522971858"><ele>1882.5</ele><time>2026-04-16T00:27:07Z</time></trkpt><trkpt lat="36.87989789685819" lon="-108.09961277465999"><ele>1883.0</ele><time>2026-04-16T00:27:08Z</time></trkpt><trkpt lat="36.879805205737775" lon="-108.09960899813363"><ele>1883.5</ele><time>2026-04-16T00:27:09Z</time></trkpt><trkpt lat="36.87970116683268" lon="-108.09953155593395"><ele>1884.0</ele><time>2026-04-16T00:27:11Z</time></trkpt><trkpt lat="36.879626558312104" lon="-108.09954655059522"><ele>1884.0</ele><time>2026-04-16T00:27:12Z</time></trkpt><trkpt lat="36.8795660232447" lon="-108.09959482214977"><ele>1884.0</ele><time>2026-04-16T00:27:13Z</time></trkpt><trkpt lat="36.87953099949388" lon="-108.09944051396424"><ele>1884.0</ele><time>2026-04-16T00:27:16Z</time></trkpt><trkpt lat="36.87951367939816" lon="-108.09930660969054"><ele>1884.0</ele><time>2026-04-16T00:27:17Z</time></trkpt><trkpt lat="36.87946417524582" lon="-108.09918341577193"><ele>1884.0</ele><time>2026-04-16T00:27:18Z</time></trkpt><trkpt lat="36.879389255656825" lon="-108.09914537152912"><ele>1884.0</ele><time>2026-04-16T00:27:19Z</time></trkpt><trkpt lat="36.8793091656986" lon="-108.09915442223809"><ele>1884.0</ele><time>2026-04-16T00:27:20Z</time></trkpt><trkpt lat="36.87920015711973" lon="-108.09915968491596"><ele>1884.0</ele><time>2026-04-16T00:27:21.001Z</time></trkpt><trkpt lat="36.87909426387312" lon="-108.09915177037914"><ele>1884.0</ele><time>2026-04-16T00:27:22.001Z</time></trkpt><trkpt lat="36.87896876416068" lon="-108.0991148193666"><ele>1884.0</ele><time>2026-04-16T00:27:23.001Z</time></trkpt><trkpt lat="36.87885527120781" lon="-108.09910512736113"><ele>1885.2</ele><time>2026-04-16T00:27:24.001Z</time></trkpt><trkpt lat="36.87872623876338" lon="-108.0991190053841"><ele>1886.4</ele><time>2026-04-16T00:27:26.001Z</time></trkpt><trkpt lat="36.878652344497404" lon="-108.099167179351"><ele>1887.6</ele><time>2026-04-16T00:27:27.001Z</time></trkpt><trkpt lat="36.87861049653627" lon="-108.09926585772054"><ele>1888.8</ele><time>2026-04-16T00:27:28.001Z</time></trkpt><trkpt lat="36.878577732734925" lon="-108.09940476557601"><ele>1890.0</ele><time>2026-04-16T00:27:29.001Z</time></trkpt><trkpt lat="36.87852153292585" lon="-108.09956782826686"><ele>1890.0</ele><time>2026-04-16T00:27:30.001Z</time></trkpt><trkpt lat="36.878459406927846" lon="-108.09971436431381"><ele>1890.0</ele><time>2026-04-16T00:27:31.001Z</time></trkpt><trkpt lat="36.87842495051504" lon="-108.09984269593244"><ele>1890.0</ele><time>2026-04-16T00:27:32.001Z</time></trkpt><trkpt lat="36.8783938863723" lon="-108.09992282582779"><ele>1890.0</ele><time>2026-04-16T00:27:33.001Z</time></trkpt><trkpt lat="36.87827124590068" lon="-108.09997976820449"><ele>1890.0</ele><time>2026-04-16T00:27:35.001Z</time></trkpt><trkpt lat="36.878182413471215" lon="-108.10005344191461"><ele>1890.1666666666667</ele><time>2026-04-16T00:27:36.001Z</time></trkpt><trkpt lat="36.87811667316049" lon="-108.10013846875496"><ele>1890.3333333333335</ele><time>2026-04-16T00:27:37.001Z</time></trkpt><trkpt lat="36.878056244285006" lon="-108.10017463723324"><ele>1890.5</ele><time>2026-04-16T00:27:38.001Z</time></trkpt><trkpt lat="36.8779907862194" lon="-108.1001750001256"><ele>1890.6666666666667</ele><time>2026-04-16T00:27:39.001Z</time></trkpt><trkpt lat="36.87790041196054" lon="-108.10017953327342"><ele>1890.8333333333335</ele><time>2026-04-16T00:27:40.001Z</time></trkpt><trkpt lat="36.87780915703451" lon="-108.10020210871875"><ele>1891.0</ele><time>2026-04-16T00:27:41.001Z</time></trkpt><trkpt lat="36.877696518047046" lon="-108.10019861359602"><ele>1891.0</ele><time>2026-04-16T00:27:43.001Z</time></trkpt><trkpt lat="36.877640118243406" lon="-108.10026588603881"><ele>1891.0</ele><time>2026-04-16T00:27:44.001Z</time></trkpt><trkpt lat="36.87758974927934" lon="-108.10037342694837"><ele>1891.0</ele><time>2026-04-16T00:27:45.001Z</time></trkpt><trkpt lat="36.87754206645788" lon="-108.10047441217408"><ele>1891.0</ele><time>2026-04-16T00:27:46.001Z</time></trkpt><trkpt lat="36.87747261897935" lon="-108.10056590305196"><ele>1891.0</ele><time>2026-04-16T00:27:47.001Z</time></trkpt><trkpt lat="36.877399782922275" lon="-108.10063737982196"><ele>1890.3333333333335</ele><time>2026-04-16T00:27:48.001Z</time></trkpt><trkpt lat="36.87733299120957" lon="-108.1007190625478"><ele>1889.6666666666667</ele><time>2026-04-16T00:27:49.001Z</time></trkpt><trkpt lat="36.87726240789554" lon="-108.10078463579748"><ele>1889.0</ele><time>2026-04-16T00:27:50.001Z</time></trkpt><trkpt lat="36.87717840567648" lon="-108.10083553469453"><ele>1888.3333333333335</ele><time>2026-04-16T00:27:51.001Z</time></trkpt><trkpt lat="36.87708466888922" lon="-108.10086043390987"><ele>1887.6666666666667</ele><time>2026-04-16T00:27:52.001Z</time></trkpt><trkpt lat="36.87701855609527" lon="-108.10084403635831"><ele>1887.0</ele><time>2026-04-16T00:27:53.001Z</time></trkpt><trkpt lat="36.87693356764025" lon="-108.10081574916525"><ele>1887.0</ele><time>2026-04-16T00:27:54.001Z</time></trkpt><trkpt lat="36.87683996190343" lon="-108.10080505693566"><ele>1887.0</ele><time>2026-04-16T00:27:55.001Z</time></trkpt><trkpt lat="36.876767275481335" lon="-108.10078992285352"><ele>1887.0</ele><time>2026-04-16T00:27:56.001Z</time></trkpt><trkpt lat="36.876670258668376" lon="-108.10084852405726"><ele>1887.0</ele><time>2026-04-16T00:27:58.001Z</time></trkpt><trkpt lat="36.876627352621846" lon="-108.10091172907303"><ele>1887.0</ele><time>2026-04-16T00:27:59.001Z</time></trkpt><trkpt lat="36.87656032702052" lon="-108.10090012422474"><ele>1887.0</ele><time>2026-04-16T00:28:00.001Z</time></trkpt><trkpt lat="36.87647267803263" lon="-108.10094764733334"><ele>1887.0</ele><time>2026-04-16T00:28:02.001Z</time></trkpt><trkpt lat="36.87646375497822" lon="-108.10107991135317"><ele>1886.9999999999998</ele><time>2026-04-16T00:28:04.001Z</time></trkpt><trkpt lat="36.87657864600204" lon="-108.10114729571042"><ele>1886.9999999999998</ele><time>2026-04-16T00:28:06.001Z</time></trkpt><trkpt lat="36.87668350251125" lon="-108.10114780547269"><ele>1887.0</ele><time>2026-04-16T00:28:07.001Z</time></trkpt><trkpt lat="36.87677116879753" lon="-108.10112466387383"><ele>1887.0</ele><time>2026-04-16T00:28:08.001Z</time></trkpt><trkpt lat="36.87682671916207" lon="-108.1012177003068"><ele>1887.0</ele><time>2026-04-16T00:28:10.001Z</time></trkpt><trkpt lat="36.87691714001394" lon="-108.10131831627564"><ele>1887.0</ele><time>2026-04-16T00:28:11.001Z</time></trkpt><trkpt lat="36.876985411834255" lon="-108.10136663553959"><ele>1887.0</ele><time>2026-04-16T00:28:12.001Z</time></trkpt><trkpt lat="36.87704720006949" lon="-108.10141303855293"><ele>1887.0</ele><time>2026-04-16T00:28:13.001Z</time></trkpt><trkpt lat="36.87711088650086" lon="-108.10149883233646"><ele>1887.0</ele><time>2026-04-16T00:28:14.001Z</time></trkpt><trkpt lat="36.877170867212755" lon="-108.10154229428426"><ele>1887.0</ele><time>2026-04-16T00:28:15.001Z</time></trkpt><trkpt lat="36.87724148852937" lon="-108.10158959900814"><ele>1886.0</ele><time>2026-04-16T00:28:16.001Z</time></trkpt><trkpt lat="36.877310448170476" lon="-108.1016788752856"><ele>1884.9999999999998</ele><time>2026-04-16T00:28:17.001Z</time></trkpt><trkpt lat="36.877372523127775" lon="-108.10180001781504"><ele>1883.9999999999998</ele><time>2026-04-16T00:28:18.001Z</time></trkpt><trkpt lat="36.87743749432836" lon="-108.10189674112847"><ele>1883.0</ele><time>2026-04-16T00:28:19.001Z</time></trkpt><trkpt lat="36.87746192692633" lon="-108.10201140506118"><ele>1882.0</ele><time>2026-04-16T00:28:21.001Z</time></trkpt><trkpt lat="36.877416639068" lon="-108.10208368116488"><ele>1882.0000000000002</ele><time>2026-04-16T00:28:22.001Z</time></trkpt><trkpt lat="36.87740671835828" lon="-108.10216573435173"><ele>1882.0</ele><time>2026-04-16T00:28:23.001Z</time></trkpt><trkpt lat="36.87748673041901" lon="-108.10221482847851"><ele>1882.0</ele><time>2026-04-16T00:28:24.001Z</time></trkpt><trkpt lat="36.87758937367829" lon="-108.10225806244348"><ele>1882.0</ele><time>2026-04-16T00:28:25.001Z</time></trkpt><trkpt lat="36.8776532115612" lon="-108.10232570002795"><ele>1882.0000000000002</ele><time>2026-04-16T00:28:26.001Z</time></trkpt><trkpt lat="36.87770184444284" lon="-108.10241743805945"><ele>1882.0</ele><time>2026-04-16T00:28:27.001Z</time></trkpt><trkpt lat="36.877754629769164" lon="-108.10252335962264"><ele>1881.6666666666667</ele><time>2026-04-16T00:28:28.001Z</time></trkpt><trkpt lat="36.87780718957745" lon="-108.1025989511682"><ele>1881.3333333333335</ele><time>2026-04-16T00:28:29.001Z</time></trkpt><trkpt lat="36.87787772292283" lon="-108.1026637516607"><ele>1881.0</ele><time>2026-04-16T00:28:30.001Z</time></trkpt><trkpt lat="36.87794319898015" lon="-108.10270427277145"><ele>1880.6666666666665</ele><time>2026-04-16T00:28:31.001Z</time></trkpt><trkpt lat="36.8780113398118" lon="-108.10273409445546"><ele>1880.3333333333333</ele><time>2026-04-16T00:28:32.001Z</time></trkpt><trkpt lat="36.878062705019936" lon="-108.10278412366938"><ele>1880.0</ele><time>2026-04-16T00:28:33.001Z</time></trkpt><trkpt lat="36.87803230830869" lon="-108.10289462754815"><ele>1880.0</ele><time>2026-04-16T00:28:36.001Z</time></trkpt><trkpt lat="36.87795934310251" lon="-108.10293858618776"><ele>1880.0</ele><time>2026-04-16T00:28:37.001Z</time></trkpt><trkpt lat="36.877878670136745" lon="-108.10300594369126"><ele>1880.0</ele><time>2026-04-16T00:28:38.001Z</time></trkpt><trkpt lat="36.877827324091555" lon="-108.10316416447192"><ele>1880.0</ele><time>2026-04-16T00:28:39.001Z</time></trkpt><trkpt lat="36.877725709550816" lon="-108.10325260466304"><ele>1880.0</ele><time>2026-04-16T00:28:40.001Z</time></trkpt><trkpt lat="36.877637385388994" lon="-108.10332947639387"><ele>1878.2</ele><time>2026-04-16T00:28:41.001Z</time></trkpt><trkpt lat="36.87756215324228" lon="-108.10339495469532"><ele>1876.4</ele><time>2026-04-16T00:28:42.001Z</time></trkpt><trkpt lat="36.877492215226276" lon="-108.10345587139179"><ele>1874.6</ele><time>2026-04-16T00:28:43.001Z</time></trkpt><trkpt lat="36.87743410080692" lon="-108.10350712722615"><ele>1872.8</ele><time>2026-04-16T00:28:44.001Z</time></trkpt><trkpt lat="36.877372262186704" lon="-108.10356166749158"><ele>1871.0</ele><time>2026-04-16T00:28:45.001Z</time></trkpt><trkpt lat="36.87725479590613" lon="-108.10366527021019"><ele>1870.9999999999998</ele><time>2026-04-16T00:28:47.001Z</time></trkpt><trkpt lat="36.87717545534901" lon="-108.10373524703166"><ele>1871.0</ele><time>2026-04-16T00:28:48.001Z</time></trkpt><trkpt lat="36.877111445481624" lon="-108.10379170244228"><ele>1871.0</ele><time>2026-04-16T00:28:49.001Z</time></trkpt><trkpt lat="36.877053218486296" lon="-108.10384305733533"><ele>1871.0</ele><time>2026-04-16T00:28:50.002Z</time></trkpt><trkpt lat="36.87699725905291" lon="-108.10389241247681"><ele>1870.9999999999998</ele><time>2026-04-16T00:28:51.002Z</time></trkpt><trkpt lat="36.8769127952506" lon="-108.10396690768012"><ele>1871.0</ele><time>2026-04-16T00:28:53.002Z</time></trkpt><trkpt lat="36.87682232973453" lon="-108.10387643326489"><ele>1870.9999999999998</ele><time>2026-04-16T00:28:54Z</time></trkpt><trkpt lat="36.87680650543263" lon="-108.10395344665706"><ele>1871.0</ele><time>2026-04-16T00:28:55Z</time></trkpt><trkpt lat="36.87676215136869" lon="-108.10406201153853"><ele>1871.0</ele><time>2026-04-16T00:28:57Z</time></trkpt><trkpt lat="36.87667228955297" lon="-108.10402080814836"><ele>1871.0</ele><time>2026-04-16T00:28:59Z</time></trkpt><trkpt lat="36.87658524387272" lon="-108.10404139108753"><ele>1870.9999999999998</ele><time>2026-04-16T00:29:01Z</time></trkpt><trkpt lat="36.876529709550674" lon="-108.10396902951918"><ele>1871.0</ele><time>2026-04-16T00:29:02Z</time></trkpt><trkpt lat="36.87646648201846" lon="-108.10389026867793"><ele>1870.0</ele><time>2026-04-16T00:29:03Z</time></trkpt><trkpt lat="36.87638939007436" lon="-108.10378444113752"><ele>1869.0</ele><time>2026-04-16T00:29:04Z</time></trkpt><trkpt lat="36.87631738203383" lon="-108.10365301394071"><ele>1868.0</ele><time>2026-04-16T00:29:05Z</time></trkpt><trkpt lat="36.87627174883605" lon="-108.10348869828559"><ele>1867.0</ele><time>2026-04-16T00:29:06Z</time></trkpt><trkpt lat="36.876222703648466" lon="-108.1033567676114"><ele>1868.0</ele><time>2026-04-16T00:29:07Z</time></trkpt><trkpt lat="36.876179017688244" lon="-108.10322379802177"><ele>1868.9999999999998</ele><time>2026-04-16T00:29:08Z</time></trkpt><trkpt lat="36.876140426669785" lon="-108.10310720697503"><ele>1869.9999999999998</ele><time>2026-04-16T00:29:09Z</time></trkpt><trkpt lat="36.87609739673166" lon="-108.10299699704127"><ele>1871.0</ele><time>2026-04-16T00:29:10Z</time></trkpt><trkpt lat="36.876053818678315" lon="-108.10290747510253"><ele>1872.0</ele><time>2026-04-16T00:29:11Z</time></trkpt><trkpt lat="36.87600403621266" lon="-108.10282580183286"><ele>1872.0</ele><time>2026-04-16T00:29:12Z</time></trkpt><trkpt lat="36.87595195867304" lon="-108.10273228298077"><ele>1872.0</ele><time>2026-04-16T00:29:13Z</time></trkpt><trkpt lat="36.87589996099228" lon="-108.10264837540856"><ele>1872.0</ele><time>2026-04-16T00:29:14Z</time></trkpt><trkpt lat="36.87584599499343" lon="-108.10257877343811"><ele>1872.0</ele><time>2026-04-16T00:29:15Z</time></trkpt><trkpt lat="36.875783123857325" lon="-108.10253145729654"><ele>1872.0</ele><time>2026-04-16T00:29:16Z</time></trkpt><trkpt lat="36.87570630172691" lon="-108.10253159881316"><ele>1872.0</ele><time>2026-04-16T00:29:17Z</time></trkpt><trkpt lat="36.8756335061224" lon="-108.10255181647926"><ele>1871.3999999999999</ele><time>2026-04-16T00:29:18Z</time></trkpt><trkpt lat="36.87556551392587" lon="-108.10256200390855"><ele>1870.7999999999997</ele><time>2026-04-16T00:29:19Z</time></trkpt><trkpt lat="36.875500827415735" lon="-108.10269807346333"><ele>1870.2</ele><time>2026-04-16T00:29:20Z</time></trkpt><trkpt lat="36.87540496906864" lon="-108.10274023546027"><ele>1869.6</ele><time>2026-04-16T00:29:21Z</time></trkpt><trkpt lat="36.875289153664866" lon="-108.10277010147132"><ele>1869.0</ele><time>2026-04-16T00:29:22Z</time></trkpt><trkpt lat="36.87517390591869" lon="-108.10278057509512"><ele>1869.8333333333333</ele><time>2026-04-16T00:29:23Z</time></trkpt><trkpt lat="36.87508584487479" lon="-108.10279369850139"><ele>1870.6666666666665</ele><time>2026-04-16T00:29:24Z</time></trkpt><trkpt lat="36.874989428143714" lon="-108.10275447990973"><ele>1871.5</ele><time>2026-04-16T00:29:25Z</time></trkpt><trkpt lat="36.87491583057658" lon="-108.10270730204829"><ele>1872.3333333333333</ele><time>2026-04-16T00:29:26Z</time></trkpt><trkpt lat="36.874844667281465" lon="-108.10268774243609"><ele>1873.1666666666665</ele><time>2026-04-16T00:29:27Z</time></trkpt><trkpt lat="36.874778125224175" lon="-108.1027793376925"><ele>1874.0</ele><time>2026-04-16T00:29:28Z</time></trkpt><trkpt lat="36.87469600869819" lon="-108.10287418022219"><ele>1874.0</ele><time>2026-04-16T00:29:29.001Z</time></trkpt><trkpt lat="36.874624431426234" lon="-108.1029064227808"><ele>1874.0</ele><time>2026-04-16T00:29:30.001Z</time></trkpt><trkpt lat="36.87462116637205" lon="-108.10302800939671"><ele>1874.0</ele><time>2026-04-16T00:29:31.001Z</time></trkpt><trkpt lat="36.87461153162835" lon="-108.10316431337317"><ele>1874.0</ele><time>2026-04-16T00:29:32.001Z</time></trkpt><trkpt lat="36.87454182846756" lon="-108.10322235171427"><ele>1874.0</ele><time>2026-04-16T00:29:34.001Z</time></trkpt><trkpt lat="36.874450698510465" lon="-108.10327374795824"><ele>1874.0</ele><time>2026-04-16T00:29:36.001Z</time></trkpt><trkpt lat="36.8744130200558" lon="-108.10339541271863"><ele>1874.0</ele><time>2026-04-16T00:29:37.001Z</time></trkpt><trkpt lat="36.8743591803762" lon="-108.10348584341004"><ele>1874.0</ele><time>2026-04-16T00:29:38.001Z</time></trkpt><trkpt lat="36.874270499459406" lon="-108.10350432798694"><ele>1874.0</ele><time>2026-04-16T00:29:39.001Z</time></trkpt><trkpt lat="36.87417603171436" lon="-108.10355222268207"><ele>1874.0</ele><time>2026-04-16T00:29:40.001Z</time></trkpt><trkpt lat="36.87408784984508" lon="-108.10362955766641"><ele>1875.2</ele><time>2026-04-16T00:29:41.001Z</time></trkpt><trkpt lat="36.87403624675792" lon="-108.10369663472318"><ele>1876.4</ele><time>2026-04-16T00:29:42.001Z</time></trkpt><trkpt lat="36.87396263505564" lon="-108.10375610527083"><ele>1877.6</ele><time>2026-04-16T00:29:43.001Z</time></trkpt><trkpt lat="36.87385284072299" lon="-108.10382936560309"><ele>1878.8</ele><time>2026-04-16T00:29:44.001Z</time></trkpt><trkpt lat="36.87375351014838" lon="-108.10391290157764"><ele>1880.0</ele><time>2026-04-16T00:29:45.001Z</time></trkpt><trkpt lat="36.87366462656843" lon="-108.1040217269275"><ele>1879.9999999999998</ele><time>2026-04-16T00:29:46.001Z</time></trkpt><trkpt lat="36.87359318622414" lon="-108.10411772417133"><ele>1880.0</ele><time>2026-04-16T00:29:47.001Z</time></trkpt><trkpt lat="36.873526161352125" lon="-108.10414538835963"><ele>1880.0</ele><time>2026-04-16T00:29:48.001Z</time></trkpt><trkpt lat="36.87343634780578" lon="-108.10410879484496"><ele>1880.0</ele><time>2026-04-16T00:29:50.001Z</time></trkpt><trkpt lat="36.873443895175164" lon="-108.10399318764732"><ele>1879.9999999999998</ele><time>2026-04-16T00:29:52.001Z</time></trkpt><trkpt lat="36.87348865854396" lon="-108.103911425664"><ele>1880.0</ele><time>2026-04-16T00:29:53.001Z</time></trkpt><trkpt lat="36.87327396575436" lon="-108.10399790530721"><ele>1880.1666666666665</ele><time>2026-04-16T00:29:54.001Z</time></trkpt><trkpt lat="36.873276829268065" lon="-108.10390747939033"><ele>1880.3333333333333</ele><time>2026-04-16T00:29:55.001Z</time></trkpt><trkpt lat="36.87329259263761" lon="-108.10382954242642"><ele>1880.5</ele><time>2026-04-16T00:29:56.001Z</time></trkpt><trkpt lat="36.87330872352666" lon="-108.10373466739073"><ele>1880.6666666666665</ele><time>2026-04-16T00:29:57.001Z</time></trkpt><trkpt lat="36.873320145058486" lon="-108.10364931480328"><ele>1880.8333333333333</ele><time>2026-04-16T00:29:58.001Z</time></trkpt><trkpt lat="36.87333677666326" lon="-108.10357287784647"><ele>1881.0</ele><time>2026-04-16T00:29:59.001Z</time></trkpt><trkpt lat="36.87339466043175" lon="-108.10342786226062"><ele>1881.0</ele><time>2026-04-16T00:30:01.001Z</time></trkpt><trkpt lat="36.87346321776444" lon="-108.10338224274695"><ele>1881.0</ele><time>2026-04-16T00:30:02.001Z</time></trkpt><trkpt lat="36.87353494617853" lon="-108.10328360532121"><ele>1881.0</ele><time>2026-04-16T00:30:04.001Z</time></trkpt><trkpt lat="36.87357110354363" lon="-108.1032051430555"><ele>1881.0</ele><time>2026-04-16T00:30:05.001Z</time></trkpt><trkpt lat="36.873606060550614" lon="-108.10311377384747"><ele>1881.0</ele><time>2026-04-16T00:30:06.001Z</time></trkpt><trkpt lat="36.87363595914438" lon="-108.10300733068387"><ele>1881.0</ele><time>2026-04-16T00:30:07.001Z</time></trkpt><trkpt lat="36.87366801015243" lon="-108.10289492520471"><ele>1881.0</ele><time>2026-04-16T00:30:08.001Z</time></trkpt><trkpt lat="36.873674348546956" lon="-108.10280056341462"><ele>1881.0</ele><time>2026-04-16T00:30:09.001Z</time></trkpt><trkpt lat="36.87365705946515" lon="-108.10270632573791"><ele>1881.0</ele><time>2026-04-16T00:30:10.001Z</time></trkpt><trkpt lat="36.87363307195478" lon="-108.10262162339275"><ele>1881.0</ele><time>2026-04-16T00:30:11.001Z</time></trkpt><trkpt lat="36.873610526198966" lon="-108.1025276274225"><ele>1881.0</ele><time>2026-04-16T00:30:12.001Z</time></trkpt><trkpt lat="36.87364992483734" lon="-108.10243695621851"><ele>1881.0</ele><time>2026-04-16T00:30:13.001Z</time></trkpt><trkpt lat="36.87353285843484" lon="-108.10238789252439"><ele>1881.0</ele><time>2026-04-16T00:30:15.001Z</time></trkpt><trkpt lat="36.87345184953012" lon="-108.10227390288607"><ele>1881.0</ele><time>2026-04-16T00:30:16.001Z</time></trkpt><trkpt lat="36.87338460313386" lon="-108.10217758213662"><ele>1881.0</ele><time>2026-04-16T00:30:17.001Z</time></trkpt><trkpt lat="36.87329585370269" lon="-108.10211571244092"><ele>1881.0</ele><time>2026-04-16T00:30:18.001Z</time></trkpt><trkpt lat="36.87317304193777" lon="-108.10205751066587"><ele>1882.4</ele><time>2026-04-16T00:30:19.001Z</time></trkpt><trkpt lat="36.873058502199704" lon="-108.1019914855202"><ele>1883.8</ele><time>2026-04-16T00:30:20.001Z</time></trkpt><trkpt lat="36.87297767807631" lon="-108.10193610022209"><ele>1885.2000000000003</ele><time>2026-04-16T00:30:21.001Z</time></trkpt><trkpt lat="36.872926554775816" lon="-108.10188373220134"><ele>1886.6000000000001</ele><time>2026-04-16T00:30:22.001Z</time></trkpt><trkpt lat="36.872845934118466" lon="-108.10175954127443"><ele>1888.0</ele><time>2026-04-16T00:30:24.001Z</time></trkpt><trkpt lat="36.872843143327614" lon="-108.10165185571458"><ele>1887.8000000000002</ele><time>2026-04-16T00:30:25.001Z</time></trkpt><trkpt lat="36.872862515274456" lon="-108.10154947848851"><ele>1887.6000000000001</ele><time>2026-04-16T00:30:26.001Z</time></trkpt><trkpt lat="36.87285551540959" lon="-108.10142007384854"><ele>1887.3999999999999</ele><time>2026-04-16T00:30:27.001Z</time></trkpt><trkpt lat="36.872802750642634" lon="-108.10128279554918"><ele>1887.1999999999998</ele><time>2026-04-16T00:30:28.001Z</time></trkpt><trkpt lat="36.872768258415995" lon="-108.10115854412834"><ele>1887.0</ele><time>2026-04-16T00:30:29.001Z</time></trkpt><trkpt lat="36.87274980165571" lon="-108.10102752534064"><ele>1887.0</ele><time>2026-04-16T00:30:30.001Z</time></trkpt><trkpt lat="36.87272633685937" lon="-108.10094104841247"><ele>1886.9999999999998</ele><time>2026-04-16T00:30:31.001Z</time></trkpt><trkpt lat="36.87269773630453" lon="-108.10078987992318"><ele>1886.9999999999998</ele><time>2026-04-16T00:30:33.001Z</time></trkpt><trkpt lat="36.872617489203805" lon="-108.10067831283091"><ele>1887.0</ele><time>2026-04-16T00:30:34.001Z</time></trkpt><trkpt lat="36.87252566445195" lon="-108.1005629784581"><ele>1887.0</ele><time>2026-04-16T00:30:35.001Z</time></trkpt><trkpt lat="36.87248789303978" lon="-108.1004407428282"><ele>1888.0</ele><time>2026-04-16T00:30:36.001Z</time></trkpt><trkpt lat="36.87246701430889" lon="-108.10028300239082"><ele>1888.9999999999998</ele><time>2026-04-16T00:30:37.001Z</time></trkpt><trkpt lat="36.872422540985525" lon="-108.10013231330058"><ele>1889.9999999999998</ele><time>2026-04-16T00:30:38.001Z</time></trkpt><trkpt lat="36.87237970321761" lon="-108.10005601352222"><ele>1891.0</ele><time>2026-04-16T00:30:39.001Z</time></trkpt><trkpt lat="36.87230858070804" lon="-108.10000688304933"><ele>1892.0</ele><time>2026-04-16T00:30:40.001Z</time></trkpt><trkpt lat="36.8722228982183" lon="-108.09997493431132"><ele>1892.0</ele><time>2026-04-16T00:30:41.001Z</time></trkpt><trkpt lat="36.87209103629532" lon="-108.0999533007512"><ele>1892.0</ele><time>2026-04-16T00:30:42.001Z</time></trkpt><trkpt lat="36.87202531038778" lon="-108.09992101725575"><ele>1892.0</ele><time>2026-04-16T00:30:43.001Z</time></trkpt><trkpt lat="36.87196106640498" lon="-108.0997633497278"><ele>1892.0</ele><time>2026-04-16T00:30:45.001Z</time></trkpt><trkpt lat="36.87188316899401" lon="-108.0996627528386"><ele>1892.0</ele><time>2026-04-16T00:30:46.001Z</time></trkpt><trkpt lat="36.871831197688536" lon="-108.09960844923913"><ele>1891.9999999999998</ele><time>2026-04-16T00:30:47.001Z</time></trkpt><trkpt lat="36.871823793151954" lon="-108.09952278287354"><ele>1891.9999999999998</ele><time>2026-04-16T00:30:48.001Z</time></trkpt><trkpt lat="36.871800627812384" lon="-108.09936959924956"><ele>1892.0</ele><time>2026-04-16T00:30:49.001Z</time></trkpt><trkpt lat="36.87173712402148" lon="-108.0992451454828"><ele>1892.0</ele><time>2026-04-16T00:30:50.001Z</time></trkpt><trkpt lat="36.8716266350006" lon="-108.0991687225696"><ele>1893.0</ele><time>2026-04-16T00:30:51.001Z</time></trkpt><trkpt lat="36.87152658657212" lon="-108.09911096908336"><ele>1893.9999999999998</ele><time>2026-04-16T00:30:52.001Z</time></trkpt><trkpt lat="36.87145389969233" lon="-108.09904384670656"><ele>1894.9999999999998</ele><time>2026-04-16T00:30:53.001Z</time></trkpt><trkpt lat="36.87138547165021" lon="-108.09894194170988"><ele>1896.0</ele><time>2026-04-16T00:30:54.001Z</time></trkpt><trkpt lat="36.87135669757271" lon="-108.09877758152808"><ele>1897.0</ele><time>2026-04-16T00:30:56.002Z</time></trkpt><trkpt lat="36.871326792084375" lon="-108.0986157863112"><ele>1897.25</ele><time>2026-04-16T00:30:57.002Z</time></trkpt><trkpt lat="36.87129734845571" lon="-108.09843504738659"><ele>1897.5</ele><time>2026-04-16T00:30:58.002Z</time></trkpt><trkpt lat="36.871297473404674" lon="-108.09834636922842"><ele>1897.75</ele><time>2026-04-16T00:30:59.002Z</time></trkpt><trkpt lat="36.87118923360875" lon="-108.09819823934322"><ele>1898.0</ele><time>2026-04-16T00:31:01Z</time></trkpt><trkpt lat="36.871085787443015" lon="-108.09811129567603"><ele>1898.0</ele><time>2026-04-16T00:31:02Z</time></trkpt><trkpt lat="36.87101431952533" lon="-108.09802098769859"><ele>1898.0</ele><time>2026-04-16T00:31:03Z</time></trkpt><trkpt lat="36.870921442038295" lon="-108.09789829813242"><ele>1898.0</ele><time>2026-04-16T00:31:04Z</time></trkpt><trkpt lat="36.87079933344382" lon="-108.09775535388962"><ele>1898.0</ele><time>2026-04-16T00:31:05Z</time></trkpt><trkpt lat="36.87067438570477" lon="-108.09761970813274"><ele>1899.25</ele><time>2026-04-16T00:31:06Z</time></trkpt><trkpt lat="36.8705160827569" lon="-108.0975054497015"><ele>1900.5</ele><time>2026-04-16T00:31:07Z</time></trkpt><trkpt lat="36.870395076248634" lon="-108.09740745283543"><ele>1901.75</ele><time>2026-04-16T00:31:08Z</time></trkpt><trkpt lat="36.87031897797584" lon="-108.09730839823916"><ele>1903.0</ele><time>2026-04-16T00:31:09Z</time></trkpt><trkpt lat="36.87025290487154" lon="-108.09724956981789"><ele>1903.25</ele><time>2026-04-16T00:31:10Z</time></trkpt><trkpt lat="36.870205500290396" lon="-108.09710421749082"><ele>1903.5</ele><time>2026-04-16T00:31:12Z</time></trkpt><trkpt lat="36.87009380483224" lon="-108.09709118294865"><ele>1903.75</ele><time>2026-04-16T00:31:14Z</time></trkpt><trkpt lat="36.86997046132624" lon="-108.09704305353112"><ele>1904.0</ele><time>2026-04-16T00:31:16Z</time></trkpt><trkpt lat="36.869850525165816" lon="-108.09701809952446"><ele>1904.4</ele><time>2026-04-16T00:31:18Z</time></trkpt><trkpt lat="36.86976361423838" lon="-108.09699667621297"><ele>1904.8000000000002</ele><time>2026-04-16T00:31:19Z</time></trkpt><trkpt lat="36.8696673853031" lon="-108.09696512935112"><ele>1905.1999999999998</ele><time>2026-04-16T00:31:20Z</time></trkpt><trkpt lat="36.869565259299776" lon="-108.0969046694948"><ele>1905.6</ele><time>2026-04-16T00:31:21Z</time></trkpt><trkpt lat="36.86947028373317" lon="-108.09681766583738"><ele>1906.0</ele><time>2026-04-16T00:31:22Z</time></trkpt><trkpt lat="36.86934617496349" lon="-108.0967238496544"><ele>1906.6</ele><time>2026-04-16T00:31:23Z</time></trkpt><trkpt lat="36.86923304394709" lon="-108.0966907202443"><ele>1907.1999999999998</ele><time>2026-04-16T00:31:24Z</time></trkpt><trkpt lat="36.86913820312884" lon="-108.09668819559887"><ele>1907.8000000000002</ele><time>2026-04-16T00:31:25Z</time></trkpt><trkpt lat="36.86906684020562" lon="-108.09669691905658"><ele>1908.4</ele><time>2026-04-16T00:31:26Z</time></trkpt><trkpt lat="36.868971751900176" lon="-108.09674286854774"><ele>1909.0</ele><time>2026-04-16T00:31:41.001Z</time></trkpt><trkpt lat="36.86891725713436" lon="-108.09679930759096"><ele>1909.0</ele><time>2026-04-16T00:31:42.001Z</time></trkpt><trkpt lat="36.86883276335672" lon="-108.09688672142184"><ele>1909.0</ele><time>2026-04-16T00:31:44.001Z</time></trkpt><trkpt lat="36.868728941764196" lon="-108.0968901277857"><ele>1909.0</ele><time>2026-04-16T00:31:46.001Z</time></trkpt><trkpt lat="36.86860544084033" lon="-108.09680926296531"><ele>1909.0</ele><time>2026-04-16T00:31:48.001Z</time></trkpt><trkpt lat="36.86853023620999" lon="-108.09673057891463"><ele>1909.0</ele><time>2026-04-16T00:31:49.001Z</time></trkpt><trkpt lat="36.868463269099905" lon="-108.09663261831074"><ele>1909.0</ele><time>2026-04-16T00:31:50.001Z</time></trkpt><trkpt lat="36.86840318336311" lon="-108.09653527845245"><ele>1909.0</ele><time>2026-04-16T00:31:51.001Z</time></trkpt><trkpt lat="36.86830914789621" lon="-108.0964326481888"><ele>1909.0</ele><time>2026-04-16T00:31:52.001Z</time></trkpt><trkpt lat="36.86821168810714" lon="-108.0963464677488"><ele>1909.0</ele><time>2026-04-16T00:31:53.001Z</time></trkpt><trkpt lat="36.86812707468717" lon="-108.09627441178219"><ele>1907.4</ele><time>2026-04-16T00:31:54.001Z</time></trkpt><trkpt lat="36.868043367299755" lon="-108.0961938949436"><ele>1905.8000000000002</ele><time>2026-04-16T00:31:55.001Z</time></trkpt><trkpt lat="36.8679675528732" lon="-108.09610903677076"><ele>1904.1999999999998</ele><time>2026-04-16T00:31:56.001Z</time></trkpt><trkpt lat="36.86790719659025" lon="-108.0960144122129"><ele>1902.6</ele><time>2026-04-16T00:31:57.001Z</time></trkpt><trkpt lat="36.867858211567714" lon="-108.09591411601203"><ele>1901.0</ele><time>2026-04-16T00:31:58.001Z</time></trkpt><trkpt lat="36.86778938929668" lon="-108.09581130315904"><ele>1900.4</ele><time>2026-04-16T00:31:59.001Z</time></trkpt><trkpt lat="36.86772272783874" lon="-108.09571310832942"><ele>1899.8</ele><time>2026-04-16T00:32:00.001Z</time></trkpt><trkpt lat="36.86766188413654" lon="-108.09562588250547"><ele>1899.2000000000003</ele><time>2026-04-16T00:32:01.001Z</time></trkpt><trkpt lat="36.86760399154431" lon="-108.09555109224958"><ele>1898.6000000000001</ele><time>2026-04-16T00:32:02.001Z</time></trkpt><trkpt lat="36.86752425102845" lon="-108.09544871174168"><ele>1898.0</ele><time>2026-04-16T00:32:03.001Z</time></trkpt><trkpt lat="36.86744172763587" lon="-108.09534294638541"><ele>1897.2</ele><time>2026-04-16T00:32:04.001Z</time></trkpt><trkpt lat="36.86737018641935" lon="-108.09527884068578"><ele>1896.4</ele><time>2026-04-16T00:32:05.001Z</time></trkpt><trkpt lat="36.8672871136388" lon="-108.09524922405785"><ele>1895.6000000000001</ele><time>2026-04-16T00:32:06.001Z</time></trkpt><trkpt lat="36.86718337325265" lon="-108.09523039492072"><ele>1894.8000000000002</ele><time>2026-04-16T00:32:07.001Z</time></trkpt><trkpt lat="36.86707156132615" lon="-108.09520855878134"><ele>1894.0</ele><time>2026-04-16T00:32:08.001Z</time></trkpt><trkpt lat="36.86699021986235" lon="-108.09516936528654"><ele>1894.0</ele><time>2026-04-16T00:32:09.001Z</time></trkpt><trkpt lat="36.86693229470715" lon="-108.09509939497866"><ele>1894.0</ele><time>2026-04-16T00:32:10.001Z</time></trkpt><trkpt lat="36.866884497083745" lon="-108.095005259425"><ele>1894.0</ele><time>2026-04-16T00:32:11.001Z</time></trkpt><trkpt lat="36.86683018289723" lon="-108.0948722706714"><ele>1894.0</ele><time>2026-04-16T00:32:12.001Z</time></trkpt><trkpt lat="36.866786325180705" lon="-108.09474684437465"><ele>1894.0</ele><time>2026-04-16T00:32:13.001Z</time></trkpt><trkpt lat="36.866754255215774" lon="-108.09465137586659"><ele>1893.0</ele><time>2026-04-16T00:32:14.001Z</time></trkpt><trkpt lat="36.866694166026456" lon="-108.09455046399773"><ele>1892.0</ele><time>2026-04-16T00:32:16.001Z</time></trkpt><trkpt lat="36.86662162126886" lon="-108.09457690858859"><ele>1891.0</ele><time>2026-04-16T00:32:17.001Z</time></trkpt><trkpt lat="36.866491899090406" lon="-108.09461165079004"><ele>1890.0</ele><time>2026-04-16T00:32:18.001Z</time></trkpt><trkpt lat="36.866368259924" lon="-108.09460629297834"><ele>1889.0</ele><time>2026-04-16T00:32:19.001Z</time></trkpt><trkpt lat="36.866246393136386" lon="-108.0945967931453"><ele>1888.9999999999998</ele><time>2026-04-16T00:32:20.001Z</time></trkpt><trkpt lat="36.866164257311915" lon="-108.09459585537952"><ele>1889.0</ele><time>2026-04-16T00:32:21.001Z</time></trkpt><trkpt lat="36.86607486354851" lon="-108.09454870008528"><ele>1889.0</ele><time>2026-04-16T00:32:22.001Z</time></trkpt><trkpt lat="36.86596236239035" lon="-108.09448441189443"><ele>1889.0</ele><time>2026-04-16T00:32:23.001Z</time></trkpt><trkpt lat="36.86588417992379" lon="-108.09447196027521"><ele>1888.9999999999998</ele><time>2026-04-16T00:32:24.001Z</time></trkpt><trkpt lat="36.86581872452183" lon="-108.09448749441972"><ele>1889.0</ele><time>2026-04-16T00:32:25.001Z</time></trkpt><trkpt lat="36.86573111881352" lon="-108.09451105207367"><ele>1888.2</ele><time>2026-04-16T00:32:26.001Z</time></trkpt><trkpt lat="36.865614279284095" lon="-108.0945295402116"><ele>1887.4</ele><time>2026-04-16T00:32:27.001Z</time></trkpt><trkpt lat="36.86549750092565" lon="-108.09453032202045"><ele>1886.6</ele><time>2026-04-16T00:32:28.001Z</time></trkpt><trkpt lat="36.865398301869156" lon="-108.09453211913352"><ele>1885.8</ele><time>2026-04-16T00:32:29.001Z</time></trkpt><trkpt lat="36.86532573881943" lon="-108.09455530727357"><ele>1885.0</ele><time>2026-04-16T00:32:30.001Z</time></trkpt><trkpt lat="36.86526157579027" lon="-108.09459306635082"><ele>1885.0</ele><time>2026-04-16T00:32:31.001Z</time></trkpt><trkpt lat="36.86518001152071" lon="-108.09466655401721"><ele>1885.0</ele><time>2026-04-16T00:32:33.001Z</time></trkpt><trkpt lat="36.8650823819589" lon="-108.09470405732722"><ele>1885.0</ele><time>2026-04-16T00:32:35.001Z</time></trkpt><trkpt lat="36.86498486877385" lon="-108.09471929875217"><ele>1885.0</ele><time>2026-04-16T00:32:36.001Z</time></trkpt><trkpt lat="36.864878477863925" lon="-108.0947445405586"><ele>1885.0</ele><time>2026-04-16T00:32:37.001Z</time></trkpt><trkpt lat="36.86480888149193" lon="-108.09476319098722"><ele>1883.8</ele><time>2026-04-16T00:32:38.001Z</time></trkpt><trkpt lat="36.864700082059485" lon="-108.09470379754113"><ele>1882.6</ele><time>2026-04-16T00:32:40.001Z</time></trkpt><trkpt lat="36.864647441137855" lon="-108.0946179336954"><ele>1881.4</ele><time>2026-04-16T00:32:41.001Z</time></trkpt><trkpt lat="36.86458214632919" lon="-108.09452693615138"><ele>1880.2</ele><time>2026-04-16T00:32:42.001Z</time></trkpt><trkpt lat="36.86450224344598" lon="-108.0944260136397"><ele>1879.0</ele><time>2026-04-16T00:32:43.001Z</time></trkpt><trkpt lat="36.864436148633196" lon="-108.09434508643163"><ele>1879.0000000000002</ele><time>2026-04-16T00:32:44.001Z</time></trkpt><trkpt lat="36.864375197159035" lon="-108.09430911591392"><ele>1879.0</ele><time>2026-04-16T00:32:45.001Z</time></trkpt><trkpt lat="36.864296043024716" lon="-108.09431963661469"><ele>1879.0</ele><time>2026-04-16T00:32:46.001Z</time></trkpt><trkpt lat="36.86420124750774" lon="-108.09433782951041"><ele>1879.0</ele><time>2026-04-16T00:32:47.001Z</time></trkpt><trkpt lat="36.864125431866604" lon="-108.09435679640602"><ele>1879.0000000000002</ele><time>2026-04-16T00:32:48.001Z</time></trkpt><trkpt lat="36.864030063889544" lon="-108.09443600070023"><ele>1879.0</ele><time>2026-04-16T00:32:50.001Z</time></trkpt><trkpt lat="36.86397463167288" lon="-108.09449963955588"><ele>1878.6</ele><time>2026-04-16T00:32:51.001Z</time></trkpt><trkpt lat="36.86392797634349" lon="-108.09457028365996"><ele>1878.2</ele><time>2026-04-16T00:32:52.001Z</time></trkpt><trkpt lat="36.86387330716197" lon="-108.09471334007645"><ele>1877.7999999999997</ele><time>2026-04-16T00:32:54.001Z</time></trkpt><trkpt lat="36.86376758151581" lon="-108.09477548573823"><ele>1877.3999999999999</ele><time>2026-04-16T00:32:56.001Z</time></trkpt><trkpt lat="36.863689025704595" lon="-108.09481786721607"><ele>1877.0</ele><time>2026-04-16T00:32:58.001Z</time></trkpt><trkpt lat="36.86358915113865" lon="-108.09483885623395"><ele>1877.0</ele><time>2026-04-16T00:33:00.002Z</time></trkpt><trkpt lat="36.863511766035195" lon="-108.09482236913084"><ele>1876.9999999999998</ele><time>2026-04-16T00:33:01.002Z</time></trkpt><trkpt lat="36.86340864400668" lon="-108.09479614380479"><ele>1876.9999999999998</ele><time>2026-04-16T00:33:02.002Z</time></trkpt><trkpt lat="36.863336665204045" lon="-108.09475468917375"><ele>1877.0</ele><time>2026-04-16T00:33:03.002Z</time></trkpt><trkpt lat="36.86323384758189" lon="-108.09475479643382"><ele>1877.0</ele><time>2026-04-16T00:33:05.002Z</time></trkpt><trkpt lat="36.86315379035951" lon="-108.09481530353547"><ele>1876.8333333333333</ele><time>2026-04-16T00:33:06Z</time></trkpt><trkpt lat="36.86308161218586" lon="-108.09484885980342"><ele>1876.6666666666665</ele><time>2026-04-16T00:33:07Z</time></trkpt><trkpt lat="36.86300990656231" lon="-108.09483829526165"><ele>1876.5</ele><time>2026-04-16T00:33:09Z</time></trkpt><trkpt lat="36.86292188914155" lon="-108.09483503492164"><ele>1876.3333333333335</ele><time>2026-04-16T00:33:13Z</time></trkpt><trkpt lat="36.862823460822185" lon="-108.09488044659368"><ele>1876.1666666666667</ele><time>2026-04-16T00:33:15Z</time></trkpt><trkpt lat="36.862775607589846" lon="-108.094937602877"><ele>1876.0</ele><time>2026-04-16T00:33:16Z</time></trkpt><trkpt lat="36.86272680930045" lon="-108.0950010088472"><ele>1876.3333333333335</ele><time>2026-04-16T00:33:17Z</time></trkpt><trkpt lat="36.86262668850039" lon="-108.09509062118076"><ele>1876.6666666666667</ele><time>2026-04-16T00:33:19Z</time></trkpt><trkpt lat="36.86258041074656" lon="-108.09515267982769"><ele>1877.0</ele><time>2026-04-16T00:33:20Z</time></trkpt><trkpt lat="36.86253563922718" lon="-108.09522112175415"><ele>1877.3333333333335</ele><time>2026-04-16T00:33:21Z</time></trkpt><trkpt lat="36.86248311588162" lon="-108.0952966006101"><ele>1877.6666666666667</ele><time>2026-04-16T00:33:22Z</time></trkpt><trkpt lat="36.86240798726618" lon="-108.09535397230215"><ele>1878.0</ele><time>2026-04-16T00:33:23Z</time></trkpt><trkpt lat="36.862324259020305" lon="-108.09539049542389"><ele>1878.0</ele><time>2026-04-16T00:33:24Z</time></trkpt><trkpt lat="36.86221550301923" lon="-108.09540855256893"><ele>1878.0000000000002</ele><time>2026-04-16T00:33:25Z</time></trkpt><trkpt lat="36.86211864735078" lon="-108.09540964904973"><ele>1878.0000000000002</ele><time>2026-04-16T00:33:26Z</time></trkpt><trkpt lat="36.8620200505961" lon="-108.0953843631527"><ele>1878.0</ele><time>2026-04-16T00:33:27Z</time></trkpt><trkpt lat="36.861924714453515" lon="-108.09532035878321"><ele>1878.0</ele><time>2026-04-16T00:33:28Z</time></trkpt><trkpt lat="36.8618207275893" lon="-108.09526187243893"><ele>1878.0</ele><time>2026-04-16T00:33:29Z</time></trkpt><trkpt lat="36.86173622157849" lon="-108.0952106917211"><ele>1878.0</ele><time>2026-04-16T00:33:30Z</time></trkpt><trkpt lat="36.86166790122968" lon="-108.09516922860796"><ele>1878.0</ele><time>2026-04-16T00:33:31Z</time></trkpt><trkpt lat="36.86160087539772" lon="-108.09514649018837"><ele>1878.0</ele><time>2026-04-16T00:33:32Z</time></trkpt><trkpt lat="36.86153469006395" lon="-108.09515170411028"><ele>1878.0</ele><time>2026-04-16T00:33:33Z</time></trkpt><trkpt lat="36.86147793074313" lon="-108.09511593689629"><ele>1878.0</ele><time>2026-04-16T00:33:34Z</time></trkpt><trkpt lat="36.86141812385555" lon="-108.09505215569864"><ele>1878.0</ele><time>2026-04-16T00:33:35Z</time></trkpt><trkpt lat="36.861265819865196" lon="-108.09507293389966"><ele>1878.0</ele><time>2026-04-16T00:33:37Z</time></trkpt><trkpt lat="36.861188695523516" lon="-108.0950491906939"><ele>1878.0</ele><time>2026-04-16T00:33:38Z</time></trkpt><trkpt lat="36.86110591430035" lon="-108.09502842350027"><ele>1878.0</ele><time>2026-04-16T00:33:39.001Z</time></trkpt><trkpt lat="36.86102099835681" lon="-108.09504219753576"><ele>1878.0</ele><time>2026-04-16T00:33:40.001Z</time></trkpt><trkpt lat="36.86095037284181" lon="-108.0950291411123"><ele>1878.0</ele><time>2026-04-16T00:33:41.001Z</time></trkpt><trkpt lat="36.86085138848671" lon="-108.09498696878495"><ele>1878.0</ele><time>2026-04-16T00:33:42.001Z</time></trkpt><trkpt lat="36.860770487748134" lon="-108.09495996903412"><ele>1876.8333333333333</ele><time>2026-04-16T00:33:43.001Z</time></trkpt><trkpt lat="36.860701235986994" lon="-108.0949333039301"><ele>1875.6666666666665</ele><time>2026-04-16T00:33:44.001Z</time></trkpt><trkpt lat="36.86062004502063" lon="-108.09486498503236"><ele>1874.5</ele><time>2026-04-16T00:33:45.001Z</time></trkpt><trkpt lat="36.86055724524433" lon="-108.09485152678977"><ele>1873.3333333333333</ele><time>2026-04-16T00:33:46.001Z</time></trkpt><trkpt lat="36.86044589873048" lon="-108.09481757007094"><ele>1872.1666666666665</ele><time>2026-04-16T00:33:48.001Z</time></trkpt><trkpt lat="36.86040232916158" lon="-108.0947299681827"><ele>1871.0</ele><time>2026-04-16T00:33:49.001Z</time></trkpt><trkpt lat="36.86037650865649" lon="-108.0946342896399"><ele>1870.8</ele><time>2026-04-16T00:33:51.001Z</time></trkpt><trkpt lat="36.86027327528906" lon="-108.09465674070933"><ele>1870.6</ele><time>2026-04-16T00:33:53.001Z</time></trkpt><trkpt lat="36.86014814419908" lon="-108.09467154883362"><ele>1870.4</ele><time>2026-04-16T00:33:55.001Z</time></trkpt><trkpt lat="36.86004731301331" lon="-108.09465744832414"><ele>1870.2</ele><time>2026-04-16T00:33:56.001Z</time></trkpt><trkpt lat="36.859942067275156" lon="-108.0946532619566"><ele>1870.0</ele><time>2026-04-16T00:33:57.001Z</time></trkpt><trkpt lat="36.85984455636952" lon="-108.0947515566679"><ele>1869.0</ele><time>2026-04-16T00:33:59.001Z</time></trkpt><trkpt lat="36.859791125437454" lon="-108.0948195753555"><ele>1868.0</ele><time>2026-04-16T00:34:00.001Z</time></trkpt><trkpt lat="36.85970540323715" lon="-108.09484964551423"><ele>1867.0</ele><time>2026-04-16T00:34:02.001Z</time></trkpt><trkpt lat="36.85962877432995" lon="-108.09480180947034"><ele>1866.0</ele><time>2026-04-16T00:34:03.001Z</time></trkpt><trkpt lat="36.85952264101005" lon="-108.09479849135798"><ele>1865.0</ele><time>2026-04-16T00:34:04.001Z</time></trkpt><trkpt lat="36.85942515252107" lon="-108.09483993287601"><ele>1865.0</ele><time>2026-04-16T00:34:05.001Z</time></trkpt><trkpt lat="36.85928924610277" lon="-108.0948668734255"><ele>1865.0</ele><time>2026-04-16T00:34:07.001Z</time></trkpt><trkpt lat="36.85920260811202" lon="-108.09488415425062"><ele>1865.0</ele><time>2026-04-16T00:34:08.001Z</time></trkpt><trkpt lat="36.85912930032932" lon="-108.09492810367155"><ele>1865.0</ele><time>2026-04-16T00:34:09.001Z</time></trkpt><trkpt lat="36.85906280334778" lon="-108.0949676164306"><ele>1865.0</ele><time>2026-04-16T00:34:10.001Z</time></trkpt><trkpt lat="36.85897848996284" lon="-108.09500545120653"><ele>1865.9999999999998</ele><time>2026-04-16T00:34:11.001Z</time></trkpt><trkpt lat="36.85890703950755" lon="-108.09505920871825"><ele>1867.0</ele><time>2026-04-16T00:34:12.001Z</time></trkpt><trkpt lat="36.85884289481711" lon="-108.09512514352815"><ele>1868.0</ele><time>2026-04-16T00:34:13.001Z</time></trkpt><trkpt lat="36.858771183089885" lon="-108.09518055733346"><ele>1869.0</ele><time>2026-04-16T00:34:14.001Z</time></trkpt><trkpt lat="36.85869971044993" lon="-108.09523868533395"><ele>1869.9999999999998</ele><time>2026-04-16T00:34:15.001Z</time></trkpt><trkpt lat="36.858639059372216" lon="-108.09528155450778"><ele>1871.0</ele><time>2026-04-16T00:34:16.001Z</time></trkpt><trkpt lat="36.85857170658935" lon="-108.09533397408472"><ele>1871.0</ele><time>2026-04-16T00:34:17.001Z</time></trkpt><trkpt lat="36.858498609964364" lon="-108.09538131214585"><ele>1871.0</ele><time>2026-04-16T00:34:18.001Z</time></trkpt><trkpt lat="36.85844370854331" lon="-108.09543161778257"><ele>1871.0</ele><time>2026-04-16T00:34:19.001Z</time></trkpt><trkpt lat="36.85839162226275" lon="-108.09548977090664"><ele>1871.0</ele><time>2026-04-16T00:34:20.001Z</time></trkpt><trkpt lat="36.85834390224057" lon="-108.0955501803376"><ele>1871.0</ele><time>2026-04-16T00:34:21.001Z</time></trkpt><trkpt lat="36.85828831870667" lon="-108.0956095470197"><ele>1871.0</ele><time>2026-04-16T00:34:22.001Z</time></trkpt><trkpt lat="36.858215649220035" lon="-108.09565599256953"><ele>1871.0</ele><time>2026-04-16T00:34:24.001Z</time></trkpt><trkpt lat="36.85810204060354" lon="-108.09571803795058"><ele>1871.5</ele><time>2026-04-16T00:34:26.001Z</time></trkpt><trkpt lat="36.858003309907716" lon="-108.09574997717455"><ele>1872.0</ele><time>2026-04-16T00:34:27.001Z</time></trkpt><trkpt lat="36.85790615065741" lon="-108.09576947995653"><ele>1872.5</ele><time>2026-04-16T00:34:28.001Z</time></trkpt><trkpt lat="36.85781980553168" lon="-108.09587828442581"><ele>1873.0</ele><time>2026-04-16T00:34:30.001Z</time></trkpt><trkpt lat="36.85770486096664" lon="-108.09596368247495"><ele>1874.1666666666667</ele><time>2026-04-16T00:34:32.001Z</time></trkpt><trkpt lat="36.85761777657698" lon="-108.0959834160887"><ele>1875.3333333333335</ele><time>2026-04-16T00:34:33.001Z</time></trkpt><trkpt lat="36.857518063422894" lon="-108.09598403929415"><ele>1876.5</ele><time>2026-04-16T00:34:34.001Z</time></trkpt><trkpt lat="36.85744489301004" lon="-108.09597266424612"><ele>1877.6666666666665</ele><time>2026-04-16T00:34:35.001Z</time></trkpt><trkpt lat="36.85738034875682" lon="-108.09595318002718"><ele>1878.8333333333333</ele><time>2026-04-16T00:34:36.001Z</time></trkpt><trkpt lat="36.857309747513305" lon="-108.09596131351692"><ele>1880.0</ele><time>2026-04-16T00:34:37.001Z</time></trkpt><trkpt lat="36.857237422295746" lon="-108.09598717591847"><ele>1879.9999999999998</ele><time>2026-04-16T00:34:38.001Z</time></trkpt><trkpt lat="36.857123853064486" lon="-108.09600804430156"><ele>1880.0</ele><time>2026-04-16T00:34:40.001Z</time></trkpt><trkpt lat="36.85703558408029" lon="-108.09601816913032"><ele>1880.0</ele><time>2026-04-16T00:34:41.001Z</time></trkpt><trkpt lat="36.85696434466345" lon="-108.09605971514667"><ele>1880.0</ele><time>2026-04-16T00:34:42.001Z</time></trkpt><trkpt lat="36.856896617723" lon="-108.09606185641901"><ele>1879.9999999999998</ele><time>2026-04-16T00:34:43.001Z</time></trkpt><trkpt lat="36.856808922617454" lon="-108.09604838745146"><ele>1880.0</ele><time>2026-04-16T00:34:44.001Z</time></trkpt><trkpt lat="36.85672619790066" lon="-108.0960664181815"><ele>1879.2</ele><time>2026-04-16T00:34:45.001Z</time></trkpt><trkpt lat="36.85661485965564" lon="-108.09610108071146"><ele>1878.4</ele><time>2026-04-16T00:34:47.001Z</time></trkpt><trkpt lat="36.85653855596013" lon="-108.0961267957991"><ele>1877.6</ele><time>2026-04-16T00:34:48.001Z</time></trkpt><trkpt lat="36.85643215527753" lon="-108.09615422916859"><ele>1876.8</ele><time>2026-04-16T00:34:50.001Z</time></trkpt><trkpt lat="36.8563184449715" lon="-108.09616544745211"><ele>1876.0</ele><time>2026-04-16T00:34:52.001Z</time></trkpt><trkpt lat="36.85625175940836" lon="-108.09612780672286"><ele>1876.0</ele><time>2026-04-16T00:34:54.001Z</time></trkpt><trkpt lat="36.85623423160583" lon="-108.095993054586"><ele>1876.0</ele><time>2026-04-16T00:34:56.001Z</time></trkpt><trkpt lat="36.85623424228898" lon="-108.09590114972903"><ele>1876.0</ele><time>2026-04-16T00:34:58.001Z</time></trkpt><trkpt lat="36.85616789538049" lon="-108.09567452117483"><ele>1876.0</ele><time>2026-04-16T00:35:00.001Z</time></trkpt><trkpt lat="36.85612965891095" lon="-108.09559438155432"><ele>1875.6666666666667</ele><time>2026-04-16T00:35:01.001Z</time></trkpt><trkpt lat="36.85607374656124" lon="-108.09555499726389"><ele>1875.3333333333335</ele><time>2026-04-16T00:35:02.001Z</time></trkpt><trkpt lat="36.85600688390208" lon="-108.09550565279883"><ele>1875.0</ele><time>2026-04-16T00:35:03.001Z</time></trkpt><trkpt lat="36.85592391004338" lon="-108.09543002152756"><ele>1874.6666666666665</ele><time>2026-04-16T00:35:04.002Z</time></trkpt><trkpt lat="36.85585982007938" lon="-108.09535390694707"><ele>1874.3333333333333</ele><time>2026-04-16T00:35:05.002Z</time></trkpt><trkpt lat="36.85581099668177" lon="-108.0953020901706"><ele>1874.0</ele><time>2026-04-16T00:35:06.002Z</time></trkpt><trkpt lat="36.855757711348666" lon="-108.09524733969322"><ele>1872.8333333333333</ele><time>2026-04-16T00:35:07.002Z</time></trkpt><trkpt lat="36.85571508703723" lon="-108.09518728489968"><ele>1871.6666666666665</ele><time>2026-04-16T00:35:08.002Z</time></trkpt><trkpt lat="36.85564817217166" lon="-108.09515848379446"><ele>1870.5</ele><time>2026-04-16T00:35:09.002Z</time></trkpt><trkpt lat="36.855583592481906" lon="-108.09511764161297"><ele>1869.3333333333335</ele><time>2026-04-16T00:35:10.002Z</time></trkpt><trkpt lat="36.855494581787624" lon="-108.09506458308776"><ele>1868.1666666666667</ele><time>2026-04-16T00:35:11.002Z</time></trkpt><trkpt lat="36.85542279404464" lon="-108.09503093181338"><ele>1867.0</ele><time>2026-04-16T00:35:12Z</time></trkpt><trkpt lat="36.85535655391623" lon="-108.09501217640248"><ele>1866.8</ele><time>2026-04-16T00:35:13Z</time></trkpt><trkpt lat="36.85525812636423" lon="-108.09490178365711"><ele>1866.6</ele><time>2026-04-16T00:35:15Z</time></trkpt><trkpt lat="36.855201672277154" lon="-108.09484657426617"><ele>1866.3999999999999</ele><time>2026-04-16T00:35:16Z</time></trkpt><trkpt lat="36.85507706951564" lon="-108.09486221320475"><ele>1866.1999999999998</ele><time>2026-04-16T00:35:18Z</time></trkpt><trkpt lat="36.85498404268652" lon="-108.09491543505847"><ele>1866.0</ele><time>2026-04-16T00:35:19Z</time></trkpt><trkpt lat="36.85488336710876" lon="-108.09496031467913"><ele>1865.1666666666667</ele><time>2026-04-16T00:35:21Z</time></trkpt><trkpt lat="36.85480869463107" lon="-108.09494559231275"><ele>1864.3333333333335</ele><time>2026-04-16T00:35:22Z</time></trkpt><trkpt lat="36.854734409250085" lon="-108.09495837385242"><ele>1863.5</ele><time>2026-04-16T00:35:23Z</time></trkpt><trkpt lat="36.854662455757115" lon="-108.09496460741836"><ele>1862.6666666666667</ele><time>2026-04-16T00:35:24Z</time></trkpt><trkpt lat="36.854580012138506" lon="-108.09498276717515"><ele>1861.8333333333335</ele><time>2026-04-16T00:35:26Z</time></trkpt><trkpt lat="36.85451188472942" lon="-108.09484304063322"><ele>1861.0</ele><time>2026-04-16T00:35:28Z</time></trkpt><trkpt lat="36.85440043359618" lon="-108.09478832057368"><ele>1861.0</ele><time>2026-04-16T00:35:30Z</time></trkpt><trkpt lat="36.85430657028755" lon="-108.0947924831144"><ele>1861.0</ele><time>2026-04-16T00:35:31Z</time></trkpt><trkpt lat="36.854214075222316" lon="-108.09480416964597"><ele>1861.0</ele><time>2026-04-16T00:35:32Z</time></trkpt><trkpt lat="36.854129860389435" lon="-108.0948207814952"><ele>1861.0</ele><time>2026-04-16T00:35:33Z</time></trkpt><trkpt lat="36.854064723321194" lon="-108.09487352272251"><ele>1861.0</ele><time>2026-04-16T00:35:34Z</time></trkpt><trkpt lat="36.853974157040994" lon="-108.09494356958545"><ele>1859.6666666666667</ele><time>2026-04-16T00:35:35Z</time></trkpt><trkpt lat="36.85388435610915" lon="-108.09499703548327"><ele>1858.3333333333335</ele><time>2026-04-16T00:35:36Z</time></trkpt><trkpt lat="36.85379926117574" lon="-108.09502447464943"><ele>1857.0</ele><time>2026-04-16T00:35:37Z</time></trkpt><trkpt lat="36.85372836016184" lon="-108.0950471031776"><ele>1855.6666666666665</ele><time>2026-04-16T00:35:38Z</time></trkpt><trkpt lat="36.85365295533365" lon="-108.09509883915047"><ele>1854.3333333333333</ele><time>2026-04-16T00:35:39Z</time></trkpt><trkpt lat="36.85357196827349" lon="-108.0951614030519"><ele>1853.0</ele><time>2026-04-16T00:35:40Z</time></trkpt><trkpt lat="36.85346818878054" lon="-108.09524660176231"><ele>1851.6000000000001</ele><time>2026-04-16T00:35:41Z</time></trkpt><trkpt lat="36.853375520291706" lon="-108.09538055983289"><ele>1850.2000000000003</ele><time>2026-04-16T00:35:43Z</time></trkpt><trkpt lat="36.8532413467386" lon="-108.09542609586609"><ele>1848.8</ele><time>2026-04-16T00:35:45.001Z</time></trkpt><trkpt lat="36.853170427274875" lon="-108.09549117344153"><ele>1847.4</ele><time>2026-04-16T00:35:46.001Z</time></trkpt><trkpt lat="36.85312801536519" lon="-108.09555089780581"><ele>1846.0</ele><time>2026-04-16T00:35:47.001Z</time></trkpt><trkpt lat="36.853007191589484" lon="-108.09559380772917"><ele>1846.0</ele><time>2026-04-16T00:35:49.001Z</time></trkpt><trkpt lat="36.85294503748358" lon="-108.09557932235867"><ele>1846.0</ele><time>2026-04-16T00:35:50.001Z</time></trkpt><trkpt lat="36.852891438307246" lon="-108.09541076595914"><ele>1846.0</ele><time>2026-04-16T00:35:52.001Z</time></trkpt><trkpt lat="36.852861366344285" lon="-108.09530745521263"><ele>1846.0</ele><time>2026-04-16T00:35:53.001Z</time></trkpt><trkpt lat="36.85274721641452" lon="-108.09520943744363"><ele>1846.0</ele><time>2026-04-16T00:35:55.001Z</time></trkpt><trkpt lat="36.85267556477615" lon="-108.09515722426464"><ele>1845.0000000000002</ele><time>2026-04-16T00:35:56.001Z</time></trkpt><trkpt lat="36.852589346158354" lon="-108.09510867745121"><ele>1844.0</ele><time>2026-04-16T00:35:57.001Z</time></trkpt><trkpt lat="36.85252146071946" lon="-108.09503933408239"><ele>1843.0</ele><time>2026-04-16T00:35:58.001Z</time></trkpt><trkpt lat="36.85247047162132" lon="-108.09495203152555"><ele>1842.0</ele><time>2026-04-16T00:35:59.001Z</time></trkpt><trkpt lat="36.852412954359906" lon="-108.09487570510387"><ele>1841.0000000000002</ele><time>2026-04-16T00:36:00.001Z</time></trkpt><trkpt lat="36.852333028382084" lon="-108.09485226926522"><ele>1840.0</ele><time>2026-04-16T00:36:01.001Z</time></trkpt><trkpt lat="36.85223883255118" lon="-108.0947820626001"><ele>1840.0</ele><time>2026-04-16T00:36:03.001Z</time></trkpt><trkpt lat="36.852219411750475" lon="-108.09462175546466"><ele>1840.0</ele><time>2026-04-16T00:36:05.001Z</time></trkpt><trkpt lat="36.85221944595476" lon="-108.09450338840588"><ele>1840.0</ele><time>2026-04-16T00:36:06.001Z</time></trkpt><trkpt lat="36.85220909548822" lon="-108.09441587661863"><ele>1840.0</ele><time>2026-04-16T00:36:07.001Z</time></trkpt><trkpt lat="36.852122342353574" lon="-108.09434487289786"><ele>1840.0</ele><time>2026-04-16T00:36:09.001Z</time></trkpt><trkpt lat="36.85206903269687" lon="-108.09439652011035"><ele>1840.0</ele><time>2026-04-16T00:36:10.001Z</time></trkpt><trkpt lat="36.852012925035105" lon="-108.09443872681177"><ele>1840.0</ele><time>2026-04-16T00:36:11.001Z</time></trkpt><trkpt lat="36.8519288346489" lon="-108.09446317634777"><ele>1840.0</ele><time>2026-04-16T00:36:12.001Z</time></trkpt><trkpt lat="36.85182721178933" lon="-108.09451576742444"><ele>1840.0</ele><time>2026-04-16T00:36:13.001Z</time></trkpt><trkpt lat="36.851723941815514" lon="-108.09459515777029"><ele>1840.0</ele><time>2026-04-16T00:36:14.001Z</time></trkpt><trkpt lat="36.851634605414766" lon="-108.09468716172293"><ele>1839.4</ele><time>2026-04-16T00:36:15.001Z</time></trkpt><trkpt lat="36.85155590703823" lon="-108.09474675041652"><ele>1838.8</ele><time>2026-04-16T00:36:16.001Z</time></trkpt><trkpt lat="36.85149489718552" lon="-108.09476978147903"><ele>1838.1999999999998</ele><time>2026-04-16T00:36:17.001Z</time></trkpt><trkpt lat="36.85139388724446" lon="-108.09477744799948"><ele>1837.6</ele><time>2026-04-16T00:36:18.001Z</time></trkpt><trkpt lat="36.85126477530127" lon="-108.09480391130936"><ele>1837.0</ele><time>2026-04-16T00:36:19.001Z</time></trkpt><trkpt lat="36.851155773354556" lon="-108.09484083098401"><ele>1837.0</ele><time>2026-04-16T00:36:20.001Z</time></trkpt><trkpt lat="36.85103989720322" lon="-108.09485800950297"><ele>1837.0</ele><time>2026-04-16T00:36:21.001Z</time></trkpt><trkpt lat="36.850954603805626" lon="-108.09486430627038"><ele>1837.0</ele><time>2026-04-16T00:36:22.001Z</time></trkpt><trkpt lat="36.850901981650495" lon="-108.09503150609738"><ele>1837.0</ele><time>2026-04-16T00:36:24.001Z</time></trkpt><trkpt lat="36.85087414624221" lon="-108.09517204673847"><ele>1836.0</ele><time>2026-04-16T00:36:25.001Z</time></trkpt><trkpt lat="36.85084749671919" lon="-108.09530017958313"><ele>1834.9999999999998</ele><time>2026-04-16T00:36:26.001Z</time></trkpt><trkpt lat="36.85082636423722" lon="-108.0954045859966"><ele>1833.9999999999998</ele><time>2026-04-16T00:36:27.001Z</time></trkpt><trkpt lat="36.85080411695778" lon="-108.09550157562892"><ele>1833.0</ele><time>2026-04-16T00:36:28.001Z</time></trkpt><trkpt lat="36.85077408050371" lon="-108.09561523827381"><ele>1832.0</ele><time>2026-04-16T00:36:29.001Z</time></trkpt><trkpt lat="36.85074908325223" lon="-108.09573462347683"><ele>1830.3999999999999</ele><time>2026-04-16T00:36:30.001Z</time></trkpt><trkpt lat="36.85070927467928" lon="-108.09580824875322"><ele>1828.7999999999997</ele><time>2026-04-16T00:36:31.001Z</time></trkpt><trkpt lat="36.85062541530631" lon="-108.09587012328812"><ele>1827.2</ele><time>2026-04-16T00:36:33.001Z</time></trkpt><trkpt lat="36.850563110837356" lon="-108.09590135454212"><ele>1825.6</ele><time>2026-04-16T00:36:34.001Z</time></trkpt><trkpt lat="36.850500639302716" lon="-108.09591392929242"><ele>1824.0</ele><time>2026-04-16T00:36:35.001Z</time></trkpt><trkpt lat="36.85042780427483" lon="-108.09608268627805"><ele>1824.0</ele><time>2026-04-16T00:36:37.001Z</time></trkpt><trkpt lat="36.85040805879081" lon="-108.09620441326048"><ele>1824.0</ele><time>2026-04-16T00:36:38.001Z</time></trkpt><trkpt lat="36.8503700902111" lon="-108.09627280081858"><ele>1824.0</ele><time>2026-04-16T00:36:39.001Z</time></trkpt><trkpt lat="36.85029906570458" lon="-108.09632769634044"><ele>1824.0</ele><time>2026-04-16T00:36:40.001Z</time></trkpt><trkpt lat="36.85023611179099" lon="-108.09640581378697"><ele>1824.0</ele><time>2026-04-16T00:36:41.001Z</time></trkpt><trkpt lat="36.85020484710797" lon="-108.09647789122162"><ele>1824.0</ele><time>2026-04-16T00:36:42.001Z</time></trkpt><trkpt lat="36.85017802804803" lon="-108.09658013665374"><ele>1823.6</ele><time>2026-04-16T00:36:43.001Z</time></trkpt><trkpt lat="36.85015037157278" lon="-108.09669683843926"><ele>1823.2</ele><time>2026-04-16T00:36:44.001Z</time></trkpt><trkpt lat="36.85011583433129" lon="-108.09683237680787"><ele>1822.7999999999997</ele><time>2026-04-16T00:36:45.001Z</time></trkpt><trkpt lat="36.850090841706994" lon="-108.0969590373427"><ele>1822.3999999999999</ele><time>2026-04-16T00:36:46.001Z</time></trkpt><trkpt lat="36.850049777406674" lon="-108.09706845989656"><ele>1822.0</ele><time>2026-04-16T00:36:47.001Z</time></trkpt><trkpt lat="36.85000826031542" lon="-108.0972123843582"><ele>1821.6</ele><time>2026-04-16T00:36:48.001Z</time></trkpt><trkpt lat="36.850018044397885" lon="-108.09731086354228"><ele>1821.1999999999998</ele><time>2026-04-16T00:36:49.001Z</time></trkpt><trkpt lat="36.84993039490647" lon="-108.09742355405388"><ele>1820.8</ele><time>2026-04-16T00:36:51.001Z</time></trkpt><trkpt lat="36.84983002336478" lon="-108.09746192217975"><ele>1820.4</ele><time>2026-04-16T00:36:52.001Z</time></trkpt><trkpt lat="36.84970698669975" lon="-108.09750473846086"><ele>1820.0</ele><time>2026-04-16T00:36:53.001Z</time></trkpt><trkpt lat="36.84957453085115" lon="-108.09754445230296"><ele>1818.6</ele><time>2026-04-16T00:36:54.001Z</time></trkpt><trkpt lat="36.84942540988621" lon="-108.09759312125935"><ele>1817.2</ele><time>2026-04-16T00:36:55.001Z</time></trkpt><trkpt lat="36.84931704530077" lon="-108.09762707103869"><ele>1815.8000000000002</ele><time>2026-04-16T00:36:56.001Z</time></trkpt><trkpt lat="36.849219717460535" lon="-108.09763259763685"><ele>1814.4</ele><time>2026-04-16T00:36:57.001Z</time></trkpt><trkpt lat="36.849136257231926" lon="-108.09762814605642"><ele>1813.0</ele><time>2026-04-16T00:36:58.001Z</time></trkpt><trkpt lat="36.84904413635169" lon="-108.09764374314157"><ele>1813.0</ele><time>2026-04-16T00:37:00.001Z</time></trkpt><trkpt lat="36.84904832904382" lon="-108.09783348570832"><ele>1813.0000000000002</ele><time>2026-04-16T00:37:02.001Z</time></trkpt><trkpt lat="36.84903827059446" lon="-108.09793876358209"><ele>1813.0000000000002</ele><time>2026-04-16T00:37:03.001Z</time></trkpt><trkpt lat="36.84899369287047" lon="-108.09802898064842"><ele>1813.0</ele><time>2026-04-16T00:37:05.001Z</time></trkpt><trkpt lat="36.848929999235885" lon="-108.09804689321265"><ele>1813.0</ele><time>2026-04-16T00:37:06.001Z</time></trkpt><trkpt lat="36.84885052131737" lon="-108.09805599499545"><ele>1813.0000000000002</ele><time>2026-04-16T00:37:07.001Z</time></trkpt><trkpt lat="36.84875645562657" lon="-108.09806910074744"><ele>1813.0</ele><time>2026-04-16T00:37:08.001Z</time></trkpt><trkpt lat="36.84864962591109" lon="-108.09808735262936"><ele>1813.0</ele><time>2026-04-16T00:37:09.001Z</time></trkpt><trkpt lat="36.848564867016584" lon="-108.09809268447528"><ele>1813.0</ele><time>2026-04-16T00:37:10.002Z</time></trkpt><trkpt lat="36.848499745950875" lon="-108.09809435753729"><ele>1813.0000000000002</ele><time>2026-04-16T00:37:11.002Z</time></trkpt><trkpt lat="36.848436775887485" lon="-108.09812934294365"><ele>1813.0</ele><time>2026-04-16T00:37:12.002Z</time></trkpt><trkpt lat="36.84833840908761" lon="-108.09819423738202"><ele>1812.4</ele><time>2026-04-16T00:37:13.002Z</time></trkpt><trkpt lat="36.848220920658925" lon="-108.0982443210128"><ele>1811.8000000000002</ele><time>2026-04-16T00:37:14.002Z</time></trkpt><trkpt lat="36.84813798144248" lon="-108.09829205031775"><ele>1811.2</ele><time>2026-04-16T00:37:15.002Z</time></trkpt><trkpt lat="36.84806191586806" lon="-108.09835987838498"><ele>1810.6</ele><time>2026-04-16T00:37:16.002Z</time></trkpt><trkpt lat="36.84796186728278" lon="-108.0984392226301"><ele>1810.0</ele><time>2026-04-16T00:37:17.002Z</time></trkpt><trkpt lat="36.84787725669464" lon="-108.09848337773082"><ele>1809.25</ele><time>2026-04-16T00:37:18Z</time></trkpt><trkpt lat="36.84782484914182" lon="-108.09855157726965"><ele>1808.5</ele><time>2026-04-16T00:37:19Z</time></trkpt><trkpt lat="36.84774576052457" lon="-108.09866562541285"><ele>1807.75</ele><time>2026-04-16T00:37:20Z</time></trkpt><trkpt lat="36.847647488215266" lon="-108.09879707589128"><ele>1807.0</ele><time>2026-04-16T00:37:21Z</time></trkpt><trkpt lat="36.84755965832292" lon="-108.09892491547106"><ele>1806.5</ele><time>2026-04-16T00:37:22Z</time></trkpt><trkpt lat="36.84749947976411" lon="-108.09905940336967"><ele>1806.0</ele><time>2026-04-16T00:37:23Z</time></trkpt><trkpt lat="36.84745202963501" lon="-108.09919701091599"><ele>1805.5</ele><time>2026-04-16T00:37:24Z</time></trkpt><trkpt lat="36.84739243145604" lon="-108.09930994974435"><ele>1805.0</ele><time>2026-04-16T00:37:25Z</time></trkpt><trkpt lat="36.84730746085874" lon="-108.09941690648958"><ele>1804.3333333333333</ele><time>2026-04-16T00:37:26Z</time></trkpt><trkpt lat="36.847183213196956" lon="-108.09952004010206"><ele>1803.6666666666665</ele><time>2026-04-16T00:37:27Z</time></trkpt><trkpt lat="36.8470390770295" lon="-108.09963823985484"><ele>1803.0</ele><time>2026-04-16T00:37:28Z</time></trkpt><trkpt lat="36.846937579670275" lon="-108.0997410604434"><ele>1803.0</ele><time>2026-04-16T00:37:29Z</time></trkpt><trkpt lat="36.8468792199381" lon="-108.09983880705647"><ele>1803.0</ele><time>2026-04-16T00:37:30Z</time></trkpt><trkpt lat="36.846837863991624" lon="-108.0999602729413"><ele>1803.0</ele><time>2026-04-16T00:37:31Z</time></trkpt><trkpt lat="36.84679420463821" lon="-108.10007308649712"><ele>1803.0</ele><time>2026-04-16T00:37:32Z</time></trkpt><trkpt lat="36.84674352433833" lon="-108.10014662882372"><ele>1803.0</ele><time>2026-04-16T00:37:33Z</time></trkpt><trkpt lat="36.846689398449875" lon="-108.10019092172288"><ele>1803.0</ele><time>2026-04-16T00:37:34Z</time></trkpt><trkpt lat="36.84661362365814" lon="-108.10018726208811"><ele>1802.75</ele><time>2026-04-16T00:37:35Z</time></trkpt><trkpt lat="36.84649948955644" lon="-108.10016058348371"><ele>1802.5</ele><time>2026-04-16T00:37:36Z</time></trkpt><trkpt lat="36.84635908853238" lon="-108.10012035013311"><ele>1802.25</ele><time>2026-04-16T00:37:37Z</time></trkpt><trkpt lat="36.84623862808256" lon="-108.10009643870676"><ele>1802.0</ele><time>2026-04-16T00:37:38Z</time></trkpt><trkpt lat="36.84614953720667" lon="-108.10005956440435"><ele>1801.9999999999998</ele><time>2026-04-16T00:37:39Z</time></trkpt><trkpt lat="36.846057024288676" lon="-108.10002437449197"><ele>1802.0</ele><time>2026-04-16T00:37:40Z</time></trkpt><trkpt lat="36.84597239240545" lon="-108.10000961245875"><ele>1802.0</ele><time>2026-04-16T00:37:41Z</time></trkpt><trkpt lat="36.84591035998306" lon="-108.09998427267384"><ele>1802.0</ele><time>2026-04-16T00:37:42Z</time></trkpt><trkpt lat="36.84585445791261" lon="-108.09991426596063"><ele>1801.9999999999998</ele><time>2026-04-16T00:37:43Z</time></trkpt><trkpt lat="36.845805182981344" lon="-108.09984954282466"><ele>1802.0</ele><time>2026-04-16T00:37:44Z</time></trkpt><trkpt lat="36.84569853040155" lon="-108.09987752615055"><ele>1801.8</ele><time>2026-04-16T00:37:46Z</time></trkpt><trkpt lat="36.84561188142989" lon="-108.09996365663264"><ele>1801.6</ele><time>2026-04-16T00:37:47Z</time></trkpt><trkpt lat="36.84550950631842" lon="-108.10005771183258"><ele>1801.3999999999999</ele><time>2026-04-16T00:37:48Z</time></trkpt><trkpt lat="36.84542939574427" lon="-108.100123738162"><ele>1801.1999999999998</ele><time>2026-04-16T00:37:49Z</time></trkpt><trkpt lat="36.845340524303055" lon="-108.1001633492794"><ele>1801.0</ele><time>2026-04-16T00:37:50.001Z</time></trkpt><trkpt lat="36.84525371192275" lon="-108.10020967784577"><ele>1801.0</ele><time>2026-04-16T00:37:51.001Z</time></trkpt><trkpt lat="36.8451417505049" lon="-108.10018619099233"><ele>1801.0</ele><time>2026-04-16T00:37:53.001Z</time></trkpt><trkpt lat="36.84503093135185" lon="-108.10019835729122"><ele>1801.0</ele><time>2026-04-16T00:37:54.001Z</time></trkpt><trkpt lat="36.844965415196334" lon="-108.10025010418005"><ele>1801.0</ele><time>2026-04-16T00:37:55.001Z</time></trkpt><trkpt lat="36.844860791346285" lon="-108.10026745773375"><ele>1801.0</ele><time>2026-04-16T00:37:57.001Z</time></trkpt><trkpt lat="36.844799494121524" lon="-108.10019145581566"><ele>1801.8333333333335</ele><time>2026-04-16T00:37:58.001Z</time></trkpt><trkpt lat="36.84473426060881" lon="-108.10012021378928"><ele>1802.6666666666667</ele><time>2026-04-16T00:37:59.001Z</time></trkpt><trkpt lat="36.84466039090013" lon="-108.10004557537064"><ele>1803.5</ele><time>2026-04-16T00:38:00.001Z</time></trkpt><trkpt lat="36.84459349255269" lon="-108.09996777964649"><ele>1804.3333333333335</ele><time>2026-04-16T00:38:01.001Z</time></trkpt><trkpt lat="36.84454977076565" lon="-108.09990130508574"><ele>1805.1666666666667</ele><time>2026-04-16T00:38:02.001Z</time></trkpt><trkpt lat="36.84444913969647" lon="-108.09989823852167"><ele>1806.0</ele><time>2026-04-16T00:38:04.001Z</time></trkpt><trkpt lat="36.8443680810446" lon="-108.09994522227035"><ele>1806.0</ele><time>2026-04-16T00:38:05.001Z</time></trkpt><trkpt lat="36.84431410505915" lon="-108.09999485151603"><ele>1806.0</ele><time>2026-04-16T00:38:06.001Z</time></trkpt><trkpt lat="36.84424896927304" lon="-108.10005997739671"><ele>1806.0</ele><time>2026-04-16T00:38:07.001Z</time></trkpt><trkpt lat="36.84417404233872" lon="-108.10010857425088"><ele>1806.0</ele><time>2026-04-16T00:38:08.001Z</time></trkpt><trkpt lat="36.84405018160408" lon="-108.10015923560283"><ele>1806.0</ele><time>2026-04-16T00:38:10.001Z</time></trkpt><trkpt lat="36.84399212516135" lon="-108.10021420723587"><ele>1806.0</ele><time>2026-04-16T00:38:11.001Z</time></trkpt><trkpt lat="36.84393343289434" lon="-108.10028766670179"><ele>1806.25</ele><time>2026-04-16T00:38:12.001Z</time></trkpt><trkpt lat="36.84389332687169" lon="-108.10035927376748"><ele>1806.5</ele><time>2026-04-16T00:38:13.001Z</time></trkpt><trkpt lat="36.84376171219501" lon="-108.10046322003411"><ele>1806.75</ele><time>2026-04-16T00:38:15.001Z</time></trkpt><trkpt lat="36.843637525247594" lon="-108.10054513739024"><ele>1807.0</ele><time>2026-04-16T00:38:16.001Z</time></trkpt><trkpt lat="36.8435795654599" lon="-108.10063182920753"><ele>1807.0000000000002</ele><time>2026-04-16T00:38:17.001Z</time></trkpt><trkpt lat="36.84351463273881" lon="-108.10072248460033"><ele>1807.0</ele><time>2026-04-16T00:38:18.001Z</time></trkpt><trkpt lat="36.84347935217789" lon="-108.10084767927924"><ele>1807.0</ele><time>2026-04-16T00:38:20.001Z</time></trkpt><trkpt lat="36.84345241416662" lon="-108.10093677876446"><ele>1807.0</ele><time>2026-04-16T00:38:21.001Z</time></trkpt><trkpt lat="36.843431748741104" lon="-108.1010192120392"><ele>1807.0000000000002</ele><time>2026-04-16T00:38:22.001Z</time></trkpt><trkpt lat="36.84341320365309" lon="-108.1011108319243"><ele>1807.0</ele><time>2026-04-16T00:38:23.001Z</time></trkpt><trkpt lat="36.84340248076113" lon="-108.10120272107753"><ele>1806.5000000000002</ele><time>2026-04-16T00:38:24.001Z</time></trkpt><trkpt lat="36.843422129766125" lon="-108.1013184414335"><ele>1806.0</ele><time>2026-04-16T00:38:25.001Z</time></trkpt><trkpt lat="36.84345191191838" lon="-108.10140360411147"><ele>1805.5</ele><time>2026-04-16T00:38:26.001Z</time></trkpt><trkpt lat="36.84347497605997" lon="-108.10151708706083"><ele>1805.0</ele><time>2026-04-16T00:38:27.001Z</time></trkpt><trkpt lat="36.84347666285902" lon="-108.10162851637408"><ele>1804.5000000000002</ele><time>2026-04-16T00:38:28.001Z</time></trkpt><trkpt lat="36.84345138344174" lon="-108.10172553602585"><ele>1804.0</ele><time>2026-04-16T00:38:29.001Z</time></trkpt><trkpt lat="36.84344854202115" lon="-108.10181628396023"><ele>1802.6</ele><time>2026-04-16T00:38:30.001Z</time></trkpt><trkpt lat="36.84346187045023" lon="-108.1019163089335"><ele>1801.2</ele><time>2026-04-16T00:38:31.001Z</time></trkpt><trkpt lat="36.84347292346722" lon="-108.10203618250098"><ele>1799.7999999999997</ele><time>2026-04-16T00:38:32.001Z</time></trkpt><trkpt lat="36.84345866183396" lon="-108.10212687607866"><ele>1798.3999999999999</ele><time>2026-04-16T00:38:33.001Z</time></trkpt><trkpt lat="36.84340983153568" lon="-108.10228373884348"><ele>1797.0</ele><time>2026-04-16T00:38:35.001Z</time></trkpt><trkpt lat="36.84335852079964" lon="-108.1024154898599"><ele>1795.8</ele><time>2026-04-16T00:38:36.001Z</time></trkpt><trkpt lat="36.84331440660074" lon="-108.10252098656026"><ele>1794.6</ele><time>2026-04-16T00:38:37.001Z</time></trkpt><trkpt lat="36.84329337427371" lon="-108.10263002059433"><ele>1793.3999999999999</ele><time>2026-04-16T00:38:38.001Z</time></trkpt><trkpt lat="36.843260669186265" lon="-108.10274210712195"><ele>1792.1999999999998</ele><time>2026-04-16T00:38:39.001Z</time></trkpt><trkpt lat="36.84320813980662" lon="-108.10293030596013"><ele>1791.0</ele><time>2026-04-16T00:38:40.001Z</time></trkpt><trkpt lat="36.84314701722895" lon="-108.10313940733003"><ele>1789.6666666666665</ele><time>2026-04-16T00:38:41.001Z</time></trkpt><trkpt lat="36.8430812211143" lon="-108.10334808758302"><ele>1788.3333333333333</ele><time>2026-04-16T00:38:42.001Z</time></trkpt><trkpt lat="36.843005476732884" lon="-108.1035958720484"><ele>1787.0</ele><time>2026-04-16T00:38:43.001Z</time></trkpt><trkpt lat="36.842934273902145" lon="-108.10383406471206"><ele>1787.0</ele><time>2026-04-16T00:38:44.001Z</time></trkpt><trkpt lat="36.84286806399688" lon="-108.10405120926593"><ele>1787.0</ele><time>2026-04-16T00:38:45.001Z</time></trkpt><trkpt lat="36.842812347685374" lon="-108.10423255758755"><ele>1787.0</ele><time>2026-04-16T00:38:46.001Z</time></trkpt><trkpt lat="36.842767519330316" lon="-108.10438171825227"><ele>1786.6</ele><time>2026-04-16T00:38:47.001Z</time></trkpt><trkpt lat="36.84274157338101" lon="-108.10448462494288"><ele>1786.1999999999998</ele><time>2026-04-16T00:38:48.001Z</time></trkpt><trkpt lat="36.84271417439433" lon="-108.10461992340825"><ele>1785.8</ele><time>2026-04-16T00:38:49.001Z</time></trkpt><trkpt lat="36.84272376170797" lon="-108.10473534026178"><ele>1785.4</ele><time>2026-04-16T00:38:51.001Z</time></trkpt><trkpt lat="36.84263743149935" lon="-108.10477186979159"><ele>1785.0</ele><time>2026-04-16T00:38:55.001Z</time></trkpt><trkpt lat="36.84255943641473" lon="-108.10480737985438"><ele>1785.0</ele><time>2026-04-16T00:38:57.001Z</time></trkpt><trkpt lat="36.84248308315696" lon="-108.10485488007967"><ele>1785.0</ele><time>2026-04-16T00:38:59.001Z</time></trkpt><trkpt lat="36.8424139827086" lon="-108.10493782840649"><ele>1785.0</ele><time>2026-04-16T00:39:00.001Z</time></trkpt><trkpt lat="36.842344841505835" lon="-108.10498153025645"><ele>1785.0</ele><time>2026-04-16T00:39:01.001Z</time></trkpt><trkpt lat="36.842219411418185" lon="-108.10501226163888"><ele>1785.0</ele><time>2026-04-16T00:39:02.001Z</time></trkpt><trkpt lat="36.84210993141665" lon="-108.10505223950712"><ele>1785.0</ele><time>2026-04-16T00:39:03.001Z</time></trkpt><trkpt lat="36.842029410137116" lon="-108.10510458845506"><ele>1785.0</ele><time>2026-04-16T00:39:04.001Z</time></trkpt><trkpt lat="36.84195866559406" lon="-108.10515259704046"><ele>1785.0</ele><time>2026-04-16T00:39:05.001Z</time></trkpt><trkpt lat="36.841900309924135" lon="-108.10520019508235"><ele>1785.0</ele><time>2026-04-16T00:39:06.001Z</time></trkpt><trkpt lat="36.841878256822476" lon="-108.10528021800094"><ele>1785.0</ele><time>2026-04-16T00:39:08.001Z</time></trkpt><trkpt lat="36.8419513573305" lon="-108.10538609677818"><ele>1785.0</ele><time>2026-04-16T00:39:10.001Z</time></trkpt><trkpt lat="36.84203071076885" lon="-108.10547618069425"><ele>1785.0</ele><time>2026-04-16T00:39:11.001Z</time></trkpt><trkpt lat="36.842123662687264" lon="-108.10557629344038"><ele>1785.0</ele><time>2026-04-16T00:39:12.001Z</time></trkpt><trkpt lat="36.84223118393993" lon="-108.10569936196939"><ele>1785.0</ele><time>2026-04-16T00:39:13.001Z</time></trkpt><trkpt lat="36.84235284771989" lon="-108.10579455505211"><ele>1785.0</ele><time>2026-04-16T00:39:14.002Z</time></trkpt><trkpt lat="36.84242448230889" lon="-108.10587252572164"><ele>1785.3333333333335</ele><time>2026-04-16T00:39:15.002Z</time></trkpt><trkpt lat="36.842487116086886" lon="-108.10594069946039"><ele>1785.6666666666667</ele><time>2026-04-16T00:39:17.002Z</time></trkpt><trkpt lat="36.84251370747711" lon="-108.10603452080329"><ele>1786.0</ele><time>2026-04-16T00:39:19.002Z</time></trkpt><trkpt lat="36.84226894033605" lon="-108.10645100074439"><ele>1786.5</ele><time>2026-04-16T00:39:20.002Z</time></trkpt><trkpt lat="36.84220147227372" lon="-108.10658559129011"><ele>1787.0</ele><time>2026-04-16T00:39:21.002Z</time></trkpt><trkpt lat="36.84210482172392" lon="-108.10669056897757"><ele>1787.5</ele><time>2026-04-16T00:39:22.002Z</time></trkpt><trkpt lat="36.84199069293501" lon="-108.10678681437062"><ele>1788.0</ele><time>2026-04-16T00:39:23.002Z</time></trkpt><trkpt lat="36.841897352167905" lon="-108.10688170326269"><ele>1788.0</ele><time>2026-04-16T00:39:24Z</time></trkpt><trkpt lat="36.8418380852708" lon="-108.10698013429854"><ele>1788.0</ele><time>2026-04-16T00:39:25Z</time></trkpt><trkpt lat="36.841791505578584" lon="-108.1070922781153"><ele>1788.0</ele><time>2026-04-16T00:39:26Z</time></trkpt><trkpt lat="36.841748103325216" lon="-108.10718436214975"><ele>1788.0</ele><time>2026-04-16T00:39:27Z</time></trkpt><trkpt lat="36.84172160714317" lon="-108.1072742420601"><ele>1788.0</ele><time>2026-04-16T00:39:29Z</time></trkpt><trkpt lat="36.84176261758374" lon="-108.10733979954163"><ele>1788.0</ele><time>2026-04-16T00:39:30Z</time></trkpt><trkpt lat="36.84179127316404" lon="-108.1074300514327"><ele>1788.6000000000001</ele><time>2026-04-16T00:39:31Z</time></trkpt><trkpt lat="36.841798402181176" lon="-108.10754573073243"><ele>1789.2000000000003</ele><time>2026-04-16T00:39:32Z</time></trkpt><trkpt lat="36.84182041487208" lon="-108.1076543588206"><ele>1789.8</ele><time>2026-04-16T00:39:33Z</time></trkpt><trkpt lat="36.84183837042059" lon="-108.10775139519276"><ele>1790.4</ele><time>2026-04-16T00:39:34Z</time></trkpt><trkpt lat="36.84189408802666" lon="-108.10786720340015"><ele>1791.0</ele><time>2026-04-16T00:39:36Z</time></trkpt><trkpt lat="36.84198484856557" lon="-108.10790988900038"><ele>1791.0</ele><time>2026-04-16T00:39:37Z</time></trkpt><trkpt lat="36.842074115331464" lon="-108.10796210544771"><ele>1791.0</ele><time>2026-04-16T00:39:38Z</time></trkpt><trkpt lat="36.84214127642011" lon="-108.10802038945575"><ele>1791.0</ele><time>2026-04-16T00:39:39Z</time></trkpt><trkpt lat="36.84224678122149" lon="-108.10812868088284"><ele>1791.0</ele><time>2026-04-16T00:39:41Z</time></trkpt><trkpt lat="36.84235698869302" lon="-108.10820988597071"><ele>1791.0</ele><time>2026-04-16T00:39:42Z</time></trkpt><trkpt lat="36.842451422015515" lon="-108.10827933874315"><ele>1792.3333333333333</ele><time>2026-04-16T00:39:43Z</time></trkpt><trkpt lat="36.84250063622669" lon="-108.10833280699693"><ele>1793.6666666666665</ele><time>2026-04-16T00:39:44Z</time></trkpt><trkpt lat="36.8425045175163" lon="-108.10849036788387"><ele>1795.0</ele><time>2026-04-16T00:39:46Z</time></trkpt><trkpt lat="36.84249731455886" lon="-108.10857943392521"><ele>1796.3333333333333</ele><time>2026-04-16T00:39:47Z</time></trkpt><trkpt lat="36.84246686376354" lon="-108.10866306390596"><ele>1797.6666666666665</ele><time>2026-04-16T00:39:48Z</time></trkpt><trkpt lat="36.84242492856094" lon="-108.1087558217941"><ele>1799.0</ele><time>2026-04-16T00:39:49Z</time></trkpt><trkpt lat="36.84238527685363" lon="-108.10885801611003"><ele>1798.9999999999998</ele><time>2026-04-16T00:39:50Z</time></trkpt><trkpt lat="36.84235064011836" lon="-108.10895865829056"><ele>1799.0</ele><time>2026-04-16T00:39:51Z</time></trkpt><trkpt lat="36.84232344838609" lon="-108.10904485298039"><ele>1799.0</ele><time>2026-04-16T00:39:52Z</time></trkpt><trkpt lat="36.84232208026663" lon="-108.10914653080074"><ele>1799.0</ele><time>2026-04-16T00:39:53Z</time></trkpt><trkpt lat="36.84230658901439" lon="-108.10924972002854"><ele>1798.9999999999998</ele><time>2026-04-16T00:39:54Z</time></trkpt><trkpt lat="36.84226724610727" lon="-108.10933876024315"><ele>1799.0</ele><time>2026-04-16T00:39:55Z</time></trkpt><trkpt lat="36.84222428449589" lon="-108.10942066957725"><ele>1799.6666666666665</ele><time>2026-04-16T00:39:56Z</time></trkpt><trkpt lat="36.84218142398479" lon="-108.10951305680689"><ele>1800.3333333333333</ele><time>2026-04-16T00:40:07.001Z</time></trkpt><trkpt lat="36.842089374189776" lon="-108.10951522515414"><ele>1801.0</ele><time>2026-04-16T00:40:09.001Z</time></trkpt><trkpt lat="36.842012148146424" lon="-108.10949637134398"><ele>1801.6666666666665</ele><time>2026-04-16T00:40:10.001Z</time></trkpt><trkpt lat="36.84193442114281" lon="-108.10945425854685"><ele>1802.3333333333333</ele><time>2026-04-16T00:40:11.001Z</time></trkpt><trkpt lat="36.84184972453673" lon="-108.1093971313651"><ele>1803.0</ele><time>2026-04-16T00:40:12.001Z</time></trkpt><trkpt lat="36.841762985641516" lon="-108.10936035771647"><ele>1803.0</ele><time>2026-04-16T00:40:13.001Z</time></trkpt><trkpt lat="36.84168980735329" lon="-108.10930832868168"><ele>1803.0000000000002</ele><time>2026-04-16T00:40:14.001Z</time></trkpt><trkpt lat="36.841609875089375" lon="-108.10919952564781"><ele>1803.0000000000002</ele><time>2026-04-16T00:40:15.001Z</time></trkpt><trkpt lat="36.841517533982156" lon="-108.1091164198824"><ele>1803.0</ele><time>2026-04-16T00:40:16.001Z</time></trkpt><trkpt lat="36.841437587148945" lon="-108.10907958336091"><ele>1803.0</ele><time>2026-04-16T00:40:17.001Z</time></trkpt><trkpt lat="36.8413219160631" lon="-108.10901447903787"><ele>1801.5</ele><time>2026-04-16T00:40:18.001Z</time></trkpt><trkpt lat="36.84121055001983" lon="-108.10893168330664"><ele>1800.0</ele><time>2026-04-16T00:40:19.001Z</time></trkpt><trkpt lat="36.84113647558158" lon="-108.10883677165376"><ele>1798.5</ele><time>2026-04-16T00:40:20.001Z</time></trkpt><trkpt lat="36.84104879098815" lon="-108.10875087125022"><ele>1797.0</ele><time>2026-04-16T00:40:21.001Z</time></trkpt><trkpt lat="36.84094333704055" lon="-108.108688167568"><ele>1796.8333333333333</ele><time>2026-04-16T00:40:22.001Z</time></trkpt><trkpt lat="36.840873725747535" lon="-108.10868690665363"><ele>1796.6666666666665</ele><time>2026-04-16T00:40:23.001Z</time></trkpt><trkpt lat="36.84076057749773" lon="-108.10873022153466"><ele>1796.5</ele><time>2026-04-16T00:40:25.001Z</time></trkpt><trkpt lat="36.840689120761915" lon="-108.10879248159948"><ele>1796.3333333333333</ele><time>2026-04-16T00:40:26.001Z</time></trkpt><trkpt lat="36.84061960252395" lon="-108.10880809567628"><ele>1796.1666666666665</ele><time>2026-04-16T00:40:27.001Z</time></trkpt><trkpt lat="36.84053104680853" lon="-108.10878686447799"><ele>1796.0</ele><time>2026-04-16T00:40:28.001Z</time></trkpt><trkpt lat="36.8404241602607" lon="-108.10879243778496"><ele>1795.9999999999998</ele><time>2026-04-16T00:40:29.001Z</time></trkpt><trkpt lat="36.84035330891907" lon="-108.10882825490292"><ele>1796.0</ele><time>2026-04-16T00:40:30.001Z</time></trkpt><trkpt lat="36.840307582097935" lon="-108.10888939569992"><ele>1796.0</ele><time>2026-04-16T00:40:31.001Z</time></trkpt><trkpt lat="36.84024621332964" lon="-108.10898291832183"><ele>1796.0</ele><time>2026-04-16T00:40:32.001Z</time></trkpt><trkpt lat="36.8401796976038" lon="-108.10908313545895"><ele>1795.9999999999998</ele><time>2026-04-16T00:40:33.001Z</time></trkpt><trkpt lat="36.84011981650294" lon="-108.10917670238325"><ele>1796.0</ele><time>2026-04-16T00:40:34.001Z</time></trkpt><trkpt lat="36.84004252464283" lon="-108.10927985673138"><ele>1794.25</ele><time>2026-04-16T00:40:35.001Z</time></trkpt><trkpt lat="36.8399368932111" lon="-108.10940053734409"><ele>1792.5</ele><time>2026-04-16T00:40:36.001Z</time></trkpt><trkpt lat="36.83982036975523" lon="-108.1095225987872"><ele>1790.75</ele><time>2026-04-16T00:40:37.001Z</time></trkpt><trkpt lat="36.83970923681643" lon="-108.1096273171122"><ele>1789.0</ele><time>2026-04-16T00:40:38.001Z</time></trkpt><trkpt lat="36.83962646402851" lon="-108.10973803311897"><ele>1789.0</ele><time>2026-04-16T00:40:39.001Z</time></trkpt><trkpt lat="36.83954647283462" lon="-108.10982947123435"><ele>1789.0</ele><time>2026-04-16T00:40:40.001Z</time></trkpt><trkpt lat="36.83945695596201" lon="-108.10990676367636"><ele>1789.0</ele><time>2026-04-16T00:40:41.001Z</time></trkpt><trkpt lat="36.839339493645774" lon="-108.10997322217037"><ele>1789.0</ele><time>2026-04-16T00:40:42.001Z</time></trkpt><trkpt lat="36.839242325869506" lon="-108.11004614635593"><ele>1786.75</ele><time>2026-04-16T00:40:43.001Z</time></trkpt><trkpt lat="36.83917469194711" lon="-108.11013690092994"><ele>1784.5</ele><time>2026-04-16T00:40:44.001Z</time></trkpt><trkpt lat="36.839118896585674" lon="-108.11027195876801"><ele>1782.25</ele><time>2026-04-16T00:40:45.001Z</time></trkpt><trkpt lat="36.839057565170435" lon="-108.1104246608519"><ele>1780.0</ele><time>2026-04-16T00:40:46.001Z</time></trkpt><trkpt lat="36.83898839819317" lon="-108.11055866553373"><ele>1780.0</ele><time>2026-04-16T00:40:47.001Z</time></trkpt><trkpt lat="36.83892405748278" lon="-108.11065493470636"><ele>1780.0</ele><time>2026-04-16T00:40:48.001Z</time></trkpt><trkpt lat="36.838858990578196" lon="-108.11073340154017"><ele>1780.0</ele><time>2026-04-16T00:40:49.001Z</time></trkpt><trkpt lat="36.83877495265657" lon="-108.11078511092977"><ele>1780.0</ele><time>2026-04-16T00:40:50.001Z</time></trkpt><trkpt lat="36.838651538596125" lon="-108.11086863041544"><ele>1780.0</ele><time>2026-04-16T00:40:51.001Z</time></trkpt><trkpt lat="36.83851473772686" lon="-108.11100276943141"><ele>1780.5</ele><time>2026-04-16T00:40:52.001Z</time></trkpt><trkpt lat="36.83839175872378" lon="-108.1111386143857"><ele>1781.0</ele><time>2026-04-16T00:40:53.001Z</time></trkpt><trkpt lat="36.83830217415125" lon="-108.1112615386759"><ele>1781.5</ele><time>2026-04-16T00:40:54.001Z</time></trkpt><trkpt lat="36.838217523226504" lon="-108.11141701091691"><ele>1782.0</ele><time>2026-04-16T00:40:55.001Z</time></trkpt><trkpt lat="36.83813225791608" lon="-108.11157985467142"><ele>1782.0</ele><time>2026-04-16T00:40:56.001Z</time></trkpt><trkpt lat="36.83806650825737" lon="-108.11173131215307"><ele>1782.0</ele><time>2026-04-16T00:40:57.001Z</time></trkpt><trkpt lat="36.838014094160336" lon="-108.11185690454089"><ele>1782.0</ele><time>2026-04-16T00:40:58.001Z</time></trkpt><trkpt lat="36.83798125038103" lon="-108.111957173114"><ele>1782.0</ele><time>2026-04-16T00:40:59.001Z</time></trkpt><trkpt lat="36.83800090234545" lon="-108.11209807347156"><ele>1782.0</ele><time>2026-04-16T00:41:01.001Z</time></trkpt><trkpt lat="36.838043996138545" lon="-108.11219737816872"><ele>1781.9999999999998</ele><time>2026-04-16T00:41:02.001Z</time></trkpt><trkpt lat="36.83809012985289" lon="-108.11231315299148"><ele>1781.9999999999998</ele><time>2026-04-16T00:41:03.001Z</time></trkpt><trkpt lat="36.838118670306976" lon="-108.1124479552693"><ele>1782.0</ele><time>2026-04-16T00:41:04.001Z</time></trkpt><trkpt lat="36.8381133978401" lon="-108.11258319316566"><ele>1782.0</ele><time>2026-04-16T00:41:05.001Z</time></trkpt><trkpt lat="36.838113816435346" lon="-108.11270631435534"><ele>1782.1999999999998</ele><time>2026-04-16T00:41:06.001Z</time></trkpt><trkpt lat="36.83814483872882" lon="-108.11281174457658"><ele>1782.3999999999999</ele><time>2026-04-16T00:41:07.001Z</time></trkpt><trkpt lat="36.83820067759956" lon="-108.11292756564703"><ele>1782.6000000000001</ele><time>2026-04-16T00:41:08.001Z</time></trkpt><trkpt lat="36.838223620618415" lon="-108.11301929377832"><ele>1782.8000000000002</ele><time>2026-04-16T00:41:09.001Z</time></trkpt><trkpt lat="36.83821233966145" lon="-108.11311785769455"><ele>1783.0</ele><time>2026-04-16T00:41:10.001Z</time></trkpt><trkpt lat="36.83817946993163" lon="-108.1132541656786"><ele>1783.5</ele><time>2026-04-16T00:41:11.001Z</time></trkpt><trkpt lat="36.838129431751064" lon="-108.11335946752284"><ele>1784.0</ele><time>2026-04-16T00:41:12.001Z</time></trkpt><trkpt lat="36.83805058271625" lon="-108.11348003414442"><ele>1784.5</ele><time>2026-04-16T00:41:13.001Z</time></trkpt><trkpt lat="36.83797210480642" lon="-108.11362549937066"><ele>1785.0</ele><time>2026-04-16T00:41:14.001Z</time></trkpt><trkpt lat="36.837892359861186" lon="-108.1137298208825"><ele>1785.0</ele><time>2026-04-16T00:41:15.001Z</time></trkpt><trkpt lat="36.83780700776314" lon="-108.11378642760253"><ele>1785.0</ele><time>2026-04-16T00:41:16.001Z</time></trkpt><trkpt lat="36.837704414426035" lon="-108.1138220074249"><ele>1785.0</ele><time>2026-04-16T00:41:17.001Z</time></trkpt><trkpt lat="36.8376077378064" lon="-108.11386195857553"><ele>1785.0</ele><time>2026-04-16T00:41:18.001Z</time></trkpt><trkpt lat="36.83756640232502" lon="-108.11396382908237"><ele>1785.0</ele><time>2026-04-16T00:41:19.001Z</time></trkpt><trkpt lat="36.837544718651436" lon="-108.11408513120719"><ele>1786.0</ele><time>2026-04-16T00:41:20.001Z</time></trkpt><trkpt lat="36.837545532670156" lon="-108.11428174039143"><ele>1787.0</ele><time>2026-04-16T00:41:21.002Z</time></trkpt><trkpt lat="36.837539286021695" lon="-108.11445177665323"><ele>1788.0</ele><time>2026-04-16T00:41:22.002Z</time></trkpt><trkpt lat="36.837506994673525" lon="-108.11455825693446"><ele>1789.0</ele><time>2026-04-16T00:41:23.002Z</time></trkpt><trkpt lat="36.837446432872056" lon="-108.11458740269748"><ele>1789.0</ele><time>2026-04-16T00:41:24.002Z</time></trkpt><trkpt lat="36.83738492201003" lon="-108.11461724260411"><ele>1789.0</ele><time>2026-04-16T00:41:25.002Z</time></trkpt><trkpt lat="36.837281489720276" lon="-108.11467340303548"><ele>1789.0</ele><time>2026-04-16T00:41:26.002Z</time></trkpt><trkpt lat="36.8371601513241" lon="-108.11473480263268"><ele>1789.0</ele><time>2026-04-16T00:41:27.002Z</time></trkpt><trkpt lat="36.83705222320929" lon="-108.11476676760803"><ele>1789.0</ele><time>2026-04-16T00:41:28.002Z</time></trkpt><trkpt lat="36.83692087521202" lon="-108.11476037182088"><ele>1789.0</ele><time>2026-04-16T00:41:29.002Z</time></trkpt><trkpt lat="36.836771549167544" lon="-108.1147355037733"><ele>1789.0</ele><time>2026-04-16T00:41:30Z</time></trkpt><trkpt lat="36.8366398853571" lon="-108.11471518779516"><ele>1789.0</ele><time>2026-04-16T00:41:31Z</time></trkpt><trkpt lat="36.83653915009313" lon="-108.11466888402181"><ele>1789.0</ele><time>2026-04-16T00:41:32Z</time></trkpt><trkpt lat="36.836433412354765" lon="-108.11462037192784"><ele>1789.0</ele><time>2026-04-16T00:41:33Z</time></trkpt><trkpt lat="36.83634335576579" lon="-108.11451909467561"><ele>1789.0</ele><time>2026-04-16T00:41:34Z</time></trkpt><trkpt lat="36.8362340346354" lon="-108.11440883300916"><ele>1789.0</ele><time>2026-04-16T00:41:35Z</time></trkpt><trkpt lat="36.83611745035039" lon="-108.114309599273"><ele>1789.0</ele><time>2026-04-16T00:41:36Z</time></trkpt><trkpt lat="36.83600355347467" lon="-108.11423816680647"><ele>1789.0</ele><time>2026-04-16T00:41:37Z</time></trkpt><trkpt lat="36.835911081231664" lon="-108.11417973496809"><ele>1789.0</ele><time>2026-04-16T00:41:38Z</time></trkpt><trkpt lat="36.835852599050654" lon="-108.11410649375385"><ele>1789.0</ele><time>2026-04-16T00:41:39Z</time></trkpt><trkpt lat="36.835788914122304" lon="-108.11400943389192"><ele>1789.0</ele><time>2026-04-16T00:41:40Z</time></trkpt><trkpt lat="36.83572996877722" lon="-108.11391271903484"><ele>1789.0</ele><time>2026-04-16T00:41:41Z</time></trkpt><trkpt lat="36.83569362670335" lon="-108.11379546164319"><ele>1789.0</ele><time>2026-04-16T00:41:42Z</time></trkpt><trkpt lat="36.83566960135738" lon="-108.11368159368865"><ele>1789.0</ele><time>2026-04-16T00:41:43Z</time></trkpt><trkpt lat="36.83563765327174" lon="-108.11358562638465"><ele>1789.0</ele><time>2026-04-16T00:41:44Z</time></trkpt><trkpt lat="36.83558734531912" lon="-108.11347889520313"><ele>1789.0</ele><time>2026-04-16T00:41:45Z</time></trkpt><trkpt lat="36.835517811389636" lon="-108.11337658060351"><ele>1789.0</ele><time>2026-04-16T00:41:46Z</time></trkpt><trkpt lat="36.83545140416576" lon="-108.11327275846097"><ele>1788.0</ele><time>2026-04-16T00:41:47Z</time></trkpt><trkpt lat="36.83536104809543" lon="-108.11317916052133"><ele>1787.0</ele><time>2026-04-16T00:41:48Z</time></trkpt><trkpt lat="36.8352454640096" lon="-108.11312911721993"><ele>1786.0</ele><time>2026-04-16T00:41:49Z</time></trkpt><trkpt lat="36.83515672145045" lon="-108.11308117637039"><ele>1785.0</ele><time>2026-04-16T00:41:50Z</time></trkpt><trkpt lat="36.83503420137967" lon="-108.11306585824501"><ele>1785.0</ele><time>2026-04-16T00:41:51Z</time></trkpt><trkpt lat="36.83492219424957" lon="-108.11304515393941"><ele>1785.0</ele><time>2026-04-16T00:41:52Z</time></trkpt><trkpt lat="36.834810249042995" lon="-108.11302571202607"><ele>1785.0</ele><time>2026-04-16T00:41:53Z</time></trkpt><trkpt lat="36.83470300152132" lon="-108.11302423027136"><ele>1785.0</ele><time>2026-04-16T00:41:54Z</time></trkpt><trkpt lat="36.83460197709717" lon="-108.11304015562183"><ele>1785.0</ele><time>2026-04-16T00:41:55Z</time></trkpt><trkpt lat="36.834486753054314" lon="-108.11304794529316"><ele>1785.0</ele><time>2026-04-16T00:41:56Z</time></trkpt><trkpt lat="36.83436864232706" lon="-108.11304008608523"><ele>1785.0</ele><time>2026-04-16T00:41:57Z</time></trkpt><trkpt lat="36.83425489802038" lon="-108.11300815947982"><ele>1785.0</ele><time>2026-04-16T00:41:58Z</time></trkpt><trkpt lat="36.834140851495064" lon="-108.112958466809"><ele>1785.0</ele><time>2026-04-16T00:41:59Z</time></trkpt><trkpt lat="36.83403469204678" lon="-108.11289438037758"><ele>1784.6</ele><time>2026-04-16T00:42:00Z</time></trkpt><trkpt lat="36.83393259253853" lon="-108.11282287193146"><ele>1784.2</ele><time>2026-04-16T00:42:01Z</time></trkpt><trkpt lat="36.833826781080155" lon="-108.11276994648722"><ele>1783.8000000000002</ele><time>2026-04-16T00:42:02Z</time></trkpt><trkpt lat="36.833727146717735" lon="-108.1127235287265"><ele>1783.4</ele><time>2026-04-16T00:42:03Z</time></trkpt><trkpt lat="36.83363130619387" lon="-108.11268337215391"><ele>1783.0</ele><time>2026-04-16T00:42:04Z</time></trkpt><trkpt lat="36.833538042460916" lon="-108.1126494935279"><ele>1782.1666666666667</ele><time>2026-04-16T00:42:05Z</time></trkpt><trkpt lat="36.83345660805486" lon="-108.1126396271515"><ele>1781.3333333333335</ele><time>2026-04-16T00:42:06Z</time></trkpt><trkpt lat="36.833366113714554" lon="-108.11265639148141"><ele>1780.5</ele><time>2026-04-16T00:42:07Z</time></trkpt><trkpt lat="36.83327994868314" lon="-108.11266147363568"><ele>1779.6666666666665</ele><time>2026-04-16T00:42:08Z</time></trkpt><trkpt lat="36.83320469285554" lon="-108.11263892355772"><ele>1778.8333333333333</ele><time>2026-04-16T00:42:09Z</time></trkpt><trkpt lat="36.83311736435873" lon="-108.1125899020319"><ele>1778.0</ele><time>2026-04-16T00:42:10Z</time></trkpt><trkpt lat="36.83300141355016" lon="-108.1125365613977"><ele>1778.0</ele><time>2026-04-16T00:42:11Z</time></trkpt><trkpt lat="36.83286656804259" lon="-108.11247318481783"><ele>1778.0</ele><time>2026-04-16T00:42:12Z</time></trkpt><trkpt lat="36.832705673064915" lon="-108.11240012905968"><ele>1778.0</ele><time>2026-04-16T00:42:13Z</time></trkpt><trkpt lat="36.8325691468417" lon="-108.11236539088773"><ele>1776.8000000000002</ele><time>2026-04-16T00:42:14Z</time></trkpt><trkpt lat="36.83245748989493" lon="-108.11236860303875"><ele>1775.6000000000001</ele><time>2026-04-16T00:42:15Z</time></trkpt><trkpt lat="36.83236661216747" lon="-108.1123989139487"><ele>1774.3999999999999</ele><time>2026-04-16T00:42:16Z</time></trkpt><trkpt lat="36.832276195321846" lon="-108.1124391141241"><ele>1773.1999999999998</ele><time>2026-04-16T00:42:17Z</time></trkpt><trkpt lat="36.8321789933395" lon="-108.11248891588512"><ele>1772.0</ele><time>2026-04-16T00:42:18Z</time></trkpt><trkpt lat="36.83207642643879" lon="-108.11251488564305"><ele>1771.8333333333333</ele><time>2026-04-16T00:42:19Z</time></trkpt><trkpt lat="36.83197674871203" lon="-108.11253072907743"><ele>1771.6666666666665</ele><time>2026-04-16T00:42:20Z</time></trkpt><trkpt lat="36.831892076910975" lon="-108.11259423085446"><ele>1771.5</ele><time>2026-04-16T00:42:22Z</time></trkpt><trkpt lat="36.83183028353064" lon="-108.11261390125402"><ele>1771.3333333333335</ele><time>2026-04-16T00:42:25Z</time></trkpt><trkpt lat="36.83178940797079" lon="-108.1125143970287"><ele>1771.1666666666667</ele><time>2026-04-16T00:42:28Z</time></trkpt><trkpt lat="36.831708734951484" lon="-108.11253661763271"><ele>1771.0</ele><time>2026-04-16T00:42:30Z</time></trkpt><trkpt lat="36.83160261264043" lon="-108.11265769340405"><ele>1771.0</ele><time>2026-04-16T00:42:32Z</time></trkpt><trkpt lat="36.83153268189885" lon="-108.1127177998256"><ele>1771.0</ele><time>2026-04-16T00:42:33.001Z</time></trkpt><trkpt lat="36.83145492344941" lon="-108.11276800721413"><ele>1771.0</ele><time>2026-04-16T00:42:34.001Z</time></trkpt><trkpt lat="36.83137025782443" lon="-108.11279589106145"><ele>1771.0</ele><time>2026-04-16T00:42:35.001Z</time></trkpt><trkpt lat="36.831268224388744" lon="-108.11281234246437"><ele>1771.0</ele><time>2026-04-16T00:42:36.001Z</time></trkpt><trkpt lat="36.83115296169985" lon="-108.11281380847484"><ele>1771.0</ele><time>2026-04-16T00:42:37.001Z</time></trkpt><trkpt lat="36.83103337968242" lon="-108.11281275596211"><ele>1771.0</ele><time>2026-04-16T00:42:38.001Z</time></trkpt><trkpt lat="36.83092040154918" lon="-108.11280608884674"><ele>1771.0</ele><time>2026-04-16T00:42:39.001Z</time></trkpt><trkpt lat="36.8308347715371" lon="-108.1127979534352"><ele>1771.0</ele><time>2026-04-16T00:42:40.001Z</time></trkpt><trkpt lat="36.83076109058714" lon="-108.11279838778867"><ele>1771.0</ele><time>2026-04-16T00:42:41.001Z</time></trkpt><trkpt lat="36.8306968797085" lon="-108.11281357880888"><ele>1771.0000000000002</ele><time>2026-04-16T00:42:42.001Z</time></trkpt><trkpt lat="36.83061360174016" lon="-108.11283465872472"><ele>1771.0</ele><time>2026-04-16T00:42:43.001Z</time></trkpt><trkpt lat="36.83052603605452" lon="-108.11284136406984"><ele>1771.0</ele><time>2026-04-16T00:42:44.001Z</time></trkpt><trkpt lat="36.83046068255337" lon="-108.11285642251983"><ele>1771.0</ele><time>2026-04-16T00:42:45.001Z</time></trkpt><trkpt lat="36.8304151259387" lon="-108.11292461384993"><ele>1771.0000000000002</ele><time>2026-04-16T00:42:46.001Z</time></trkpt><trkpt lat="36.83037902830756" lon="-108.11302746756269"><ele>1771.0</ele><time>2026-04-16T00:42:47.001Z</time></trkpt><trkpt lat="36.83040201328522" lon="-108.11311311720652"><ele>1771.5</ele><time>2026-04-16T00:42:49.001Z</time></trkpt><trkpt lat="36.83033205325074" lon="-108.11326201136164"><ele>1772.0</ele><time>2026-04-16T00:42:51.001Z</time></trkpt><trkpt lat="36.830259157803184" lon="-108.11333500895523"><ele>1772.5</ele><time>2026-04-16T00:42:52.001Z</time></trkpt><trkpt lat="36.8301977287305" lon="-108.1134376722015"><ele>1773.0</ele><time>2026-04-16T00:42:53.001Z</time></trkpt><trkpt lat="36.83016158367902" lon="-108.11358635848413"><ele>1772.4</ele><time>2026-04-16T00:42:54.001Z</time></trkpt><trkpt lat="36.830113762738186" lon="-108.11373606842447"><ele>1771.8000000000002</ele><time>2026-04-16T00:42:55.001Z</time></trkpt><trkpt lat="36.830057220300155" lon="-108.11386292389969"><ele>1771.2</ele><time>2026-04-16T00:42:56.001Z</time></trkpt><trkpt lat="36.830016815048026" lon="-108.11396884806331"><ele>1770.6</ele><time>2026-04-16T00:42:57.001Z</time></trkpt><trkpt lat="36.83001270935234" lon="-108.11408730391443"><ele>1770.0</ele><time>2026-04-16T00:42:58.001Z</time></trkpt><trkpt lat="36.82999570268882" lon="-108.11419054269096"><ele>1770.0</ele><time>2026-04-16T00:42:59.001Z</time></trkpt><trkpt lat="36.82997693554302" lon="-108.11432784125164"><ele>1770.0</ele><time>2026-04-16T00:43:01.001Z</time></trkpt><trkpt lat="36.829950235551706" lon="-108.11442313983322"><ele>1770.0</ele><time>2026-04-16T00:43:03.001Z</time></trkpt><trkpt lat="36.82979143615564" lon="-108.1144144443406"><ele>1770.0</ele><time>2026-04-16T00:43:04.001Z</time></trkpt><trkpt lat="36.82971044731098" lon="-108.11446459391742"><ele>1770.0</ele><time>2026-04-16T00:43:05.001Z</time></trkpt><trkpt lat="36.82959327702506" lon="-108.11454482405968"><ele>1770.0</ele><time>2026-04-16T00:43:06.001Z</time></trkpt><trkpt lat="36.82946952539462" lon="-108.11464865253737"><ele>1770.0</ele><time>2026-04-16T00:43:07.001Z</time></trkpt><trkpt lat="36.829371648188605" lon="-108.11472286552534"><ele>1770.0</ele><time>2026-04-16T00:43:08.001Z</time></trkpt><trkpt lat="36.82927221004171" lon="-108.11479584615148"><ele>1770.0</ele><time>2026-04-16T00:43:09.001Z</time></trkpt><trkpt lat="36.82918584558184" lon="-108.11484507924743"><ele>1770.0</ele><time>2026-04-16T00:43:10.001Z</time></trkpt><trkpt lat="36.829069269092344" lon="-108.11491881871723"><ele>1770.0</ele><time>2026-04-16T00:43:11.001Z</time></trkpt><trkpt lat="36.82896407211938" lon="-108.11498790499537"><ele>1770.0</ele><time>2026-04-16T00:43:12.001Z</time></trkpt><trkpt lat="36.828849559819645" lon="-108.1150612411868"><ele>1770.0</ele><time>2026-04-16T00:43:13.001Z</time></trkpt><trkpt lat="36.82872410742045" lon="-108.11513893873659"><ele>1770.0</ele><time>2026-04-16T00:43:14.001Z</time></trkpt><trkpt lat="36.828601650293656" lon="-108.11523184623972"><ele>1770.0</ele><time>2026-04-16T00:43:15.001Z</time></trkpt><trkpt lat="36.828479595266394" lon="-108.11531122722077"><ele>1770.0</ele><time>2026-04-16T00:43:16.001Z</time></trkpt><trkpt lat="36.82835857481754" lon="-108.11537826363129"><ele>1770.0</ele><time>2026-04-16T00:43:17.001Z</time></trkpt><trkpt lat="36.828241844237496" lon="-108.11544652252559"><ele>1771.25</ele><time>2026-04-16T00:43:18.001Z</time></trkpt><trkpt lat="36.828116794720955" lon="-108.11552785121384"><ele>1772.5</ele><time>2026-04-16T00:43:19.001Z</time></trkpt><trkpt lat="36.82799642031988" lon="-108.11560511706563"><ele>1773.75</ele><time>2026-04-16T00:43:20.001Z</time></trkpt><trkpt lat="36.82788286173321" lon="-108.11567831891576"><ele>1775.0</ele><time>2026-04-16T00:43:21.001Z</time></trkpt><trkpt lat="36.82776657907157" lon="-108.11575321247531"><ele>1776.0</ele><time>2026-04-16T00:43:22.001Z</time></trkpt><trkpt lat="36.82764329613693" lon="-108.11583095084129"><ele>1777.0</ele><time>2026-04-16T00:43:23.001Z</time></trkpt><trkpt lat="36.827528857341655" lon="-108.11589169514498"><ele>1778.0</ele><time>2026-04-16T00:43:24.001Z</time></trkpt><trkpt lat="36.82740153208544" lon="-108.11596487859939"><ele>1779.0</ele><time>2026-04-16T00:43:25.001Z</time></trkpt><trkpt lat="36.827277268886064" lon="-108.11603792568836"><ele>1779.0</ele><time>2026-04-16T00:43:26.001Z</time></trkpt><trkpt lat="36.82714986910262" lon="-108.11613302368306"><ele>1779.0</ele><time>2026-04-16T00:43:27.001Z</time></trkpt><trkpt lat="36.8270305920374" lon="-108.11621078007617"><ele>1779.0</ele><time>2026-04-16T00:43:28.001Z</time></trkpt><trkpt lat="36.82692136869291" lon="-108.11628599382578"><ele>1779.0</ele><time>2026-04-16T00:43:29.001Z</time></trkpt><trkpt lat="36.82679831009643" lon="-108.11635873947043"><ele>1778.4</ele><time>2026-04-16T00:43:30.001Z</time></trkpt><trkpt lat="36.82669555239507" lon="-108.1164251828645"><ele>1777.8000000000002</ele><time>2026-04-16T00:43:31.001Z</time></trkpt><trkpt lat="36.826618461786225" lon="-108.11648647822696"><ele>1777.1999999999998</ele><time>2026-04-16T00:43:32.001Z</time></trkpt><trkpt lat="36.82651483655768" lon="-108.11653782131218"><ele>1776.6</ele><time>2026-04-16T00:43:33.001Z</time></trkpt><trkpt lat="36.82639555681036" lon="-108.1165959238069"><ele>1776.0</ele><time>2026-04-16T00:43:34.001Z</time></trkpt><trkpt lat="36.82627984250422" lon="-108.11667881682709"><ele>1776.0</ele><time>2026-04-16T00:43:35.001Z</time></trkpt><trkpt lat="36.82615476521187" lon="-108.11678216074884"><ele>1776.0</ele><time>2026-04-16T00:43:36Z</time></trkpt><trkpt lat="36.826011427743296" lon="-108.11687282943545"><ele>1776.0</ele><time>2026-04-16T00:43:37Z</time></trkpt><trkpt lat="36.825886223740675" lon="-108.1169501019387"><ele>1776.25</ele><time>2026-04-16T00:43:38Z</time></trkpt><trkpt lat="36.825757933270495" lon="-108.11702258452367"><ele>1776.5</ele><time>2026-04-16T00:43:39Z</time></trkpt><trkpt lat="36.82563077287236" lon="-108.11710769184671"><ele>1776.75</ele><time>2026-04-16T00:43:40Z</time></trkpt><trkpt lat="36.82551614832973" lon="-108.1171896899846"><ele>1777.0</ele><time>2026-04-16T00:43:41Z</time></trkpt><trkpt lat="36.8253913447571" lon="-108.11726248712124"><ele>1777.0</ele><time>2026-04-16T00:43:42Z</time></trkpt><trkpt lat="36.82525950007063" lon="-108.11733624888812"><ele>1777.0</ele><time>2026-04-16T00:43:43Z</time></trkpt><trkpt lat="36.82513861946216" lon="-108.11741164362282"><ele>1777.0</ele><time>2026-04-16T00:43:44Z</time></trkpt><trkpt lat="36.82503082508383" lon="-108.11748725349734"><ele>1777.0</ele><time>2026-04-16T00:43:45Z</time></trkpt><trkpt lat="36.82491684716629" lon="-108.11755618797281"><ele>1777.75</ele><time>2026-04-16T00:43:46Z</time></trkpt><trkpt lat="36.824793327285626" lon="-108.11763136120891"><ele>1778.5</ele><time>2026-04-16T00:43:47Z</time></trkpt><trkpt lat="36.82467037002254" lon="-108.11770321673697"><ele>1779.25</ele><time>2026-04-16T00:43:48Z</time></trkpt><trkpt lat="36.82455209565053" lon="-108.11777300359715"><ele>1780.0</ele><time>2026-04-16T00:43:49Z</time></trkpt><trkpt lat="36.824432183105976" lon="-108.11785359655474"><ele>1780.0</ele><time>2026-04-16T00:43:50Z</time></trkpt><trkpt lat="36.82433557141113" lon="-108.11792251822317"><ele>1780.0</ele><time>2026-04-16T00:43:51Z</time></trkpt><trkpt lat="36.824240156605946" lon="-108.11797868407484"><ele>1780.0</ele><time>2026-04-16T00:43:52Z</time></trkpt><trkpt lat="36.82414607674287" lon="-108.1180453012918"><ele>1780.0</ele><time>2026-04-16T00:43:53Z</time></trkpt><trkpt lat="36.824043455421936" lon="-108.11811865432"><ele>1780.0</ele><time>2026-04-16T00:43:54Z</time></trkpt><trkpt lat="36.82393055800738" lon="-108.11819422689904"><ele>1779.8</ele><time>2026-04-16T00:43:55Z</time></trkpt><trkpt lat="36.82383689411034" lon="-108.11825343762362"><ele>1779.6</ele><time>2026-04-16T00:43:56Z</time></trkpt><trkpt lat="36.82375528197921" lon="-108.11830727567028"><ele>1779.4</ele><time>2026-04-16T00:43:57Z</time></trkpt><trkpt lat="36.8236512152478" lon="-108.11836675866344"><ele>1779.2</ele><time>2026-04-16T00:43:58Z</time></trkpt><trkpt lat="36.823554439577144" lon="-108.11842228676844"><ele>1779.0</ele><time>2026-04-16T00:43:59Z</time></trkpt><trkpt lat="36.82346189225701" lon="-108.11849062714045"><ele>1779.0</ele><time>2026-04-16T00:44:00Z</time></trkpt><trkpt lat="36.82336567288401" lon="-108.1185607135547"><ele>1779.0</ele><time>2026-04-16T00:44:01Z</time></trkpt><trkpt lat="36.82326927951104" lon="-108.11862691366615"><ele>1779.0</ele><time>2026-04-16T00:44:02Z</time></trkpt><trkpt lat="36.82317232603271" lon="-108.11869125287546"><ele>1779.0</ele><time>2026-04-16T00:44:03Z</time></trkpt><trkpt lat="36.8230608721705" lon="-108.11876232507616"><ele>1779.0</ele><time>2026-04-16T00:44:04Z</time></trkpt><trkpt lat="36.82294023278585" lon="-108.11883600072133"><ele>1779.0</ele><time>2026-04-16T00:44:05Z</time></trkpt><trkpt lat="36.822837747693335" lon="-108.11891460543396"><ele>1779.0</ele><time>2026-04-16T00:44:06Z</time></trkpt><trkpt lat="36.822745284713314" lon="-108.11897841489242"><ele>1779.0</ele><time>2026-04-16T00:44:07Z</time></trkpt><trkpt lat="36.822655627754735" lon="-108.11903451616463"><ele>1778.0</ele><time>2026-04-16T00:44:08Z</time></trkpt><trkpt lat="36.82254106092546" lon="-108.11910045001721"><ele>1777.0</ele><time>2026-04-16T00:44:09Z</time></trkpt><trkpt lat="36.82241437876398" lon="-108.11918508333571"><ele>1776.0</ele><time>2026-04-16T00:44:10Z</time></trkpt><trkpt lat="36.82228035670586" lon="-108.11927721223644"><ele>1775.0</ele><time>2026-04-16T00:44:11Z</time></trkpt><trkpt lat="36.82216385496738" lon="-108.11936050867496"><ele>1774.9999999999998</ele><time>2026-04-16T00:44:12Z</time></trkpt><trkpt lat="36.822073653317275" lon="-108.11943059753314"><ele>1775.0</ele><time>2026-04-16T00:44:13.001Z</time></trkpt><trkpt lat="36.821997159067394" lon="-108.11947968504538"><ele>1775.0</ele><time>2026-04-16T00:44:14.001Z</time></trkpt><trkpt lat="36.82192785149453" lon="-108.11949836773084"><ele>1775.0</ele><time>2026-04-16T00:44:15.001Z</time></trkpt><trkpt lat="36.82186262638738" lon="-108.11947968779293"><ele>1774.9999999999998</ele><time>2026-04-16T00:44:16.001Z</time></trkpt><trkpt lat="36.82177479583787" lon="-108.11943562906822"><ele>1775.0</ele><time>2026-04-16T00:44:17.001Z</time></trkpt><trkpt lat="36.821668586943616" lon="-108.11941665464653"><ele>1775.1666666666665</ele><time>2026-04-16T00:44:18.001Z</time></trkpt><trkpt lat="36.82158321112798" lon="-108.11944868836265"><ele>1775.3333333333333</ele><time>2026-04-16T00:44:19.001Z</time></trkpt><trkpt lat="36.821512349740644" lon="-108.11952725174187"><ele>1775.5</ele><time>2026-04-16T00:44:20.001Z</time></trkpt><trkpt lat="36.8214563896554" lon="-108.11958179205566"><ele>1775.6666666666665</ele><time>2026-04-16T00:44:21.001Z</time></trkpt><trkpt lat="36.82135041407505" lon="-108.11962330097367"><ele>1775.8333333333333</ele><time>2026-04-16T00:44:23.001Z</time></trkpt><trkpt lat="36.8213284994071" lon="-108.11971682228152"><ele>1776.0</ele><time>2026-04-16T00:44:24.001Z</time></trkpt><trkpt lat="36.82121129407748" lon="-108.11980011740627"><ele>1776.0</ele><time>2026-04-16T00:44:26.001Z</time></trkpt><trkpt lat="36.821101566851084" lon="-108.11984624853959"><ele>1776.0</ele><time>2026-04-16T00:44:27.001Z</time></trkpt><trkpt lat="36.82101184935621" lon="-108.11995600078413"><ele>1776.0</ele><time>2026-04-16T00:44:28.001Z</time></trkpt><trkpt lat="36.82093026349571" lon="-108.12007715747104"><ele>1776.0</ele><time>2026-04-16T00:44:29.001Z</time></trkpt><trkpt lat="36.82086933403609" lon="-108.1201775976982"><ele>1775.4</ele><time>2026-04-16T00:44:30.001Z</time></trkpt><trkpt lat="36.82081380498011" lon="-108.12025734270779"><ele>1774.8</ele><time>2026-04-16T00:44:31.001Z</time></trkpt><trkpt lat="36.82074444924756" lon="-108.1203249385046"><ele>1774.2000000000003</ele><time>2026-04-16T00:44:32.001Z</time></trkpt><trkpt lat="36.820656967577335" lon="-108.12038581133298"><ele>1773.6000000000001</ele><time>2026-04-16T00:44:33.001Z</time></trkpt><trkpt lat="36.82055175506208" lon="-108.1204291953193"><ele>1773.0</ele><time>2026-04-16T00:44:34.001Z</time></trkpt><trkpt lat="36.82045372178268" lon="-108.12044581665353"><ele>1773.0</ele><time>2026-04-16T00:44:35.001Z</time></trkpt><trkpt lat="36.820375573762945" lon="-108.12050520433029"><ele>1773.0000000000002</ele><time>2026-04-16T00:44:37.001Z</time></trkpt><trkpt lat="36.820284457576555" lon="-108.12058261635946"><ele>1773.0000000000002</ele><time>2026-04-16T00:44:39.001Z</time></trkpt><trkpt lat="36.82022172620858" lon="-108.12070636347887"><ele>1773.0</ele><time>2026-04-16T00:44:40.001Z</time></trkpt><trkpt lat="36.82016247704329" lon="-108.12083137340868"><ele>1773.0</ele><time>2026-04-16T00:44:41.001Z</time></trkpt><trkpt lat="36.82012040314759" lon="-108.12092719516801"><ele>1773.25</ele><time>2026-04-16T00:44:42.001Z</time></trkpt><trkpt lat="36.820107761954596" lon="-108.12104618645881"><ele>1773.5</ele><time>2026-04-16T00:44:44.001Z</time></trkpt><trkpt lat="36.820036877949036" lon="-108.12113244372556"><ele>1773.75</ele><time>2026-04-16T00:44:46.001Z</time></trkpt><trkpt lat="36.81996545947085" lon="-108.1211141185915"><ele>1774.0</ele><time>2026-04-16T00:44:49.001Z</time></trkpt><trkpt lat="36.8197760910775" lon="-108.12114033436342"><ele>1774.0</ele><time>2026-04-16T00:44:52.001Z</time></trkpt><trkpt lat="36.819696247561104" lon="-108.12101097792211"><ele>1774.0</ele><time>2026-04-16T00:44:54.001Z</time></trkpt><trkpt lat="36.81963062862848" lon="-108.1209768341678"><ele>1774.0</ele><time>2026-04-16T00:44:55.001Z</time></trkpt><trkpt lat="36.81948309417753" lon="-108.12106415208783"><ele>1774.0</ele><time>2026-04-16T00:44:57.001Z</time></trkpt><trkpt lat="36.819368569669734" lon="-108.12115793578533"><ele>1775.25</ele><time>2026-04-16T00:44:58.001Z</time></trkpt><trkpt lat="36.8192321212158" lon="-108.1212447693234"><ele>1776.5</ele><time>2026-04-16T00:44:59.001Z</time></trkpt><trkpt lat="36.819104276583566" lon="-108.12132302943131"><ele>1777.75</ele><time>2026-04-16T00:45:00.001Z</time></trkpt><trkpt lat="36.818980669211015" lon="-108.12140064588303"><ele>1779.0</ele><time>2026-04-16T00:45:01.001Z</time></trkpt><trkpt lat="36.81884336685599" lon="-108.12148496871927"><ele>1779.6666666666665</ele><time>2026-04-16T00:45:02.001Z</time></trkpt><trkpt lat="36.8186943001605" lon="-108.12158142277285"><ele>1780.3333333333333</ele><time>2026-04-16T00:45:03.001Z</time></trkpt><trkpt lat="36.8185632407557" lon="-108.12166221328226"><ele>1781.0</ele><time>2026-04-16T00:45:04.001Z</time></trkpt><trkpt lat="36.818433339812906" lon="-108.12174482354344"><ele>1782.0</ele><time>2026-04-16T00:45:05.001Z</time></trkpt><trkpt lat="36.818313110827745" lon="-108.1218199752566"><ele>1783.0</ele><time>2026-04-16T00:45:06.001Z</time></trkpt><trkpt lat="36.81821260651776" lon="-108.12189272054555"><ele>1784.0</ele><time>2026-04-16T00:45:07.001Z</time></trkpt><trkpt lat="36.818109099356334" lon="-108.12196240707983"><ele>1785.0</ele><time>2026-04-16T00:45:08.001Z</time></trkpt><trkpt lat="36.81800194698996" lon="-108.12203764721674"><ele>1785.0</ele><time>2026-04-16T00:45:09.001Z</time></trkpt><trkpt lat="36.81788711417473" lon="-108.12211081980217"><ele>1785.0</ele><time>2026-04-16T00:45:10.001Z</time></trkpt><trkpt lat="36.81773605076403" lon="-108.1222082327965"><ele>1785.0</ele><time>2026-04-16T00:45:11.001Z</time></trkpt><trkpt lat="36.817624908546264" lon="-108.12229322890916"><ele>1785.0</ele><time>2026-04-16T00:45:12.001Z</time></trkpt><trkpt lat="36.817517949679036" lon="-108.12238152209702"><ele>1784.6</ele><time>2026-04-16T00:45:13.001Z</time></trkpt><trkpt lat="36.817426342756846" lon="-108.12244455867459"><ele>1784.2</ele><time>2026-04-16T00:45:14.001Z</time></trkpt><trkpt lat="36.817340971087134" lon="-108.12249937436101"><ele>1783.8000000000002</ele><time>2026-04-16T00:45:15.001Z</time></trkpt><trkpt lat="36.81723407613035" lon="-108.12259105927131"><ele>1783.4</ele><time>2026-04-16T00:45:17.001Z</time></trkpt><trkpt lat="36.817151030212045" lon="-108.12265052481078"><ele>1783.0</ele><time>2026-04-16T00:45:18.001Z</time></trkpt><trkpt lat="36.81704608843025" lon="-108.12272629563002"><ele>1783.0</ele><time>2026-04-16T00:45:19.001Z</time></trkpt><trkpt lat="36.81692598041647" lon="-108.12280053686318"><ele>1783.0000000000002</ele><time>2026-04-16T00:45:20.001Z</time></trkpt><trkpt lat="36.81684120819165" lon="-108.12285697693159"><ele>1783.0000000000002</ele><time>2026-04-16T00:45:21.001Z</time></trkpt><trkpt lat="36.81677903617408" lon="-108.12292517092918"><ele>1783.0</ele><time>2026-04-16T00:45:22.001Z</time></trkpt><trkpt lat="36.81667690214826" lon="-108.12303261817864"><ele>1783.0</ele><time>2026-04-16T00:45:23.001Z</time></trkpt><trkpt lat="36.81653973350889" lon="-108.12317392618893"><ele>1782.75</ele><time>2026-04-16T00:45:24.001Z</time></trkpt><trkpt lat="36.81638294018451" lon="-108.12332540199331"><ele>1782.5</ele><time>2026-04-16T00:45:25.001Z</time></trkpt><trkpt lat="36.81626881189739" lon="-108.12345389718791"><ele>1782.25</ele><time>2026-04-16T00:45:26.001Z</time></trkpt><trkpt lat="36.81619610091261" lon="-108.12352563514992"><ele>1782.0</ele><time>2026-04-16T00:45:27.001Z</time></trkpt><trkpt lat="36.81612586691661" lon="-108.12358270114092"><ele>1782.0</ele><time>2026-04-16T00:45:28.001Z</time></trkpt><trkpt lat="36.81605289813802" lon="-108.12361916761968"><ele>1781.9999999999998</ele><time>2026-04-16T00:45:29.001Z</time></trkpt><trkpt lat="36.815965037249455" lon="-108.1236254432247"><ele>1781.9999999999998</ele><time>2026-04-16T00:45:30.001Z</time></trkpt><trkpt lat="36.81585131379071" lon="-108.12362913714382"><ele>1782.0</ele><time>2026-04-16T00:45:31.001Z</time></trkpt><trkpt lat="36.815769022906785" lon="-108.12364604434185"><ele>1782.0</ele><time>2026-04-16T00:45:32.002Z</time></trkpt><trkpt lat="36.815674761567834" lon="-108.12369427896468"><ele>1782.25</ele><time>2026-04-16T00:45:33.002Z</time></trkpt><trkpt lat="36.81557732318555" lon="-108.12375062341768"><ele>1782.5</ele><time>2026-04-16T00:45:34.002Z</time></trkpt><trkpt lat="36.81547406524883" lon="-108.12382188163328"><ele>1782.75</ele><time>2026-04-16T00:45:35.002Z</time></trkpt><trkpt lat="36.815371183260545" lon="-108.12389724651213"><ele>1783.0</ele><time>2026-04-16T00:45:36.002Z</time></trkpt><trkpt lat="36.81527662731533" lon="-108.12398417220012"><ele>1784.0</ele><time>2026-04-16T00:45:37.002Z</time></trkpt><trkpt lat="36.8151671033853" lon="-108.12406835657012"><ele>1785.0</ele><time>2026-04-16T00:45:38.002Z</time></trkpt><trkpt lat="36.81505205951717" lon="-108.12414094866273"><ele>1786.0</ele><time>2026-04-16T00:45:39.002Z</time></trkpt><trkpt lat="36.81492630752261" lon="-108.12423738828757"><ele>1787.0</ele><time>2026-04-16T00:45:40.002Z</time></trkpt><trkpt lat="36.81478511025686" lon="-108.12433991190431"><ele>1787.75</ele><time>2026-04-16T00:45:41.002Z</time></trkpt><trkpt lat="36.81464949086814" lon="-108.12444159980349"><ele>1788.5</ele><time>2026-04-16T00:45:42Z</time></trkpt><trkpt lat="36.814541393989664" lon="-108.1245182536724"><ele>1789.25</ele><time>2026-04-16T00:45:43Z</time></trkpt><trkpt lat="36.814451794911975" lon="-108.12457903363067"><ele>1790.0</ele><time>2026-04-16T00:45:44Z</time></trkpt><trkpt lat="36.81433957237196" lon="-108.12465430594361"><ele>1790.0</ele><time>2026-04-16T00:45:45Z</time></trkpt><trkpt lat="36.81421048842099" lon="-108.12474261397173"><ele>1790.0</ele><time>2026-04-16T00:45:46Z</time></trkpt><trkpt lat="36.81408296043092" lon="-108.12483507419138"><ele>1790.0</ele><time>2026-04-16T00:45:47Z</time></trkpt><trkpt lat="36.81399586362941" lon="-108.12489930462652"><ele>1790.0</ele><time>2026-04-16T00:45:48Z</time></trkpt><trkpt lat="36.813925209199766" lon="-108.12495682521332"><ele>1790.75</ele><time>2026-04-16T00:45:49Z</time></trkpt><trkpt lat="36.813824568914136" lon="-108.12502524649888"><ele>1791.5</ele><time>2026-04-16T00:45:50Z</time></trkpt><trkpt lat="36.813695643866424" lon="-108.12510114057943"><ele>1792.25</ele><time>2026-04-16T00:45:51Z</time></trkpt><trkpt lat="36.813576043962996" lon="-108.12518144048668"><ele>1793.0</ele><time>2026-04-16T00:45:52Z</time></trkpt><trkpt lat="36.81346602899965" lon="-108.125270364936"><ele>1793.25</ele><time>2026-04-16T00:45:53Z</time></trkpt><trkpt lat="36.81334689993741" lon="-108.1253500080659"><ele>1793.5</ele><time>2026-04-16T00:45:54Z</time></trkpt><trkpt lat="36.81322783542159" lon="-108.12544216749032"><ele>1793.75</ele><time>2026-04-16T00:45:55Z</time></trkpt><trkpt lat="36.81312257099221" lon="-108.12553619944791"><ele>1794.0</ele><time>2026-04-16T00:45:56Z</time></trkpt><trkpt lat="36.81304603884991" lon="-108.12560469589795"><ele>1794.0</ele><time>2026-04-16T00:45:57Z</time></trkpt><trkpt lat="36.81297696035136" lon="-108.1256575519261"><ele>1794.0</ele><time>2026-04-16T00:45:58Z</time></trkpt><trkpt lat="36.81292011633709" lon="-108.12569558857979"><ele>1794.0</ele><time>2026-04-16T00:45:59Z</time></trkpt><trkpt lat="36.81280800982407" lon="-108.12576045704573"><ele>1794.0</ele><time>2026-04-16T00:46:01Z</time></trkpt><trkpt lat="36.81272225028514" lon="-108.12580427195844"><ele>1794.0</ele><time>2026-04-16T00:46:02Z</time></trkpt><trkpt lat="36.812628236235554" lon="-108.12586804301476"><ele>1794.3333333333333</ele><time>2026-04-16T00:46:03Z</time></trkpt><trkpt lat="36.812557975646556" lon="-108.12592353654145"><ele>1794.6666666666665</ele><time>2026-04-16T00:46:04Z</time></trkpt><trkpt lat="36.812491895570226" lon="-108.12599585829946"><ele>1795.0</ele><time>2026-04-16T00:46:05Z</time></trkpt><trkpt lat="36.812429638798044" lon="-108.12606901873288"><ele>1795.3333333333333</ele><time>2026-04-16T00:46:06Z</time></trkpt><trkpt lat="36.81237609510124" lon="-108.12613116181518"><ele>1795.6666666666665</ele><time>2026-04-16T00:46:07Z</time></trkpt><trkpt lat="36.81230738697318" lon="-108.12618250918817"><ele>1796.0</ele><time>2026-04-16T00:46:08Z</time></trkpt><trkpt lat="36.812229311771056" lon="-108.12623906966444"><ele>1796.0</ele><time>2026-04-16T00:46:09Z</time></trkpt><trkpt lat="36.812123521683276" lon="-108.12630196976059"><ele>1796.0</ele><time>2026-04-16T00:46:10Z</time></trkpt><trkpt lat="36.81201232950366" lon="-108.1263340006156"><ele>1796.0</ele><time>2026-04-16T00:46:11Z</time></trkpt><trkpt lat="36.81190212238907" lon="-108.12637380316583"><ele>1796.0</ele><time>2026-04-16T00:46:12Z</time></trkpt><trkpt lat="36.81178311341904" lon="-108.12642876419888"><ele>1796.5</ele><time>2026-04-16T00:46:13Z</time></trkpt><trkpt lat="36.8116562821509" lon="-108.12648519484881"><ele>1797.0</ele><time>2026-04-16T00:46:14Z</time></trkpt><trkpt lat="36.81151855248424" lon="-108.12652740359889"><ele>1797.5</ele><time>2026-04-16T00:46:15Z</time></trkpt><trkpt lat="36.81138868330041" lon="-108.12654916870825"><ele>1798.0</ele><time>2026-04-16T00:46:16.001Z</time></trkpt><trkpt lat="36.81127265056747" lon="-108.12655623715092"><ele>1798.6000000000001</ele><time>2026-04-16T00:46:17.001Z</time></trkpt><trkpt lat="36.81119724002409" lon="-108.1265796560003"><ele>1799.2000000000003</ele><time>2026-04-16T00:46:18.001Z</time></trkpt><trkpt lat="36.81113725353965" lon="-108.12670471677131"><ele>1799.8</ele><time>2026-04-16T00:46:20.001Z</time></trkpt><trkpt lat="36.81107485879269" lon="-108.126789184311"><ele>1800.4</ele><time>2026-04-16T00:46:21.001Z</time></trkpt><trkpt lat="36.810988197065875" lon="-108.12685866477204"><ele>1801.0</ele><time>2026-04-16T00:46:22.001Z</time></trkpt><trkpt lat="36.81090650326582" lon="-108.12691712726522"><ele>1801.0</ele><time>2026-04-16T00:46:23.001Z</time></trkpt><trkpt lat="36.810846396440006" lon="-108.1269667406784"><ele>1801.0</ele><time>2026-04-16T00:46:24.001Z</time></trkpt><trkpt lat="36.81076348989956" lon="-108.12683878971849"><ele>1801.0</ele><time>2026-04-16T00:46:26.001Z</time></trkpt><trkpt lat="36.810681489664255" lon="-108.12671406455651"><ele>1801.0</ele><time>2026-04-16T00:46:27.001Z</time></trkpt><trkpt lat="36.81056903335594" lon="-108.12664466127103"><ele>1801.0</ele><time>2026-04-16T00:46:28.001Z</time></trkpt><trkpt lat="36.81047074242607" lon="-108.12661390600718"><ele>1801.0</ele><time>2026-04-16T00:46:29.001Z</time></trkpt><trkpt lat="36.81037340055859" lon="-108.12654929834318"><ele>1801.0</ele><time>2026-04-16T00:46:30.001Z</time></trkpt><trkpt lat="36.81026777048977" lon="-108.1264872103036"><ele>1801.0</ele><time>2026-04-16T00:46:31.001Z</time></trkpt><trkpt lat="36.81017045505606" lon="-108.12642017659752"><ele>1801.0</ele><time>2026-04-16T00:46:32.001Z</time></trkpt><trkpt lat="36.81009358521282" lon="-108.12637578952469"><ele>1800.1666666666667</ele><time>2026-04-16T00:46:33.001Z</time></trkpt><trkpt lat="36.81001241233304" lon="-108.12636601049985"><ele>1799.3333333333335</ele><time>2026-04-16T00:46:35.001Z</time></trkpt><trkpt lat="36.80994062597438" lon="-108.12635001427638"><ele>1798.5</ele><time>2026-04-16T00:46:36.001Z</time></trkpt><trkpt lat="36.80985143325818" lon="-108.1263186500242"><ele>1797.6666666666665</ele><time>2026-04-16T00:46:37.001Z</time></trkpt><trkpt lat="36.8097603988056" lon="-108.12630135207702"><ele>1796.8333333333333</ele><time>2026-04-16T00:46:38.001Z</time></trkpt><trkpt lat="36.80967001036764" lon="-108.1262919451868"><ele>1796.0</ele><time>2026-04-16T00:46:39.001Z</time></trkpt><trkpt lat="36.80957966310474" lon="-108.12629209751549"><ele>1796.0</ele><time>2026-04-16T00:46:40.001Z</time></trkpt><trkpt lat="36.8094976554676" lon="-108.12631816030432"><ele>1796.0</ele><time>2026-04-16T00:46:41.001Z</time></trkpt><trkpt lat="36.809398377843" lon="-108.12637297006995"><ele>1796.0</ele><time>2026-04-16T00:46:42.001Z</time></trkpt><trkpt lat="36.80926625690513" lon="-108.12645338318369"><ele>1796.0</ele><time>2026-04-16T00:46:43.001Z</time></trkpt><trkpt lat="36.80913540658301" lon="-108.12653928637945"><ele>1794.25</ele><time>2026-04-16T00:46:44.001Z</time></trkpt><trkpt lat="36.80901887793866" lon="-108.12662413267239"><ele>1792.5</ele><time>2026-04-16T00:46:45.001Z</time></trkpt><trkpt lat="36.80891218227845" lon="-108.1266996854907"><ele>1790.75</ele><time>2026-04-16T00:46:46.001Z</time></trkpt><trkpt lat="36.808812683011304" lon="-108.12676314288179"><ele>1789.0</ele><time>2026-04-16T00:46:47.001Z</time></trkpt><trkpt lat="36.808726737120644" lon="-108.12681941878206"><ele>1789.0</ele><time>2026-04-16T00:46:48.001Z</time></trkpt><trkpt lat="36.80866011691451" lon="-108.12688243364151"><ele>1789.0</ele><time>2026-04-16T00:46:49.001Z</time></trkpt><trkpt lat="36.808595078094946" lon="-108.12689116994673"><ele>1789.0</ele><time>2026-04-16T00:46:50.001Z</time></trkpt><trkpt lat="36.80848609370435" lon="-108.12691610324994"><ele>1789.0</ele><time>2026-04-16T00:46:52.001Z</time></trkpt><trkpt lat="36.80848382901442" lon="-108.12710261540535"><ele>1789.0</ele><time>2026-04-16T00:47:05.001Z</time></trkpt><trkpt lat="36.80840576517274" lon="-108.12722100277604"><ele>1788.4</ele><time>2026-04-16T00:49:08.001Z</time></trkpt><trkpt lat="36.8083260885094" lon="-108.12732005526495"><ele>1787.8000000000002</ele><time>2026-04-16T00:49:09.001Z</time></trkpt><trkpt lat="36.80825228594176" lon="-108.12741803776818"><ele>1787.1999999999998</ele><time>2026-04-16T00:49:10.001Z</time></trkpt><trkpt lat="36.808172440160824" lon="-108.12751198178914"><ele>1786.6</ele><time>2026-04-16T00:49:11.001Z</time></trkpt><trkpt lat="36.80810267652818" lon="-108.12758595576229"><ele>1786.0</ele><time>2026-04-16T00:49:12.001Z</time></trkpt><trkpt lat="36.80802184255751" lon="-108.12767194958599"><ele>1787.0000000000002</ele><time>2026-04-16T00:49:13.001Z</time></trkpt><trkpt lat="36.80793872129843" lon="-108.12775645628064"><ele>1788.0</ele><time>2026-04-16T00:49:14.001Z</time></trkpt><trkpt lat="36.80786862629354" lon="-108.12782149358235"><ele>1789.0</ele><time>2026-04-16T00:49:15.001Z</time></trkpt><trkpt lat="36.80781861293644" lon="-108.1278924058977"><ele>1790.0</ele><time>2026-04-16T00:49:16.001Z</time></trkpt><trkpt lat="36.80779674655337" lon="-108.1279799176563"><ele>1791.0000000000002</ele><time>2026-04-16T00:49:17.001Z</time></trkpt><trkpt lat="36.8078074416583" lon="-108.12807126056023"><ele>1792.0</ele><time>2026-04-16T00:49:18.001Z</time></trkpt><trkpt lat="36.807818354922524" lon="-108.12817451320204"><ele>1792.0</ele><time>2026-04-16T00:49:20.001Z</time></trkpt><trkpt lat="36.80769982281285" lon="-108.12820924616777"><ele>1792.0</ele><time>2026-04-16T00:49:22.001Z</time></trkpt><trkpt lat="36.80757853408409" lon="-108.12817549812937"><ele>1792.0</ele><time>2026-04-16T00:49:23.001Z</time></trkpt><trkpt lat="36.80744591780869" lon="-108.12815048475022"><ele>1792.0</ele><time>2026-04-16T00:49:24.001Z</time></trkpt><trkpt lat="36.80731236361275" lon="-108.12815668972853"><ele>1790.75</ele><time>2026-04-16T00:49:25.001Z</time></trkpt><trkpt lat="36.80719263091006" lon="-108.1282109532217"><ele>1789.5</ele><time>2026-04-16T00:49:26.001Z</time></trkpt><trkpt lat="36.807082396532785" lon="-108.12820227962537"><ele>1788.25</ele><time>2026-04-16T00:49:27.001Z</time></trkpt><trkpt lat="36.806945090742026" lon="-108.12818207472183"><ele>1787.0</ele><time>2026-04-16T00:49:28.001Z</time></trkpt><trkpt lat="36.80681432557565" lon="-108.12816749516038"><ele>1786.8</ele><time>2026-04-16T00:49:29.001Z</time></trkpt><trkpt lat="36.80670676304983" lon="-108.12817349548335"><ele>1786.6</ele><time>2026-04-16T00:49:30.001Z</time></trkpt><trkpt lat="36.806586442139874" lon="-108.12819651174198"><ele>1786.3999999999999</ele><time>2026-04-16T00:49:31.001Z</time></trkpt><trkpt lat="36.806497376741724" lon="-108.12822001353082"><ele>1786.1999999999998</ele><time>2026-04-16T00:49:32.001Z</time></trkpt><trkpt lat="36.80642354243919" lon="-108.12829915261403"><ele>1786.0</ele><time>2026-04-16T00:49:33.001Z</time></trkpt><trkpt lat="36.806321519475915" lon="-108.1284499145442"><ele>1786.5</ele><time>2026-04-16T00:49:34.001Z</time></trkpt><trkpt lat="36.80620932367045" lon="-108.12857533625"><ele>1787.0</ele><time>2026-04-16T00:49:35.001Z</time></trkpt><trkpt lat="36.80609813597165" lon="-108.12859621865172"><ele>1787.5</ele><time>2026-04-16T00:49:36.001Z</time></trkpt><trkpt lat="36.80598765035753" lon="-108.12860890841426"><ele>1788.0</ele><time>2026-04-16T00:49:37.001Z</time></trkpt><trkpt lat="36.80586870043816" lon="-108.12868468447564"><ele>1787.0</ele><time>2026-04-16T00:49:38.001Z</time></trkpt><trkpt lat="36.80576236598866" lon="-108.12877673455179"><ele>1786.0</ele><time>2026-04-16T00:49:39.001Z</time></trkpt><trkpt lat="36.805656719931505" lon="-108.12884427034237"><ele>1785.0</ele><time>2026-04-16T00:49:40.001Z</time></trkpt><trkpt lat="36.80555016299047" lon="-108.12887301508164"><ele>1784.0</ele><time>2026-04-16T00:49:41.001Z</time></trkpt><trkpt lat="36.80545275378113" lon="-108.12890650286434"><ele>1783.9999999999998</ele><time>2026-04-16T00:49:42.001Z</time></trkpt><trkpt lat="36.80536406393789" lon="-108.12894775452156"><ele>1784.0</ele><time>2026-04-16T00:49:43.001Z</time></trkpt><trkpt lat="36.80528558984669" lon="-108.12899490529294"><ele>1784.0</ele><time>2026-04-16T00:49:44.001Z</time></trkpt><trkpt lat="36.805216776349454" lon="-108.12905579164824"><ele>1784.0</ele><time>2026-04-16T00:49:45.001Z</time></trkpt><trkpt lat="36.80515736584057" lon="-108.12912976028082"><ele>1783.9999999999998</ele><time>2026-04-16T00:49:46.002Z</time></trkpt><trkpt lat="36.80509712279468" lon="-108.12918056301618"><ele>1784.0</ele><time>2026-04-16T00:49:47.002Z</time></trkpt><trkpt lat="36.80504408832166" lon="-108.12927580065917"><ele>1782.8333333333333</ele><time>2026-04-16T00:49:49.002Z</time></trkpt><trkpt lat="36.80502954329745" lon="-108.12939856221097"><ele>1781.6666666666665</ele><time>2026-04-16T00:49:50.002Z</time></trkpt><trkpt lat="36.80499383959711" lon="-108.12952117940824"><ele>1780.5</ele><time>2026-04-16T00:49:51.002Z</time></trkpt><trkpt lat="36.804940711524296" lon="-108.12961741250304"><ele>1779.3333333333335</ele><time>2026-04-16T00:49:52.002Z</time></trkpt><trkpt lat="36.80492596139711" lon="-108.12970009704439"><ele>1778.1666666666667</ele><time>2026-04-16T00:49:53.002Z</time></trkpt><trkpt lat="36.804945351875254" lon="-108.12978978272461"><ele>1777.0</ele><time>2026-04-16T00:49:54Z</time></trkpt><trkpt lat="36.804969023816405" lon="-108.12990206488554"><ele>1776.8</ele><time>2026-04-16T00:49:55Z</time></trkpt><trkpt lat="36.8049941752995" lon="-108.13003195869595"><ele>1776.6</ele><time>2026-04-16T00:49:56Z</time></trkpt><trkpt lat="36.805006437823266" lon="-108.13016981881557"><ele>1776.3999999999999</ele><time>2026-04-16T00:49:57Z</time></trkpt><trkpt lat="36.804994240406295" lon="-108.13030855303643"><ele>1776.1999999999998</ele><time>2026-04-16T00:49:58Z</time></trkpt><trkpt lat="36.8049763779212" lon="-108.1304532657307"><ele>1776.0</ele><time>2026-04-16T00:49:59Z</time></trkpt><trkpt lat="36.804973472872256" lon="-108.13059316123133"><ele>1776.25</ele><time>2026-04-16T00:50:00Z</time></trkpt><trkpt lat="36.804987580732735" lon="-108.1307366344273"><ele>1776.5</ele><time>2026-04-16T00:50:01Z</time></trkpt><trkpt lat="36.80499881710798" lon="-108.13089023611383"><ele>1776.75</ele><time>2026-04-16T00:50:02Z</time></trkpt><trkpt lat="36.80499451815906" lon="-108.13104854079384"><ele>1777.0</ele><time>2026-04-16T00:50:03Z</time></trkpt><trkpt lat="36.80498857324425" lon="-108.13121283603543"><ele>1777.0</ele><time>2026-04-16T00:50:04Z</time></trkpt><trkpt lat="36.804988313126415" lon="-108.1313798598363"><ele>1777.0</ele><time>2026-04-16T00:50:05Z</time></trkpt><trkpt lat="36.804989976022924" lon="-108.13154977101502"><ele>1777.0</ele><time>2026-04-16T00:50:06Z</time></trkpt><trkpt lat="36.80499250905929" lon="-108.13171794534138"><ele>1777.0</ele><time>2026-04-16T00:50:07Z</time></trkpt><trkpt lat="36.80499503521283" lon="-108.13187864912571"><ele>1777.25</ele><time>2026-04-16T00:50:08Z</time></trkpt><trkpt lat="36.80499839977632" lon="-108.13204522643974"><ele>1777.5</ele><time>2026-04-16T00:50:09Z</time></trkpt><trkpt lat="36.80499969972165" lon="-108.13220493519547"><ele>1777.75</ele><time>2026-04-16T00:50:10Z</time></trkpt><trkpt lat="36.805002010710815" lon="-108.13233315384684"><ele>1778.0</ele><time>2026-04-16T00:50:11Z</time></trkpt><trkpt lat="36.80500049623744" lon="-108.13244344344606"><ele>1778.6666666666665</ele><time>2026-04-16T00:50:12Z</time></trkpt><trkpt lat="36.80498824182729" lon="-108.13254625375562"><ele>1779.3333333333333</ele><time>2026-04-16T00:50:13Z</time></trkpt><trkpt lat="36.80496929751771" lon="-108.13264627625395"><ele>1780.0</ele><time>2026-04-16T00:50:14Z</time></trkpt><trkpt lat="36.80491826519265" lon="-108.13272047872816"><ele>1780.6666666666665</ele><time>2026-04-16T00:50:15Z</time></trkpt><trkpt lat="36.80483133238722" lon="-108.13276696493685"><ele>1781.3333333333333</ele><time>2026-04-16T00:50:16Z</time></trkpt><trkpt lat="36.80472398786498" lon="-108.13277838782221"><ele>1782.0</ele><time>2026-04-16T00:50:17Z</time></trkpt><trkpt lat="36.80460473724331" lon="-108.13277214999792"><ele>1782.0</ele><time>2026-04-16T00:50:18Z</time></trkpt><trkpt lat="36.804469289894264" lon="-108.13276181733877"><ele>1782.0</ele><time>2026-04-16T00:50:19Z</time></trkpt><trkpt lat="36.80432864801047" lon="-108.13276630205223"><ele>1782.0</ele><time>2026-04-16T00:50:20Z</time></trkpt><trkpt lat="36.804181897473356" lon="-108.1327766596117"><ele>1782.0</ele><time>2026-04-16T00:50:21Z</time></trkpt><trkpt lat="36.80403149507537" lon="-108.13278445633028"><ele>1781.6666666666665</ele><time>2026-04-16T00:50:22Z</time></trkpt><trkpt lat="36.80388370970473" lon="-108.13278277252596"><ele>1781.3333333333333</ele><time>2026-04-16T00:50:23Z</time></trkpt><trkpt lat="36.803722977415376" lon="-108.1327833947657"><ele>1781.0</ele><time>2026-04-16T00:50:24Z</time></trkpt><trkpt lat="36.80355113327899" lon="-108.13279225015137"><ele>1779.3333333333333</ele><time>2026-04-16T00:50:25Z</time></trkpt><trkpt lat="36.80337847909232" lon="-108.13279996410571"><ele>1777.6666666666665</ele><time>2026-04-16T00:50:26Z</time></trkpt><trkpt lat="36.80322786227468" lon="-108.1328090972562"><ele>1776.0</ele><time>2026-04-16T00:50:27Z</time></trkpt><trkpt lat="36.80307614354436" lon="-108.13281247399702"><ele>1776.0</ele><time>2026-04-16T00:50:28Z</time></trkpt><trkpt lat="36.80291282492276" lon="-108.1328083291336"><ele>1776.0</ele><time>2026-04-16T00:50:29Z</time></trkpt><trkpt lat="36.80274986515169" lon="-108.13281070206307"><ele>1776.0</ele><time>2026-04-16T00:50:30.001Z</time></trkpt><trkpt lat="36.80260503372791" lon="-108.1328203548711"><ele>1775.5</ele><time>2026-04-16T00:50:31.001Z</time></trkpt><trkpt lat="36.80246471460996" lon="-108.13283108929318"><ele>1775.0</ele><time>2026-04-16T00:50:32.001Z</time></trkpt><trkpt lat="36.80232260479988" lon="-108.1328575959911"><ele>1774.5</ele><time>2026-04-16T00:50:33.001Z</time></trkpt><trkpt lat="36.802201915047135" lon="-108.1329264056821"><ele>1774.0</ele><time>2026-04-16T00:50:34.001Z</time></trkpt><trkpt lat="36.802100072190306" lon="-108.13299865904223"><ele>1774.0</ele><time>2026-04-16T00:50:35.001Z</time></trkpt><trkpt lat="36.80200997617166" lon="-108.13305304028408"><ele>1774.0</ele><time>2026-04-16T00:50:36.001Z</time></trkpt><trkpt lat="36.8019463749904" lon="-108.13312620483669"><ele>1774.0</ele><time>2026-04-16T00:50:37.001Z</time></trkpt><trkpt lat="36.80189743239841" lon="-108.13318136749541"><ele>1774.0</ele><time>2026-04-16T00:50:38.001Z</time></trkpt><trkpt lat="36.80183763649911" lon="-108.13324351309153"><ele>1774.0</ele><time>2026-04-16T00:50:40.001Z</time></trkpt><trkpt lat="36.801928968198915" lon="-108.13338719663055"><ele>1774.25</ele><time>2026-04-16T00:50:41.001Z</time></trkpt><trkpt lat="36.80200301903623" lon="-108.13347783353795"><ele>1774.5</ele><time>2026-04-16T00:50:42.001Z</time></trkpt><trkpt lat="36.8020720548542" lon="-108.13360271452208"><ele>1774.75</ele><time>2026-04-16T00:50:43.001Z</time></trkpt><trkpt lat="36.802137978735125" lon="-108.13374790151826"><ele>1775.0</ele><time>2026-04-16T00:50:44.001Z</time></trkpt><trkpt lat="36.8021974281757" lon="-108.13391624016361"><ele>1776.0</ele><time>2026-04-16T00:50:45.001Z</time></trkpt><trkpt lat="36.802238010942474" lon="-108.1340831401424"><ele>1777.0</ele><time>2026-04-16T00:50:46.001Z</time></trkpt><trkpt lat="36.802256748911944" lon="-108.13423742876392"><ele>1778.0</ele><time>2026-04-16T00:50:47.001Z</time></trkpt><trkpt lat="36.80226709066295" lon="-108.13440166976955"><ele>1779.0</ele><time>2026-04-16T00:50:48.001Z</time></trkpt><trkpt lat="36.8022710160275" lon="-108.13457208354554"><ele>1779.0</ele><time>2026-04-16T00:50:49.001Z</time></trkpt><trkpt lat="36.80227393799677" lon="-108.13475378705631"><ele>1779.0</ele><time>2026-04-16T00:50:50.001Z</time></trkpt><trkpt lat="36.80227626141178" lon="-108.13494592539787"><ele>1779.0</ele><time>2026-04-16T00:50:51.001Z</time></trkpt><trkpt lat="36.80227578551835" lon="-108.13514984776091"><ele>1779.3333333333335</ele><time>2026-04-16T00:50:52.001Z</time></trkpt><trkpt lat="36.8022714323413" lon="-108.13537143877284"><ele>1779.6666666666667</ele><time>2026-04-16T00:50:53.001Z</time></trkpt><trkpt lat="36.80226875683644" lon="-108.1355956888118"><ele>1780.0</ele><time>2026-04-16T00:50:54.001Z</time></trkpt><trkpt lat="36.802267941466226" lon="-108.13579258883446"><ele>1779.0</ele><time>2026-04-16T00:50:55.001Z</time></trkpt><trkpt lat="36.802269642616785" lon="-108.13597539618925"><ele>1778.0</ele><time>2026-04-16T00:50:56.001Z</time></trkpt><trkpt lat="36.802269833386056" lon="-108.13616057745614"><ele>1777.0</ele><time>2026-04-16T00:50:57.001Z</time></trkpt><trkpt lat="36.802270693038174" lon="-108.13635933347855"><ele>1775.6666666666667</ele><time>2026-04-16T00:50:58.001Z</time></trkpt><trkpt lat="36.80227002426467" lon="-108.13656319130224"><ele>1774.3333333333335</ele><time>2026-04-16T00:50:59.001Z</time></trkpt><trkpt lat="36.80227017502593" lon="-108.13677498047079"><ele>1773.0</ele><time>2026-04-16T00:51:00.001Z</time></trkpt><trkpt lat="36.80226781008537" lon="-108.13696389139143"><ele>1773.0</ele><time>2026-04-16T00:51:01.001Z</time></trkpt><trkpt lat="36.802264659906264" lon="-108.13714209840349"><ele>1773.0</ele><time>2026-04-16T00:51:02.001Z</time></trkpt><trkpt lat="36.802262237660315" lon="-108.13732644083983"><ele>1773.0</ele><time>2026-04-16T00:51:03.001Z</time></trkpt><trkpt lat="36.80226496678525" lon="-108.1375106649577"><ele>1773.0</ele><time>2026-04-16T00:51:04.001Z</time></trkpt><trkpt lat="36.80226543785451" lon="-108.13769644611259"><ele>1772.75</ele><time>2026-04-16T00:51:05.001Z</time></trkpt><trkpt lat="36.80226686867661" lon="-108.1378796217946"><ele>1772.5</ele><time>2026-04-16T00:51:06.001Z</time></trkpt><trkpt lat="36.80226139532461" lon="-108.13804480559398"><ele>1772.25</ele><time>2026-04-16T00:51:07.001Z</time></trkpt><trkpt lat="36.80226163372336" lon="-108.13818351941887"><ele>1772.0</ele><time>2026-04-16T00:51:08.001Z</time></trkpt><trkpt lat="36.802265136972544" lon="-108.13831108493585"><ele>1772.3999999999999</ele><time>2026-04-16T00:51:09.001Z</time></trkpt><trkpt lat="36.80227241515252" lon="-108.1384428856094"><ele>1772.7999999999997</ele><time>2026-04-16T00:51:10.001Z</time></trkpt><trkpt lat="36.802284013460714" lon="-108.13856525208324"><ele>1773.2</ele><time>2026-04-16T00:51:11.001Z</time></trkpt><trkpt lat="36.80227886086466" lon="-108.13866291060943"><ele>1773.6</ele><time>2026-04-16T00:51:12.001Z</time></trkpt><trkpt lat="36.80228249138463" lon="-108.13875976900648"><ele>1774.0</ele><time>2026-04-16T00:51:13.001Z</time></trkpt><trkpt lat="36.80232164294299" lon="-108.13886408247004"><ele>1774.0</ele><time>2026-04-16T00:51:14.001Z</time></trkpt><trkpt lat="36.80235752237512" lon="-108.13897070210507"><ele>1774.0</ele><time>2026-04-16T00:51:16.001Z</time></trkpt><trkpt lat="36.80221724162574" lon="-108.13893268581886"><ele>1774.0</ele><time>2026-04-16T00:51:18.001Z</time></trkpt><trkpt lat="36.802126663820964" lon="-108.13893534272093"><ele>1774.0</ele><time>2026-04-16T00:51:19.001Z</time></trkpt><trkpt lat="36.802058806261805" lon="-108.13892442635971"><ele>1774.0</ele><time>2026-04-16T00:51:20.001Z</time></trkpt><trkpt lat="36.80197044673401" lon="-108.13888719169756"><ele>1774.0</ele><time>2026-04-16T00:51:21.001Z</time></trkpt><trkpt lat="36.80185337220279" lon="-108.13888530980884"><ele>1774.0</ele><time>2026-04-16T00:51:22.001Z</time></trkpt><trkpt lat="36.80172237331284" lon="-108.13890594893019"><ele>1774.0</ele><time>2026-04-16T00:51:23.001Z</time></trkpt><trkpt lat="36.801586707016625" lon="-108.13892575636133"><ele>1774.0</ele><time>2026-04-16T00:51:24.001Z</time></trkpt><trkpt lat="36.80143559583093" lon="-108.13893012545674"><ele>1774.0</ele><time>2026-04-16T00:51:25.001Z</time></trkpt><trkpt lat="36.801284237721866" lon="-108.13892171510277"><ele>1774.0</ele><time>2026-04-16T00:51:26.001Z</time></trkpt><trkpt lat="36.80112319552085" lon="-108.13892383243314"><ele>1774.0</ele><time>2026-04-16T00:51:27.001Z</time></trkpt><trkpt lat="36.800952617483986" lon="-108.13893225072994"><ele>1773.3333333333335</ele><time>2026-04-16T00:51:28.001Z</time></trkpt><trkpt lat="36.800788794559004" lon="-108.13893956095943"><ele>1772.6666666666665</ele><time>2026-04-16T00:51:29.001Z</time></trkpt><trkpt lat="36.80063434748436" lon="-108.13894227424721"><ele>1772.0</ele><time>2026-04-16T00:51:30.001Z</time></trkpt><trkpt lat="36.80047096174086" lon="-108.13894596898515"><ele>1772.0</ele><time>2026-04-16T00:51:31.001Z</time></trkpt><trkpt lat="36.80030073172303" lon="-108.13895045610167"><ele>1772.0</ele><time>2026-04-16T00:51:32.001Z</time></trkpt><trkpt lat="36.80013393941892" lon="-108.13895593078904"><ele>1772.0</ele><time>2026-04-16T00:51:33.001Z</time></trkpt><trkpt lat="36.79997572389373" lon="-108.13896241666069"><ele>1770.6666666666665</ele><time>2026-04-16T00:51:34.001Z</time></trkpt><trkpt lat="36.79981854866597" lon="-108.13897352019154"><ele>1769.3333333333335</ele><time>2026-04-16T00:51:35.001Z</time></trkpt><trkpt lat="36.79965891856298" lon="-108.13898321852294"><ele>1768.0</ele><time>2026-04-16T00:51:36.001Z</time></trkpt><trkpt lat="36.799498134089404" lon="-108.13898940332905"><ele>1768.0</ele><time>2026-04-16T00:51:37.001Z</time></trkpt><trkpt lat="36.79933526927405" lon="-108.13899576075605"><ele>1768.0</ele><time>2026-04-16T00:51:38.001Z</time></trkpt><trkpt lat="36.79919552815933" lon="-108.1389940582542"><ele>1768.0</ele><time>2026-04-16T00:51:39.001Z</time></trkpt><trkpt lat="36.79905565864209" lon="-108.13899705636472"><ele>1768.0</ele><time>2026-04-16T00:51:40.001Z</time></trkpt><trkpt lat="36.798906226777305" lon="-108.13899970358379"><ele>1767.6666666666667</ele><time>2026-04-16T00:51:41.001Z</time></trkpt><trkpt lat="36.79875226024609" lon="-108.1390017314557"><ele>1767.3333333333335</ele><time>2026-04-16T00:51:42.001Z</time></trkpt><trkpt lat="36.79859377625575" lon="-108.13900411673185"><ele>1767.0</ele><time>2026-04-16T00:51:43.001Z</time></trkpt><trkpt lat="36.79843187138359" lon="-108.13900788773145"><ele>1766.3333333333335</ele><time>2026-04-16T00:51:44.001Z</time></trkpt><trkpt lat="36.79826772214714" lon="-108.1390133735351"><ele>1765.6666666666667</ele><time>2026-04-16T00:51:45.001Z</time></trkpt><trkpt lat="36.79812368212359" lon="-108.13901781491256"><ele>1765.0</ele><time>2026-04-16T00:51:46.001Z</time></trkpt><trkpt lat="36.79797107166088" lon="-108.13902071096106"><ele>1765.0</ele><time>2026-04-16T00:51:47.001Z</time></trkpt><trkpt lat="36.797813558836765" lon="-108.1390208767334"><ele>1765.0</ele><time>2026-04-16T00:51:48.001Z</time></trkpt><trkpt lat="36.797655807892326" lon="-108.13902086379142"><ele>1765.0</ele><time>2026-04-16T00:51:49.001Z</time></trkpt><trkpt lat="36.7975069247941" lon="-108.13902268869685"><ele>1765.3333333333335</ele><time>2026-04-16T00:51:50.001Z</time></trkpt><trkpt lat="36.79735330691378" lon="-108.13902528790356"><ele>1765.6666666666665</ele><time>2026-04-16T00:51:51.001Z</time></trkpt><trkpt lat="36.79718811497532" lon="-108.13903125627573"><ele>1766.0</ele><time>2026-04-16T00:51:52.002Z</time></trkpt><trkpt lat="36.797024525595226" lon="-108.13903736063355"><ele>1766.0</ele><time>2026-04-16T00:51:53.002Z</time></trkpt><trkpt lat="36.796871087144865" lon="-108.1390423637354"><ele>1766.0</ele><time>2026-04-16T00:51:54.002Z</time></trkpt><trkpt lat="36.79672029508662" lon="-108.13904872636013"><ele>1766.0</ele><time>2026-04-16T00:51:55.002Z</time></trkpt><trkpt lat="36.79657542809466" lon="-108.13905721312446"><ele>1766.0</ele><time>2026-04-16T00:51:56.002Z</time></trkpt><trkpt lat="36.796435016770346" lon="-108.13906874246098"><ele>1765.75</ele><time>2026-04-16T00:51:57.002Z</time></trkpt><trkpt lat="36.796296006865724" lon="-108.1390774352662"><ele>1765.5</ele><time>2026-04-16T00:51:58.002Z</time></trkpt><trkpt lat="36.79614653347314" lon="-108.13908056306063"><ele>1765.25</ele><time>2026-04-16T00:51:59.002Z</time></trkpt><trkpt lat="36.79598798133555" lon="-108.13908047371059"><ele>1765.0</ele><time>2026-04-16T00:52:00Z</time></trkpt><trkpt lat="36.79582669812084" lon="-108.1390813593184"><ele>1763.0</ele><time>2026-04-16T00:52:01Z</time></trkpt><trkpt lat="36.79567978890268" lon="-108.13908303071305"><ele>1761.0</ele><time>2026-04-16T00:52:02Z</time></trkpt><trkpt lat="36.79552140569179" lon="-108.13908330089242"><ele>1759.0</ele><time>2026-04-16T00:52:03Z</time></trkpt><trkpt lat="36.795351689074955" lon="-108.13908343528094"><ele>1759.0</ele><time>2026-04-16T00:52:04Z</time></trkpt><trkpt lat="36.79518002746618" lon="-108.13907865212433"><ele>1759.0</ele><time>2026-04-16T00:52:05Z</time></trkpt><trkpt lat="36.79501967337387" lon="-108.13906446668477"><ele>1759.0</ele><time>2026-04-16T00:52:06Z</time></trkpt><trkpt lat="36.794866924443646" lon="-108.13905449510128"><ele>1759.0</ele><time>2026-04-16T00:52:07Z</time></trkpt><trkpt lat="36.79470168437677" lon="-108.13905638084071"><ele>1759.0</ele><time>2026-04-16T00:52:08Z</time></trkpt><trkpt lat="36.79453327482134" lon="-108.13906457205893"><ele>1759.0</ele><time>2026-04-16T00:52:09Z</time></trkpt><trkpt lat="36.79436021287417" lon="-108.13906635897298"><ele>1759.0</ele><time>2026-04-16T00:52:10Z</time></trkpt><trkpt lat="36.79418895779559" lon="-108.13906540538397"><ele>1759.0</ele><time>2026-04-16T00:52:11Z</time></trkpt><trkpt lat="36.79402188814644" lon="-108.13906490271263"><ele>1759.0</ele><time>2026-04-16T00:52:12Z</time></trkpt><trkpt lat="36.793868051303434" lon="-108.13906809957942"><ele>1759.0</ele><time>2026-04-16T00:52:13Z</time></trkpt><trkpt lat="36.793715713617445" lon="-108.13907180950494"><ele>1759.0</ele><time>2026-04-16T00:52:14Z</time></trkpt><trkpt lat="36.79355809496591" lon="-108.1390745973201"><ele>1759.0</ele><time>2026-04-16T00:52:15Z</time></trkpt><trkpt lat="36.79339823253005" lon="-108.13907883162756"><ele>1759.0</ele><time>2026-04-16T00:52:16Z</time></trkpt><trkpt lat="36.793234913653244" lon="-108.13908441938449"><ele>1759.0</ele><time>2026-04-16T00:52:17Z</time></trkpt><trkpt lat="36.793078111012434" lon="-108.13908500937136"><ele>1759.0</ele><time>2026-04-16T00:52:18Z</time></trkpt><trkpt lat="36.79293138452279" lon="-108.13908844617514"><ele>1759.0</ele><time>2026-04-16T00:52:19Z</time></trkpt><trkpt lat="36.79276691387562" lon="-108.13908802722739"><ele>1759.0</ele><time>2026-04-16T00:52:20Z</time></trkpt><trkpt lat="36.7925918767934" lon="-108.1390905902297"><ele>1759.0</ele><time>2026-04-16T00:52:21Z</time></trkpt><trkpt lat="36.792433158336365" lon="-108.1390953597682"><ele>1758.75</ele><time>2026-04-16T00:52:22Z</time></trkpt><trkpt lat="36.79229220441292" lon="-108.13909827690391"><ele>1758.5</ele><time>2026-04-16T00:52:23Z</time></trkpt><trkpt lat="36.79216043271983" lon="-108.13910051316287"><ele>1758.25</ele><time>2026-04-16T00:52:24Z</time></trkpt><trkpt lat="36.792035961534665" lon="-108.13910407309557"><ele>1758.0</ele><time>2026-04-16T00:52:25Z</time></trkpt><trkpt lat="36.79190855691999" lon="-108.13910473536438"><ele>1757.2</ele><time>2026-04-16T00:52:26Z</time></trkpt><trkpt lat="36.791787536313365" lon="-108.13910754538198"><ele>1756.4</ele><time>2026-04-16T00:52:27Z</time></trkpt><trkpt lat="36.79169175290544" lon="-108.13911758003684"><ele>1755.6000000000001</ele><time>2026-04-16T00:52:28Z</time></trkpt><trkpt lat="36.79160647899912" lon="-108.13914342639731"><ele>1754.8000000000002</ele><time>2026-04-16T00:52:29Z</time></trkpt><trkpt lat="36.79151915429417" lon="-108.13919036135844"><ele>1754.0</ele><time>2026-04-16T00:52:30Z</time></trkpt><trkpt lat="36.791446644543704" lon="-108.13922043129321"><ele>1754.0</ele><time>2026-04-16T00:52:31Z</time></trkpt><trkpt lat="36.791376406228714" lon="-108.13919841090265"><ele>1754.0</ele><time>2026-04-16T00:52:32Z</time></trkpt><trkpt lat="36.79128385991287" lon="-108.13913512841329"><ele>1754.0</ele><time>2026-04-16T00:52:33Z</time></trkpt><trkpt lat="36.79116701018962" lon="-108.13910336869687"><ele>1754.0</ele><time>2026-04-16T00:52:34Z</time></trkpt><trkpt lat="36.791038926695904" lon="-108.13909550245371"><ele>1754.0</ele><time>2026-04-16T00:52:35.001Z</time></trkpt><trkpt lat="36.790892189746856" lon="-108.13909972538775"><ele>1752.3333333333333</ele><time>2026-04-16T00:52:36.001Z</time></trkpt><trkpt lat="36.790731514999166" lon="-108.13911091974838"><ele>1750.6666666666665</ele><time>2026-04-16T00:52:37.001Z</time></trkpt><trkpt lat="36.79056009805961" lon="-108.13911621725578"><ele>1749.0</ele><time>2026-04-16T00:52:38.001Z</time></trkpt><trkpt lat="36.79039560655835" lon="-108.13911363611317"><ele>1749.0</ele><time>2026-04-16T00:52:39.001Z</time></trkpt><trkpt lat="36.79023418524836" lon="-108.13911642716782"><ele>1749.0</ele><time>2026-04-16T00:52:40.001Z</time></trkpt><trkpt lat="36.790074564722396" lon="-108.1391197210704"><ele>1749.0</ele><time>2026-04-16T00:52:41.001Z</time></trkpt><trkpt lat="36.78991755436514" lon="-108.13912183948199"><ele>1747.3333333333335</ele><time>2026-04-16T00:52:42.001Z</time></trkpt><trkpt lat="36.78976320870221" lon="-108.13912396648263"><ele>1745.6666666666667</ele><time>2026-04-16T00:52:43.001Z</time></trkpt><trkpt lat="36.789607951362214" lon="-108.13912768603213"><ele>1744.0</ele><time>2026-04-16T00:52:44.001Z</time></trkpt><trkpt lat="36.78943638420858" lon="-108.13912816671811"><ele>1742.0</ele><time>2026-04-16T00:52:45.001Z</time></trkpt><trkpt lat="36.78926361961867" lon="-108.1391263490482"><ele>1740.0</ele><time>2026-04-16T00:52:46.001Z</time></trkpt><trkpt lat="36.789108046528796" lon="-108.13912317111374"><ele>1738.0</ele><time>2026-04-16T00:52:47.001Z</time></trkpt><trkpt lat="36.78894989977632" lon="-108.13912351191627"><ele>1738.0</ele><time>2026-04-16T00:52:48.001Z</time></trkpt><trkpt lat="36.78877930916113" lon="-108.13912687867156"><ele>1738.0</ele><time>2026-04-16T00:52:49.001Z</time></trkpt><trkpt lat="36.7886049291145" lon="-108.13912760146113"><ele>1738.0</ele><time>2026-04-16T00:52:50.001Z</time></trkpt><trkpt lat="36.78843033971511" lon="-108.13912505620566"><ele>1737.3333333333335</ele><time>2026-04-16T00:52:51.001Z</time></trkpt><trkpt lat="36.7882621592328" lon="-108.13912579969518"><ele>1736.6666666666665</ele><time>2026-04-16T00:52:52.001Z</time></trkpt><trkpt lat="36.78810526791677" lon="-108.1391350025896"><ele>1736.0</ele><time>2026-04-16T00:52:53.001Z</time></trkpt><trkpt lat="36.78794135880018" lon="-108.1391379928599"><ele>1736.0</ele><time>2026-04-16T00:52:54.001Z</time></trkpt><trkpt lat="36.787791131058285" lon="-108.13914243816053"><ele>1736.0</ele><time>2026-04-16T00:52:55.001Z</time></trkpt><trkpt lat="36.78763736669435" lon="-108.13914503004555"><ele>1736.0</ele><time>2026-04-16T00:52:56.001Z</time></trkpt><trkpt lat="36.78747234524203" lon="-108.13914711303701"><ele>1735.3333333333333</ele><time>2026-04-16T00:52:57.001Z</time></trkpt><trkpt lat="36.787303586674156" lon="-108.13915196464936"><ele>1734.6666666666665</ele><time>2026-04-16T00:52:58.001Z</time></trkpt><trkpt lat="36.78712965789841" lon="-108.13915857697192"><ele>1734.0</ele><time>2026-04-16T00:52:59.001Z</time></trkpt><trkpt lat="36.786959656821054" lon="-108.13916419809688"><ele>1733.0</ele><time>2026-04-16T00:53:00.001Z</time></trkpt><trkpt lat="36.786806505981474" lon="-108.13916547193061"><ele>1732.0</ele><time>2026-04-16T00:53:01.001Z</time></trkpt><trkpt lat="36.78664190133893" lon="-108.13916909684774"><ele>1731.0</ele><time>2026-04-16T00:53:02.001Z</time></trkpt><trkpt lat="36.78647430762793" lon="-108.13917422374193"><ele>1731.0</ele><time>2026-04-16T00:53:03.001Z</time></trkpt><trkpt lat="36.78631404168236" lon="-108.13917930881134"><ele>1731.0</ele><time>2026-04-16T00:53:04.001Z</time></trkpt><trkpt lat="36.78615115051015" lon="-108.1391800706153"><ele>1731.0</ele><time>2026-04-16T00:53:05.001Z</time></trkpt><trkpt lat="36.785998242833045" lon="-108.13917625377321"><ele>1730.3333333333335</ele><time>2026-04-16T00:53:06.001Z</time></trkpt><trkpt lat="36.785841436935854" lon="-108.1391778635778"><ele>1729.6666666666667</ele><time>2026-04-16T00:53:07.001Z</time></trkpt><trkpt lat="36.78567349795203" lon="-108.13918228392619"><ele>1729.0</ele><time>2026-04-16T00:53:08.001Z</time></trkpt><trkpt lat="36.785513269016995" lon="-108.1391845532757"><ele>1729.0</ele><time>2026-04-16T00:53:09.001Z</time></trkpt><trkpt lat="36.78536010448103" lon="-108.13918430572934"><ele>1729.0</ele><time>2026-04-16T00:53:10.001Z</time></trkpt><trkpt lat="36.78519876405284" lon="-108.13918699905386"><ele>1729.0</ele><time>2026-04-16T00:53:11.001Z</time></trkpt><trkpt lat="36.78503463851297" lon="-108.13919091677107"><ele>1727.6666666666667</ele><time>2026-04-16T00:53:12.001Z</time></trkpt><trkpt lat="36.78487010868469" lon="-108.1391974395179"><ele>1726.3333333333335</ele><time>2026-04-16T00:53:13.001Z</time></trkpt><trkpt lat="36.78471484503414" lon="-108.139207885388"><ele>1725.0</ele><time>2026-04-16T00:53:14.001Z</time></trkpt><trkpt lat="36.78455141049864" lon="-108.13920895459921"><ele>1725.0</ele><time>2026-04-16T00:53:15.001Z</time></trkpt><trkpt lat="36.78438615353824" lon="-108.13919902949092"><ele>1725.0</ele><time>2026-04-16T00:53:16.001Z</time></trkpt><trkpt lat="36.784238415689885" lon="-108.13920042552722"><ele>1725.0</ele><time>2026-04-16T00:53:17.001Z</time></trkpt><trkpt lat="36.784085132665815" lon="-108.13920682816337"><ele>1723.6666666666665</ele><time>2026-04-16T00:53:18.001Z</time></trkpt><trkpt lat="36.78392157458862" lon="-108.13920772482366"><ele>1722.3333333333333</ele><time>2026-04-16T00:53:19.001Z</time></trkpt><trkpt lat="36.78375746289591" lon="-108.13920763491696"><ele>1721.0</ele><time>2026-04-16T00:53:20.001Z</time></trkpt><trkpt lat="36.783610256356106" lon="-108.13921243609646"><ele>1720.5</ele><time>2026-04-16T00:53:21.001Z</time></trkpt><trkpt lat="36.783459616112026" lon="-108.13921940698296"><ele>1720.0</ele><time>2026-04-16T00:53:22.001Z</time></trkpt><trkpt lat="36.78330903501064" lon="-108.1392194644982"><ele>1719.5</ele><time>2026-04-16T00:53:23.001Z</time></trkpt><trkpt lat="36.78316187509548" lon="-108.13921741743982"><ele>1719.0</ele><time>2026-04-16T00:53:24.001Z</time></trkpt><trkpt lat="36.783009923866274" lon="-108.13921594392106"><ele>1719.0</ele><time>2026-04-16T00:53:25.001Z</time></trkpt><trkpt lat="36.782858590323535" lon="-108.13921947391906"><ele>1719.0</ele><time>2026-04-16T00:53:26.001Z</time></trkpt><trkpt lat="36.782710662076745" lon="-108.13922630148998"><ele>1719.0</ele><time>2026-04-16T00:53:27.001Z</time></trkpt><trkpt lat="36.78255720862086" lon="-108.13922726856613"><ele>1718.0</ele><time>2026-04-16T00:53:28.001Z</time></trkpt><trkpt lat="36.78239483470025" lon="-108.1392259636946"><ele>1717.0</ele><time>2026-04-16T00:53:29.001Z</time></trkpt><trkpt lat="36.78222765490432" lon="-108.13923274934129"><ele>1716.0</ele><time>2026-04-16T00:53:30.001Z</time></trkpt><trkpt lat="36.78205979667589" lon="-108.13923384301326"><ele>1716.0</ele><time>2026-04-16T00:53:31.001Z</time></trkpt><trkpt lat="36.78191025127417" lon="-108.13923190069448"><ele>1716.0</ele><time>2026-04-16T00:53:32.001Z</time></trkpt><trkpt lat="36.78176262639394" lon="-108.13922855769525"><ele>1716.0</ele><time>2026-04-16T00:53:33.001Z</time></trkpt><trkpt lat="36.78160542672877" lon="-108.13922621282804"><ele>1715.0</ele><time>2026-04-16T00:53:34.001Z</time></trkpt><trkpt lat="36.78144359242149" lon="-108.1392235560625"><ele>1714.0</ele><time>2026-04-16T00:53:35.001Z</time></trkpt><trkpt lat="36.781274987943576" lon="-108.13922212695967"><ele>1713.0</ele><time>2026-04-16T00:53:36.001Z</time></trkpt><trkpt lat="36.78110870737777" lon="-108.13922390710934"><ele>1711.0</ele><time>2026-04-16T00:53:37.001Z</time></trkpt><trkpt lat="36.780960362346974" lon="-108.13922495270734"><ele>1709.0</ele><time>2026-04-16T00:53:38.001Z</time></trkpt><trkpt lat="36.780793192916185" lon="-108.13922472785073"><ele>1707.0</ele><time>2026-04-16T00:53:39.001Z</time></trkpt><trkpt lat="36.780622709522696" lon="-108.13922984261035"><ele>1707.0</ele><time>2026-04-16T00:53:40.001Z</time></trkpt><trkpt lat="36.78046431596502" lon="-108.13923568104643"><ele>1707.0</ele><time>2026-04-16T00:53:41.001Z</time></trkpt><trkpt lat="36.780301400724426" lon="-108.13923794387462"><ele>1707.0</ele><time>2026-04-16T00:53:42.001Z</time></trkpt><trkpt lat="36.78014086695988" lon="-108.13923826789299"><ele>1706.0</ele><time>2026-04-16T00:53:43.001Z</time></trkpt><trkpt lat="36.77998172671614" lon="-108.13923805628767"><ele>1706.0</ele><time>2026-04-16T00:53:44.001Z</time></trkpt><trkpt lat="36.779820683697054" lon="-108.13924214803082"><ele>1706.0</ele><time>2026-04-16T00:53:45.001Z</time></trkpt></trkseg></trk></gpx>